<?xml version='1.0' encoding='UTF-8'?><gpx version="1.1" creator="JPX - https://github.com/jenetics/jpx" xmlns="http://www.topografix.com/GPX/1/1"><trk><trkseg><trkpt lat="45.90902449922431" lon="11.908166249200038"><ele>294.0</ele><time>2026-04-26T07:16:33.001Z</time></trkpt><trkpt lat="45.90905457332478" lon="11.908253903734337"><ele>294.0</ele><time>2026-04-26T07:16:35Z</time></trkpt><trkpt lat="45.90909358042208" lon="11.908378097867166"><ele>294.0</ele><time>2026-04-26T07:16:37Z</time></trkpt><trkpt lat="45.9091131631588" lon="11.908493816087173"><ele>294.0</ele><time>2026-04-26T07:16:39Z</time></trkpt><trkpt lat="45.90906555843587" lon="11.908587191478262"><ele>294.0</ele><time>2026-04-26T07:16:40Z</time></trkpt><trkpt lat="45.908956603884214" lon="11.908673838529825"><ele>293.4</ele><time>2026-04-26T07:16:42Z</time></trkpt><trkpt lat="45.908878801110845" lon="11.90871563726616"><ele>292.79999999999995</ele><time>2026-04-26T07:16:43Z</time></trkpt><trkpt lat="45.90880519416731" lon="11.908724325074513"><ele>292.20000000000005</ele><time>2026-04-26T07:16:44Z</time></trkpt><trkpt lat="45.90871535523572" lon="11.908753175852048"><ele>291.6</ele><time>2026-04-26T07:16:45Z</time></trkpt><trkpt lat="45.9086179609491" lon="11.908797838574896"><ele>291.0</ele><time>2026-04-26T07:16:46Z</time></trkpt><trkpt lat="45.908521063056725" lon="11.908843527824686"><ele>292.0</ele><time>2026-04-26T07:16:47Z</time></trkpt><trkpt lat="45.908406040353256" lon="11.908899433307061"><ele>293.0</ele><time>2026-04-26T07:16:48Z</time></trkpt><trkpt lat="45.90831064487452" lon="11.90894361517146"><ele>294.0</ele><time>2026-04-26T07:16:49Z</time></trkpt><trkpt lat="45.90822418401597" lon="11.908956087566303"><ele>295.0</ele><time>2026-04-26T07:16:50Z</time></trkpt><trkpt lat="45.90814386141529" lon="11.908992871373988"><ele>296.0</ele><time>2026-04-26T07:16:51Z</time></trkpt><trkpt lat="45.908073746266886" lon="11.909035406244083"><ele>296.0</ele><time>2026-04-26T07:16:52Z</time></trkpt><trkpt lat="45.908003173204726" lon="11.909068647928734"><ele>296.0</ele><time>2026-04-26T07:16:56Z</time></trkpt><trkpt lat="45.90800828031376" lon="11.909241411086192"><ele>296.0</ele><time>2026-04-26T07:16:58Z</time></trkpt><trkpt lat="45.90804177930679" lon="11.90935505925371"><ele>296.0</ele><time>2026-04-26T07:16:59Z</time></trkpt><trkpt lat="45.90807751710817" lon="11.909500494427116"><ele>296.0</ele><time>2026-04-26T07:17:00Z</time></trkpt><trkpt lat="45.90811819686099" lon="11.909624551084102"><ele>295.2</ele><time>2026-04-26T07:17:00.999Z</time></trkpt><trkpt lat="45.90815715370038" lon="11.909755964771193"><ele>294.40000000000003</ele><time>2026-04-26T07:17:01.999Z</time></trkpt><trkpt lat="45.9081931598215" lon="11.909890462028034"><ele>293.6</ele><time>2026-04-26T07:17:02.999Z</time></trkpt><trkpt lat="45.908236608753214" lon="11.910040152551865"><ele>292.8</ele><time>2026-04-26T07:17:03.999Z</time></trkpt><trkpt lat="45.908264961974595" lon="11.910174859021353"><ele>292.0</ele><time>2026-04-26T07:17:04.999Z</time></trkpt><trkpt lat="45.90829808674078" lon="11.910320292960602"><ele>291.4</ele><time>2026-04-26T07:17:05.999Z</time></trkpt><trkpt lat="45.908316611554255" lon="11.910420584212988"><ele>290.79999999999995</ele><time>2026-04-26T07:17:06.999Z</time></trkpt><trkpt lat="45.908350665939835" lon="11.910554140182114"><ele>290.2</ele><time>2026-04-26T07:17:07.999Z</time></trkpt><trkpt lat="45.90838235724752" lon="11.91067842831025"><ele>289.59999999999997</ele><time>2026-04-26T07:17:08.999Z</time></trkpt><trkpt lat="45.90841777791059" lon="11.910817342548945"><ele>289.0</ele><time>2026-04-26T07:17:09.999Z</time></trkpt><trkpt lat="45.90845701992959" lon="11.910971243382571"><ele>287.2</ele><time>2026-04-26T07:17:10.999Z</time></trkpt><trkpt lat="45.90849867184681" lon="11.911134596067264"><ele>285.4</ele><time>2026-04-26T07:17:11.999Z</time></trkpt><trkpt lat="45.90854000516018" lon="11.911306661886416"><ele>283.6</ele><time>2026-04-26T07:17:12.999Z</time></trkpt><trkpt lat="45.908572400384124" lon="11.911424792729422"><ele>281.8</ele><time>2026-04-26T07:17:13.999Z</time></trkpt><trkpt lat="45.90860149920357" lon="11.91158128630437"><ele>280.0</ele><time>2026-04-26T07:17:14.999Z</time></trkpt><trkpt lat="45.90865412271222" lon="11.911737570007649"><ele>279.25</ele><time>2026-04-26T07:17:15.999Z</time></trkpt><trkpt lat="45.908679624078985" lon="11.911900977954637"><ele>278.5</ele><time>2026-04-26T07:17:16.999Z</time></trkpt><trkpt lat="45.908689889488926" lon="11.912084829803481"><ele>277.75</ele><time>2026-04-26T07:17:17.999Z</time></trkpt><trkpt lat="45.90871346985677" lon="11.912275927226519"><ele>277.0</ele><time>2026-04-26T07:17:18.999Z</time></trkpt><trkpt lat="45.90874029810666" lon="11.912457611304282"><ele>276.5</ele><time>2026-04-26T07:17:19.999Z</time></trkpt><trkpt lat="45.908766421810896" lon="11.912628116270692"><ele>276.0</ele><time>2026-04-26T07:17:20.999Z</time></trkpt><trkpt lat="45.90881727766333" lon="11.912802736292832"><ele>275.5</ele><time>2026-04-26T07:17:21.999Z</time></trkpt><trkpt lat="45.90885079915558" lon="11.912969649831414"><ele>275.0</ele><time>2026-04-26T07:17:22.999Z</time></trkpt><trkpt lat="45.90888102133468" lon="11.913144841687755"><ele>275.0</ele><time>2026-04-26T07:17:23.999Z</time></trkpt><trkpt lat="45.90890161431417" lon="11.913304147772703"><ele>275.0</ele><time>2026-04-26T07:17:24.999Z</time></trkpt><trkpt lat="45.90893046866405" lon="11.913444261207307"><ele>275.0</ele><time>2026-04-26T07:17:25.999Z</time></trkpt><trkpt lat="45.90895811196901" lon="11.913577371770575"><ele>275.0</ele><time>2026-04-26T07:17:26.999Z</time></trkpt><trkpt lat="45.908989216976074" lon="11.913722621088759"><ele>275.0</ele><time>2026-04-26T07:17:27.999Z</time></trkpt><trkpt lat="45.9090196025647" lon="11.913864513520823"><ele>274.4</ele><time>2026-04-26T07:17:28.999Z</time></trkpt><trkpt lat="45.90906369511386" lon="11.913996128767243"><ele>273.8</ele><time>2026-04-26T07:17:29.999Z</time></trkpt><trkpt lat="45.90910008931844" lon="11.914122029481392"><ele>273.2</ele><time>2026-04-26T07:17:30.999Z</time></trkpt><trkpt lat="45.90917141721056" lon="11.914207131287133"><ele>272.6</ele><time>2026-04-26T07:17:31.999Z</time></trkpt><trkpt lat="45.90924101938462" lon="11.914256569889393"><ele>272.0</ele><time>2026-04-26T07:17:32.999Z</time></trkpt><trkpt lat="45.90932549390582" lon="11.914296942926866"><ele>270.83333333333337</ele><time>2026-04-26T07:17:33.999Z</time></trkpt><trkpt lat="45.909412416965544" lon="11.914352022501252"><ele>269.6666666666667</ele><time>2026-04-26T07:17:34.999Z</time></trkpt><trkpt lat="45.90949613687659" lon="11.914410922757488"><ele>268.5</ele><time>2026-04-26T07:17:35.999Z</time></trkpt><trkpt lat="45.9095815423714" lon="11.914422210351942"><ele>267.3333333333333</ele><time>2026-04-26T07:17:36.999Z</time></trkpt><trkpt lat="45.90965473393036" lon="11.914437496181797"><ele>266.16666666666663</ele><time>2026-04-26T07:17:37.999Z</time></trkpt><trkpt lat="45.909735921241136" lon="11.914476207212767"><ele>265.0</ele><time>2026-04-26T07:17:38.999Z</time></trkpt><trkpt lat="45.9098214679373" lon="11.91450561167211"><ele>265.0</ele><time>2026-04-26T07:17:39.999Z</time></trkpt><trkpt lat="45.90992385473616" lon="11.914523157220632"><ele>265.0</ele><time>2026-04-26T07:17:40.999Z</time></trkpt><trkpt lat="45.910061687933165" lon="11.914528817090543"><ele>265.0</ele><time>2026-04-26T07:17:41.999Z</time></trkpt><trkpt lat="45.91019142154851" lon="11.914532124752379"><ele>265.0</ele><time>2026-04-26T07:17:42.999Z</time></trkpt><trkpt lat="45.91032829573354" lon="11.914534194664558"><ele>263.0</ele><time>2026-04-26T07:17:43.999Z</time></trkpt><trkpt lat="45.91046752095" lon="11.914558243821364"><ele>261.0</ele><time>2026-04-26T07:17:44.999Z</time></trkpt><trkpt lat="45.91057880819608" lon="11.91452319232016"><ele>259.0</ele><time>2026-04-26T07:17:45.999Z</time></trkpt><trkpt lat="45.910706039089526" lon="11.914531095437013"><ele>257.0</ele><time>2026-04-26T07:17:46.999Z</time></trkpt><trkpt lat="45.91084213647576" lon="11.914576351375102"><ele>258.0</ele><time>2026-04-26T07:17:47.999Z</time></trkpt><trkpt lat="45.91096793648518" lon="11.91466413901172"><ele>259.0</ele><time>2026-04-26T07:17:48.999Z</time></trkpt><trkpt lat="45.91107753329759" lon="11.914719965464865"><ele>260.0</ele><time>2026-04-26T07:17:49.999Z</time></trkpt><trkpt lat="45.9111725909122" lon="11.914790446597605"><ele>261.0</ele><time>2026-04-26T07:17:50.999Z</time></trkpt><trkpt lat="45.911258159956894" lon="11.914899574775411"><ele>261.0</ele><time>2026-04-26T07:17:51.999Z</time></trkpt><trkpt lat="45.911345575455854" lon="11.915001912177381"><ele>261.0</ele><time>2026-04-26T07:17:52.999Z</time></trkpt><trkpt lat="45.91139249021899" lon="11.915152560139484"><ele>261.0</ele><time>2026-04-26T07:17:53.999Z</time></trkpt><trkpt lat="45.911399046650686" lon="11.915331539019475"><ele>261.0</ele><time>2026-04-26T07:17:54.999Z</time></trkpt><trkpt lat="45.91140828147243" lon="11.915511076761502"><ele>261.75</ele><time>2026-04-26T07:17:55.999Z</time></trkpt><trkpt lat="45.91138756115494" lon="11.915690491251583"><ele>262.5</ele><time>2026-04-26T07:17:56.999Z</time></trkpt><trkpt lat="45.911292465555384" lon="11.915903259790293"><ele>263.25</ele><time>2026-04-26T07:17:57.999Z</time></trkpt><trkpt lat="45.91122859880341" lon="11.916085075821309"><ele>264.0</ele><time>2026-04-26T07:17:58.999Z</time></trkpt><trkpt lat="45.9111652267375" lon="11.916258737686865"><ele>264.0</ele><time>2026-04-26T07:17:59.999Z</time></trkpt><trkpt lat="45.91106624715423" lon="11.916412653295568"><ele>264.0</ele><time>2026-04-26T07:18:00.999Z</time></trkpt><trkpt lat="45.91098847691082" lon="11.916565431827527"><ele>264.0</ele><time>2026-04-26T07:18:01.998Z</time></trkpt><trkpt lat="45.9109065094973" lon="11.916726974452617"><ele>264.0</ele><time>2026-04-26T07:18:02.998Z</time></trkpt><trkpt lat="45.910829920168275" lon="11.916910259414081"><ele>260.3333333333333</ele><time>2026-04-26T07:18:03.998Z</time></trkpt><trkpt lat="45.91073811467706" lon="11.917090911886836"><ele>256.66666666666663</ele><time>2026-04-26T07:18:04.998Z</time></trkpt><trkpt lat="45.91065073495864" lon="11.917275496857124"><ele>253.0</ele><time>2026-04-26T07:18:05.998Z</time></trkpt><trkpt lat="45.91057982818487" lon="11.917478076749754"><ele>253.25</ele><time>2026-04-26T07:18:06.998Z</time></trkpt><trkpt lat="45.91051407710288" lon="11.917672873948867"><ele>253.5</ele><time>2026-04-26T07:18:07.998Z</time></trkpt><trkpt lat="45.91048629433894" lon="11.917862621469018"><ele>253.75</ele><time>2026-04-26T07:18:08.998Z</time></trkpt><trkpt lat="45.91043427110547" lon="11.918080330573288"><ele>254.0</ele><time>2026-04-26T07:18:09.998Z</time></trkpt><trkpt lat="45.91037587134635" lon="11.918314123470148"><ele>253.66666666666669</ele><time>2026-04-26T07:18:10.998Z</time></trkpt><trkpt lat="45.91032572448157" lon="11.918546587246608"><ele>253.33333333333331</ele><time>2026-04-26T07:18:11.998Z</time></trkpt><trkpt lat="45.91025993440502" lon="11.918773007855243"><ele>253.0</ele><time>2026-04-26T07:18:12.998Z</time></trkpt><trkpt lat="45.91019715717228" lon="11.919002727533687"><ele>253.0</ele><time>2026-04-26T07:18:13.998Z</time></trkpt><trkpt lat="45.91012070211396" lon="11.91922133691312"><ele>253.0</ele><time>2026-04-26T07:18:14.998Z</time></trkpt><trkpt lat="45.910022674624976" lon="11.91944175212091"><ele>253.0</ele><time>2026-04-26T07:18:15.998Z</time></trkpt><trkpt lat="45.90993405394196" lon="11.919668958719534"><ele>249.0</ele><time>2026-04-26T07:18:16.998Z</time></trkpt><trkpt lat="45.90983707167037" lon="11.91989360252481"><ele>245.0</ele><time>2026-04-26T07:18:17.998Z</time></trkpt><trkpt lat="45.909728398761" lon="11.920107281488246"><ele>241.0</ele><time>2026-04-26T07:18:19Z</time></trkpt><trkpt lat="45.90961673209002" lon="11.92033138329905"><ele>241.0</ele><time>2026-04-26T07:18:20Z</time></trkpt><trkpt lat="45.909522455066096" lon="11.920558432792692"><ele>241.0</ele><time>2026-04-26T07:18:21Z</time></trkpt><trkpt lat="45.90942154625342" lon="11.92078556358733"><ele>241.0</ele><time>2026-04-26T07:18:22Z</time></trkpt><trkpt lat="45.90932799262108" lon="11.921016241641189"><ele>238.33333333333331</ele><time>2026-04-26T07:18:23Z</time></trkpt><trkpt lat="45.90921277936764" lon="11.921251839366741"><ele>235.66666666666669</ele><time>2026-04-26T07:18:24Z</time></trkpt><trkpt lat="45.90912859734704" lon="11.921480062515096"><ele>233.0</ele><time>2026-04-26T07:18:25Z</time></trkpt><trkpt lat="45.90903338940727" lon="11.921692029344594"><ele>233.66666666666669</ele><time>2026-04-26T07:18:26Z</time></trkpt><trkpt lat="45.90894612822633" lon="11.921927180615672"><ele>234.33333333333331</ele><time>2026-04-26T07:18:27Z</time></trkpt><trkpt lat="45.90886698180647" lon="11.922163059938828"><ele>235.0</ele><time>2026-04-26T07:18:28Z</time></trkpt><trkpt lat="45.90880399383641" lon="11.922391371371614"><ele>235.33333333333331</ele><time>2026-04-26T07:18:29Z</time></trkpt><trkpt lat="45.90874778635032" lon="11.922639650513"><ele>235.66666666666669</ele><time>2026-04-26T07:18:30Z</time></trkpt><trkpt lat="45.90869545332992" lon="11.922887072563162"><ele>236.0</ele><time>2026-04-26T07:18:31Z</time></trkpt><trkpt lat="45.90863403168367" lon="11.923135346591597"><ele>236.0</ele><time>2026-04-26T07:18:32Z</time></trkpt><trkpt lat="45.90856459773341" lon="11.92338469083771"><ele>236.0</ele><time>2026-04-26T07:18:33Z</time></trkpt><trkpt lat="45.90850989374286" lon="11.92362711097134"><ele>236.0</ele><time>2026-04-26T07:18:34Z</time></trkpt><trkpt lat="45.90846032673584" lon="11.923874891010666"><ele>234.0</ele><time>2026-04-26T07:18:35Z</time></trkpt><trkpt lat="45.9084552962989" lon="11.924130207367229"><ele>232.0</ele><time>2026-04-26T07:18:36Z</time></trkpt><trkpt lat="45.908441394742226" lon="11.924379418913295"><ele>230.0</ele><time>2026-04-26T07:18:37Z</time></trkpt><trkpt lat="45.908450974243145" lon="11.924642253294813"><ele>229.66666666666669</ele><time>2026-04-26T07:18:38Z</time></trkpt><trkpt lat="45.90845661724832" lon="11.924904665488912"><ele>229.33333333333331</ele><time>2026-04-26T07:18:39Z</time></trkpt><trkpt lat="45.90846054617169" lon="11.925170304390676"><ele>229.0</ele><time>2026-04-26T07:18:40Z</time></trkpt><trkpt lat="45.90847118996423" lon="11.925425464066901"><ele>229.0</ele><time>2026-04-26T07:18:41Z</time></trkpt><trkpt lat="45.90846276344422" lon="11.92569092849527"><ele>229.0</ele><time>2026-04-26T07:18:42Z</time></trkpt><trkpt lat="45.90846751553185" lon="11.925954582198667"><ele>229.0</ele><time>2026-04-26T07:18:43Z</time></trkpt><trkpt lat="45.90846732880674" lon="11.92622414562496"><ele>228.33333333333331</ele><time>2026-04-26T07:18:44Z</time></trkpt><trkpt lat="45.90847232918828" lon="11.926492429116314"><ele>227.66666666666669</ele><time>2026-04-26T07:18:45Z</time></trkpt><trkpt lat="45.90847539542379" lon="11.926751626154632"><ele>227.0</ele><time>2026-04-26T07:18:46Z</time></trkpt><trkpt lat="45.90848384897098" lon="11.927012923006638"><ele>224.66666666666669</ele><time>2026-04-26T07:18:47Z</time></trkpt><trkpt lat="45.908480021186065" lon="11.92727196790925"><ele>222.33333333333331</ele><time>2026-04-26T07:18:48Z</time></trkpt><trkpt lat="45.908468404567664" lon="11.927536229492873"><ele>220.0</ele><time>2026-04-26T07:18:49Z</time></trkpt><trkpt lat="45.90844273854513" lon="11.927802185355567"><ele>216.0</ele><time>2026-04-26T07:18:50Z</time></trkpt><trkpt lat="45.90841372135285" lon="11.928069930709734"><ele>212.0</ele><time>2026-04-26T07:18:51Z</time></trkpt><trkpt lat="45.9084053174112" lon="11.928327109158202"><ele>208.0</ele><time>2026-04-26T07:18:52Z</time></trkpt><trkpt lat="45.908395520085364" lon="11.928575715857255"><ele>207.0</ele><time>2026-04-26T07:18:53Z</time></trkpt><trkpt lat="45.90840106587591" lon="11.928819010912395"><ele>206.0</ele><time>2026-04-26T07:18:54Z</time></trkpt><trkpt lat="45.908418415208246" lon="11.92906530101332"><ele>205.0</ele><time>2026-04-26T07:18:55Z</time></trkpt><trkpt lat="45.90842965781068" lon="11.92931156787382"><ele>204.33333333333331</ele><time>2026-04-26T07:18:56Z</time></trkpt><trkpt lat="45.908473509444775" lon="11.9295424806924"><ele>203.66666666666669</ele><time>2026-04-26T07:18:57Z</time></trkpt><trkpt lat="45.90852908545586" lon="11.929776730325848"><ele>203.0</ele><time>2026-04-26T07:18:58Z</time></trkpt><trkpt lat="45.90859592816877" lon="11.930009584734265"><ele>201.0</ele><time>2026-04-26T07:18:59Z</time></trkpt><trkpt lat="45.908663180146725" lon="11.93023825526293"><ele>199.0</ele><time>2026-04-26T07:19:00Z</time></trkpt><trkpt lat="45.90873549807765" lon="11.930467937424437"><ele>197.0</ele><time>2026-04-26T07:19:01Z</time></trkpt><trkpt lat="45.90879609985015" lon="11.930693879403284"><ele>196.25</ele><time>2026-04-26T07:19:02Z</time></trkpt><trkpt lat="45.908847860897886" lon="11.930903893961295"><ele>195.5</ele><time>2026-04-26T07:19:02.999Z</time></trkpt><trkpt lat="45.908901405666896" lon="11.931092764873997"><ele>194.75</ele><time>2026-04-26T07:19:03.999Z</time></trkpt><trkpt lat="45.90894613620648" lon="11.931277079213313"><ele>194.0</ele><time>2026-04-26T07:19:04.999Z</time></trkpt><trkpt lat="45.908997295211115" lon="11.931446746685902"><ele>194.0</ele><time>2026-04-26T07:19:05.999Z</time></trkpt><trkpt lat="45.90904559172326" lon="11.93161562006164"><ele>194.0</ele><time>2026-04-26T07:19:06.999Z</time></trkpt><trkpt lat="45.90906942598629" lon="11.931776440912373"><ele>194.0</ele><time>2026-04-26T07:19:07.999Z</time></trkpt><trkpt lat="45.909100371607494" lon="11.931929073305815"><ele>194.0</ele><time>2026-04-26T07:19:08.999Z</time></trkpt><trkpt lat="45.90910902598272" lon="11.932065829226348"><ele>194.0</ele><time>2026-04-26T07:19:09.999Z</time></trkpt><trkpt lat="45.90909592416568" lon="11.93223197860716"><ele>193.66666666666669</ele><time>2026-04-26T07:19:10.999Z</time></trkpt><trkpt lat="45.908984671562244" lon="11.932367358207072"><ele>193.33333333333331</ele><time>2026-04-26T07:19:11.999Z</time></trkpt><trkpt lat="45.90888719554935" lon="11.93253930593594"><ele>193.0</ele><time>2026-04-26T07:19:12.999Z</time></trkpt><trkpt lat="45.90880620002164" lon="11.932724950594038"><ele>193.0</ele><time>2026-04-26T07:19:13.999Z</time></trkpt><trkpt lat="45.908718822402435" lon="11.932901200991969"><ele>193.0</ele><time>2026-04-26T07:19:14.999Z</time></trkpt><trkpt lat="45.90864058505674" lon="11.933066874878017"><ele>193.0</ele><time>2026-04-26T07:19:15.999Z</time></trkpt><trkpt lat="45.908570280861284" lon="11.933217021091862"><ele>193.0</ele><time>2026-04-26T07:19:16.999Z</time></trkpt><trkpt lat="45.90850222588111" lon="11.933349682300218"><ele>193.2</ele><time>2026-04-26T07:19:17.999Z</time></trkpt><trkpt lat="45.90842139385984" lon="11.933480172266368"><ele>193.4</ele><time>2026-04-26T07:19:18.999Z</time></trkpt><trkpt lat="45.90834543412096" lon="11.933589974057778"><ele>193.6</ele><time>2026-04-26T07:19:19.999Z</time></trkpt><trkpt lat="45.90828513766445" lon="11.933686380074004"><ele>193.79999999999998</ele><time>2026-04-26T07:19:20.999Z</time></trkpt><trkpt lat="45.908222225006774" lon="11.933780134071803"><ele>194.0</ele><time>2026-04-26T07:19:21.999Z</time></trkpt><trkpt lat="45.908167807188185" lon="11.933865845104515"><ele>194.00000000000003</ele><time>2026-04-26T07:19:22.999Z</time></trkpt><trkpt lat="45.908116247355785" lon="11.93395094585639"><ele>194.0</ele><time>2026-04-26T07:19:23.999Z</time></trkpt><trkpt lat="45.908055825828896" lon="11.934045622521504"><ele>194.0</ele><time>2026-04-26T07:19:25.999Z</time></trkpt><trkpt lat="45.90797453070845" lon="11.934135465545518"><ele>194.0</ele><time>2026-04-26T07:19:28.999Z</time></trkpt><trkpt lat="45.90788708800512" lon="11.934143471065092"><ele>194.00000000000003</ele><time>2026-04-26T07:19:29.999Z</time></trkpt><trkpt lat="45.90782311165623" lon="11.934217838148909"><ele>194.0</ele><time>2026-04-26T07:19:30.999Z</time></trkpt><trkpt lat="45.907763746158025" lon="11.934318468542127"><ele>194.75</ele><time>2026-04-26T07:19:31.999Z</time></trkpt><trkpt lat="45.90770425588131" lon="11.934436512743945"><ele>195.5</ele><time>2026-04-26T07:19:32.999Z</time></trkpt><trkpt lat="45.90764242154894" lon="11.934583617110858"><ele>196.25</ele><time>2026-04-26T07:19:33.999Z</time></trkpt><trkpt lat="45.907572200341306" lon="11.934732443981105"><ele>197.0</ele><time>2026-04-26T07:19:34.999Z</time></trkpt><trkpt lat="45.9074916084293" lon="11.934928716830639"><ele>194.66666666666669</ele><time>2026-04-26T07:19:35.999Z</time></trkpt><trkpt lat="45.90740396238838" lon="11.935103781078778"><ele>192.33333333333334</ele><time>2026-04-26T07:19:36.999Z</time></trkpt><trkpt lat="45.907309863625784" lon="11.935278899511333"><ele>190.0</ele><time>2026-04-26T07:19:37.999Z</time></trkpt><trkpt lat="45.907219040105524" lon="11.935449460813059"><ele>190.0</ele><time>2026-04-26T07:19:38.999Z</time></trkpt><trkpt lat="45.907135820710764" lon="11.935629277372755"><ele>190.0</ele><time>2026-04-26T07:19:39.999Z</time></trkpt><trkpt lat="45.907051818751476" lon="11.935808608180805"><ele>190.0</ele><time>2026-04-26T07:19:40.999Z</time></trkpt><trkpt lat="45.90696298409982" lon="11.935972243462986"><ele>190.0</ele><time>2026-04-26T07:19:41.999Z</time></trkpt><trkpt lat="45.90689451915098" lon="11.936100539390951"><ele>190.75</ele><time>2026-04-26T07:19:42.999Z</time></trkpt><trkpt lat="45.90681332219174" lon="11.936256926239377"><ele>191.5</ele><time>2026-04-26T07:19:43.999Z</time></trkpt><trkpt lat="45.906728217910874" lon="11.9364037022711"><ele>192.25</ele><time>2026-04-26T07:19:44.999Z</time></trkpt><trkpt lat="45.90663723602728" lon="11.936561527600704"><ele>193.0</ele><time>2026-04-26T07:19:45.999Z</time></trkpt><trkpt lat="45.906556946115295" lon="11.936693437262788"><ele>191.5</ele><time>2026-04-26T07:19:46.999Z</time></trkpt><trkpt lat="45.906467395815824" lon="11.936827022065994"><ele>190.0</ele><time>2026-04-26T07:19:47.999Z</time></trkpt><trkpt lat="45.90636688036972" lon="11.936957588821121"><ele>188.5</ele><time>2026-04-26T07:19:48.999Z</time></trkpt><trkpt lat="45.90626708671556" lon="11.937105532656393"><ele>187.0</ele><time>2026-04-26T07:19:49.999Z</time></trkpt><trkpt lat="45.906185142943805" lon="11.93726422304317"><ele>187.0</ele><time>2026-04-26T07:19:50.999Z</time></trkpt><trkpt lat="45.906110762057715" lon="11.937452519447147"><ele>187.0</ele><time>2026-04-26T07:19:51.999Z</time></trkpt><trkpt lat="45.90605173924453" lon="11.937630432563216"><ele>187.0</ele><time>2026-04-26T07:19:52.999Z</time></trkpt><trkpt lat="45.90599286517707" lon="11.937790076331723"><ele>187.0</ele><time>2026-04-26T07:19:53.999Z</time></trkpt><trkpt lat="45.90593067479532" lon="11.937946247465083"><ele>187.0</ele><time>2026-04-26T07:19:54.999Z</time></trkpt><trkpt lat="45.905871602411814" lon="11.938098853402455"><ele>187.0</ele><time>2026-04-26T07:19:55.999Z</time></trkpt><trkpt lat="45.905816797775486" lon="11.938245948049309"><ele>187.0</ele><time>2026-04-26T07:19:56.999Z</time></trkpt><trkpt lat="45.905761294822874" lon="11.938397767944489"><ele>187.0</ele><time>2026-04-26T07:19:57.999Z</time></trkpt><trkpt lat="45.90570025469788" lon="11.938553446662894"><ele>187.0</ele><time>2026-04-26T07:19:58.999Z</time></trkpt><trkpt lat="45.90564599871835" lon="11.938696367265834"><ele>187.0</ele><time>2026-04-26T07:19:59.999Z</time></trkpt><trkpt lat="45.90559262031801" lon="11.938850443251383"><ele>187.0</ele><time>2026-04-26T07:20:00.999Z</time></trkpt><trkpt lat="45.90556331642238" lon="11.939014132484697"><ele>187.0</ele><time>2026-04-26T07:20:01.999Z</time></trkpt><trkpt lat="45.90555033186182" lon="11.939185746051852"><ele>186.0</ele><time>2026-04-26T07:20:02.999Z</time></trkpt><trkpt lat="45.90554716996577" lon="11.939357073557812"><ele>185.0</ele><time>2026-04-26T07:20:03.999Z</time></trkpt><trkpt lat="45.905551798009505" lon="11.939527230481"><ele>184.0</ele><time>2026-04-26T07:20:04.999Z</time></trkpt><trkpt lat="45.90553752509974" lon="11.939686724958998"><ele>183.0</ele><time>2026-04-26T07:20:05.999Z</time></trkpt><trkpt lat="45.90553521060405" lon="11.939850467671604"><ele>183.0</ele><time>2026-04-26T07:20:06.999Z</time></trkpt><trkpt lat="45.905527456797145" lon="11.940011244944039"><ele>183.0</ele><time>2026-04-26T07:20:07.999Z</time></trkpt><trkpt lat="45.90550917524582" lon="11.940162901465582"><ele>183.0</ele><time>2026-04-26T07:20:08.998Z</time></trkpt><trkpt lat="45.905476803092526" lon="11.940308496619908"><ele>183.0</ele><time>2026-04-26T07:20:09.998Z</time></trkpt><trkpt lat="45.90543878667622" lon="11.940405692822162"><ele>183.0</ele><time>2026-04-26T07:20:10.998Z</time></trkpt><trkpt lat="45.90538253572417" lon="11.940569458792085"><ele>183.0</ele><time>2026-04-26T07:20:12.998Z</time></trkpt><trkpt lat="45.90534035643906" lon="11.940671895637971"><ele>183.0</ele><time>2026-04-26T07:20:14.998Z</time></trkpt><trkpt lat="45.90529511358843" lon="11.940757670468068"><ele>183.0</ele><time>2026-04-26T07:20:16.998Z</time></trkpt><trkpt lat="45.90521839792697" lon="11.940850292452355"><ele>183.0</ele><time>2026-04-26T07:20:18.998Z</time></trkpt><trkpt lat="45.90515395501137" lon="11.94091773168728"><ele>183.0</ele><time>2026-04-26T07:20:19.998Z</time></trkpt><trkpt lat="45.90509143998734" lon="11.941008257434508"><ele>183.0</ele><time>2026-04-26T07:20:20.998Z</time></trkpt><trkpt lat="45.90505381048556" lon="11.941109857759395"><ele>184.16666666666666</ele><time>2026-04-26T07:20:21.998Z</time></trkpt><trkpt lat="45.905035442860694" lon="11.941207384295394"><ele>185.33333333333334</ele><time>2026-04-26T07:20:22.998Z</time></trkpt><trkpt lat="45.90504864979539" lon="11.941307661746036"><ele>186.5</ele><time>2026-04-26T07:20:23.998Z</time></trkpt><trkpt lat="45.90497017233953" lon="11.941391519927574"><ele>187.66666666666669</ele><time>2026-04-26T07:20:25Z</time></trkpt><trkpt lat="45.904910026358266" lon="11.941471812316701"><ele>188.83333333333334</ele><time>2026-04-26T07:20:26Z</time></trkpt><trkpt lat="45.90482780662627" lon="11.941536042780166"><ele>190.0</ele><time>2026-04-26T07:20:27Z</time></trkpt><trkpt lat="45.90474136048983" lon="11.941583424758473"><ele>190.0</ele><time>2026-04-26T07:20:28Z</time></trkpt><trkpt lat="45.90463475808293" lon="11.941597784603806"><ele>190.0</ele><time>2026-04-26T07:20:29Z</time></trkpt><trkpt lat="45.90452978715598" lon="11.941641226952804"><ele>190.0</ele><time>2026-04-26T07:20:30Z</time></trkpt><trkpt lat="45.90442688636198" lon="11.941687879491083"><ele>190.0</ele><time>2026-04-26T07:20:31Z</time></trkpt><trkpt lat="45.904323286037304" lon="11.941728342793807"><ele>190.0</ele><time>2026-04-26T07:20:32Z</time></trkpt><trkpt lat="45.90422335788196" lon="11.941766711485949"><ele>189.75</ele><time>2026-04-26T07:20:33Z</time></trkpt><trkpt lat="45.9041048208732" lon="11.941818221360753"><ele>189.5</ele><time>2026-04-26T07:20:34Z</time></trkpt><trkpt lat="45.903983416747565" lon="11.941874559282665"><ele>189.25</ele><time>2026-04-26T07:20:35Z</time></trkpt><trkpt lat="45.903864947471945" lon="11.941921041296732"><ele>189.0</ele><time>2026-04-26T07:20:36Z</time></trkpt><trkpt lat="45.90374425014787" lon="11.94197981480564"><ele>189.0</ele><time>2026-04-26T07:20:37Z</time></trkpt><trkpt lat="45.90361481127764" lon="11.942040015037069"><ele>189.0</ele><time>2026-04-26T07:20:38Z</time></trkpt><trkpt lat="45.903481373850845" lon="11.942092410342141"><ele>189.0</ele><time>2026-04-26T07:20:39Z</time></trkpt><trkpt lat="45.90335312709463" lon="11.942148048310825"><ele>189.0</ele><time>2026-04-26T07:20:40Z</time></trkpt><trkpt lat="45.903226441510434" lon="11.942192476366078"><ele>189.25</ele><time>2026-04-26T07:20:41Z</time></trkpt><trkpt lat="45.90312110534267" lon="11.942221926563667"><ele>189.5</ele><time>2026-04-26T07:20:42Z</time></trkpt><trkpt lat="45.90300572525388" lon="11.942261049451748"><ele>189.75</ele><time>2026-04-26T07:20:43Z</time></trkpt><trkpt lat="45.90287227139175" lon="11.942300901001872"><ele>190.0</ele><time>2026-04-26T07:20:44Z</time></trkpt><trkpt lat="45.90274048060161" lon="11.942355440562697"><ele>190.0</ele><time>2026-04-26T07:20:45Z</time></trkpt><trkpt lat="45.90261513668381" lon="11.942398085839075"><ele>190.0</ele><time>2026-04-26T07:20:46Z</time></trkpt><trkpt lat="45.90247210711306" lon="11.942442036188062"><ele>190.0</ele><time>2026-04-26T07:20:47Z</time></trkpt><trkpt lat="45.902339506199176" lon="11.942459970108976"><ele>190.0</ele><time>2026-04-26T07:20:48Z</time></trkpt><trkpt lat="45.90220756618176" lon="11.942494252153697"><ele>189.5</ele><time>2026-04-26T07:20:49Z</time></trkpt><trkpt lat="45.9020795627978" lon="11.942533985851018"><ele>189.0</ele><time>2026-04-26T07:20:50Z</time></trkpt><trkpt lat="45.90196909631783" lon="11.942572139103927"><ele>188.5</ele><time>2026-04-26T07:20:51Z</time></trkpt><trkpt lat="45.90185594138472" lon="11.942610778715038"><ele>188.0</ele><time>2026-04-26T07:20:52Z</time></trkpt><trkpt lat="45.901737149197714" lon="11.942643470647893"><ele>187.25</ele><time>2026-04-26T07:20:53Z</time></trkpt><trkpt lat="45.90161171307444" lon="11.942677028028879"><ele>186.5</ele><time>2026-04-26T07:20:54Z</time></trkpt><trkpt lat="45.90148181092208" lon="11.942696858846778"><ele>185.75</ele><time>2026-04-26T07:20:55Z</time></trkpt><trkpt lat="45.90134408732521" lon="11.942724048235968"><ele>185.0</ele><time>2026-04-26T07:20:56Z</time></trkpt><trkpt lat="45.901205904359756" lon="11.942765459593222"><ele>185.0</ele><time>2026-04-26T07:20:57Z</time></trkpt><trkpt lat="45.90107221472466" lon="11.942793869880196"><ele>185.0</ele><time>2026-04-26T07:20:58Z</time></trkpt><trkpt lat="45.90095259762349" lon="11.942814776194231"><ele>185.0</ele><time>2026-04-26T07:20:59Z</time></trkpt><trkpt lat="45.900823881737864" lon="11.94284052647521"><ele>185.0</ele><time>2026-04-26T07:21:00Z</time></trkpt><trkpt lat="45.90070465801985" lon="11.942864238647454"><ele>185.2</ele><time>2026-04-26T07:21:01Z</time></trkpt><trkpt lat="45.90060489547009" lon="11.942866728961226"><ele>185.4</ele><time>2026-04-26T07:21:02Z</time></trkpt><trkpt lat="45.90049550562597" lon="11.942885721156724"><ele>185.60000000000002</ele><time>2026-04-26T07:21:03Z</time></trkpt><trkpt lat="45.90038037532649" lon="11.942908336386635"><ele>185.8</ele><time>2026-04-26T07:21:04Z</time></trkpt><trkpt lat="45.900279421937775" lon="11.942908466427353"><ele>186.0</ele><time>2026-04-26T07:21:05Z</time></trkpt><trkpt lat="45.90019204123306" lon="11.942926956347355"><ele>186.0</ele><time>2026-04-26T07:21:06Z</time></trkpt><trkpt lat="45.900107519708726" lon="11.942923957378325"><ele>186.0</ele><time>2026-04-26T07:21:07Z</time></trkpt><trkpt lat="45.90002994713113" lon="11.942924373370202"><ele>186.0</ele><time>2026-04-26T07:21:08Z</time></trkpt><trkpt lat="45.89995986041566" lon="11.942917701020356"><ele>186.0</ele><time>2026-04-26T07:21:09Z</time></trkpt><trkpt lat="45.899888605061115" lon="11.942909107084825"><ele>186.0</ele><time>2026-04-26T07:21:09.999Z</time></trkpt><trkpt lat="45.89979723538067" lon="11.94291298728389"><ele>186.0</ele><time>2026-04-26T07:21:10.999Z</time></trkpt><trkpt lat="45.89971723572364" lon="11.942823598406484"><ele>185.5</ele><time>2026-04-26T07:21:11.999Z</time></trkpt><trkpt lat="45.89960719519646" lon="11.942803762226863"><ele>185.0</ele><time>2026-04-26T07:21:12.999Z</time></trkpt><trkpt lat="45.899480102779904" lon="11.942776776300006"><ele>184.5</ele><time>2026-04-26T07:21:13.999Z</time></trkpt><trkpt lat="45.8993337777939" lon="11.942735227739002"><ele>184.0</ele><time>2026-04-26T07:21:14.999Z</time></trkpt><trkpt lat="45.89918732733213" lon="11.942673033891563"><ele>182.66666666666669</ele><time>2026-04-26T07:21:15.999Z</time></trkpt><trkpt lat="45.899029763203494" lon="11.942627028250346"><ele>181.33333333333334</ele><time>2026-04-26T07:21:16.999Z</time></trkpt><trkpt lat="45.89887847921807" lon="11.942586829608347"><ele>180.0</ele><time>2026-04-26T07:21:17.999Z</time></trkpt><trkpt lat="45.89868867138098" lon="11.942537091917526"><ele>180.33333333333334</ele><time>2026-04-26T07:21:18.999Z</time></trkpt><trkpt lat="45.89850967218583" lon="11.942521833894878"><ele>180.66666666666669</ele><time>2026-04-26T07:21:19.999Z</time></trkpt><trkpt lat="45.89832638410446" lon="11.942527816145375"><ele>181.0</ele><time>2026-04-26T07:21:20.999Z</time></trkpt><trkpt lat="45.89815694119406" lon="11.94253250364501"><ele>178.66666666666669</ele><time>2026-04-26T07:21:21.999Z</time></trkpt><trkpt lat="45.89798584752443" lon="11.942573096474252"><ele>176.33333333333334</ele><time>2026-04-26T07:21:22.999Z</time></trkpt><trkpt lat="45.897811706064275" lon="11.942588175798889"><ele>174.0</ele><time>2026-04-26T07:21:23.999Z</time></trkpt><trkpt lat="45.89764902006927" lon="11.942606096489639"><ele>174.0</ele><time>2026-04-26T07:21:24.999Z</time></trkpt><trkpt lat="45.897503727397535" lon="11.942625148546117"><ele>174.0</ele><time>2026-04-26T07:21:25.999Z</time></trkpt><trkpt lat="45.89736459729176" lon="11.942622717579244"><ele>174.0</ele><time>2026-04-26T07:21:26.999Z</time></trkpt><trkpt lat="45.897211756337924" lon="11.942617206522845"><ele>174.0</ele><time>2026-04-26T07:21:27.999Z</time></trkpt><trkpt lat="45.89706356486712" lon="11.942610182972615"><ele>174.0</ele><time>2026-04-26T07:21:28.999Z</time></trkpt><trkpt lat="45.89693288717238" lon="11.942596996238425"><ele>174.0</ele><time>2026-04-26T07:21:29.999Z</time></trkpt><trkpt lat="45.896791351457736" lon="11.942590267478055"><ele>174.0</ele><time>2026-04-26T07:21:30.999Z</time></trkpt><trkpt lat="45.89663906950247" lon="11.942583297514519"><ele>174.0</ele><time>2026-04-26T07:21:31.999Z</time></trkpt><trkpt lat="45.89649447846653" lon="11.942559559009903"><ele>177.66666666666666</ele><time>2026-04-26T07:21:32.999Z</time></trkpt><trkpt lat="45.89634950532352" lon="11.942541308935244"><ele>181.33333333333331</ele><time>2026-04-26T07:21:33.999Z</time></trkpt><trkpt lat="45.896206032276254" lon="11.94253693016686"><ele>185.0</ele><time>2026-04-26T07:21:34.999Z</time></trkpt><trkpt lat="45.8960470019472" lon="11.94248167508954"><ele>184.5</ele><time>2026-04-26T07:21:35.999Z</time></trkpt><trkpt lat="45.895906910362264" lon="11.942464659797768"><ele>184.0</ele><time>2026-04-26T07:21:36.999Z</time></trkpt><trkpt lat="45.895774561390155" lon="11.942447574933556"><ele>183.5</ele><time>2026-04-26T07:21:37.999Z</time></trkpt><trkpt lat="45.895635032954715" lon="11.94243215946693"><ele>183.0</ele><time>2026-04-26T07:21:38.999Z</time></trkpt><trkpt lat="45.89550871135206" lon="11.942415707574067"><ele>183.0</ele><time>2026-04-26T07:21:39.999Z</time></trkpt><trkpt lat="45.89537451134486" lon="11.942404776467262"><ele>183.0</ele><time>2026-04-26T07:21:40.999Z</time></trkpt><trkpt lat="45.895248581953176" lon="11.942383381563975"><ele>183.0</ele><time>2026-04-26T07:21:41.999Z</time></trkpt><trkpt lat="45.89510883217233" lon="11.942363950879331"><ele>183.0</ele><time>2026-04-26T07:21:42.999Z</time></trkpt><trkpt lat="45.89498420753658" lon="11.94233947380985"><ele>181.75</ele><time>2026-04-26T07:21:43.999Z</time></trkpt><trkpt lat="45.89485211224357" lon="11.942320948025035"><ele>180.5</ele><time>2026-04-26T07:21:44.999Z</time></trkpt><trkpt lat="45.89472236880715" lon="11.94229819576067"><ele>179.25</ele><time>2026-04-26T07:21:45.999Z</time></trkpt><trkpt lat="45.89459162728308" lon="11.942289994221223"><ele>178.0</ele><time>2026-04-26T07:21:46.999Z</time></trkpt><trkpt lat="45.894459472451196" lon="11.942288827802226"><ele>178.0</ele><time>2026-04-26T07:21:47.999Z</time></trkpt><trkpt lat="45.89431383052713" lon="11.942299183382229"><ele>178.0</ele><time>2026-04-26T07:21:48.999Z</time></trkpt><trkpt lat="45.894175599782585" lon="11.942334820421275"><ele>178.0</ele><time>2026-04-26T07:21:49.999Z</time></trkpt><trkpt lat="45.89403287884793" lon="11.94237744681798"><ele>178.0</ele><time>2026-04-26T07:21:50.999Z</time></trkpt><trkpt lat="45.893901312325625" lon="11.942446243227778"><ele>179.0</ele><time>2026-04-26T07:21:51.999Z</time></trkpt><trkpt lat="45.89377231320852" lon="11.942519140933854"><ele>180.0</ele><time>2026-04-26T07:21:52.999Z</time></trkpt><trkpt lat="45.89366285672019" lon="11.942597631042842"><ele>181.0</ele><time>2026-04-26T07:21:53.999Z</time></trkpt><trkpt lat="45.893550274816775" lon="11.94268867839372"><ele>182.0</ele><time>2026-04-26T07:21:54.999Z</time></trkpt><trkpt lat="45.893433289095235" lon="11.942775752673201"><ele>181.0</ele><time>2026-04-26T07:21:55.999Z</time></trkpt><trkpt lat="45.893317697942315" lon="11.942861463388798"><ele>180.0</ele><time>2026-04-26T07:21:56.999Z</time></trkpt><trkpt lat="45.893202302992194" lon="11.942946238245716"><ele>179.0</ele><time>2026-04-26T07:21:57.999Z</time></trkpt><trkpt lat="45.893087692508296" lon="11.943040362345672"><ele>178.0</ele><time>2026-04-26T07:21:58.999Z</time></trkpt><trkpt lat="45.892982966984796" lon="11.94312971959617"><ele>178.0</ele><time>2026-04-26T07:21:59.999Z</time></trkpt><trkpt lat="45.892861391212286" lon="11.943213384149034"><ele>178.0</ele><time>2026-04-26T07:22:00.999Z</time></trkpt><trkpt lat="45.892741188748055" lon="11.943291793039986"><ele>178.0</ele><time>2026-04-26T07:22:01.999Z</time></trkpt><trkpt lat="45.892607631865815" lon="11.9433636477937"><ele>178.0</ele><time>2026-04-26T07:22:02.999Z</time></trkpt><trkpt lat="45.892474297216644" lon="11.943429992428436"><ele>177.5</ele><time>2026-04-26T07:22:03.999Z</time></trkpt><trkpt lat="45.89233867675222" lon="11.943492148437972"><ele>177.0</ele><time>2026-04-26T07:22:04.999Z</time></trkpt><trkpt lat="45.89220931398254" lon="11.943544719210495"><ele>176.5</ele><time>2026-04-26T07:22:05.999Z</time></trkpt><trkpt lat="45.892073526249156" lon="11.943591309776501"><ele>176.0</ele><time>2026-04-26T07:22:06.999Z</time></trkpt><trkpt lat="45.89193258598828" lon="11.943621747045313"><ele>176.0</ele><time>2026-04-26T07:22:07.999Z</time></trkpt><trkpt lat="45.89179753877441" lon="11.94364917055769"><ele>176.0</ele><time>2026-04-26T07:22:08.999Z</time></trkpt><trkpt lat="45.891656264491345" lon="11.943671467957241"><ele>176.0</ele><time>2026-04-26T07:22:09.999Z</time></trkpt><trkpt lat="45.89152373276524" lon="11.943700601207517"><ele>176.0</ele><time>2026-04-26T07:22:10.999Z</time></trkpt><trkpt lat="45.89139035289908" lon="11.943740046623962"><ele>176.0</ele><time>2026-04-26T07:22:11.999Z</time></trkpt><trkpt lat="45.891254745559415" lon="11.943775330675983"><ele>176.0</ele><time>2026-04-26T07:22:12.999Z</time></trkpt><trkpt lat="45.89112324549903" lon="11.943788874679033"><ele>176.0</ele><time>2026-04-26T07:22:13.999Z</time></trkpt><trkpt lat="45.89098835047857" lon="11.9438098565557"><ele>176.0</ele><time>2026-04-26T07:22:14.999Z</time></trkpt><trkpt lat="45.890857585837686" lon="11.943830659577811"><ele>176.0</ele><time>2026-04-26T07:22:15.998Z</time></trkpt><trkpt lat="45.89072249425782" lon="11.94384930631026"><ele>176.0</ele><time>2026-04-26T07:22:16.998Z</time></trkpt><trkpt lat="45.89058617792296" lon="11.9438783834041"><ele>176.0</ele><time>2026-04-26T07:22:17.998Z</time></trkpt><trkpt lat="45.890458644902054" lon="11.943911250941094"><ele>176.0</ele><time>2026-04-26T07:22:18.998Z</time></trkpt><trkpt lat="45.890342352810826" lon="11.943952131159056"><ele>176.0</ele><time>2026-04-26T07:22:19.998Z</time></trkpt><trkpt lat="45.89021891680698" lon="11.944007303785385"><ele>176.0</ele><time>2026-04-26T07:22:20.998Z</time></trkpt><trkpt lat="45.89009427418279" lon="11.944076381828117"><ele>176.0</ele><time>2026-04-26T07:22:21.998Z</time></trkpt><trkpt lat="45.88998590023197" lon="11.944170976919127"><ele>176.0</ele><time>2026-04-26T07:22:22.998Z</time></trkpt><trkpt lat="45.889872293850665" lon="11.94426667956869"><ele>175.5</ele><time>2026-04-26T07:22:23.998Z</time></trkpt><trkpt lat="45.88975926280895" lon="11.944365087714898"><ele>175.0</ele><time>2026-04-26T07:22:24.998Z</time></trkpt><trkpt lat="45.88964581185423" lon="11.944467357287369"><ele>174.5</ele><time>2026-04-26T07:22:25.998Z</time></trkpt><trkpt lat="45.889532082686145" lon="11.94457661503145"><ele>174.0</ele><time>2026-04-26T07:22:26.998Z</time></trkpt><trkpt lat="45.88941520273467" lon="11.944684256438219"><ele>174.0</ele><time>2026-04-26T07:22:27.998Z</time></trkpt><trkpt lat="45.88930023489841" lon="11.944793271301796"><ele>174.0</ele><time>2026-04-26T07:22:28.998Z</time></trkpt><trkpt lat="45.88917550437485" lon="11.944901380305314"><ele>174.0</ele><time>2026-04-26T07:22:29.998Z</time></trkpt><trkpt lat="45.889054856989226" lon="11.945009471899795"><ele>174.0</ele><time>2026-04-26T07:22:31Z</time></trkpt><trkpt lat="45.88891663164716" lon="11.94512249562886"><ele>172.75</ele><time>2026-04-26T07:22:32Z</time></trkpt><trkpt lat="45.888799207895204" lon="11.945239271640757"><ele>171.5</ele><time>2026-04-26T07:22:33Z</time></trkpt><trkpt lat="45.88867832450637" lon="11.945351476427437"><ele>170.25</ele><time>2026-04-26T07:22:34Z</time></trkpt><trkpt lat="45.88855994130786" lon="11.94546743667191"><ele>169.0</ele><time>2026-04-26T07:22:35Z</time></trkpt><trkpt lat="45.88843006957806" lon="11.945596229483016"><ele>169.33333333333334</ele><time>2026-04-26T07:22:36Z</time></trkpt><trkpt lat="45.88828520901087" lon="11.945740003759745"><ele>169.66666666666666</ele><time>2026-04-26T07:22:37Z</time></trkpt><trkpt lat="45.888114752524196" lon="11.945894383151257"><ele>170.0</ele><time>2026-04-26T07:22:38Z</time></trkpt><trkpt lat="45.887936423283165" lon="11.946027180760815"><ele>170.0</ele><time>2026-04-26T07:22:39Z</time></trkpt><trkpt lat="45.88774742311509" lon="11.946225106182368"><ele>170.0</ele><time>2026-04-26T07:22:40Z</time></trkpt><trkpt lat="45.887545904686846" lon="11.946399037795029"><ele>170.0</ele><time>2026-04-26T07:22:41Z</time></trkpt><trkpt lat="45.887342417732135" lon="11.946557302384624"><ele>170.0</ele><time>2026-04-26T07:22:42Z</time></trkpt><trkpt lat="45.88716965962042" lon="11.946722949686663"><ele>170.0</ele><time>2026-04-26T07:22:43Z</time></trkpt><trkpt lat="45.88699529278013" lon="11.94687493002258"><ele>170.0</ele><time>2026-04-26T07:22:44Z</time></trkpt><trkpt lat="45.8868205306429" lon="11.947031271434465"><ele>170.0</ele><time>2026-04-26T07:22:45Z</time></trkpt><trkpt lat="45.88665651294292" lon="11.947186691812284"><ele>170.0</ele><time>2026-04-26T07:22:46Z</time></trkpt><trkpt lat="45.88650039760271" lon="11.947381774800796"><ele>169.66666666666666</ele><time>2026-04-26T07:22:47Z</time></trkpt><trkpt lat="45.88637067383706" lon="11.947575197050357"><ele>169.33333333333334</ele><time>2026-04-26T07:22:48Z</time></trkpt><trkpt lat="45.88625365802758" lon="11.947781421676392"><ele>169.0</ele><time>2026-04-26T07:22:49Z</time></trkpt><trkpt lat="45.88614352596841" lon="11.948004475046535"><ele>169.0</ele><time>2026-04-26T07:22:50Z</time></trkpt><trkpt lat="45.88604051424369" lon="11.948233163892533"><ele>169.0</ele><time>2026-04-26T07:22:51Z</time></trkpt><trkpt lat="45.88595025119214" lon="11.948463687984326"><ele>169.0</ele><time>2026-04-26T07:22:52Z</time></trkpt><trkpt lat="45.885848053676916" lon="11.94869320906825"><ele>169.33333333333334</ele><time>2026-04-26T07:22:53Z</time></trkpt><trkpt lat="45.88576093960704" lon="11.94892791092091"><ele>169.66666666666666</ele><time>2026-04-26T07:22:54Z</time></trkpt><trkpt lat="45.88568209897349" lon="11.949165233260267"><ele>170.0</ele><time>2026-04-26T07:22:55Z</time></trkpt><trkpt lat="45.88558885541032" lon="11.949405168566669"><ele>170.0</ele><time>2026-04-26T07:22:56Z</time></trkpt><trkpt lat="45.885504778485384" lon="11.949640474907884"><ele>170.0</ele><time>2026-04-26T07:22:57Z</time></trkpt><trkpt lat="45.885433401645365" lon="11.949881140220501"><ele>170.0</ele><time>2026-04-26T07:22:58Z</time></trkpt><trkpt lat="45.88536782994099" lon="11.95011976790799"><ele>168.66666666666666</ele><time>2026-04-26T07:22:59Z</time></trkpt><trkpt lat="45.88531240730941" lon="11.950369956777479"><ele>167.33333333333334</ele><time>2026-04-26T07:23:00Z</time></trkpt><trkpt lat="45.885253026752" lon="11.950627585171679"><ele>166.0</ele><time>2026-04-26T07:23:01Z</time></trkpt><trkpt lat="45.885192650066905" lon="11.950882945945738"><ele>166.0</ele><time>2026-04-26T07:23:02Z</time></trkpt><trkpt lat="45.8851463433236" lon="11.95113136766431"><ele>166.0</ele><time>2026-04-26T07:23:03Z</time></trkpt><trkpt lat="45.8851027349278" lon="11.951384608485872"><ele>166.0</ele><time>2026-04-26T07:23:04Z</time></trkpt><trkpt lat="45.88506289268805" lon="11.95163913742786"><ele>172.0</ele><time>2026-04-26T07:23:05Z</time></trkpt><trkpt lat="45.88501731330954" lon="11.951894170244659"><ele>178.0</ele><time>2026-04-26T07:23:06Z</time></trkpt><trkpt lat="45.884969327420905" lon="11.952154150997313"><ele>184.0</ele><time>2026-04-26T07:23:07Z</time></trkpt><trkpt lat="45.88492352604218" lon="11.952411205826076"><ele>181.66666666666669</ele><time>2026-04-26T07:23:08Z</time></trkpt><trkpt lat="45.88488787363429" lon="11.952665008885743"><ele>179.33333333333334</ele><time>2026-04-26T07:23:09Z</time></trkpt><trkpt lat="45.88485242110834" lon="11.952925837924724"><ele>177.0</ele><time>2026-04-26T07:23:10Z</time></trkpt><trkpt lat="45.884805136036135" lon="11.953180828439727"><ele>175.33333333333334</ele><time>2026-04-26T07:23:11Z</time></trkpt><trkpt lat="45.88476980711882" lon="11.953438680064812"><ele>173.66666666666669</ele><time>2026-04-26T07:23:12Z</time></trkpt><trkpt lat="45.88472649666439" lon="11.953684848470543"><ele>172.0</ele><time>2026-04-26T07:23:13Z</time></trkpt><trkpt lat="45.88467118592599" lon="11.953924264258468"><ele>172.0</ele><time>2026-04-26T07:23:14Z</time></trkpt><trkpt lat="45.88458888756416" lon="11.954148790223728"><ele>172.0</ele><time>2026-04-26T07:23:15Z</time></trkpt><trkpt lat="45.884491560985296" lon="11.954346159677824"><ele>172.0</ele><time>2026-04-26T07:23:15.999Z</time></trkpt><trkpt lat="45.884378563516776" lon="11.954550808328584"><ele>171.0</ele><time>2026-04-26T07:23:16.999Z</time></trkpt><trkpt lat="45.88424635609365" lon="11.95474490799373"><ele>170.0</ele><time>2026-04-26T07:23:17.999Z</time></trkpt><trkpt lat="45.88412617596792" lon="11.95496308907123"><ele>169.0</ele><time>2026-04-26T07:23:18.999Z</time></trkpt><trkpt lat="45.88400586868578" lon="11.955159016382623"><ele>169.0</ele><time>2026-04-26T07:23:19.999Z</time></trkpt><trkpt lat="45.88388426275792" lon="11.955374993760294"><ele>169.0</ele><time>2026-04-26T07:23:20.999Z</time></trkpt><trkpt lat="45.88375738216408" lon="11.95559834235184"><ele>169.0</ele><time>2026-04-26T07:23:21.999Z</time></trkpt><trkpt lat="45.88362499345241" lon="11.955817851430488"><ele>168.0</ele><time>2026-04-26T07:23:22.999Z</time></trkpt><trkpt lat="45.8834949767323" lon="11.956053412382966"><ele>167.0</ele><time>2026-04-26T07:23:23.999Z</time></trkpt><trkpt lat="45.88335318926321" lon="11.956254113116442"><ele>166.0</ele><time>2026-04-26T07:23:24.999Z</time></trkpt><trkpt lat="45.88322077758745" lon="11.956473817305772"><ele>166.66666666666669</ele><time>2026-04-26T07:23:25.999Z</time></trkpt><trkpt lat="45.88308328516502" lon="11.956701196242614"><ele>167.33333333333334</ele><time>2026-04-26T07:23:26.999Z</time></trkpt><trkpt lat="45.88294611769097" lon="11.956925383979016"><ele>168.0</ele><time>2026-04-26T07:23:27.999Z</time></trkpt><trkpt lat="45.88280680260446" lon="11.95715163702913"><ele>168.0</ele><time>2026-04-26T07:23:28.999Z</time></trkpt><trkpt lat="45.88267159494962" lon="11.95736902504623"><ele>168.0</ele><time>2026-04-26T07:23:29.999Z</time></trkpt><trkpt lat="45.882533315972005" lon="11.95758726340245"><ele>168.0</ele><time>2026-04-26T07:23:30.999Z</time></trkpt><trkpt lat="45.882385388177546" lon="11.957812937031024"><ele>168.33333333333334</ele><time>2026-04-26T07:23:31.999Z</time></trkpt><trkpt lat="45.88223401957172" lon="11.958038480313402"><ele>168.66666666666669</ele><time>2026-04-26T07:23:32.999Z</time></trkpt><trkpt lat="45.88208828491967" lon="11.958257859167748"><ele>169.0</ele><time>2026-04-26T07:23:33.999Z</time></trkpt><trkpt lat="45.88194897034275" lon="11.958475299859739"><ele>168.66666666666669</ele><time>2026-04-26T07:23:34.999Z</time></trkpt><trkpt lat="45.88181591591558" lon="11.9587118611483"><ele>168.33333333333334</ele><time>2026-04-26T07:23:35.999Z</time></trkpt><trkpt lat="45.88168620366235" lon="11.958961028125419"><ele>168.0</ele><time>2026-04-26T07:23:36.999Z</time></trkpt><trkpt lat="45.88157355698302" lon="11.959216150867949"><ele>168.0</ele><time>2026-04-26T07:23:37.999Z</time></trkpt><trkpt lat="45.88145468358939" lon="11.959460489457893"><ele>168.0</ele><time>2026-04-26T07:23:38.999Z</time></trkpt><trkpt lat="45.881334332089125" lon="11.959702630939468"><ele>168.0</ele><time>2026-04-26T07:23:39.999Z</time></trkpt><trkpt lat="45.88121875835357" lon="11.959955597475947"><ele>168.0</ele><time>2026-04-26T07:23:40.999Z</time></trkpt><trkpt lat="45.88110266025986" lon="11.960196685166055"><ele>168.0</ele><time>2026-04-26T07:23:41.999Z</time></trkpt><trkpt lat="45.88098632816183" lon="11.960438382032347"><ele>168.0</ele><time>2026-04-26T07:23:42.999Z</time></trkpt><trkpt lat="45.88086249995872" lon="11.960674496635772"><ele>169.33333333333334</ele><time>2026-04-26T07:23:43.999Z</time></trkpt><trkpt lat="45.88073664970154" lon="11.960906105647126"><ele>170.66666666666669</ele><time>2026-04-26T07:23:44.999Z</time></trkpt><trkpt lat="45.88059363855177" lon="11.961128592384277"><ele>172.0</ele><time>2026-04-26T07:23:45.999Z</time></trkpt><trkpt lat="45.88044657804895" lon="11.961336275039582"><ele>172.0</ele><time>2026-04-26T07:23:46.999Z</time></trkpt><trkpt lat="45.88029293331091" lon="11.961545329455314"><ele>172.0</ele><time>2026-04-26T07:23:47.999Z</time></trkpt><trkpt lat="45.88013507608431" lon="11.961749979734618"><ele>172.0</ele><time>2026-04-26T07:23:48.999Z</time></trkpt><trkpt lat="45.87997587746401" lon="11.961942690304847"><ele>171.66666666666669</ele><time>2026-04-26T07:23:49.999Z</time></trkpt><trkpt lat="45.87981737137702" lon="11.962136750523051"><ele>171.33333333333334</ele><time>2026-04-26T07:23:50.999Z</time></trkpt><trkpt lat="45.879662541659286" lon="11.962326000230654"><ele>171.0</ele><time>2026-04-26T07:23:51.999Z</time></trkpt><trkpt lat="45.8795032012904" lon="11.962504565141083"><ele>170.0</ele><time>2026-04-26T07:23:52.999Z</time></trkpt><trkpt lat="45.879358977202955" lon="11.962644778128897"><ele>169.0</ele><time>2026-04-26T07:23:53.999Z</time></trkpt><trkpt lat="45.87918814525583" lon="11.962730600338617"><ele>168.0</ele><time>2026-04-26T07:23:54.999Z</time></trkpt><trkpt lat="45.87900021837462" lon="11.96279353125015"><ele>168.0</ele><time>2026-04-26T07:23:55.999Z</time></trkpt><trkpt lat="45.87881239264614" lon="11.962846090528549"><ele>168.0</ele><time>2026-04-26T07:23:56.999Z</time></trkpt><trkpt lat="45.87862174976624" lon="11.962898692083684"><ele>168.0</ele><time>2026-04-26T07:23:57.999Z</time></trkpt><trkpt lat="45.87842316867472" lon="11.962946007628256"><ele>171.33333333333334</ele><time>2026-04-26T07:23:58.999Z</time></trkpt><trkpt lat="45.8782435799029" lon="11.962976089379413"><ele>174.66666666666669</ele><time>2026-04-26T07:23:59.999Z</time></trkpt><trkpt lat="45.87805390411858" lon="11.963012530257528"><ele>178.0</ele><time>2026-04-26T07:24:00.999Z</time></trkpt><trkpt lat="45.87786677481552" lon="11.96304948143873"><ele>178.0</ele><time>2026-04-26T07:24:01.999Z</time></trkpt><trkpt lat="45.87769429369879" lon="11.963077087285773"><ele>178.0</ele><time>2026-04-26T07:24:02.999Z</time></trkpt><trkpt lat="45.87751767823063" lon="11.963105437204518"><ele>178.0</ele><time>2026-04-26T07:24:03.999Z</time></trkpt><trkpt lat="45.87734142494881" lon="11.96313296422671"><ele>178.33333333333334</ele><time>2026-04-26T07:24:04.999Z</time></trkpt><trkpt lat="45.87716865164926" lon="11.963179379223424"><ele>178.66666666666666</ele><time>2026-04-26T07:24:05.999Z</time></trkpt><trkpt lat="45.87698901099783" lon="11.96320522453477"><ele>179.0</ele><time>2026-04-26T07:24:06.999Z</time></trkpt><trkpt lat="45.876820716367945" lon="11.963246868525713"><ele>179.66666666666666</ele><time>2026-04-26T07:24:07.999Z</time></trkpt><trkpt lat="45.87665774857423" lon="11.963275441395798"><ele>180.33333333333334</ele><time>2026-04-26T07:24:08.999Z</time></trkpt><trkpt lat="45.87649632437933" lon="11.963303216564675"><ele>181.0</ele><time>2026-04-26T07:24:09.999Z</time></trkpt><trkpt lat="45.87634949660505" lon="11.963361464007962"><ele>180.75</ele><time>2026-04-26T07:24:10.999Z</time></trkpt><trkpt lat="45.87621516990162" lon="11.963413278766845"><ele>180.5</ele><time>2026-04-26T07:24:11.999Z</time></trkpt><trkpt lat="45.876090176452266" lon="11.963470176045945"><ele>180.25</ele><time>2026-04-26T07:24:12.999Z</time></trkpt><trkpt lat="45.8759834600272" lon="11.963525133024781"><ele>180.0</ele><time>2026-04-26T07:24:13.999Z</time></trkpt><trkpt lat="45.875890299455484" lon="11.963571031020757"><ele>180.0</ele><time>2026-04-26T07:24:14.999Z</time></trkpt><trkpt lat="45.87580043896044" lon="11.963617974532355"><ele>180.0</ele><time>2026-04-26T07:24:15.999Z</time></trkpt><trkpt lat="45.875719170828866" lon="11.963664173529013"><ele>180.0</ele><time>2026-04-26T07:24:16.999Z</time></trkpt><trkpt lat="45.87566107670267" lon="11.963705195723557"><ele>180.0</ele><time>2026-04-26T07:24:17.999Z</time></trkpt><trkpt lat="45.87558771985075" lon="11.963760792654634"><ele>180.0</ele><time>2026-04-26T07:24:19.999Z</time></trkpt><trkpt lat="45.875506756755726" lon="11.963798144012612"><ele>180.0</ele><time>2026-04-26T07:24:21.999Z</time></trkpt><trkpt lat="45.87541317523611" lon="11.963818936318813"><ele>180.0</ele><time>2026-04-26T07:24:22.999Z</time></trkpt><trkpt lat="45.875310822772036" lon="11.963722179002865"><ele>180.0</ele><time>2026-04-26T07:24:24.998Z</time></trkpt><trkpt lat="45.87528111947724" lon="11.96360001167035"><ele>180.0</ele><time>2026-04-26T07:24:25.998Z</time></trkpt><trkpt lat="45.87530908810278" lon="11.963470131384684"><ele>180.0</ele><time>2026-04-26T07:24:26.998Z</time></trkpt><trkpt lat="45.875339897744304" lon="11.963323197061367"><ele>180.0</ele><time>2026-04-26T07:24:27.998Z</time></trkpt><trkpt lat="45.87537348514263" lon="11.963141105406484"><ele>182.33333333333334</ele><time>2026-04-26T07:24:28.998Z</time></trkpt><trkpt lat="45.87539981961757" lon="11.962960255377782"><ele>184.66666666666669</ele><time>2026-04-26T07:24:29.998Z</time></trkpt><trkpt lat="45.87543854467479" lon="11.962716187749658"><ele>187.0</ele><time>2026-04-26T07:24:30.998Z</time></trkpt><trkpt lat="45.875479252147855" lon="11.962493173810842"><ele>187.75</ele><time>2026-04-26T07:24:31.998Z</time></trkpt><trkpt lat="45.87552085883202" lon="11.962282908989645"><ele>188.5</ele><time>2026-04-26T07:24:32.998Z</time></trkpt><trkpt lat="45.875558586849124" lon="11.962079811126683"><ele>189.25</ele><time>2026-04-26T07:24:33.998Z</time></trkpt><trkpt lat="45.8756144626184" lon="11.96189584080301"><ele>190.0</ele><time>2026-04-26T07:24:34.998Z</time></trkpt><trkpt lat="45.87568239147829" lon="11.961699861167435"><ele>191.25</ele><time>2026-04-26T07:24:35.998Z</time></trkpt><trkpt lat="45.875807133845214" lon="11.961585762741583"><ele>192.5</ele><time>2026-04-26T07:24:37Z</time></trkpt><trkpt lat="45.875917011228125" lon="11.961468053518658"><ele>193.75</ele><time>2026-04-26T07:24:38Z</time></trkpt><trkpt lat="45.87603516088905" lon="11.96134295133201"><ele>195.0</ele><time>2026-04-26T07:24:39Z</time></trkpt><trkpt lat="45.87617612936715" lon="11.961193426103362"><ele>195.0</ele><time>2026-04-26T07:24:40Z</time></trkpt><trkpt lat="45.87632390209707" lon="11.961034524569335"><ele>195.0</ele><time>2026-04-26T07:24:41Z</time></trkpt><trkpt lat="45.87645881743616" lon="11.960889580535131"><ele>195.0</ele><time>2026-04-26T07:24:42Z</time></trkpt><trkpt lat="45.87658643373461" lon="11.960752502378762"><ele>196.75</ele><time>2026-04-26T07:24:43Z</time></trkpt><trkpt lat="45.87670907312537" lon="11.960620770469598"><ele>198.5</ele><time>2026-04-26T07:24:44Z</time></trkpt><trkpt lat="45.87681982535193" lon="11.96050157276519"><ele>200.25</ele><time>2026-04-26T07:24:45Z</time></trkpt><trkpt lat="45.87693937254059" lon="11.960373982233458"><ele>202.0</ele><time>2026-04-26T07:24:46Z</time></trkpt><trkpt lat="45.877040773882435" lon="11.96026812817845"><ele>202.39999999999998</ele><time>2026-04-26T07:24:47Z</time></trkpt><trkpt lat="45.87712107184588" lon="11.960151581467308"><ele>202.79999999999998</ele><time>2026-04-26T07:24:48Z</time></trkpt><trkpt lat="45.87719293514405" lon="11.960075845424676"><ele>203.2</ele><time>2026-04-26T07:24:49Z</time></trkpt><trkpt lat="45.87722954853855" lon="11.959961735318826"><ele>203.6</ele><time>2026-04-26T07:24:50Z</time></trkpt><trkpt lat="45.877228532957666" lon="11.959832681082949"><ele>204.0</ele><time>2026-04-26T07:24:51Z</time></trkpt><trkpt lat="45.87720354522152" lon="11.959696837985884"><ele>204.39999999999998</ele><time>2026-04-26T07:24:52Z</time></trkpt><trkpt lat="45.87718358690901" lon="11.959552587731851"><ele>204.8</ele><time>2026-04-26T07:24:53Z</time></trkpt><trkpt lat="45.877161362865415" lon="11.959414636529798"><ele>205.2</ele><time>2026-04-26T07:24:54Z</time></trkpt><trkpt lat="45.87715224442034" lon="11.95927573478348"><ele>205.60000000000002</ele><time>2026-04-26T07:24:55Z</time></trkpt><trkpt lat="45.877138670622394" lon="11.95912739410582"><ele>206.0</ele><time>2026-04-26T07:24:56Z</time></trkpt><trkpt lat="45.87712805051513" lon="11.958971460726746"><ele>206.20000000000002</ele><time>2026-04-26T07:24:57Z</time></trkpt><trkpt lat="45.87713206299538" lon="11.95882585353814"><ele>206.4</ele><time>2026-04-26T07:24:58Z</time></trkpt><trkpt lat="45.87716871784373" lon="11.958687131790223"><ele>206.6</ele><time>2026-04-26T07:24:59Z</time></trkpt><trkpt lat="45.877226624079505" lon="11.958552698911767"><ele>206.8</ele><time>2026-04-26T07:25:00Z</time></trkpt><trkpt lat="45.877307371915286" lon="11.95843034519728"><ele>207.0</ele><time>2026-04-26T07:25:01Z</time></trkpt><trkpt lat="45.87739786685586" lon="11.958329721225208"><ele>207.25</ele><time>2026-04-26T07:25:02Z</time></trkpt><trkpt lat="45.877508629929125" lon="11.958238711306857"><ele>207.5</ele><time>2026-04-26T07:25:03Z</time></trkpt><trkpt lat="45.87761069171743" lon="11.958166996226975"><ele>207.75</ele><time>2026-04-26T07:25:04Z</time></trkpt><trkpt lat="45.87772294108824" lon="11.958085456745314"><ele>208.0</ele><time>2026-04-26T07:25:05Z</time></trkpt><trkpt lat="45.8778376514683" lon="11.958000306109946"><ele>208.25</ele><time>2026-04-26T07:25:06Z</time></trkpt><trkpt lat="45.87794369836465" lon="11.957916230173042"><ele>208.5</ele><time>2026-04-26T07:25:07Z</time></trkpt><trkpt lat="45.87805128789404" lon="11.957831878271774"><ele>208.75</ele><time>2026-04-26T07:25:08Z</time></trkpt><trkpt lat="45.878151667111304" lon="11.95775833412336"><ele>209.0</ele><time>2026-04-26T07:25:09Z</time></trkpt><trkpt lat="45.87825260535073" lon="11.957681739349821"><ele>209.0</ele><time>2026-04-26T07:25:10Z</time></trkpt><trkpt lat="45.87833905985245" lon="11.957565939710364"><ele>209.0</ele><time>2026-04-26T07:25:11Z</time></trkpt><trkpt lat="45.8783965504109" lon="11.957436148866682"><ele>209.0</ele><time>2026-04-26T07:25:12Z</time></trkpt><trkpt lat="45.87845346287626" lon="11.957293567705532"><ele>209.0</ele><time>2026-04-26T07:25:13Z</time></trkpt><trkpt lat="45.87842722508744" lon="11.957092959729163"><ele>209.25</ele><time>2026-04-26T07:25:14Z</time></trkpt><trkpt lat="45.87841977396756" lon="11.956898381759656"><ele>209.5</ele><time>2026-04-26T07:25:15Z</time></trkpt><trkpt lat="45.87840499680883" lon="11.956707358793935"><ele>209.75</ele><time>2026-04-26T07:25:16Z</time></trkpt><trkpt lat="45.87839590928842" lon="11.956514939947017"><ele>210.0</ele><time>2026-04-26T07:25:17Z</time></trkpt><trkpt lat="45.878386520102964" lon="11.95633289031289"><ele>210.4</ele><time>2026-04-26T07:25:18Z</time></trkpt><trkpt lat="45.87838228841389" lon="11.956166295653745"><ele>210.8</ele><time>2026-04-26T07:25:19Z</time></trkpt><trkpt lat="45.87837377104993" lon="11.956019122339528"><ele>211.2</ele><time>2026-04-26T07:25:20Z</time></trkpt><trkpt lat="45.87836387448072" lon="11.955869422048014"><ele>211.6</ele><time>2026-04-26T07:25:21Z</time></trkpt><trkpt lat="45.878354062862996" lon="11.955729368093287"><ele>212.0</ele><time>2026-04-26T07:25:22Z</time></trkpt><trkpt lat="45.8783154474068" lon="11.955595968689503"><ele>213.0</ele><time>2026-04-26T07:25:22.999Z</time></trkpt><trkpt lat="45.878260123747" lon="11.955460253378167"><ele>214.0</ele><time>2026-04-26T07:25:23.999Z</time></trkpt><trkpt lat="45.878208269172234" lon="11.955320433360264"><ele>215.0</ele><time>2026-04-26T07:25:24.999Z</time></trkpt><trkpt lat="45.87816041943669" lon="11.955178101102206"><ele>216.0</ele><time>2026-04-26T07:25:25.999Z</time></trkpt><trkpt lat="45.87811142990086" lon="11.9550377182764"><ele>217.0</ele><time>2026-04-26T07:25:26.999Z</time></trkpt><trkpt lat="45.87806546664986" lon="11.954907972239097"><ele>217.2</ele><time>2026-04-26T07:25:27.999Z</time></trkpt><trkpt lat="45.878041831009384" lon="11.95476627280914"><ele>217.39999999999998</ele><time>2026-04-26T07:25:28.999Z</time></trkpt><trkpt lat="45.87802357863499" lon="11.954615132246866"><ele>217.60000000000002</ele><time>2026-04-26T07:25:29.999Z</time></trkpt><trkpt lat="45.87799938231473" lon="11.954459374699866"><ele>217.8</ele><time>2026-04-26T07:25:30.999Z</time></trkpt><trkpt lat="45.87797759199266" lon="11.954316618675785"><ele>218.0</ele><time>2026-04-26T07:25:31.999Z</time></trkpt><trkpt lat="45.87795785428748" lon="11.954171718888931"><ele>218.0</ele><time>2026-04-26T07:25:32.999Z</time></trkpt><trkpt lat="45.877939689871" lon="11.954031239222823"><ele>218.0</ele><time>2026-04-26T07:25:33.999Z</time></trkpt><trkpt lat="45.87792299516278" lon="11.953903250505425"><ele>218.0</ele><time>2026-04-26T07:25:34.999Z</time></trkpt><trkpt lat="45.87789996138121" lon="11.953785577109885"><ele>218.0</ele><time>2026-04-26T07:25:35.999Z</time></trkpt><trkpt lat="45.87788869700415" lon="11.953658881509138"><ele>218.0</ele><time>2026-04-26T07:25:36.999Z</time></trkpt><trkpt lat="45.87786597524905" lon="11.953521933076823"><ele>218.0</ele><time>2026-04-26T07:25:37.999Z</time></trkpt><trkpt lat="45.877846266077825" lon="11.95337645507911"><ele>218.0</ele><time>2026-04-26T07:25:38.999Z</time></trkpt><trkpt lat="45.8778226444261" lon="11.953228001485456"><ele>218.0</ele><time>2026-04-26T07:25:39.999Z</time></trkpt><trkpt lat="45.87779594591415" lon="11.953079046393782"><ele>218.0</ele><time>2026-04-26T07:25:40.999Z</time></trkpt><trkpt lat="45.877770350489136" lon="11.952922253327106"><ele>218.0</ele><time>2026-04-26T07:25:41.999Z</time></trkpt><trkpt lat="45.87774331354124" lon="11.952774520794039"><ele>218.0</ele><time>2026-04-26T07:25:42.999Z</time></trkpt><trkpt lat="45.877703728231786" lon="11.952615602297632"><ele>218.0</ele><time>2026-04-26T07:25:43.999Z</time></trkpt><trkpt lat="45.87765471991065" lon="11.952462155962305"><ele>218.0</ele><time>2026-04-26T07:25:44.999Z</time></trkpt><trkpt lat="45.87760251597121" lon="11.952316068021853"><ele>218.0</ele><time>2026-04-26T07:25:45.999Z</time></trkpt><trkpt lat="45.87754235441826" lon="11.952177491704447"><ele>217.8</ele><time>2026-04-26T07:25:46.999Z</time></trkpt><trkpt lat="45.87748230753818" lon="11.952043765770979"><ele>217.60000000000002</ele><time>2026-04-26T07:25:47.999Z</time></trkpt><trkpt lat="45.87741782455702" lon="11.951920226430651"><ele>217.39999999999998</ele><time>2026-04-26T07:25:48.999Z</time></trkpt><trkpt lat="45.877341937549645" lon="11.951804999457732"><ele>217.2</ele><time>2026-04-26T07:25:49.999Z</time></trkpt><trkpt lat="45.8772702119946" lon="11.951682997176452"><ele>217.0</ele><time>2026-04-26T07:25:50.999Z</time></trkpt><trkpt lat="45.877203753965574" lon="11.95155811724264"><ele>217.75</ele><time>2026-04-26T07:25:51.999Z</time></trkpt><trkpt lat="45.877119324671874" lon="11.951437840679205"><ele>218.5</ele><time>2026-04-26T07:25:52.999Z</time></trkpt><trkpt lat="45.8770436158839" lon="11.951321850738783"><ele>219.25</ele><time>2026-04-26T07:25:53.999Z</time></trkpt><trkpt lat="45.876964985675" lon="11.951210655539633"><ele>220.0</ele><time>2026-04-26T07:25:54.999Z</time></trkpt><trkpt lat="45.87687953059441" lon="11.951094221456826"><ele>220.0</ele><time>2026-04-26T07:25:55.999Z</time></trkpt><trkpt lat="45.87678460509564" lon="11.950984349633602"><ele>220.0</ele><time>2026-04-26T07:25:56.999Z</time></trkpt><trkpt lat="45.87669574573808" lon="11.950873937730643"><ele>220.0</ele><time>2026-04-26T07:25:57.999Z</time></trkpt><trkpt lat="45.876611712320866" lon="11.950764591732838"><ele>220.0</ele><time>2026-04-26T07:25:58.999Z</time></trkpt><trkpt lat="45.876524215744176" lon="11.95066135693575"><ele>220.2</ele><time>2026-04-26T07:25:59.999Z</time></trkpt><trkpt lat="45.87643899879329" lon="11.950566405376248"><ele>220.4</ele><time>2026-04-26T07:26:00.999Z</time></trkpt><trkpt lat="45.876353444640905" lon="11.950480299432547"><ele>220.60000000000002</ele><time>2026-04-26T07:26:01.999Z</time></trkpt><trkpt lat="45.87627831016462" lon="11.95038958342002"><ele>220.8</ele><time>2026-04-26T07:26:02.999Z</time></trkpt><trkpt lat="45.87620568027576" lon="11.950300700339454"><ele>221.0</ele><time>2026-04-26T07:26:03.999Z</time></trkpt><trkpt lat="45.87612397797389" lon="11.950218860213552"><ele>221.0</ele><time>2026-04-26T07:26:04.999Z</time></trkpt><trkpt lat="45.876039161806574" lon="11.950135242956055"><ele>221.00000000000003</ele><time>2026-04-26T07:26:05.999Z</time></trkpt><trkpt lat="45.875955870903255" lon="11.950047885587969"><ele>221.00000000000003</ele><time>2026-04-26T07:26:06.999Z</time></trkpt><trkpt lat="45.875871554403844" lon="11.94996737612225"><ele>221.0</ele><time>2026-04-26T07:26:07.999Z</time></trkpt><trkpt lat="45.8757858218231" lon="11.949886670578437"><ele>221.0</ele><time>2026-04-26T07:26:08.999Z</time></trkpt><trkpt lat="45.87568920311706" lon="11.949809813205333"><ele>221.60000000000002</ele><time>2026-04-26T07:26:09.999Z</time></trkpt><trkpt lat="45.87559457373299" lon="11.949735679905846"><ele>222.20000000000002</ele><time>2026-04-26T07:26:10.999Z</time></trkpt><trkpt lat="45.87550939876181" lon="11.949662394367621"><ele>222.79999999999998</ele><time>2026-04-26T07:26:11.999Z</time></trkpt><trkpt lat="45.87543754206759" lon="11.94956819304593"><ele>223.39999999999998</ele><time>2026-04-26T07:26:12.999Z</time></trkpt><trkpt lat="45.875354705884554" lon="11.94951208555874"><ele>224.0</ele><time>2026-04-26T07:26:13.999Z</time></trkpt><trkpt lat="45.875277680554355" lon="11.949445090573867"><ele>224.00000000000003</ele><time>2026-04-26T07:26:14.999Z</time></trkpt><trkpt lat="45.8752263041301" lon="11.949361115421574"><ele>224.0</ele><time>2026-04-26T07:26:15.999Z</time></trkpt><trkpt lat="45.87515901683699" lon="11.949298445956105"><ele>224.0</ele><time>2026-04-26T07:26:16.999Z</time></trkpt><trkpt lat="45.875088775634836" lon="11.949233147043506"><ele>224.0</ele><time>2026-04-26T07:26:17.999Z</time></trkpt><trkpt lat="45.87501922715593" lon="11.949159572071517"><ele>224.00000000000003</ele><time>2026-04-26T07:26:18.999Z</time></trkpt><trkpt lat="45.87494354992081" lon="11.94907369766661"><ele>224.0</ele><time>2026-04-26T07:26:19.999Z</time></trkpt><trkpt lat="45.874870163790256" lon="11.948995427707983"><ele>223.2</ele><time>2026-04-26T07:26:20.999Z</time></trkpt><trkpt lat="45.87479769929454" lon="11.948916863783316"><ele>222.39999999999998</ele><time>2026-04-26T07:26:21.999Z</time></trkpt><trkpt lat="45.874739218125264" lon="11.948810249764078"><ele>221.6</ele><time>2026-04-26T07:26:22.999Z</time></trkpt><trkpt lat="45.87466256043683" lon="11.948713960641768"><ele>220.8</ele><time>2026-04-26T07:26:23.999Z</time></trkpt><trkpt lat="45.87458497514911" lon="11.948617161475571"><ele>220.0</ele><time>2026-04-26T07:26:24.999Z</time></trkpt><trkpt lat="45.87450651468816" lon="11.948519272410318"><ele>220.0</ele><time>2026-04-26T07:26:25.999Z</time></trkpt><trkpt lat="45.874428471097545" lon="11.9484151950621"><ele>220.0</ele><time>2026-04-26T07:26:26.999Z</time></trkpt><trkpt lat="45.874359336469276" lon="11.948309547338956"><ele>220.0</ele><time>2026-04-26T07:26:27.999Z</time></trkpt><trkpt lat="45.87429439780478" lon="11.948202159164378"><ele>220.0</ele><time>2026-04-26T07:26:28.999Z</time></trkpt><trkpt lat="45.874237377901665" lon="11.948105263821656"><ele>220.0</ele><time>2026-04-26T07:26:29.999Z</time></trkpt><trkpt lat="45.874181296513726" lon="11.948012026456219"><ele>220.0</ele><time>2026-04-26T07:26:30.999Z</time></trkpt><trkpt lat="45.8741199920529" lon="11.947913085626578"><ele>220.0</ele><time>2026-04-26T07:26:31.998Z</time></trkpt><trkpt lat="45.87407025244772" lon="11.94783405917598"><ele>220.0</ele><time>2026-04-26T07:26:32.998Z</time></trkpt><trkpt lat="45.87403227704695" lon="11.947710041378715"><ele>220.0</ele><time>2026-04-26T07:26:34.998Z</time></trkpt><trkpt lat="45.873985992766116" lon="11.947636511215675"><ele>220.0</ele><time>2026-04-26T07:26:37.998Z</time></trkpt><trkpt lat="45.874085177725554" lon="11.947441242985352"><ele>220.14285714285714</ele><time>2026-04-26T07:28:02.999Z</time></trkpt><trkpt lat="45.874155941798584" lon="11.947420998317966"><ele>220.28571428571428</ele><time>2026-04-26T07:28:14.999Z</time></trkpt><trkpt lat="45.87421035585382" lon="11.947373199175184"><ele>220.42857142857144</ele><time>2026-04-26T07:28:21.999Z</time></trkpt><trkpt lat="45.87426254955858" lon="11.947315982336523"><ele>220.57142857142856</ele><time>2026-04-26T07:28:30.999Z</time></trkpt><trkpt lat="45.87423408611701" lon="11.94719578759723"><ele>220.71428571428572</ele><time>2026-04-26T07:29:42.999Z</time></trkpt><trkpt lat="45.87424453661313" lon="11.947288962634076"><ele>220.85714285714286</ele><time>2026-04-26T07:30:38.999Z</time></trkpt><trkpt lat="45.87428670970479" lon="11.947361394545098"><ele>221.0</ele><time>2026-04-26T07:30:45.999Z</time></trkpt><trkpt lat="45.87425554957741" lon="11.947240962207552"><ele>221.0</ele><time>2026-04-26T07:32:26.999Z</time></trkpt><trkpt lat="45.87421244591987" lon="11.947141701440433"><ele>221.0</ele><time>2026-04-26T07:32:34.999Z</time></trkpt><trkpt lat="45.8743034155226" lon="11.94720246798302"><ele>223.0</ele><time>2026-04-26T07:33:13Z</time></trkpt><trkpt lat="45.87433114430592" lon="11.947309030491773"><ele>223.0</ele><time>2026-04-26T07:35:46Z</time></trkpt><trkpt lat="45.874265896780926" lon="11.947269663495007"><ele>221.0</ele><time>2026-04-26T07:39:38.996Z</time></trkpt></trkseg><trkseg><trkpt lat="45.87388560615887" lon="11.947571714432083"><ele>219.99999999999997</ele><time>2026-04-26T08:02:11.925Z</time></trkpt><trkpt lat="45.87396520667125" lon="11.94760107117713"><ele>220.0</ele><time>2026-04-26T08:02:15.022Z</time></trkpt><trkpt lat="45.87397270593669" lon="11.94769227882844"><ele>220.0</ele><time>2026-04-26T08:02:30Z</time></trkpt><trkpt lat="45.87403939172114" lon="11.947837026733476"><ele>220.0</ele><time>2026-04-26T08:02:32Z</time></trkpt><trkpt lat="45.87409320372363" lon="11.947926882802513"><ele>219.99999999999997</ele><time>2026-04-26T08:02:33Z</time></trkpt><trkpt lat="45.87414835566344" lon="11.948012907545449"><ele>220.0</ele><time>2026-04-26T08:02:34Z</time></trkpt><trkpt lat="45.87420667088828" lon="11.94810962395571"><ele>219.99999999999997</ele><time>2026-04-26T08:02:35Z</time></trkpt><trkpt lat="45.87424026271432" lon="11.948219815508699"><ele>220.0</ele><time>2026-04-26T08:02:36Z</time></trkpt><trkpt lat="45.874318932449405" lon="11.948315648908979"><ele>220.0</ele><time>2026-04-26T08:02:38Z</time></trkpt><trkpt lat="45.87436789054014" lon="11.948373361423062"><ele>220.0</ele><time>2026-04-26T08:02:39Z</time></trkpt><trkpt lat="45.87441045288422" lon="11.948440090643672"><ele>219.99999999999997</ele><time>2026-04-26T08:02:40Z</time></trkpt><trkpt lat="45.87448548072004" lon="11.948561828731062"><ele>220.0</ele><time>2026-04-26T08:02:42Z</time></trkpt><trkpt lat="45.87456349140437" lon="11.948670135647285"><ele>219.99999999999997</ele><time>2026-04-26T08:02:44Z</time></trkpt><trkpt lat="45.874617659053634" lon="11.948732753283112"><ele>220.0</ele><time>2026-04-26T08:02:45Z</time></trkpt><trkpt lat="45.87467361345536" lon="11.948798608109975"><ele>220.0</ele><time>2026-04-26T08:02:46Z</time></trkpt><trkpt lat="45.87472317127986" lon="11.948861923120308"><ele>220.0</ele><time>2026-04-26T08:02:47Z</time></trkpt><trkpt lat="45.87480729852373" lon="11.948957767265103"><ele>219.99999999999997</ele><time>2026-04-26T08:02:49Z</time></trkpt><trkpt lat="45.87488632244376" lon="11.949062130199819"><ele>220.0</ele><time>2026-04-26T08:02:51Z</time></trkpt><trkpt lat="45.87497846541832" lon="11.949156058696982"><ele>219.8</ele><time>2026-04-26T08:02:53Z</time></trkpt><trkpt lat="45.87506840827096" lon="11.949255465622421"><ele>219.6</ele><time>2026-04-26T08:02:55Z</time></trkpt><trkpt lat="45.87514805386476" lon="11.9493452235738"><ele>219.39999999999998</ele><time>2026-04-26T08:02:57Z</time></trkpt><trkpt lat="45.87523569732042" lon="11.949440372095134"><ele>219.2</ele><time>2026-04-26T08:02:59Z</time></trkpt><trkpt lat="45.875312527829" lon="11.949522982881277"><ele>219.0</ele><time>2026-04-26T08:03:01Z</time></trkpt><trkpt lat="45.87540845326429" lon="11.949591585649022"><ele>220.0</ele><time>2026-04-26T08:03:03Z</time></trkpt><trkpt lat="45.87550216878875" lon="11.949679357643088"><ele>220.99999999999997</ele><time>2026-04-26T08:03:05Z</time></trkpt><trkpt lat="45.875591149908026" lon="11.949754976248085"><ele>221.99999999999997</ele><time>2026-04-26T08:03:07Z</time></trkpt><trkpt lat="45.87570250359759" lon="11.949861645731945"><ele>223.0</ele><time>2026-04-26T08:03:08.999Z</time></trkpt><trkpt lat="45.87577247205798" lon="11.949934178426126"><ele>224.0</ele><time>2026-04-26T08:03:09.999Z</time></trkpt><trkpt lat="45.87583947306" lon="11.94999797574444"><ele>223.50000000000003</ele><time>2026-04-26T08:03:10.999Z</time></trkpt><trkpt lat="45.87590946321474" lon="11.950065307361807"><ele>223.0</ele><time>2026-04-26T08:03:11.999Z</time></trkpt><trkpt lat="45.875978781493885" lon="11.950137709938456"><ele>222.5</ele><time>2026-04-26T08:03:12.999Z</time></trkpt><trkpt lat="45.876058193959864" lon="11.95021564244093"><ele>222.0</ele><time>2026-04-26T08:03:13.999Z</time></trkpt><trkpt lat="45.876132821117764" lon="11.95028986001125"><ele>221.50000000000003</ele><time>2026-04-26T08:03:14.999Z</time></trkpt><trkpt lat="45.8761993513554" lon="11.950346260563277"><ele>221.0</ele><time>2026-04-26T08:03:15.999Z</time></trkpt><trkpt lat="45.87626368250063" lon="11.950408415122112"><ele>221.00000000000003</ele><time>2026-04-26T08:03:16.999Z</time></trkpt><trkpt lat="45.876318579154116" lon="11.950473996472935"><ele>221.0</ele><time>2026-04-26T08:03:17.999Z</time></trkpt><trkpt lat="45.87637546349285" lon="11.950545837304691"><ele>221.0</ele><time>2026-04-26T08:03:18.999Z</time></trkpt><trkpt lat="45.87643133018469" lon="11.950627543814191"><ele>221.0</ele><time>2026-04-26T08:03:19.999Z</time></trkpt><trkpt lat="45.87649171428695" lon="11.950703921441551"><ele>221.00000000000003</ele><time>2026-04-26T08:03:20.999Z</time></trkpt><trkpt lat="45.87655011151234" lon="11.950769624617587"><ele>221.0</ele><time>2026-04-26T08:03:21.999Z</time></trkpt><trkpt lat="45.8766035345143" lon="11.95083794411869"><ele>220.85714285714286</ele><time>2026-04-26T08:03:22.999Z</time></trkpt><trkpt lat="45.876653009149024" lon="11.950911358725385"><ele>220.71428571428572</ele><time>2026-04-26T08:03:23.999Z</time></trkpt><trkpt lat="45.87670676802666" lon="11.950981740718248"><ele>220.57142857142856</ele><time>2026-04-26T08:03:24.999Z</time></trkpt><trkpt lat="45.876755012797815" lon="11.951051626551331"><ele>220.42857142857144</ele><time>2026-04-26T08:03:25.999Z</time></trkpt><trkpt lat="45.876808891783384" lon="11.951124491013546"><ele>220.28571428571428</ele><time>2026-04-26T08:03:26.999Z</time></trkpt><trkpt lat="45.87686308547028" lon="11.95119242336689"><ele>220.14285714285714</ele><time>2026-04-26T08:03:27.999Z</time></trkpt><trkpt lat="45.87692289709369" lon="11.951270122407797"><ele>220.0</ele><time>2026-04-26T08:03:28.999Z</time></trkpt><trkpt lat="45.87696946505516" lon="11.951332127310968"><ele>219.99999999999997</ele><time>2026-04-26T08:03:29.999Z</time></trkpt><trkpt lat="45.877015761572665" lon="11.951394339386416"><ele>220.0</ele><time>2026-04-26T08:03:30.999Z</time></trkpt><trkpt lat="45.87709155836654" lon="11.951515618831403"><ele>220.0</ele><time>2026-04-26T08:03:32.999Z</time></trkpt><trkpt lat="45.87713317451257" lon="11.951585114815668"><ele>220.0</ele><time>2026-04-26T08:03:33.999Z</time></trkpt><trkpt lat="45.877175624579614" lon="11.95167074107934"><ele>219.99999999999997</ele><time>2026-04-26T08:03:34.999Z</time></trkpt><trkpt lat="45.87722878600217" lon="11.951747021108792"><ele>220.0</ele><time>2026-04-26T08:03:35.999Z</time></trkpt><trkpt lat="45.877275871594804" lon="11.951815438510202"><ele>219.49999999999997</ele><time>2026-04-26T08:03:36.999Z</time></trkpt><trkpt lat="45.87732668077087" lon="11.95189667926502"><ele>219.0</ele><time>2026-04-26T08:03:37.999Z</time></trkpt><trkpt lat="45.8773746887813" lon="11.951972353358334"><ele>218.5</ele><time>2026-04-26T08:03:38.999Z</time></trkpt><trkpt lat="45.87741874818439" lon="11.952076191089688"><ele>218.0</ele><time>2026-04-26T08:03:39.999Z</time></trkpt><trkpt lat="45.87746161722512" lon="11.952166599045098"><ele>217.49999999999997</ele><time>2026-04-26T08:03:40.999Z</time></trkpt><trkpt lat="45.87750812699411" lon="11.952255316669293"><ele>217.0</ele><time>2026-04-26T08:03:41.999Z</time></trkpt><trkpt lat="45.87755362822304" lon="11.952349772859915"><ele>217.0</ele><time>2026-04-26T08:03:42.999Z</time></trkpt><trkpt lat="45.877591863241086" lon="11.952449362459378"><ele>217.0</ele><time>2026-04-26T08:03:43.999Z</time></trkpt><trkpt lat="45.87764498595002" lon="11.952628195353034"><ele>217.0</ele><time>2026-04-26T08:03:45.999Z</time></trkpt><trkpt lat="45.87768146330496" lon="11.952727405429664"><ele>217.0</ele><time>2026-04-26T08:03:46.999Z</time></trkpt><trkpt lat="45.87770794659256" lon="11.952836785552687"><ele>217.0</ele><time>2026-04-26T08:03:47.999Z</time></trkpt><trkpt lat="45.877722163049995" lon="11.952945860674161"><ele>217.16666666666666</ele><time>2026-04-26T08:03:48.999Z</time></trkpt><trkpt lat="45.87773827421629" lon="11.953057253051044"><ele>217.33333333333331</ele><time>2026-04-26T08:03:49.999Z</time></trkpt><trkpt lat="45.8777480739942" lon="11.953170872060705"><ele>217.5</ele><time>2026-04-26T08:03:50.999Z</time></trkpt><trkpt lat="45.87776358515834" lon="11.953281306355127"><ele>217.66666666666669</ele><time>2026-04-26T08:03:51.999Z</time></trkpt><trkpt lat="45.877783196984" lon="11.953390625427561"><ele>217.83333333333334</ele><time>2026-04-26T08:03:52.999Z</time></trkpt><trkpt lat="45.87779806015401" lon="11.953494730115747"><ele>218.0</ele><time>2026-04-26T08:03:53.999Z</time></trkpt><trkpt lat="45.87782314779347" lon="11.953654288569712"><ele>218.00000000000003</ele><time>2026-04-26T08:03:55.999Z</time></trkpt><trkpt lat="45.877828202065096" lon="11.953746073598499"><ele>218.0</ele><time>2026-04-26T08:03:56.999Z</time></trkpt><trkpt lat="45.877851880870566" lon="11.95393070411351"><ele>218.0</ele><time>2026-04-26T08:03:58.999Z</time></trkpt><trkpt lat="45.87786437796951" lon="11.954023384902301"><ele>218.0</ele><time>2026-04-26T08:03:59.999Z</time></trkpt><trkpt lat="45.87789474140168" lon="11.95411717917311"><ele>218.00000000000003</ele><time>2026-04-26T08:04:00.999Z</time></trkpt><trkpt lat="45.877904057069095" lon="11.954258474189873"><ele>218.0</ele><time>2026-04-26T08:04:02.999Z</time></trkpt><trkpt lat="45.877916218762486" lon="11.954349450767115"><ele>218.16666666666669</ele><time>2026-04-26T08:04:04.999Z</time></trkpt><trkpt lat="45.87793444005557" lon="11.954444307578408"><ele>218.33333333333334</ele><time>2026-04-26T08:04:09.999Z</time></trkpt><trkpt lat="45.87799262029224" lon="11.95456760740689"><ele>218.5</ele><time>2026-04-26T08:04:43Z</time></trkpt><trkpt lat="45.87808645933637" lon="11.954616406412578"><ele>218.66666666666669</ele><time>2026-04-26T08:04:45Z</time></trkpt><trkpt lat="45.87815979767814" lon="11.954615415670245"><ele>218.83333333333334</ele><time>2026-04-26T08:04:46Z</time></trkpt><trkpt lat="45.87824528730487" lon="11.954655978791212"><ele>219.0</ele><time>2026-04-26T08:04:47Z</time></trkpt><trkpt lat="45.87829946237107" lon="11.954771052375381"><ele>219.0</ele><time>2026-04-26T08:04:48Z</time></trkpt><trkpt lat="45.878366678873135" lon="11.954822842403892"><ele>219.0</ele><time>2026-04-26T08:04:49Z</time></trkpt><trkpt lat="45.878441378065894" lon="11.954875682950025"><ele>219.0</ele><time>2026-04-26T08:04:50Z</time></trkpt><trkpt lat="45.878499084828256" lon="11.954941705458136"><ele>219.0</ele><time>2026-04-26T08:04:51Z</time></trkpt><trkpt lat="45.878536660557565" lon="11.955030301409995"><ele>219.0</ele><time>2026-04-26T08:04:52Z</time></trkpt><trkpt lat="45.878567460321335" lon="11.95511509791862"><ele>219.0</ele><time>2026-04-26T08:04:53Z</time></trkpt><trkpt lat="45.878615469567016" lon="11.955265912276491"><ele>221.2</ele><time>2026-04-26T08:04:55Z</time></trkpt><trkpt lat="45.87866623741788" lon="11.955408667395893"><ele>223.39999999999998</ele><time>2026-04-26T08:04:57Z</time></trkpt><trkpt lat="45.87876846428838" lon="11.95551255884241"><ele>225.6</ele><time>2026-04-26T08:04:59Z</time></trkpt><trkpt lat="45.87884139927436" lon="11.955503895853923"><ele>227.8</ele><time>2026-04-26T08:05:00Z</time></trkpt><trkpt lat="45.87889027468693" lon="11.955406488264858"><ele>230.0</ele><time>2026-04-26T08:05:01Z</time></trkpt><trkpt lat="45.87889709291502" lon="11.955267718437247"><ele>230.00000000000003</ele><time>2026-04-26T08:05:02Z</time></trkpt><trkpt lat="45.87885811857045" lon="11.95513841101479"><ele>230.0</ele><time>2026-04-26T08:05:03Z</time></trkpt><trkpt lat="45.878795674935596" lon="11.955065257872338"><ele>230.0</ele><time>2026-04-26T08:05:04Z</time></trkpt><trkpt lat="45.87876907671338" lon="11.954969849165199"><ele>230.0</ele><time>2026-04-26T08:05:05Z</time></trkpt><trkpt lat="45.87882405743065" lon="11.954841727853864"><ele>230.00000000000003</ele><time>2026-04-26T08:05:07Z</time></trkpt><trkpt lat="45.87889366097936" lon="11.954871288733624"><ele>230.0</ele><time>2026-04-26T08:05:08Z</time></trkpt><trkpt lat="45.878917040607" lon="11.955081932655338"><ele>230.0</ele><time>2026-04-26T08:05:10Z</time></trkpt><trkpt lat="45.878962116558604" lon="11.955214503470371"><ele>230.0</ele><time>2026-04-26T08:05:11Z</time></trkpt><trkpt lat="45.879014257062614" lon="11.95533147298963"><ele>230.0</ele><time>2026-04-26T08:05:12Z</time></trkpt><trkpt lat="45.87908369868774" lon="11.955405616179853"><ele>230.0</ele><time>2026-04-26T08:05:13Z</time></trkpt><trkpt lat="45.8791280191749" lon="11.955506531976535"><ele>230.0</ele><time>2026-04-26T08:05:13.999Z</time></trkpt><trkpt lat="45.879210957086485" lon="11.95555525538931"><ele>230.00000000000003</ele><time>2026-04-26T08:05:14.999Z</time></trkpt><trkpt lat="45.8792654744318" lon="11.95561566242186"><ele>230.0</ele><time>2026-04-26T08:05:15.999Z</time></trkpt><trkpt lat="45.87933907344275" lon="11.95564843417434"><ele>230.0</ele><time>2026-04-26T08:05:16.999Z</time></trkpt><trkpt lat="45.8794318658651" lon="11.955670445141347"><ele>230.0</ele><time>2026-04-26T08:05:17.999Z</time></trkpt><trkpt lat="45.87953620752421" lon="11.955684077423653"><ele>230.00000000000003</ele><time>2026-04-26T08:05:18.999Z</time></trkpt><trkpt lat="45.87963078704748" lon="11.955695883637095"><ele>230.0</ele><time>2026-04-26T08:05:19.999Z</time></trkpt><trkpt lat="45.879746637606395" lon="11.95569108473479"><ele>233.5</ele><time>2026-04-26T08:05:20.999Z</time></trkpt><trkpt lat="45.879866197947734" lon="11.95571453887527"><ele>237.0</ele><time>2026-04-26T08:05:21.999Z</time></trkpt><trkpt lat="45.87997440817363" lon="11.955735191583017"><ele>240.5</ele><time>2026-04-26T08:05:22.999Z</time></trkpt><trkpt lat="45.88008750322248" lon="11.955765397649671"><ele>244.0</ele><time>2026-04-26T08:05:23.999Z</time></trkpt><trkpt lat="45.88021456424519" lon="11.955755193764013"><ele>247.5</ele><time>2026-04-26T08:05:24.999Z</time></trkpt><trkpt lat="45.88034028643964" lon="11.95572381752107"><ele>251.0</ele><time>2026-04-26T08:05:25.999Z</time></trkpt><trkpt lat="45.88044078079899" lon="11.955728912700163"><ele>254.5</ele><time>2026-04-26T08:05:26.999Z</time></trkpt><trkpt lat="45.88051223978973" lon="11.95583089732907"><ele>258.0</ele><time>2026-04-26T08:05:27.999Z</time></trkpt><trkpt lat="45.88056588501492" lon="11.956059295475077"><ele>258.0</ele><time>2026-04-26T08:05:29.999Z</time></trkpt><trkpt lat="45.880608494653444" lon="11.956182682286858"><ele>258.0</ele><time>2026-04-26T08:05:30.999Z</time></trkpt><trkpt lat="45.88065530371032" lon="11.956337983115926"><ele>258.0</ele><time>2026-04-26T08:05:31.999Z</time></trkpt><trkpt lat="45.880700106310066" lon="11.956484740963345"><ele>258.0</ele><time>2026-04-26T08:05:32.999Z</time></trkpt><trkpt lat="45.88074835528409" lon="11.95659374789754"><ele>258.0</ele><time>2026-04-26T08:05:33.999Z</time></trkpt><trkpt lat="45.88078343437102" lon="11.956722935428738"><ele>256.4</ele><time>2026-04-26T08:05:34.999Z</time></trkpt><trkpt lat="45.8808097917532" lon="11.95684585420359"><ele>254.8</ele><time>2026-04-26T08:05:35.999Z</time></trkpt><trkpt lat="45.880832287383456" lon="11.956943329936504"><ele>253.2</ele><time>2026-04-26T08:05:36.999Z</time></trkpt><trkpt lat="45.8808567412338" lon="11.957042287585155"><ele>251.6</ele><time>2026-04-26T08:05:37.999Z</time></trkpt><trkpt lat="45.88090015708465" lon="11.957224263921551"><ele>250.0</ele><time>2026-04-26T08:05:39.999Z</time></trkpt><trkpt lat="45.88094955581471" lon="11.95733199049057"><ele>245.33333333333331</ele><time>2026-04-26T08:05:41.999Z</time></trkpt><trkpt lat="45.88098989291947" lon="11.957418013142304"><ele>240.66666666666666</ele><time>2026-04-26T08:05:42.999Z</time></trkpt><trkpt lat="45.88105241853521" lon="11.957400537209388"><ele>236.0</ele><time>2026-04-26T08:05:43.999Z</time></trkpt><trkpt lat="45.88112151411177" lon="11.957231433947738"><ele>231.33333333333331</ele><time>2026-04-26T08:05:45.999Z</time></trkpt><trkpt lat="45.88108618818678" lon="11.957096345831559"><ele>226.66666666666666</ele><time>2026-04-26T08:05:46.999Z</time></trkpt><trkpt lat="45.88106708662167" lon="11.956995824611397"><ele>222.0</ele><time>2026-04-26T08:05:47.999Z</time></trkpt><trkpt lat="45.88107884997795" lon="11.956882461498079"><ele>222.0</ele><time>2026-04-26T08:05:48.999Z</time></trkpt><trkpt lat="45.88107673002488" lon="11.956783624866203"><ele>222.0</ele><time>2026-04-26T08:05:49.999Z</time></trkpt><trkpt lat="45.881082179838224" lon="11.956677780008384"><ele>222.0</ele><time>2026-04-26T08:05:50.999Z</time></trkpt><trkpt lat="45.881080848186144" lon="11.956549633418541"><ele>222.0</ele><time>2026-04-26T08:05:51.999Z</time></trkpt><trkpt lat="45.881077380213796" lon="11.956437751449272"><ele>222.0</ele><time>2026-04-26T08:05:52.999Z</time></trkpt><trkpt lat="45.88106902516997" lon="11.95632398018558"><ele>222.0</ele><time>2026-04-26T08:05:53.999Z</time></trkpt><trkpt lat="45.88106239237735" lon="11.956185473854163"><ele>227.14285714285714</ele><time>2026-04-26T08:05:54.999Z</time></trkpt><trkpt lat="45.88106850586701" lon="11.956092903930813"><ele>232.28571428571428</ele><time>2026-04-26T08:05:55.999Z</time></trkpt><trkpt lat="45.88106584590411" lon="11.955999753321217"><ele>237.42857142857142</ele><time>2026-04-26T08:05:56.999Z</time></trkpt><trkpt lat="45.88106484544069" lon="11.955895024387804"><ele>242.57142857142856</ele><time>2026-04-26T08:05:57.999Z</time></trkpt><trkpt lat="45.88106028640874" lon="11.955779935728266"><ele>247.71428571428572</ele><time>2026-04-26T08:05:58.999Z</time></trkpt><trkpt lat="45.881052200062236" lon="11.955684597028725"><ele>252.85714285714283</ele><time>2026-04-26T08:05:59.999Z</time></trkpt><trkpt lat="45.881043299368116" lon="11.955580848068276"><ele>258.0</ele><time>2026-04-26T08:06:00.999Z</time></trkpt><trkpt lat="45.88103732572324" lon="11.955481641946665"><ele>259.0</ele><time>2026-04-26T08:06:01.999Z</time></trkpt><trkpt lat="45.881028481666426" lon="11.955369086460829"><ele>260.0</ele><time>2026-04-26T08:06:02.999Z</time></trkpt><trkpt lat="45.88101068142158" lon="11.955254271198326"><ele>261.0</ele><time>2026-04-26T08:06:03.999Z</time></trkpt><trkpt lat="45.880967473515156" lon="11.955153235615464"><ele>262.0</ele><time>2026-04-26T08:06:04.999Z</time></trkpt><trkpt lat="45.880912387063006" lon="11.955051186531179"><ele>263.0</ele><time>2026-04-26T08:06:05.999Z</time></trkpt><trkpt lat="45.88085341267761" lon="11.954958128707645"><ele>264.0</ele><time>2026-04-26T08:06:06.999Z</time></trkpt><trkpt lat="45.88080703080855" lon="11.95486147051673"><ele>266.1666666666667</ele><time>2026-04-26T08:06:07.999Z</time></trkpt><trkpt lat="45.88076031176642" lon="11.95478055525822"><ele>268.3333333333333</ele><time>2026-04-26T08:06:08.999Z</time></trkpt><trkpt lat="45.88070642441538" lon="11.954675864565145"><ele>270.5</ele><time>2026-04-26T08:06:09.999Z</time></trkpt><trkpt lat="45.880646668674665" lon="11.95458971750583"><ele>272.66666666666663</ele><time>2026-04-26T08:06:10.999Z</time></trkpt><trkpt lat="45.88059815954987" lon="11.954517002633377"><ele>274.8333333333333</ele><time>2026-04-26T08:06:11.999Z</time></trkpt><trkpt lat="45.880561797910026" lon="11.95441909207773"><ele>277.0</ele><time>2026-04-26T08:06:12.999Z</time></trkpt><trkpt lat="45.88059522785593" lon="11.954244228264226"><ele>278.66666666666663</ele><time>2026-04-26T08:06:14.999Z</time></trkpt><trkpt lat="45.88061693406247" lon="11.954111466597267"><ele>280.3333333333333</ele><time>2026-04-26T08:06:16.999Z</time></trkpt><trkpt lat="45.88064976240694" lon="11.954027570392233"><ele>282.0</ele><time>2026-04-26T08:06:17.999Z</time></trkpt><trkpt lat="45.880739380973466" lon="11.953995605901854"><ele>283.6666666666667</ele><time>2026-04-26T08:06:18.999Z</time></trkpt><trkpt lat="45.88077631731484" lon="11.953920165470738"><ele>285.33333333333337</ele><time>2026-04-26T08:06:20.999Z</time></trkpt><trkpt lat="45.88083209118635" lon="11.953985168152672"><ele>287.0</ele><time>2026-04-26T08:06:23.999Z</time></trkpt><trkpt lat="45.880839244266916" lon="11.954103245018986"><ele>285.0</ele><time>2026-04-26T08:06:24.999Z</time></trkpt><trkpt lat="45.880853736858924" lon="11.954268867454996"><ele>283.0</ele><time>2026-04-26T08:06:25.999Z</time></trkpt><trkpt lat="45.88088818547561" lon="11.954385014358623"><ele>281.0</ele><time>2026-04-26T08:06:26.999Z</time></trkpt><trkpt lat="45.88094712885107" lon="11.954498714114264"><ele>279.0</ele><time>2026-04-26T08:06:28Z</time></trkpt><trkpt lat="45.88100321087983" lon="11.954591093232834"><ele>277.0</ele><time>2026-04-26T08:06:29Z</time></trkpt><trkpt lat="45.88109301112359" lon="11.954630778498855"><ele>281.0</ele><time>2026-04-26T08:06:30Z</time></trkpt><trkpt lat="45.881147904397004" lon="11.954718563856217"><ele>285.0</ele><time>2026-04-26T08:06:31Z</time></trkpt><trkpt lat="45.88120444635413" lon="11.954789878940582"><ele>289.0</ele><time>2026-04-26T08:06:32Z</time></trkpt><trkpt lat="45.8812685396785" lon="11.954828668795892"><ele>293.0</ele><time>2026-04-26T08:06:33Z</time></trkpt><trkpt lat="45.881323681435994" lon="11.954901833843714"><ele>297.0</ele><time>2026-04-26T08:06:34Z</time></trkpt><trkpt lat="45.88140337761634" lon="11.954991300211477"><ele>301.0</ele><time>2026-04-26T08:06:36Z</time></trkpt><trkpt lat="45.88149667836135" lon="11.95498031599676"><ele>301.0</ele><time>2026-04-26T08:06:38Z</time></trkpt><trkpt lat="45.88156038319233" lon="11.954933879755744"><ele>301.0</ele><time>2026-04-26T08:06:39Z</time></trkpt><trkpt lat="45.881572261208746" lon="11.954809661763"><ele>301.0</ele><time>2026-04-26T08:06:40Z</time></trkpt><trkpt lat="45.881498610201085" lon="11.954675973383425"><ele>301.0</ele><time>2026-04-26T08:06:42Z</time></trkpt><trkpt lat="45.88142179370905" lon="11.954647445606774"><ele>301.0</ele><time>2026-04-26T08:06:43Z</time></trkpt><trkpt lat="45.88133578213804" lon="11.954532217634352"><ele>301.0</ele><time>2026-04-26T08:06:44Z</time></trkpt><trkpt lat="45.881282553824164" lon="11.95442107820025"><ele>301.0</ele><time>2026-04-26T08:06:45Z</time></trkpt><trkpt lat="45.88123328433109" lon="11.954299761530994"><ele>301.0</ele><time>2026-04-26T08:06:46Z</time></trkpt><trkpt lat="45.88120379444334" lon="11.954178543032617"><ele>301.0</ele><time>2026-04-26T08:06:47Z</time></trkpt><trkpt lat="45.881184258828775" lon="11.954059783008653"><ele>301.0</ele><time>2026-04-26T08:06:48Z</time></trkpt><trkpt lat="45.881217786147296" lon="11.953923069712372"><ele>302.8</ele><time>2026-04-26T08:06:49Z</time></trkpt><trkpt lat="45.88124736449049" lon="11.953832361039108"><ele>304.6</ele><time>2026-04-26T08:06:50Z</time></trkpt><trkpt lat="45.88127777661264" lon="11.953724967381422"><ele>306.4</ele><time>2026-04-26T08:06:51Z</time></trkpt><trkpt lat="45.88132076983217" lon="11.953615516790151"><ele>308.2</ele><time>2026-04-26T08:06:52Z</time></trkpt><trkpt lat="45.88137486902246" lon="11.953479017917392"><ele>310.0</ele><time>2026-04-26T08:06:53Z</time></trkpt><trkpt lat="45.88143622578006" lon="11.953327408912788"><ele>310.4</ele><time>2026-04-26T08:06:54Z</time></trkpt><trkpt lat="45.88149831361022" lon="11.953177675248318"><ele>310.8</ele><time>2026-04-26T08:06:55Z</time></trkpt><trkpt lat="45.88154769530856" lon="11.953023568320097"><ele>311.2</ele><time>2026-04-26T08:06:56Z</time></trkpt><trkpt lat="45.88160365547699" lon="11.952894197037253"><ele>311.6</ele><time>2026-04-26T08:06:57Z</time></trkpt><trkpt lat="45.8816584443755" lon="11.952777894670152"><ele>312.0</ele><time>2026-04-26T08:06:58Z</time></trkpt><trkpt lat="45.88170382418837" lon="11.952658414840805"><ele>318.6</ele><time>2026-04-26T08:06:59Z</time></trkpt><trkpt lat="45.881778748511366" lon="11.952502406628955"><ele>325.2</ele><time>2026-04-26T08:07:01Z</time></trkpt><trkpt lat="45.88180644306438" lon="11.952402834972622"><ele>331.8</ele><time>2026-04-26T08:07:02Z</time></trkpt><trkpt lat="45.88181560086743" lon="11.952290630193774"><ele>338.4</ele><time>2026-04-26T08:07:03Z</time></trkpt><trkpt lat="45.88183757873719" lon="11.952168211992845"><ele>345.0</ele><time>2026-04-26T08:07:04Z</time></trkpt><trkpt lat="45.88185306016198" lon="11.952048830306166"><ele>345.0</ele><time>2026-04-26T08:07:05Z</time></trkpt><trkpt lat="45.88186738740461" lon="11.951940621691437"><ele>345.0</ele><time>2026-04-26T08:07:06Z</time></trkpt><trkpt lat="45.88188143087096" lon="11.951815787004163"><ele>345.0</ele><time>2026-04-26T08:07:07Z</time></trkpt><trkpt lat="45.881882122698826" lon="11.95169923259545"><ele>345.0</ele><time>2026-04-26T08:07:08Z</time></trkpt><trkpt lat="45.88188389580758" lon="11.951571544275389"><ele>345.0</ele><time>2026-04-26T08:07:09Z</time></trkpt><trkpt lat="45.88188653814639" lon="11.951446977397872"><ele>345.0</ele><time>2026-04-26T08:07:10Z</time></trkpt><trkpt lat="45.88183432006647" lon="11.951327295053416"><ele>344.8</ele><time>2026-04-26T08:07:11Z</time></trkpt><trkpt lat="45.88179111188178" lon="11.951207819867758"><ele>344.6</ele><time>2026-04-26T08:07:12Z</time></trkpt><trkpt lat="45.88175388009133" lon="11.951091567565808"><ele>344.4</ele><time>2026-04-26T08:07:13Z</time></trkpt><trkpt lat="45.881725302530555" lon="11.950962458526803"><ele>344.2</ele><time>2026-04-26T08:07:14Z</time></trkpt><trkpt lat="45.881742888399714" lon="11.950816543554925"><ele>344.0</ele><time>2026-04-26T08:07:15Z</time></trkpt><trkpt lat="45.88179613321733" lon="11.950692076025994"><ele>344.6666666666667</ele><time>2026-04-26T08:07:16Z</time></trkpt><trkpt lat="45.88179377714808" lon="11.950568811028827"><ele>345.33333333333337</ele><time>2026-04-26T08:07:17Z</time></trkpt><trkpt lat="45.88180105984535" lon="11.95047285666864"><ele>346.0</ele><time>2026-04-26T08:07:18Z</time></trkpt><trkpt lat="45.881789938239365" lon="11.950363768815176"><ele>346.6666666666667</ele><time>2026-04-26T08:07:19Z</time></trkpt><trkpt lat="45.88178543934215" lon="11.950250038527527"><ele>347.3333333333333</ele><time>2026-04-26T08:07:20Z</time></trkpt><trkpt lat="45.88177487391692" lon="11.950131855331803"><ele>348.0</ele><time>2026-04-26T08:07:20.999Z</time></trkpt><trkpt lat="45.88176554349036" lon="11.950021877548712"><ele>349.4</ele><time>2026-04-26T08:07:21.999Z</time></trkpt><trkpt lat="45.88176607540681" lon="11.949907362148167"><ele>350.79999999999995</ele><time>2026-04-26T08:07:22.999Z</time></trkpt><trkpt lat="45.881761843724284" lon="11.949778623890431"><ele>352.2</ele><time>2026-04-26T08:07:23.999Z</time></trkpt><trkpt lat="45.88181276798518" lon="11.949640621333783"><ele>353.6</ele><time>2026-04-26T08:07:24.999Z</time></trkpt><trkpt lat="45.88180870411017" lon="11.949509254166369"><ele>355.0</ele><time>2026-04-26T08:07:25.999Z</time></trkpt><trkpt lat="45.881806243608324" lon="11.949378479885493"><ele>355.0</ele><time>2026-04-26T08:07:26.999Z</time></trkpt><trkpt lat="45.881802765486306" lon="11.949231324635575"><ele>355.0</ele><time>2026-04-26T08:07:27.999Z</time></trkpt><trkpt lat="45.881811119188015" lon="11.949082361906447"><ele>355.0</ele><time>2026-04-26T08:07:28.999Z</time></trkpt><trkpt lat="45.88182317462234" lon="11.948965630690063"><ele>355.0</ele><time>2026-04-26T08:07:29.999Z</time></trkpt><trkpt lat="45.88181538124657" lon="11.948872257663233"><ele>355.0</ele><time>2026-04-26T08:07:30.999Z</time></trkpt><trkpt lat="45.881823715832816" lon="11.948741256625846"><ele>355.0</ele><time>2026-04-26T08:07:31.999Z</time></trkpt><trkpt lat="45.8818265890832" lon="11.948623062452395"><ele>356.25</ele><time>2026-04-26T08:07:32.999Z</time></trkpt><trkpt lat="45.88179861048695" lon="11.948452606530024"><ele>357.5</ele><time>2026-04-26T08:07:34.999Z</time></trkpt><trkpt lat="45.881823823964204" lon="11.948307551359786"><ele>358.75</ele><time>2026-04-26T08:07:36.999Z</time></trkpt><trkpt lat="45.88194577882266" lon="11.948471105332189"><ele>360.0</ele><time>2026-04-26T08:07:38.999Z</time></trkpt><trkpt lat="45.88198293695562" lon="11.94870558274178"><ele>360.0</ele><time>2026-04-26T08:07:40.999Z</time></trkpt><trkpt lat="45.882022335182455" lon="11.948840380318858"><ele>360.0</ele><time>2026-04-26T08:07:41.999Z</time></trkpt><trkpt lat="45.88205685242729" lon="11.948965916524866"><ele>360.0</ele><time>2026-04-26T08:07:42.999Z</time></trkpt><trkpt lat="45.88209726737115" lon="11.949113982417558"><ele>360.0</ele><time>2026-04-26T08:07:43.999Z</time></trkpt><trkpt lat="45.88214254573924" lon="11.94925941895018"><ele>360.0</ele><time>2026-04-26T08:07:44.999Z</time></trkpt><trkpt lat="45.88221109035749" lon="11.94940714369204"><ele>359.1666666666667</ele><time>2026-04-26T08:07:45.999Z</time></trkpt><trkpt lat="45.882253954958415" lon="11.949520017830865"><ele>358.3333333333333</ele><time>2026-04-26T08:07:46.999Z</time></trkpt><trkpt lat="45.8822932956765" lon="11.949599148400734"><ele>357.5</ele><time>2026-04-26T08:07:47.999Z</time></trkpt><trkpt lat="45.88231902715443" lon="11.94971122376136"><ele>356.66666666666663</ele><time>2026-04-26T08:07:48.999Z</time></trkpt><trkpt lat="45.882345429575075" lon="11.949799250091534"><ele>355.8333333333333</ele><time>2026-04-26T08:07:49.999Z</time></trkpt><trkpt lat="45.882440293355096" lon="11.94993820969544"><ele>355.0</ele><time>2026-04-26T08:07:51.999Z</time></trkpt><trkpt lat="45.88248160476918" lon="11.950012657696766"><ele>353.8333333333333</ele><time>2026-04-26T08:07:52.999Z</time></trkpt><trkpt lat="45.882502374520826" lon="11.950100883357125"><ele>352.66666666666663</ele><time>2026-04-26T08:07:53.999Z</time></trkpt><trkpt lat="45.88253453889678" lon="11.950190138123686"><ele>351.5</ele><time>2026-04-26T08:07:54.999Z</time></trkpt><trkpt lat="45.88257004255932" lon="11.95027045489283"><ele>350.3333333333333</ele><time>2026-04-26T08:07:55.999Z</time></trkpt><trkpt lat="45.88264254813629" lon="11.950374973752279"><ele>349.1666666666667</ele><time>2026-04-26T08:07:57.999Z</time></trkpt><trkpt lat="45.88275010012119" lon="11.95034512485752"><ele>348.0</ele><time>2026-04-26T08:07:59.999Z</time></trkpt><trkpt lat="45.88279562032427" lon="11.950238566548924"><ele>351.79999999999995</ele><time>2026-04-26T08:08:00.999Z</time></trkpt><trkpt lat="45.88277414375017" lon="11.950120774244313"><ele>355.6</ele><time>2026-04-26T08:08:01.999Z</time></trkpt><trkpt lat="45.88276057248498" lon="11.949997402850297"><ele>359.4</ele><time>2026-04-26T08:08:02.999Z</time></trkpt><trkpt lat="45.88274821166475" lon="11.949853414111505"><ele>363.20000000000005</ele><time>2026-04-26T08:08:03.999Z</time></trkpt><trkpt lat="45.88274210957828" lon="11.949717225079533"><ele>367.0</ele><time>2026-04-26T08:08:04.999Z</time></trkpt><trkpt lat="45.88274173425464" lon="11.94957184852605"><ele>368.16666666666663</ele><time>2026-04-26T08:08:05.999Z</time></trkpt><trkpt lat="45.88274206810715" lon="11.949436626963209"><ele>369.3333333333333</ele><time>2026-04-26T08:08:06.999Z</time></trkpt><trkpt lat="45.882732352027176" lon="11.949312591899416"><ele>370.5</ele><time>2026-04-26T08:08:07.999Z</time></trkpt><trkpt lat="45.88273927606666" lon="11.949189545831986"><ele>371.6666666666667</ele><time>2026-04-26T08:08:08.999Z</time></trkpt><trkpt lat="45.882744827328196" lon="11.949060540839199"><ele>372.83333333333337</ele><time>2026-04-26T08:08:09.999Z</time></trkpt><trkpt lat="45.882762587989674" lon="11.948930706894359"><ele>374.0</ele><time>2026-04-26T08:08:10.999Z</time></trkpt><trkpt lat="45.88277959608467" lon="11.948796565217828"><ele>376.4</ele><time>2026-04-26T08:08:11.999Z</time></trkpt><trkpt lat="45.882788345860895" lon="11.948662604959448"><ele>378.79999999999995</ele><time>2026-04-26T08:08:12.999Z</time></trkpt><trkpt lat="45.88277211316456" lon="11.94851899242003"><ele>381.20000000000005</ele><time>2026-04-26T08:08:13.999Z</time></trkpt><trkpt lat="45.88273881019047" lon="11.948371284825289"><ele>383.6</ele><time>2026-04-26T08:08:14.999Z</time></trkpt><trkpt lat="45.88272895615858" lon="11.948233011016274"><ele>386.0</ele><time>2026-04-26T08:08:15.999Z</time></trkpt><trkpt lat="45.882711012002595" lon="11.948105222989689"><ele>387.49999999999994</ele><time>2026-04-26T08:08:16.999Z</time></trkpt><trkpt lat="45.882692600793156" lon="11.947971837627586"><ele>389.0</ele><time>2026-04-26T08:08:17.999Z</time></trkpt><trkpt lat="45.88267468125155" lon="11.947836999693635"><ele>390.5</ele><time>2026-04-26T08:08:18.999Z</time></trkpt><trkpt lat="45.882655890726866" lon="11.947712334866468"><ele>392.0</ele><time>2026-04-26T08:08:19.999Z</time></trkpt><trkpt lat="45.88262912444393" lon="11.947609210471494"><ele>393.49999999999994</ele><time>2026-04-26T08:08:20.999Z</time></trkpt><trkpt lat="45.88262906729539" lon="11.947485611909755"><ele>395.0</ele><time>2026-04-26T08:08:21.999Z</time></trkpt><trkpt lat="45.882613088753644" lon="11.947356628837525"><ele>396.6</ele><time>2026-04-26T08:08:22.999Z</time></trkpt><trkpt lat="45.88260105563181" lon="11.947218922614214"><ele>398.2</ele><time>2026-04-26T08:08:23.999Z</time></trkpt><trkpt lat="45.88258511007257" lon="11.947084214365004"><ele>399.79999999999995</ele><time>2026-04-26T08:08:24.999Z</time></trkpt><trkpt lat="45.88258903110225" lon="11.946952330370747"><ele>401.4</ele><time>2026-04-26T08:08:25.999Z</time></trkpt><trkpt lat="45.88261791467647" lon="11.946822714114655"><ele>403.0</ele><time>2026-04-26T08:08:26.999Z</time></trkpt><trkpt lat="45.882643694719874" lon="11.946696162550507"><ele>404.2</ele><time>2026-04-26T08:08:27.999Z</time></trkpt><trkpt lat="45.88266533953401" lon="11.946559709010016"><ele>405.4</ele><time>2026-04-26T08:08:28.999Z</time></trkpt><trkpt lat="45.882696552572526" lon="11.946427407338662"><ele>406.59999999999997</ele><time>2026-04-26T08:08:29.999Z</time></trkpt><trkpt lat="45.882697934877584" lon="11.94629584224247"><ele>407.79999999999995</ele><time>2026-04-26T08:08:30.999Z</time></trkpt><trkpt lat="45.882711044015544" lon="11.946188787363948"><ele>409.0</ele><time>2026-04-26T08:08:31.999Z</time></trkpt><trkpt lat="45.882739978322775" lon="11.946002865520548"><ele>409.00000000000006</ele><time>2026-04-26T08:08:34Z</time></trkpt><trkpt lat="45.88277960616912" lon="11.945896332401247"><ele>409.0</ele><time>2026-04-26T08:08:35Z</time></trkpt><trkpt lat="45.88282725885307" lon="11.945806988846329"><ele>409.0</ele><time>2026-04-26T08:08:36Z</time></trkpt><trkpt lat="45.88288367060146" lon="11.945715484089387"><ele>409.0</ele><time>2026-04-26T08:08:37Z</time></trkpt><trkpt lat="45.882948963865296" lon="11.945642655000327"><ele>409.00000000000006</ele><time>2026-04-26T08:08:38Z</time></trkpt><trkpt lat="45.883013780561804" lon="11.945578857572881"><ele>409.0</ele><time>2026-04-26T08:08:39Z</time></trkpt><trkpt lat="45.883079071619974" lon="11.945506229737125"><ele>409.1666666666667</ele><time>2026-04-26T08:08:40Z</time></trkpt><trkpt lat="45.88315018761035" lon="11.945433723288371"><ele>409.33333333333337</ele><time>2026-04-26T08:08:41Z</time></trkpt><trkpt lat="45.88322755301103" lon="11.945359273482408"><ele>409.5</ele><time>2026-04-26T08:08:42Z</time></trkpt><trkpt lat="45.88330598066194" lon="11.945290794992516"><ele>409.66666666666663</ele><time>2026-04-26T08:08:43Z</time></trkpt><trkpt lat="45.883378930540516" lon="11.945225594474053"><ele>409.8333333333333</ele><time>2026-04-26T08:08:44Z</time></trkpt><trkpt lat="45.88345382472871" lon="11.94516123713966"><ele>410.0</ele><time>2026-04-26T08:08:45Z</time></trkpt><trkpt lat="45.8835320093615" lon="11.945113338263102"><ele>410.8</ele><time>2026-04-26T08:08:46Z</time></trkpt><trkpt lat="45.88362615961044" lon="11.945060886923299"><ele>411.6</ele><time>2026-04-26T08:08:47Z</time></trkpt><trkpt lat="45.88371899909646" lon="11.945013680628614"><ele>412.4</ele><time>2026-04-26T08:08:48Z</time></trkpt><trkpt lat="45.88380253236618" lon="11.944957859433392"><ele>413.2</ele><time>2026-04-26T08:08:49Z</time></trkpt><trkpt lat="45.88388850236744" lon="11.944909147215347"><ele>414.0</ele><time>2026-04-26T08:08:50Z</time></trkpt><trkpt lat="45.88396724954868" lon="11.944854053966976"><ele>414.0</ele><time>2026-04-26T08:08:51Z</time></trkpt><trkpt lat="45.884053683952" lon="11.944787151425173"><ele>414.0</ele><time>2026-04-26T08:08:52Z</time></trkpt><trkpt lat="45.884137460421215" lon="11.944720177860402"><ele>414.0</ele><time>2026-04-26T08:08:53Z</time></trkpt><trkpt lat="45.8841717385506" lon="11.944616686628947"><ele>414.0</ele><time>2026-04-26T08:08:54Z</time></trkpt><trkpt lat="45.884158146438764" lon="11.944473084520578"><ele>414.0</ele><time>2026-04-26T08:08:55Z</time></trkpt><trkpt lat="45.884126590697115" lon="11.944380037203588"><ele>414.0</ele><time>2026-04-26T08:08:56Z</time></trkpt><trkpt lat="45.884147392266165" lon="11.944231203511487"><ele>414.0</ele><time>2026-04-26T08:08:58Z</time></trkpt><trkpt lat="45.88423411654496" lon="11.944268438648205"><ele>414.0</ele><time>2026-04-26T08:09:00Z</time></trkpt><trkpt lat="45.884253540256815" lon="11.944403084362554"><ele>414.0</ele><time>2026-04-26T08:09:02Z</time></trkpt><trkpt lat="45.884293273107104" lon="11.944551516061992"><ele>414.0</ele><time>2026-04-26T08:09:04Z</time></trkpt><trkpt lat="45.88435468654995" lon="11.944709149925027"><ele>414.0</ele><time>2026-04-26T08:09:06Z</time></trkpt><trkpt lat="45.88443812277629" lon="11.944727494142109"><ele>415.28571428571433</ele><time>2026-04-26T08:09:07Z</time></trkpt><trkpt lat="45.88450114270175" lon="11.944641258953357"><ele>416.57142857142856</ele><time>2026-04-26T08:09:08Z</time></trkpt><trkpt lat="45.88451249999145" lon="11.94453704615526"><ele>417.8571428571429</ele><time>2026-04-26T08:09:09Z</time></trkpt><trkpt lat="45.884489723569104" lon="11.944442677433642"><ele>419.14285714285717</ele><time>2026-04-26T08:09:10Z</time></trkpt><trkpt lat="45.884457342299996" lon="11.944355384504568"><ele>420.42857142857144</ele><time>2026-04-26T08:09:11Z</time></trkpt><trkpt lat="45.88445491870376" lon="11.944262746885762"><ele>421.7142857142857</ele><time>2026-04-26T08:09:12Z</time></trkpt><trkpt lat="45.88450013358416" lon="11.944186106584436"><ele>423.0</ele><time>2026-04-26T08:09:13Z</time></trkpt><trkpt lat="45.88459088027243" lon="11.944214776057517"><ele>423.0</ele><time>2026-04-26T08:09:14Z</time></trkpt><trkpt lat="45.88466627282927" lon="11.944172962251722"><ele>423.0</ele><time>2026-04-26T08:09:15Z</time></trkpt><trkpt lat="45.88475161050829" lon="11.94410769434151"><ele>423.0</ele><time>2026-04-26T08:09:16Z</time></trkpt><trkpt lat="45.884828678618376" lon="11.944027289136919"><ele>423.0</ele><time>2026-04-26T08:09:17Z</time></trkpt><trkpt lat="45.884907261421695" lon="11.943929945070106"><ele>423.0</ele><time>2026-04-26T08:09:18Z</time></trkpt><trkpt lat="45.8849625258849" lon="11.943856732532838"><ele>423.0</ele><time>2026-04-26T08:09:19Z</time></trkpt><trkpt lat="45.88502334826641" lon="11.943772325671885"><ele>423.0</ele><time>2026-04-26T08:09:20Z</time></trkpt><trkpt lat="45.88506729992954" lon="11.943683917462872"><ele>423.0</ele><time>2026-04-26T08:09:21Z</time></trkpt><trkpt lat="45.885125432356446" lon="11.943618632450104"><ele>423.0</ele><time>2026-04-26T08:09:22Z</time></trkpt><trkpt lat="45.8851620648641" lon="11.94351758520993"><ele>423.0</ele><time>2026-04-26T08:09:23Z</time></trkpt><trkpt lat="45.88519276577167" lon="11.94341130002392"><ele>423.0</ele><time>2026-04-26T08:09:24Z</time></trkpt><trkpt lat="45.885232368884566" lon="11.943308108124997"><ele>425.3333333333333</ele><time>2026-04-26T08:09:25Z</time></trkpt><trkpt lat="45.88527750823593" lon="11.943203257955895"><ele>427.66666666666663</ele><time>2026-04-26T08:09:26Z</time></trkpt><trkpt lat="45.88531596055459" lon="11.943103635527589"><ele>430.0</ele><time>2026-04-26T08:09:27Z</time></trkpt><trkpt lat="45.88536305879299" lon="11.943009858823302"><ele>432.3333333333333</ele><time>2026-04-26T08:09:28Z</time></trkpt><trkpt lat="45.88541764990373" lon="11.942890686002285"><ele>434.66666666666663</ele><time>2026-04-26T08:09:28.999Z</time></trkpt><trkpt lat="45.88544266052837" lon="11.942782111496248"><ele>437.0</ele><time>2026-04-26T08:09:29.999Z</time></trkpt><trkpt lat="45.88543609238737" lon="11.942654298281544"><ele>440.6</ele><time>2026-04-26T08:09:30.999Z</time></trkpt><trkpt lat="45.88543835115424" lon="11.94253135577009"><ele>444.20000000000005</ele><time>2026-04-26T08:09:31.999Z</time></trkpt><trkpt lat="45.88541114881269" lon="11.942403079184265"><ele>447.8</ele><time>2026-04-26T08:09:32.999Z</time></trkpt><trkpt lat="45.88538977653321" lon="11.942284636981347"><ele>451.4</ele><time>2026-04-26T08:09:33.999Z</time></trkpt><trkpt lat="45.8853686541035" lon="11.942162342806004"><ele>455.0</ele><time>2026-04-26T08:09:34.999Z</time></trkpt><trkpt lat="45.885317876494256" lon="11.942029927200108"><ele>455.0</ele><time>2026-04-26T08:09:35.999Z</time></trkpt><trkpt lat="45.88530620507415" lon="11.94189328656252"><ele>455.0</ele><time>2026-04-26T08:09:36.999Z</time></trkpt><trkpt lat="45.885295067221065" lon="11.941751438248945"><ele>455.0</ele><time>2026-04-26T08:09:37.999Z</time></trkpt><trkpt lat="45.885273211494" lon="11.941611019913394"><ele>455.0</ele><time>2026-04-26T08:09:38.999Z</time></trkpt><trkpt lat="45.8852378175415" lon="11.941479900852707"><ele>455.0</ele><time>2026-04-26T08:09:39.999Z</time></trkpt><trkpt lat="45.88520418955425" lon="11.941368657581965"><ele>457.16666666666663</ele><time>2026-04-26T08:09:40.999Z</time></trkpt><trkpt lat="45.885175030909345" lon="11.941283749342633"><ele>459.3333333333333</ele><time>2026-04-26T08:09:41.999Z</time></trkpt><trkpt lat="45.88515476314076" lon="11.941152434411883"><ele>461.5</ele><time>2026-04-26T08:09:42.999Z</time></trkpt><trkpt lat="45.88515221380962" lon="11.941008818728385"><ele>463.66666666666663</ele><time>2026-04-26T08:09:43.999Z</time></trkpt><trkpt lat="45.88516489517969" lon="11.940915976150588"><ele>465.8333333333333</ele><time>2026-04-26T08:09:44.999Z</time></trkpt><trkpt lat="45.885157125862776" lon="11.940788379087348"><ele>468.0</ele><time>2026-04-26T08:09:45.999Z</time></trkpt><trkpt lat="45.88513844567988" lon="11.940656860400244"><ele>468.5</ele><time>2026-04-26T08:09:46.999Z</time></trkpt><trkpt lat="45.88507345999018" lon="11.94051990417801"><ele>469.0</ele><time>2026-04-26T08:09:47.999Z</time></trkpt><trkpt lat="45.88503578766439" lon="11.940416643159441"><ele>469.5</ele><time>2026-04-26T08:09:48.999Z</time></trkpt><trkpt lat="45.88499296414559" lon="11.940336066092254"><ele>470.0</ele><time>2026-04-26T08:09:49.999Z</time></trkpt><trkpt lat="45.884955554783346" lon="11.940227094760923"><ele>470.5</ele><time>2026-04-26T08:09:50.999Z</time></trkpt><trkpt lat="45.88492236303161" lon="11.940148302687703"><ele>471.0</ele><time>2026-04-26T08:09:51.999Z</time></trkpt><trkpt lat="45.88490573588586" lon="11.940011754637947"><ele>471.0</ele><time>2026-04-26T08:09:53.999Z</time></trkpt><trkpt lat="45.88497252251643" lon="11.939932459413205"><ele>471.0</ele><time>2026-04-26T08:09:55.999Z</time></trkpt><trkpt lat="45.885109831657395" lon="11.94014215316861"><ele>471.0</ele><time>2026-04-26T08:09:58.999Z</time></trkpt><trkpt lat="45.885165986948486" lon="11.94023710663644"><ele>471.0</ele><time>2026-04-26T08:09:59.999Z</time></trkpt><trkpt lat="45.885240947383515" lon="11.940342471825627"><ele>473.5</ele><time>2026-04-26T08:10:00.999Z</time></trkpt><trkpt lat="45.88534438123247" lon="11.940435114936635"><ele>476.0</ele><time>2026-04-26T08:10:01.999Z</time></trkpt><trkpt lat="45.885461876088755" lon="11.940536563935405"><ele>478.5</ele><time>2026-04-26T08:10:02.999Z</time></trkpt><trkpt lat="45.885542752182666" lon="11.940664350575442"><ele>481.0</ele><time>2026-04-26T08:10:03.999Z</time></trkpt><trkpt lat="45.885633700193445" lon="11.940789950912992"><ele>478.6</ele><time>2026-04-26T08:10:04.999Z</time></trkpt><trkpt lat="45.885731225732705" lon="11.940923836122437"><ele>476.20000000000005</ele><time>2026-04-26T08:10:05.999Z</time></trkpt><trkpt lat="45.88580601743978" lon="11.941022801780399"><ele>473.79999999999995</ele><time>2026-04-26T08:10:06.999Z</time></trkpt><trkpt lat="45.8858635178649" lon="11.941098886959168"><ele>471.4</ele><time>2026-04-26T08:10:07.999Z</time></trkpt><trkpt lat="45.8859296342769" lon="11.941157064532366"><ele>469.0</ele><time>2026-04-26T08:10:08.999Z</time></trkpt><trkpt lat="45.88597872270581" lon="11.941252927074668"><ele>469.00000000000006</ele><time>2026-04-26T08:10:09.999Z</time></trkpt><trkpt lat="45.88603608735179" lon="11.941335089214343"><ele>469.0</ele><time>2026-04-26T08:10:10.999Z</time></trkpt><trkpt lat="45.88609277063856" lon="11.941401362599597"><ele>469.0</ele><time>2026-04-26T08:10:11.999Z</time></trkpt><trkpt lat="45.88614728595421" lon="11.941478613918292"><ele>469.0</ele><time>2026-04-26T08:10:12.999Z</time></trkpt><trkpt lat="45.88621490761687" lon="11.941544202800094"><ele>469.00000000000006</ele><time>2026-04-26T08:10:13.999Z</time></trkpt><trkpt lat="45.886293640548544" lon="11.941572785066759"><ele>469.0</ele><time>2026-04-26T08:10:14.999Z</time></trkpt><trkpt lat="45.88639990712609" lon="11.941439840017772"><ele>469.00000000000006</ele><time>2026-04-26T08:10:15.999Z</time></trkpt><trkpt lat="45.88643955146107" lon="11.94131353094008"><ele>469.0</ele><time>2026-04-26T08:10:16.999Z</time></trkpt><trkpt lat="45.88647967437901" lon="11.941194739053199"><ele>469.0</ele><time>2026-04-26T08:10:17.999Z</time></trkpt><trkpt lat="45.88652021577227" lon="11.94110654453965"><ele>469.0</ele><time>2026-04-26T08:10:18.999Z</time></trkpt><trkpt lat="45.88655387889414" lon="11.940993975549357"><ele>469.00000000000006</ele><time>2026-04-26T08:10:19.999Z</time></trkpt><trkpt lat="45.8866247291814" lon="11.940922180088187"><ele>469.0</ele><time>2026-04-26T08:10:20.999Z</time></trkpt><trkpt lat="45.886686447668716" lon="11.940841575073643"><ele>469.33333333333337</ele><time>2026-04-26T08:10:21.999Z</time></trkpt><trkpt lat="45.88675267045257" lon="11.940759176021622"><ele>469.6666666666667</ele><time>2026-04-26T08:10:22.999Z</time></trkpt><trkpt lat="45.886825834578545" lon="11.940672525275616"><ele>470.0</ele><time>2026-04-26T08:10:23.999Z</time></trkpt><trkpt lat="45.88689246573422" lon="11.940594192727392"><ele>470.33333333333337</ele><time>2026-04-26T08:10:24.999Z</time></trkpt><trkpt lat="45.88694961399822" lon="11.940520354782684"><ele>470.6666666666667</ele><time>2026-04-26T08:10:25.999Z</time></trkpt><trkpt lat="45.886999811547376" lon="11.940431523383324"><ele>471.0</ele><time>2026-04-26T08:10:26.999Z</time></trkpt><trkpt lat="45.88705406483282" lon="11.940327907213447"><ele>471.0</ele><time>2026-04-26T08:10:27.999Z</time></trkpt><trkpt lat="45.88710582779311" lon="11.940223503263777"><ele>471.0</ele><time>2026-04-26T08:10:28.999Z</time></trkpt><trkpt lat="45.887153720734204" lon="11.94012549285374"><ele>471.0</ele><time>2026-04-26T08:10:29.999Z</time></trkpt><trkpt lat="45.887192128034016" lon="11.940017006451631"><ele>471.0</ele><time>2026-04-26T08:10:30.999Z</time></trkpt><trkpt lat="45.887247409013426" lon="11.939925908463453"><ele>471.0</ele><time>2026-04-26T08:10:31.999Z</time></trkpt><trkpt lat="45.88730860975924" lon="11.939840766096788"><ele>471.0</ele><time>2026-04-26T08:10:32.999Z</time></trkpt><trkpt lat="45.88739532602224" lon="11.939779765470673"><ele>468.20000000000005</ele><time>2026-04-26T08:10:33.999Z</time></trkpt><trkpt lat="45.88746707991204" lon="11.939701792915592"><ele>465.40000000000003</ele><time>2026-04-26T08:10:34.999Z</time></trkpt><trkpt lat="45.88756253549414" lon="11.939616469965728"><ele>462.6</ele><time>2026-04-26T08:10:35.999Z</time></trkpt><trkpt lat="45.88764830502637" lon="11.939533988310071"><ele>459.8</ele><time>2026-04-26T08:10:36.999Z</time></trkpt><trkpt lat="45.88773029135154" lon="11.939450168112522"><ele>457.0</ele><time>2026-04-26T08:10:37.999Z</time></trkpt><trkpt lat="45.887803893913315" lon="11.939338711203519"><ele>457.0</ele><time>2026-04-26T08:10:38.999Z</time></trkpt><trkpt lat="45.887889056401434" lon="11.939233400097864"><ele>457.00000000000006</ele><time>2026-04-26T08:10:40Z</time></trkpt><trkpt lat="45.887974943035566" lon="11.939124301650947"><ele>457.00000000000006</ele><time>2026-04-26T08:10:41Z</time></trkpt><trkpt lat="45.888048959650106" lon="11.938990456900337"><ele>457.0</ele><time>2026-04-26T08:10:42Z</time></trkpt><trkpt lat="45.88809376972604" lon="11.938871430776148"><ele>457.0</ele><time>2026-04-26T08:10:43Z</time></trkpt><trkpt lat="45.88816003397956" lon="11.938772316259199"><ele>460.20000000000005</ele><time>2026-04-26T08:10:44Z</time></trkpt><trkpt lat="45.888235876259266" lon="11.938682576429867"><ele>463.40000000000003</ele><time>2026-04-26T08:10:45Z</time></trkpt><trkpt lat="45.888313841610255" lon="11.938595481970848"><ele>466.59999999999997</ele><time>2026-04-26T08:10:46Z</time></trkpt><trkpt lat="45.88837761463702" lon="11.938492327927706"><ele>469.79999999999995</ele><time>2026-04-26T08:10:47Z</time></trkpt><trkpt lat="45.88842351513766" lon="11.938376459652781"><ele>473.0</ele><time>2026-04-26T08:10:48Z</time></trkpt><trkpt lat="45.88847090723244" lon="11.938256076346155"><ele>472.99999999999994</ele><time>2026-04-26T08:10:49Z</time></trkpt><trkpt lat="45.88850330726164" lon="11.93814303076201"><ele>473.0</ele><time>2026-04-26T08:10:50Z</time></trkpt><trkpt lat="45.88854239389351" lon="11.93803117584379"><ele>473.0</ele><time>2026-04-26T08:10:51Z</time></trkpt><trkpt lat="45.8885880297864" lon="11.937919599714688"><ele>473.0</ele><time>2026-04-26T08:10:52Z</time></trkpt><trkpt lat="45.88862873956368" lon="11.937828012365106"><ele>472.99999999999994</ele><time>2026-04-26T08:10:53Z</time></trkpt><trkpt lat="45.88867459186222" lon="11.937732314839815"><ele>473.0</ele><time>2026-04-26T08:10:54Z</time></trkpt><trkpt lat="45.888744737819316" lon="11.937646763576685"><ele>472.99999999999994</ele><time>2026-04-26T08:10:55Z</time></trkpt><trkpt lat="45.8888136644637" lon="11.937565180194479"><ele>473.0</ele><time>2026-04-26T08:10:56Z</time></trkpt><trkpt lat="45.88888423304917" lon="11.937492817898134"><ele>473.0</ele><time>2026-04-26T08:10:57Z</time></trkpt><trkpt lat="45.8889454512095" lon="11.937434903911047"><ele>473.0</ele><time>2026-04-26T08:10:58Z</time></trkpt><trkpt lat="45.88901706770176" lon="11.937356207403678"><ele>472.99999999999994</ele><time>2026-04-26T08:10:59Z</time></trkpt><trkpt lat="45.88908505597474" lon="11.93728445485048"><ele>473.0</ele><time>2026-04-26T08:11:00Z</time></trkpt><trkpt lat="45.88915005937349" lon="11.9372137327077"><ele>474.8333333333333</ele><time>2026-04-26T08:11:01Z</time></trkpt><trkpt lat="45.88920947573017" lon="11.937134359831758"><ele>476.66666666666663</ele><time>2026-04-26T08:11:02Z</time></trkpt><trkpt lat="45.88926166737095" lon="11.937051091282994"><ele>478.5</ele><time>2026-04-26T08:11:03Z</time></trkpt><trkpt lat="45.88931099202024" lon="11.936961984232859"><ele>480.33333333333337</ele><time>2026-04-26T08:11:04Z</time></trkpt><trkpt lat="45.88935981388291" lon="11.936841701505795"><ele>482.1666666666667</ele><time>2026-04-26T08:11:05Z</time></trkpt><trkpt lat="45.889391076398894" lon="11.936726603572527"><ele>484.0</ele><time>2026-04-26T08:11:06Z</time></trkpt><trkpt lat="45.88940147845572" lon="11.936602101101117"><ele>489.0</ele><time>2026-04-26T08:11:07Z</time></trkpt><trkpt lat="45.889404408970606" lon="11.936476319536865"><ele>494.0</ele><time>2026-04-26T08:11:08Z</time></trkpt><trkpt lat="45.889441784815595" lon="11.936361943944569"><ele>499.0</ele><time>2026-04-26T08:11:09Z</time></trkpt><trkpt lat="45.88949410819246" lon="11.936259077033114"><ele>504.0</ele><time>2026-04-26T08:11:10Z</time></trkpt><trkpt lat="45.889565948544764" lon="11.936160466178475"><ele>509.0</ele><time>2026-04-26T08:11:11Z</time></trkpt><trkpt lat="45.889630918827606" lon="11.936061823306032"><ele>508.99999999999994</ele><time>2026-04-26T08:11:12Z</time></trkpt><trkpt lat="45.889694592048144" lon="11.935965905163183"><ele>509.0</ele><time>2026-04-26T08:11:13Z</time></trkpt><trkpt lat="45.889775085569134" lon="11.935876303927397"><ele>509.0</ele><time>2026-04-26T08:11:14Z</time></trkpt><trkpt lat="45.88985337469529" lon="11.935780865466723"><ele>509.0</ele><time>2026-04-26T08:11:15Z</time></trkpt><trkpt lat="45.88991154021702" lon="11.935704470621125"><ele>508.99999999999994</ele><time>2026-04-26T08:11:16Z</time></trkpt><trkpt lat="45.88996419190698" lon="11.935634068783857"><ele>509.0</ele><time>2026-04-26T08:11:17Z</time></trkpt><trkpt lat="45.89003131275054" lon="11.93557916978056"><ele>513.25</ele><time>2026-04-26T08:11:18Z</time></trkpt><trkpt lat="45.89008765892021" lon="11.935423681727068"><ele>517.5</ele><time>2026-04-26T08:11:20Z</time></trkpt><trkpt lat="45.89010862079358" lon="11.935251062596334"><ele>521.75</ele><time>2026-04-26T08:11:22Z</time></trkpt><trkpt lat="45.89013753507966" lon="11.935084407360227"><ele>526.0</ele><time>2026-04-26T08:11:24Z</time></trkpt><trkpt lat="45.89019998855148" lon="11.934947636401363"><ele>527.6666666666667</ele><time>2026-04-26T08:11:26Z</time></trkpt><trkpt lat="45.89023114289818" lon="11.934761790506"><ele>529.3333333333334</ele><time>2026-04-26T08:11:28Z</time></trkpt><trkpt lat="45.89020344573957" lon="11.934659723523186"><ele>531.0</ele><time>2026-04-26T08:11:29Z</time></trkpt><trkpt lat="45.8901370717947" lon="11.934607256221417"><ele>532.6666666666666</ele><time>2026-04-26T08:11:30Z</time></trkpt><trkpt lat="45.890098976517685" lon="11.93452797156425"><ele>534.3333333333333</ele><time>2026-04-26T08:11:31Z</time></trkpt><trkpt lat="45.89004731163518" lon="11.934460718442477"><ele>536.0</ele><time>2026-04-26T08:11:32Z</time></trkpt><trkpt lat="45.88998697756985" lon="11.934383720494777"><ele>536.0</ele><time>2026-04-26T08:11:33Z</time></trkpt><trkpt lat="45.889931469259494" lon="11.934332668027219"><ele>536.0</ele><time>2026-04-26T08:11:34Z</time></trkpt><trkpt lat="45.88988464323216" lon="11.934168237108258"><ele>536.0</ele><time>2026-04-26T08:11:35.999Z</time></trkpt><trkpt lat="45.889846393895716" lon="11.934030965125219"><ele>536.0</ele><time>2026-04-26T08:11:37.999Z</time></trkpt><trkpt lat="45.88982273969397" lon="11.933913319594502"><ele>536.0</ele><time>2026-04-26T08:11:39.999Z</time></trkpt><trkpt lat="45.8897400610709" lon="11.933777620423793"><ele>537.6666666666666</ele><time>2026-04-26T08:11:41.999Z</time></trkpt><trkpt lat="45.88965298031533" lon="11.933773354389597"><ele>539.3333333333333</ele><time>2026-04-26T08:11:42.999Z</time></trkpt><trkpt lat="45.889568948786795" lon="11.933764444376337"><ele>541.0</ele><time>2026-04-26T08:11:43.999Z</time></trkpt><trkpt lat="45.88950164472472" lon="11.933763101935122"><ele>542.6666666666666</ele><time>2026-04-26T08:11:44.999Z</time></trkpt><trkpt lat="45.88943813948613" lon="11.93371395561685"><ele>544.3333333333334</ele><time>2026-04-26T08:11:45.999Z</time></trkpt><trkpt lat="45.88937479198469" lon="11.933673317418975"><ele>546.0</ele><time>2026-04-26T08:11:46.999Z</time></trkpt><trkpt lat="45.889296503227236" lon="11.933598655789648"><ele>544.8</ele><time>2026-04-26T08:11:47.999Z</time></trkpt><trkpt lat="45.889247555836604" lon="11.933468938645337"><ele>543.6</ele><time>2026-04-26T08:11:48.999Z</time></trkpt><trkpt lat="45.88921021535441" lon="11.933349418058805"><ele>542.4</ele><time>2026-04-26T08:11:49.999Z</time></trkpt><trkpt lat="45.88917730166419" lon="11.933208804653287"><ele>541.2</ele><time>2026-04-26T08:11:50.999Z</time></trkpt><trkpt lat="45.889196253353006" lon="11.933085307712108"><ele>540.0</ele><time>2026-04-26T08:11:51.999Z</time></trkpt><trkpt lat="45.88918652503318" lon="11.93298802341195"><ele>540.0</ele><time>2026-04-26T08:11:52.999Z</time></trkpt><trkpt lat="45.88915439403213" lon="11.932868436901263"><ele>540.0</ele><time>2026-04-26T08:11:53.999Z</time></trkpt><trkpt lat="45.88904670326541" lon="11.932784683053644"><ele>540.0</ele><time>2026-04-26T08:11:54.999Z</time></trkpt><trkpt lat="45.88897910571062" lon="11.932690331567418"><ele>540.0</ele><time>2026-04-26T08:11:55.999Z</time></trkpt><trkpt lat="45.88893304734574" lon="11.932585610288298"><ele>540.0</ele><time>2026-04-26T08:11:56.999Z</time></trkpt><trkpt lat="45.88889842783157" lon="11.932490204159892"><ele>542.4</ele><time>2026-04-26T08:11:57.999Z</time></trkpt><trkpt lat="45.88886551642327" lon="11.9323849457718"><ele>544.8</ele><time>2026-04-26T08:11:58.999Z</time></trkpt><trkpt lat="45.88882990735953" lon="11.932253024546752"><ele>547.2</ele><time>2026-04-26T08:11:59.999Z</time></trkpt><trkpt lat="45.888796453862724" lon="11.932126088745587"><ele>549.6</ele><time>2026-04-26T08:12:00.999Z</time></trkpt><trkpt lat="45.88875259016122" lon="11.931944505275672"><ele>552.0</ele><time>2026-04-26T08:12:01.999Z</time></trkpt><trkpt lat="45.88871778211724" lon="11.931801703035577"><ele>553.6666666666666</ele><time>2026-04-26T08:12:02.999Z</time></trkpt><trkpt lat="45.88868750170485" lon="11.9316774753378"><ele>555.3333333333334</ele><time>2026-04-26T08:12:03.999Z</time></trkpt><trkpt lat="45.88866635814287" lon="11.931582189044432"><ele>557.0</ele><time>2026-04-26T08:12:04.999Z</time></trkpt><trkpt lat="45.888647662296705" lon="11.931477568334735"><ele>558.6666666666667</ele><time>2026-04-26T08:12:05.999Z</time></trkpt><trkpt lat="45.88862913817689" lon="11.931360364165833"><ele>560.3333333333334</ele><time>2026-04-26T08:12:06.999Z</time></trkpt><trkpt lat="45.88861928662721" lon="11.931240041369733"><ele>562.0</ele><time>2026-04-26T08:12:07.999Z</time></trkpt><trkpt lat="45.888609538330954" lon="11.93111674835228"><ele>562.0000000000001</ele><time>2026-04-26T08:12:08.999Z</time></trkpt><trkpt lat="45.888604099804255" lon="11.931017388237608"><ele>562.0</ele><time>2026-04-26T08:12:09.999Z</time></trkpt><trkpt lat="45.88860059587815" lon="11.930907109637372"><ele>562.0</ele><time>2026-04-26T08:12:10.999Z</time></trkpt><trkpt lat="45.88859787854426" lon="11.93079870893919"><ele>562.0</ele><time>2026-04-26T08:12:11.999Z</time></trkpt><trkpt lat="45.888598684421694" lon="11.930705776344423"><ele>562.0</ele><time>2026-04-26T08:12:12.999Z</time></trkpt><trkpt lat="45.88860180760088" lon="11.93060004665363"><ele>562.0000000000001</ele><time>2026-04-26T08:12:13.999Z</time></trkpt><trkpt lat="45.88861078000535" lon="11.930498343988189"><ele>562.0</ele><time>2026-04-26T08:12:14.999Z</time></trkpt><trkpt lat="45.88862941117211" lon="11.93040390446635"><ele>563.8000000000001</ele><time>2026-04-26T08:12:15.999Z</time></trkpt><trkpt lat="45.888681430923306" lon="11.930247785003628"><ele>565.6</ele><time>2026-04-26T08:12:17.999Z</time></trkpt><trkpt lat="45.88872023390663" lon="11.930158105583015"><ele>567.4000000000001</ele><time>2026-04-26T08:12:18.999Z</time></trkpt><trkpt lat="45.888752724645" lon="11.930055181000256"><ele>569.2</ele><time>2026-04-26T08:12:19.999Z</time></trkpt><trkpt lat="45.88876056417427" lon="11.929923666802036"><ele>571.0</ele><time>2026-04-26T08:12:20.999Z</time></trkpt><trkpt lat="45.88871566909687" lon="11.929806952214303"><ele>571.6666666666667</ele><time>2026-04-26T08:12:21.999Z</time></trkpt><trkpt lat="45.88867827249849" lon="11.929709209460894"><ele>572.3333333333334</ele><time>2026-04-26T08:12:22.999Z</time></trkpt><trkpt lat="45.88867875605531" lon="11.929601527293245"><ele>573.0</ele><time>2026-04-26T08:12:23.999Z</time></trkpt><trkpt lat="45.888682182686956" lon="11.929498459150526"><ele>573.6666666666666</ele><time>2026-04-26T08:12:24.999Z</time></trkpt><trkpt lat="45.88871475659476" lon="11.929412046834555"><ele>574.3333333333333</ele><time>2026-04-26T08:12:25.999Z</time></trkpt><trkpt lat="45.888728768915406" lon="11.929274950960895"><ele>575.0</ele><time>2026-04-26T08:12:26.999Z</time></trkpt><trkpt lat="45.88868807084609" lon="11.929143946566747"><ele>577.25</ele><time>2026-04-26T08:12:27.999Z</time></trkpt><trkpt lat="45.888628184765096" lon="11.92898864812285"><ele>579.5</ele><time>2026-04-26T08:12:28.999Z</time></trkpt><trkpt lat="45.888566295442146" lon="11.928856134483654"><ele>581.75</ele><time>2026-04-26T08:12:29.999Z</time></trkpt><trkpt lat="45.888524875384974" lon="11.928710901189435"><ele>584.0</ele><time>2026-04-26T08:12:30.999Z</time></trkpt><trkpt lat="45.88848235779701" lon="11.928569943807728"><ele>584.0</ele><time>2026-04-26T08:12:31.999Z</time></trkpt><trkpt lat="45.88845198157788" lon="11.928434826073115"><ele>584.0</ele><time>2026-04-26T08:12:32.999Z</time></trkpt><trkpt lat="45.88843597544047" lon="11.928300153079974"><ele>584.0</ele><time>2026-04-26T08:12:33.999Z</time></trkpt><trkpt lat="45.88845515243317" lon="11.928186791647358"><ele>584.0</ele><time>2026-04-26T08:12:34.999Z</time></trkpt><trkpt lat="45.88848442532641" lon="11.928077644719883"><ele>584.0</ele><time>2026-04-26T08:12:35.999Z</time></trkpt><trkpt lat="45.88851144281992" lon="11.927936117171779"><ele>586.4</ele><time>2026-04-26T08:12:36.999Z</time></trkpt><trkpt lat="45.88850918126115" lon="11.927813592597863"><ele>588.8</ele><time>2026-04-26T08:12:37.999Z</time></trkpt><trkpt lat="45.88848008843233" lon="11.927695654250815"><ele>591.2</ele><time>2026-04-26T08:12:38.999Z</time></trkpt><trkpt lat="45.88839269637125" lon="11.927588217862382"><ele>593.6</ele><time>2026-04-26T08:12:39.999Z</time></trkpt><trkpt lat="45.8883571970907" lon="11.927461073091859"><ele>596.0</ele><time>2026-04-26T08:12:40.999Z</time></trkpt><trkpt lat="45.88832203031562" lon="11.927308832031374"><ele>593.6666666666666</ele><time>2026-04-26T08:12:41.999Z</time></trkpt><trkpt lat="45.88829368529253" lon="11.927161721977377"><ele>591.3333333333333</ele><time>2026-04-26T08:12:42.999Z</time></trkpt><trkpt lat="45.88827804699877" lon="11.927038832858091"><ele>589.0</ele><time>2026-04-26T08:12:43.999Z</time></trkpt><trkpt lat="45.888270193526495" lon="11.926927565763306"><ele>586.6666666666666</ele><time>2026-04-26T08:12:44.999Z</time></trkpt><trkpt lat="45.888275242809264" lon="11.926816638223233"><ele>584.3333333333334</ele><time>2026-04-26T08:12:46Z</time></trkpt><trkpt lat="45.888318362146926" lon="11.92674929627121"><ele>582.0</ele><time>2026-04-26T08:12:47Z</time></trkpt><trkpt lat="45.88837854130627" lon="11.926586081224315"><ele>582.0</ele><time>2026-04-26T08:12:48Z</time></trkpt><trkpt lat="45.888421035598455" lon="11.926456683445796"><ele>582.0</ele><time>2026-04-26T08:12:49Z</time></trkpt><trkpt lat="45.88843020704746" lon="11.926318536528656"><ele>582.0</ele><time>2026-04-26T08:12:50Z</time></trkpt><trkpt lat="45.888242385585116" lon="11.926168016962373"><ele>582.0</ele><time>2026-04-26T08:12:51Z</time></trkpt><trkpt lat="45.888198491996484" lon="11.92605401761835"><ele>584.25</ele><time>2026-04-26T08:12:52Z</time></trkpt><trkpt lat="45.888287694928465" lon="11.925858389426725"><ele>586.5</ele><time>2026-04-26T08:12:54Z</time></trkpt><trkpt lat="45.88827788511984" lon="11.925680234039108"><ele>588.75</ele><time>2026-04-26T08:12:55Z</time></trkpt><trkpt lat="45.88814302891073" lon="11.925565188351403"><ele>591.0</ele><time>2026-04-26T08:12:56Z</time></trkpt><trkpt lat="45.88803978166944" lon="11.9254618784326"><ele>591.0</ele><time>2026-04-26T08:12:57Z</time></trkpt><trkpt lat="45.88796386202509" lon="11.925341514156223"><ele>591.0</ele><time>2026-04-26T08:12:58Z</time></trkpt><trkpt lat="45.88790193557158" lon="11.925223539850567"><ele>591.0</ele><time>2026-04-26T08:12:59Z</time></trkpt><trkpt lat="45.88781408851563" lon="11.925080524203844"><ele>591.0</ele><time>2026-04-26T08:13:00Z</time></trkpt><trkpt lat="45.8877792155379" lon="11.924928540496317"><ele>590.8</ele><time>2026-04-26T08:13:01Z</time></trkpt><trkpt lat="45.88776852207441" lon="11.92475566099755"><ele>590.6</ele><time>2026-04-26T08:13:02Z</time></trkpt><trkpt lat="45.887732022861606" lon="11.924655436049227"><ele>590.4</ele><time>2026-04-26T08:13:03Z</time></trkpt><trkpt lat="45.8876837510216" lon="11.9245554729494"><ele>590.2</ele><time>2026-04-26T08:13:04Z</time></trkpt><trkpt lat="45.88755914434462" lon="11.924531923420117"><ele>590.0</ele><time>2026-04-26T08:13:05Z</time></trkpt><trkpt lat="45.887434341209946" lon="11.924641051925795"><ele>590.0</ele><time>2026-04-26T08:13:06Z</time></trkpt><trkpt lat="45.88734655428724" lon="11.924598006061734"><ele>590.0</ele><time>2026-04-26T08:13:07Z</time></trkpt><trkpt lat="45.88726714599698" lon="11.924549444010262"><ele>590.0</ele><time>2026-04-26T08:13:08Z</time></trkpt><trkpt lat="45.887171516007626" lon="11.924522166272821"><ele>590.0</ele><time>2026-04-26T08:13:09Z</time></trkpt><trkpt lat="45.88707110228898" lon="11.924467360690722"><ele>590.0</ele><time>2026-04-26T08:13:10Z</time></trkpt><trkpt lat="45.88698913893808" lon="11.924473403166646"><ele>590.0</ele><time>2026-04-26T08:13:11Z</time></trkpt><trkpt lat="45.886917424150305" lon="11.924465595691599"><ele>590.0</ele><time>2026-04-26T08:13:12Z</time></trkpt><trkpt lat="45.88680127037604" lon="11.924404988142308"><ele>590.0</ele><time>2026-04-26T08:13:13Z</time></trkpt><trkpt lat="45.8867549743943" lon="11.924288800192897"><ele>590.0</ele><time>2026-04-26T08:13:14Z</time></trkpt><trkpt lat="45.886651078366704" lon="11.924215479882436"><ele>590.0</ele><time>2026-04-26T08:13:15Z</time></trkpt><trkpt lat="45.88655514997273" lon="11.924116088057719"><ele>594.0</ele><time>2026-04-26T08:13:16Z</time></trkpt><trkpt lat="45.88645136288455" lon="11.924066871811991"><ele>598.0</ele><time>2026-04-26T08:13:17Z</time></trkpt><trkpt lat="45.886350400459854" lon="11.924027328601392"><ele>602.0</ele><time>2026-04-26T08:13:18Z</time></trkpt><trkpt lat="45.88624718970356" lon="11.924004131411353"><ele>606.0</ele><time>2026-04-26T08:13:19Z</time></trkpt><trkpt lat="45.88615962427653" lon="11.923968682679988"><ele>610.0</ele><time>2026-04-26T08:13:20Z</time></trkpt><trkpt lat="45.88606435232249" lon="11.924010121183644"><ele>610.8</ele><time>2026-04-26T08:13:21Z</time></trkpt><trkpt lat="45.88591704646224" lon="11.924055215698395"><ele>611.6</ele><time>2026-04-26T08:13:22Z</time></trkpt><trkpt lat="45.88581733971252" lon="11.924058212573224"><ele>612.4</ele><time>2026-04-26T08:13:23Z</time></trkpt><trkpt lat="45.88572278179704" lon="11.924033039786321"><ele>613.2</ele><time>2026-04-26T08:13:24Z</time></trkpt><trkpt lat="45.88562590257274" lon="11.924061210270487"><ele>614.0</ele><time>2026-04-26T08:13:25Z</time></trkpt><trkpt lat="45.885536518431614" lon="11.923996107422337"><ele>614.0</ele><time>2026-04-26T08:13:26Z</time></trkpt><trkpt lat="45.885497355649555" lon="11.923882199507014"><ele>614.0</ele><time>2026-04-26T08:13:27Z</time></trkpt><trkpt lat="45.88548558797006" lon="11.92377246531099"><ele>614.0</ele><time>2026-04-26T08:13:28Z</time></trkpt><trkpt lat="45.885458784662404" lon="11.92366613306656"><ele>614.0</ele><time>2026-04-26T08:13:29Z</time></trkpt><trkpt lat="45.885431971157914" lon="11.923569170962747"><ele>614.0</ele><time>2026-04-26T08:13:30Z</time></trkpt><trkpt lat="45.88539969686555" lon="11.923475980681774"><ele>614.0</ele><time>2026-04-26T08:13:31Z</time></trkpt><trkpt lat="45.88545415730011" lon="11.92328700489942"><ele>616.75</ele><time>2026-04-26T08:13:32Z</time></trkpt><trkpt lat="45.885447818200454" lon="11.92316174579471"><ele>619.5</ele><time>2026-04-26T08:13:33Z</time></trkpt><trkpt lat="45.88544373532749" lon="11.923030591205274"><ele>622.25</ele><time>2026-04-26T08:13:34Z</time></trkpt><trkpt lat="45.88557235434741" lon="11.922866023693528"><ele>625.0</ele><time>2026-04-26T08:13:35Z</time></trkpt><trkpt lat="45.88554556560728" lon="11.922691513229944"><ele>625.0</ele><time>2026-04-26T08:13:37Z</time></trkpt><trkpt lat="45.88581090282605" lon="11.923123892561973"><ele>625.0</ele><time>2026-04-26T08:13:42Z</time></trkpt><trkpt lat="45.885904286339965" lon="11.92317050084783"><ele>626.6</ele><time>2026-04-26T08:13:43Z</time></trkpt><trkpt lat="45.88598589273035" lon="11.92321298011445"><ele>628.2</ele><time>2026-04-26T08:13:44Z</time></trkpt><trkpt lat="45.88608455965337" lon="11.92320734361085"><ele>629.8</ele><time>2026-04-26T08:13:44.999Z</time></trkpt><trkpt lat="45.88616842608847" lon="11.92314967960229"><ele>631.4</ele><time>2026-04-26T08:13:45.999Z</time></trkpt><trkpt lat="45.88623432640929" lon="11.923086040985442"><ele>633.0</ele><time>2026-04-26T08:13:46.999Z</time></trkpt><trkpt lat="45.88633493494433" lon="11.92300140784387"><ele>633.0</ele><time>2026-04-26T08:13:47.999Z</time></trkpt><trkpt lat="45.886398050614744" lon="11.922923548922997"><ele>633.0</ele><time>2026-04-26T08:13:48.999Z</time></trkpt><trkpt lat="45.886485979737266" lon="11.92283088348774"><ele>633.0</ele><time>2026-04-26T08:13:49.999Z</time></trkpt><trkpt lat="45.88656496776828" lon="11.922758947549887"><ele>633.0</ele><time>2026-04-26T08:13:50.999Z</time></trkpt><trkpt lat="45.88665139598953" lon="11.922700745635543"><ele>633.0</ele><time>2026-04-26T08:13:51.999Z</time></trkpt><trkpt lat="45.886748903818386" lon="11.922629162968605"><ele>633.4</ele><time>2026-04-26T08:13:52.999Z</time></trkpt><trkpt lat="45.88684951679811" lon="11.922580089374353"><ele>633.8</ele><time>2026-04-26T08:13:53.999Z</time></trkpt><trkpt lat="45.88695268558445" lon="11.92252875556832"><ele>634.2</ele><time>2026-04-26T08:13:54.999Z</time></trkpt><trkpt lat="45.88704033601623" lon="11.922526658248117"><ele>634.6</ele><time>2026-04-26T08:13:55.999Z</time></trkpt><trkpt lat="45.88712432875103" lon="11.922512321534834"><ele>635.0</ele><time>2026-04-26T08:13:56.999Z</time></trkpt><trkpt lat="45.88719700204204" lon="11.922510627690958"><ele>639.0</ele><time>2026-04-26T08:13:57.999Z</time></trkpt><trkpt lat="45.88728915924361" lon="11.922516701384867"><ele>643.0</ele><time>2026-04-26T08:13:58.999Z</time></trkpt><trkpt lat="45.887375832065054" lon="11.922536724970236"><ele>647.0</ele><time>2026-04-26T08:13:59.999Z</time></trkpt><trkpt lat="45.88755492258807" lon="11.922547729925647"><ele>651.0</ele><time>2026-04-26T08:14:01.999Z</time></trkpt><trkpt lat="45.88766777154988" lon="11.92255150590665"><ele>652.1999999999999</ele><time>2026-04-26T08:14:02.999Z</time></trkpt><trkpt lat="45.887767926930245" lon="11.922530832961293"><ele>653.4</ele><time>2026-04-26T08:14:03.999Z</time></trkpt><trkpt lat="45.88785284520516" lon="11.922454205131562"><ele>654.6</ele><time>2026-04-26T08:14:04.999Z</time></trkpt><trkpt lat="45.887933142663535" lon="11.922287902614775"><ele>655.8</ele><time>2026-04-26T08:14:05.999Z</time></trkpt><trkpt lat="45.88799860464064" lon="11.922222018528775"><ele>657.0</ele><time>2026-04-26T08:14:06.999Z</time></trkpt><trkpt lat="45.88808902919955" lon="11.922211782186748"><ele>657.0</ele><time>2026-04-26T08:14:08.999Z</time></trkpt><trkpt lat="45.888184580934826" lon="11.922405075682969"><ele>657.0</ele><time>2026-04-26T08:14:10.999Z</time></trkpt><trkpt lat="45.88825432052987" lon="11.92248659282736"><ele>657.0</ele><time>2026-04-26T08:14:11.999Z</time></trkpt><trkpt lat="45.88832641699602" lon="11.922539533267436"><ele>657.0</ele><time>2026-04-26T08:14:12.999Z</time></trkpt><trkpt lat="45.888401999762124" lon="11.922575336030958"><ele>657.0</ele><time>2026-04-26T08:14:13.999Z</time></trkpt><trkpt lat="45.888478560581675" lon="11.922561800879539"><ele>660.1666666666666</ele><time>2026-04-26T08:14:14.999Z</time></trkpt><trkpt lat="45.8885528591998" lon="11.92254305603968"><ele>663.3333333333334</ele><time>2026-04-26T08:14:15.999Z</time></trkpt><trkpt lat="45.88862538703126" lon="11.922500957467966"><ele>666.5</ele><time>2026-04-26T08:14:16.999Z</time></trkpt><trkpt lat="45.88867939178822" lon="11.922380450945859"><ele>669.6666666666667</ele><time>2026-04-26T08:14:17.999Z</time></trkpt><trkpt lat="45.88874443338936" lon="11.922323890878404"><ele>672.8333333333334</ele><time>2026-04-26T08:14:18.999Z</time></trkpt><trkpt lat="45.88880940020261" lon="11.922275890266489"><ele>676.0</ele><time>2026-04-26T08:14:19.999Z</time></trkpt><trkpt lat="45.888887831035845" lon="11.92228517451195"><ele>676.0</ele><time>2026-04-26T08:14:20.999Z</time></trkpt><trkpt lat="45.8889425764549" lon="11.922351849896328"><ele>676.0</ele><time>2026-04-26T08:14:21.999Z</time></trkpt><trkpt lat="45.88900235158761" lon="11.922511889867838"><ele>676.0</ele><time>2026-04-26T08:14:23.999Z</time></trkpt><trkpt lat="45.889039406616384" lon="11.922636139488926"><ele>676.0</ele><time>2026-04-26T08:14:24.999Z</time></trkpt><trkpt lat="45.88910890496727" lon="11.922714859602902"><ele>676.0</ele><time>2026-04-26T08:14:25.999Z</time></trkpt><trkpt lat="45.88917152795015" lon="11.922764809462267"><ele>675.5999999999999</ele><time>2026-04-26T08:14:26.999Z</time></trkpt><trkpt lat="45.88923696041453" lon="11.92280022943913"><ele>675.2</ele><time>2026-04-26T08:14:27.999Z</time></trkpt><trkpt lat="45.889312377420964" lon="11.922841471078192"><ele>674.8</ele><time>2026-04-26T08:14:28.999Z</time></trkpt><trkpt lat="45.88942104302823" lon="11.92277528417775"><ele>674.4000000000001</ele><time>2026-04-26T08:14:29.999Z</time></trkpt><trkpt lat="45.88948592895037" lon="11.922711883118444"><ele>674.0</ele><time>2026-04-26T08:14:30.999Z</time></trkpt><trkpt lat="45.889596355936916" lon="11.922681966255208"><ele>674.0</ele><time>2026-04-26T08:14:31.999Z</time></trkpt><trkpt lat="45.88969141141008" lon="11.92262745288747"><ele>674.0</ele><time>2026-04-26T08:14:32.999Z</time></trkpt><trkpt lat="45.889795604591015" lon="11.922566097158107"><ele>674.0</ele><time>2026-04-26T08:14:33.999Z</time></trkpt><trkpt lat="45.889890583814896" lon="11.922510989807755"><ele>674.0</ele><time>2026-04-26T08:14:34.999Z</time></trkpt><trkpt lat="45.88999151333168" lon="11.922505982272977"><ele>674.0</ele><time>2026-04-26T08:14:35.999Z</time></trkpt><trkpt lat="45.8901018349545" lon="11.922537054105103"><ele>677.5</ele><time>2026-04-26T08:14:36.999Z</time></trkpt><trkpt lat="45.89022828859003" lon="11.9226520648176"><ele>681.0</ele><time>2026-04-26T08:14:37.999Z</time></trkpt><trkpt lat="45.890338985734154" lon="11.922657129219418"><ele>684.5</ele><time>2026-04-26T08:14:38.999Z</time></trkpt><trkpt lat="45.89043178353997" lon="11.922686541769789"><ele>688.0</ele><time>2026-04-26T08:14:39.999Z</time></trkpt><trkpt lat="45.89053126650232" lon="11.92268604049457"><ele>688.0</ele><time>2026-04-26T08:14:40.999Z</time></trkpt><trkpt lat="45.890617877336204" lon="11.922679935814003"><ele>688.0</ele><time>2026-04-26T08:14:41.999Z</time></trkpt><trkpt lat="45.890727435802944" lon="11.922722273987063"><ele>688.0</ele><time>2026-04-26T08:14:42.999Z</time></trkpt><trkpt lat="45.89080051577129" lon="11.922781236011355"><ele>688.0</ele><time>2026-04-26T08:14:43.999Z</time></trkpt><trkpt lat="45.89089543606642" lon="11.922893777240422"><ele>688.0</ele><time>2026-04-26T08:14:44.999Z</time></trkpt><trkpt lat="45.891012665369864" lon="11.922989241064487"><ele>690.8</ele><time>2026-04-26T08:14:45.999Z</time></trkpt><trkpt lat="45.89110644008442" lon="11.92305387011975"><ele>693.5999999999999</ele><time>2026-04-26T08:14:46.999Z</time></trkpt><trkpt lat="45.89120820773343" lon="11.923134897494181"><ele>696.4000000000001</ele><time>2026-04-26T08:14:47.999Z</time></trkpt><trkpt lat="45.891275471621356" lon="11.923229059086111"><ele>699.2</ele><time>2026-04-26T08:14:48.999Z</time></trkpt><trkpt lat="45.89135448080038" lon="11.92328384207548"><ele>702.0</ele><time>2026-04-26T08:14:49.999Z</time></trkpt><trkpt lat="45.89143613018691" lon="11.923316864500576"><ele>702.0</ele><time>2026-04-26T08:14:50.999Z</time></trkpt><trkpt lat="45.89151822913451" lon="11.923352036248836"><ele>702.0</ele><time>2026-04-26T08:14:52Z</time></trkpt><trkpt lat="45.891597138636826" lon="11.923354669904935"><ele>702.0</ele><time>2026-04-26T08:14:53Z</time></trkpt><trkpt lat="45.89170750324107" lon="11.923293166163184"><ele>702.0</ele><time>2026-04-26T08:14:54Z</time></trkpt><trkpt lat="45.89177199094793" lon="11.923176778714298"><ele>702.0</ele><time>2026-04-26T08:14:55Z</time></trkpt><trkpt lat="45.891752600027296" lon="11.9230432882429"><ele>702.0</ele><time>2026-04-26T08:14:56Z</time></trkpt><trkpt lat="45.89174104883733" lon="11.922952671428193"><ele>702.0</ele><time>2026-04-26T08:14:57Z</time></trkpt><trkpt lat="45.89162229729803" lon="11.922766481148766"><ele>702.0</ele><time>2026-04-26T08:14:58Z</time></trkpt><trkpt lat="45.89152283023791" lon="11.922701687953523"><ele>702.0</ele><time>2026-04-26T08:14:59Z</time></trkpt><trkpt lat="45.89148653257224" lon="11.922580533452912"><ele>702.0</ele><time>2026-04-26T08:15:00Z</time></trkpt><trkpt lat="45.891434922109745" lon="11.922498914312373"><ele>702.0</ele><time>2026-04-26T08:15:01Z</time></trkpt><trkpt lat="45.89136025420289" lon="11.922333724577717"><ele>702.0</ele><time>2026-04-26T08:15:02Z</time></trkpt><trkpt lat="45.891306096091874" lon="11.922215265392962"><ele>702.0</ele><time>2026-04-26T08:15:03Z</time></trkpt><trkpt lat="45.89125503013554" lon="11.92210356974167"><ele>702.0</ele><time>2026-04-26T08:15:04Z</time></trkpt><trkpt lat="45.89120316227849" lon="11.921991927670806"><ele>702.0</ele><time>2026-04-26T08:15:05Z</time></trkpt><trkpt lat="45.891144654233926" lon="11.921866673325077"><ele>702.0</ele><time>2026-04-26T08:15:06Z</time></trkpt><trkpt lat="45.89108828440521" lon="11.921745996417254"><ele>702.0</ele><time>2026-04-26T08:15:07Z</time></trkpt><trkpt lat="45.891027131191024" lon="11.921601808692111"><ele>702.0</ele><time>2026-04-26T08:15:08Z</time></trkpt><trkpt lat="45.890973045542374" lon="11.921520652942611"><ele>702.0</ele><time>2026-04-26T08:15:09Z</time></trkpt><trkpt lat="45.890913602307265" lon="11.921378850213564"><ele>702.0</ele><time>2026-04-26T08:15:10Z</time></trkpt><trkpt lat="45.890912825387844" lon="11.921258570606566"><ele>702.75</ele><time>2026-04-26T08:15:11Z</time></trkpt><trkpt lat="45.890974460500665" lon="11.921023719864056"><ele>703.5</ele><time>2026-04-26T08:15:12Z</time></trkpt><trkpt lat="45.89093733318868" lon="11.920910820496552"><ele>704.25</ele><time>2026-04-26T08:15:13Z</time></trkpt><trkpt lat="45.89090838360356" lon="11.920785666542605"><ele>705.0</ele><time>2026-04-26T08:15:14Z</time></trkpt><trkpt lat="45.890815469215376" lon="11.920706569481272"><ele>707.4</ele><time>2026-04-26T08:15:15Z</time></trkpt><trkpt lat="45.89075600614401" lon="11.920580832574085"><ele>709.8</ele><time>2026-04-26T08:15:16Z</time></trkpt><trkpt lat="45.89069585174948" lon="11.92046436732295"><ele>712.2</ele><time>2026-04-26T08:15:17Z</time></trkpt><trkpt lat="45.89064195983213" lon="11.920351133069595"><ele>714.6</ele><time>2026-04-26T08:15:18Z</time></trkpt><trkpt lat="45.890584675042795" lon="11.920229525620401"><ele>717.0</ele><time>2026-04-26T08:15:19Z</time></trkpt><trkpt lat="45.89051097136562" lon="11.920111943937409"><ele>717.5</ele><time>2026-04-26T08:15:20Z</time></trkpt><trkpt lat="45.89043264849586" lon="11.919995933371348"><ele>718.0</ele><time>2026-04-26T08:15:21Z</time></trkpt><trkpt lat="45.89034893128284" lon="11.919876671009865"><ele>718.5</ele><time>2026-04-26T08:15:22Z</time></trkpt><trkpt lat="45.890270857855924" lon="11.919723039574057"><ele>719.0</ele><time>2026-04-26T08:15:23Z</time></trkpt><trkpt lat="45.890203668847434" lon="11.919587543627939"><ele>719.0</ele><time>2026-04-26T08:15:24Z</time></trkpt><trkpt lat="45.89013795693084" lon="11.919448418913738"><ele>719.0</ele><time>2026-04-26T08:15:25Z</time></trkpt><trkpt lat="45.89007552787461" lon="11.919312405101744"><ele>719.0</ele><time>2026-04-26T08:15:26Z</time></trkpt><trkpt lat="45.890013833049004" lon="11.919178581230975"><ele>719.0</ele><time>2026-04-26T08:15:27Z</time></trkpt><trkpt lat="45.88995981999969" lon="11.91905772191128"><ele>719.0</ele><time>2026-04-26T08:15:28Z</time></trkpt><trkpt lat="45.88992482721763" lon="11.918968991191829"><ele>722.0</ele><time>2026-04-26T08:15:29Z</time></trkpt><trkpt lat="45.88989933307439" lon="11.918847612765036"><ele>725.0</ele><time>2026-04-26T08:15:31Z</time></trkpt><trkpt lat="45.889862491211076" lon="11.918718619806116"><ele>728.0</ele><time>2026-04-26T08:15:33Z</time></trkpt><trkpt lat="45.8898104468873" lon="11.918573700807462"><ele>731.0</ele><time>2026-04-26T08:15:35Z</time></trkpt><trkpt lat="45.88981530980758" lon="11.91845719286211"><ele>734.0</ele><time>2026-04-26T08:15:36Z</time></trkpt><trkpt lat="45.889801239127266" lon="11.918346702920832"><ele>735.1666666666666</ele><time>2026-04-26T08:15:37Z</time></trkpt><trkpt lat="45.88978123666101" lon="11.918235461387745"><ele>736.3333333333333</ele><time>2026-04-26T08:15:38Z</time></trkpt><trkpt lat="45.889755451835995" lon="11.918133627070794"><ele>737.5</ele><time>2026-04-26T08:15:39Z</time></trkpt><trkpt lat="45.88973043950312" lon="11.918028280270319"><ele>738.6666666666666</ele><time>2026-04-26T08:15:40Z</time></trkpt><trkpt lat="45.8897042376554" lon="11.917886971891003"><ele>739.8333333333334</ele><time>2026-04-26T08:15:41Z</time></trkpt><trkpt lat="45.88965888833617" lon="11.917771758919503"><ele>741.0</ele><time>2026-04-26T08:15:42Z</time></trkpt><trkpt lat="45.88963953202915" lon="11.917656994479898"><ele>742.0</ele><time>2026-04-26T08:15:43Z</time></trkpt><trkpt lat="45.88961115204922" lon="11.917533277316249"><ele>743.0</ele><time>2026-04-26T08:15:44Z</time></trkpt><trkpt lat="45.889586837753804" lon="11.91741715337155"><ele>744.0</ele><time>2026-04-26T08:15:45Z</time></trkpt><trkpt lat="45.889563238810005" lon="11.917296911022307"><ele>745.0</ele><time>2026-04-26T08:15:46Z</time></trkpt><trkpt lat="45.889537485180945" lon="11.917184107803722"><ele>746.0</ele><time>2026-04-26T08:15:46.999Z</time></trkpt><trkpt lat="45.889515104450496" lon="11.917054411927957"><ele>747.0</ele><time>2026-04-26T08:15:47.999Z</time></trkpt><trkpt lat="45.8894878142412" lon="11.916942380641057"><ele>747.0</ele><time>2026-04-26T08:15:48.999Z</time></trkpt><trkpt lat="45.88946427505797" lon="11.916803683469727"><ele>747.0</ele><time>2026-04-26T08:15:49.999Z</time></trkpt><trkpt lat="45.889445462686986" lon="11.916664969192704"><ele>747.0</ele><time>2026-04-26T08:15:50.999Z</time></trkpt><trkpt lat="45.88942041477854" lon="11.916524171678619"><ele>747.0</ele><time>2026-04-26T08:15:51.999Z</time></trkpt><trkpt lat="45.889390491748095" lon="11.916383825159986"><ele>747.0</ele><time>2026-04-26T08:15:52.999Z</time></trkpt><trkpt lat="45.889358968109086" lon="11.91623699623081"><ele>748.25</ele><time>2026-04-26T08:15:53.999Z</time></trkpt><trkpt lat="45.88930439969361" lon="11.916099099383008"><ele>749.5</ele><time>2026-04-26T08:15:54.999Z</time></trkpt><trkpt lat="45.88926635138135" lon="11.915947908243728"><ele>750.75</ele><time>2026-04-26T08:15:55.999Z</time></trkpt><trkpt lat="45.8892162126424" lon="11.915795305210775"><ele>752.0</ele><time>2026-04-26T08:15:56.999Z</time></trkpt><trkpt lat="45.889169315411316" lon="11.915635781117796"><ele>757.5</ele><time>2026-04-26T08:15:57.999Z</time></trkpt><trkpt lat="45.889148364158636" lon="11.915462660769128"><ele>763.0</ele><time>2026-04-26T08:15:58.999Z</time></trkpt><trkpt lat="45.889139103173484" lon="11.915301224484958"><ele>768.5</ele><time>2026-04-26T08:15:59.999Z</time></trkpt><trkpt lat="45.889128979563615" lon="11.915151846157107"><ele>774.0</ele><time>2026-04-26T08:16:00.999Z</time></trkpt><trkpt lat="45.88910932380819" lon="11.914994963689969"><ele>774.5</ele><time>2026-04-26T08:16:01.999Z</time></trkpt><trkpt lat="45.88910558218892" lon="11.914834872724011"><ele>775.0</ele><time>2026-04-26T08:16:02.999Z</time></trkpt><trkpt lat="45.889091227687985" lon="11.914673750847577"><ele>775.5</ele><time>2026-04-26T08:16:03.999Z</time></trkpt><trkpt lat="45.88907590174098" lon="11.91448923944465"><ele>776.0</ele><time>2026-04-26T08:16:04.999Z</time></trkpt><trkpt lat="45.88905958933241" lon="11.914289739624843"><ele>778.0</ele><time>2026-04-26T08:16:05.999Z</time></trkpt><trkpt lat="45.88904452442144" lon="11.9140922423426"><ele>780.0</ele><time>2026-04-26T08:16:06.999Z</time></trkpt><trkpt lat="45.889030100789086" lon="11.913886069422862"><ele>782.0</ele><time>2026-04-26T08:16:07.999Z</time></trkpt><trkpt lat="45.88901668724434" lon="11.913682393314986"><ele>784.0</ele><time>2026-04-26T08:16:08.999Z</time></trkpt><trkpt lat="45.88900497247416" lon="11.91346573713814"><ele>786.3333333333333</ele><time>2026-04-26T08:16:09.999Z</time></trkpt><trkpt lat="45.88899908449209" lon="11.9132526480602"><ele>788.6666666666667</ele><time>2026-04-26T08:16:10.999Z</time></trkpt><trkpt lat="45.88900552720046" lon="11.913029620594731"><ele>791.0</ele><time>2026-04-26T08:16:11.999Z</time></trkpt><trkpt lat="45.88900194470996" lon="11.9127962328771"><ele>792.3333333333334</ele><time>2026-04-26T08:16:12.999Z</time></trkpt><trkpt lat="45.889015942241436" lon="11.912571256647235"><ele>793.6666666666667</ele><time>2026-04-26T08:16:13.999Z</time></trkpt><trkpt lat="45.88904079907259" lon="11.912354134114976"><ele>795.0</ele><time>2026-04-26T08:16:14.999Z</time></trkpt><trkpt lat="45.88907899353089" lon="11.912133355582956"><ele>795.0</ele><time>2026-04-26T08:16:15.999Z</time></trkpt><trkpt lat="45.88910547385086" lon="11.911866541265812"><ele>795.0</ele><time>2026-04-26T08:16:16.999Z</time></trkpt><trkpt lat="45.88913508439966" lon="11.911639817907343"><ele>795.0</ele><time>2026-04-26T08:16:17.999Z</time></trkpt><trkpt lat="45.889153836172696" lon="11.91143316771291"><ele>796.5</ele><time>2026-04-26T08:16:18.999Z</time></trkpt><trkpt lat="45.889177944202" lon="11.911236785567386"><ele>798.0</ele><time>2026-04-26T08:16:19.999Z</time></trkpt><trkpt lat="45.88920652763274" lon="11.911033347358376"><ele>799.5</ele><time>2026-04-26T08:16:20.999Z</time></trkpt><trkpt lat="45.889228431215514" lon="11.910824855577992"><ele>801.0</ele><time>2026-04-26T08:16:21.999Z</time></trkpt><trkpt lat="45.88924047896802" lon="11.91061315432511"><ele>800.75</ele><time>2026-04-26T08:16:22.999Z</time></trkpt><trkpt lat="45.88923763126884" lon="11.910403924149833"><ele>800.5</ele><time>2026-04-26T08:16:23.999Z</time></trkpt><trkpt lat="45.8892617186117" lon="11.91020822576728"><ele>800.25</ele><time>2026-04-26T08:16:24.999Z</time></trkpt><trkpt lat="45.88928947692685" lon="11.91003203981405"><ele>800.0</ele><time>2026-04-26T08:16:25.999Z</time></trkpt><trkpt lat="45.88931636697383" lon="11.909841933113066"><ele>800.75</ele><time>2026-04-26T08:16:26.999Z</time></trkpt><trkpt lat="45.889348803242875" lon="11.909636937000457"><ele>801.5</ele><time>2026-04-26T08:16:27.999Z</time></trkpt><trkpt lat="45.88938168291457" lon="11.909443326031587"><ele>802.25</ele><time>2026-04-26T08:16:28.999Z</time></trkpt><trkpt lat="45.889453009212545" lon="11.90925458793857"><ele>803.0</ele><time>2026-04-26T08:16:29.999Z</time></trkpt><trkpt lat="45.88948574244561" lon="11.909055708492632"><ele>804.5</ele><time>2026-04-26T08:16:30.999Z</time></trkpt><trkpt lat="45.88951786051855" lon="11.908851056361083"><ele>806.0</ele><time>2026-04-26T08:16:31.999Z</time></trkpt><trkpt lat="45.88954528899889" lon="11.908635425919536"><ele>807.5</ele><time>2026-04-26T08:16:32.999Z</time></trkpt><trkpt lat="45.889547895518476" lon="11.908438628613983"><ele>809.0</ele><time>2026-04-26T08:16:33.999Z</time></trkpt><trkpt lat="45.88954201349549" lon="11.908254835472354"><ele>812.75</ele><time>2026-04-26T08:16:34.999Z</time></trkpt><trkpt lat="45.88952238695018" lon="11.908025599829742"><ele>816.5</ele><time>2026-04-26T08:16:35.999Z</time></trkpt><trkpt lat="45.88949123201884" lon="11.90782254240309"><ele>820.25</ele><time>2026-04-26T08:16:36.999Z</time></trkpt><trkpt lat="45.88945653966198" lon="11.907637203250735"><ele>824.0</ele><time>2026-04-26T08:16:37.999Z</time></trkpt><trkpt lat="45.88944083983075" lon="11.907455516923266"><ele>825.5</ele><time>2026-04-26T08:16:38.999Z</time></trkpt><trkpt lat="45.88942658927686" lon="11.90726803226766"><ele>827.0</ele><time>2026-04-26T08:16:39.999Z</time></trkpt><trkpt lat="45.88940635478639" lon="11.907068170894968"><ele>828.5</ele><time>2026-04-26T08:16:40.999Z</time></trkpt><trkpt lat="45.88938578311722" lon="11.906875375069248"><ele>830.0</ele><time>2026-04-26T08:16:41.999Z</time></trkpt><trkpt lat="45.889346317193485" lon="11.906677416771798"><ele>830.0</ele><time>2026-04-26T08:16:42.999Z</time></trkpt><trkpt lat="45.88930468296238" lon="11.906478801251545"><ele>830.0</ele><time>2026-04-26T08:16:43.999Z</time></trkpt><trkpt lat="45.8892628151966" lon="11.906282392099264"><ele>830.0</ele><time>2026-04-26T08:16:44.999Z</time></trkpt><trkpt lat="45.88919492617283" lon="11.906116524042348"><ele>830.0</ele><time>2026-04-26T08:16:45.999Z</time></trkpt><trkpt lat="45.88914004853251" lon="11.905970563746287"><ele>831.2</ele><time>2026-04-26T08:16:46.999Z</time></trkpt><trkpt lat="45.88911584488426" lon="11.90581882486546"><ele>832.4</ele><time>2026-04-26T08:16:47.999Z</time></trkpt><trkpt lat="45.88911264210923" lon="11.905663510941455"><ele>833.5999999999999</ele><time>2026-04-26T08:16:48.999Z</time></trkpt><trkpt lat="45.88912527465612" lon="11.905505240661787"><ele>834.8</ele><time>2026-04-26T08:16:49.999Z</time></trkpt><trkpt lat="45.88913541204821" lon="11.905338938842592"><ele>836.0</ele><time>2026-04-26T08:16:50.999Z</time></trkpt><trkpt lat="45.88914012848941" lon="11.905170423492752"><ele>836.0</ele><time>2026-04-26T08:16:51.999Z</time></trkpt><trkpt lat="45.889130991238076" lon="11.905000545576963"><ele>836.0</ele><time>2026-04-26T08:16:52.999Z</time></trkpt><trkpt lat="45.889121161333584" lon="11.904838583032516"><ele>836.0</ele><time>2026-04-26T08:16:53.999Z</time></trkpt><trkpt lat="45.88911677002887" lon="11.90467330085945"><ele>836.0</ele><time>2026-04-26T08:16:54.999Z</time></trkpt><trkpt lat="45.88911855927947" lon="11.904496590580157"><ele>836.0</ele><time>2026-04-26T08:16:55.999Z</time></trkpt><trkpt lat="45.88912146761222" lon="11.904303632638035"><ele>836.0</ele><time>2026-04-26T08:16:56.999Z</time></trkpt><trkpt lat="45.889124306244476" lon="11.904091369677495"><ele>836.0</ele><time>2026-04-26T08:16:58Z</time></trkpt><trkpt lat="45.889125908712145" lon="11.903880301591705"><ele>836.0</ele><time>2026-04-26T08:16:59Z</time></trkpt><trkpt lat="45.8891154748561" lon="11.903664609531923"><ele>835.25</ele><time>2026-04-26T08:17:00Z</time></trkpt><trkpt lat="45.88911324790583" lon="11.903460898879352"><ele>834.5</ele><time>2026-04-26T08:17:01Z</time></trkpt><trkpt lat="45.88911133464157" lon="11.903263232219942"><ele>833.75</ele><time>2026-04-26T08:17:02Z</time></trkpt><trkpt lat="45.88910558285003" lon="11.903054826893714"><ele>833.0</ele><time>2026-04-26T08:17:03Z</time></trkpt><trkpt lat="45.889103278528154" lon="11.902860349482811"><ele>833.0</ele><time>2026-04-26T08:17:04Z</time></trkpt><trkpt lat="45.88912004273801" lon="11.902651541474096"><ele>833.0</ele><time>2026-04-26T08:17:05Z</time></trkpt><trkpt lat="45.889120885853394" lon="11.902470429580397"><ele>833.0</ele><time>2026-04-26T08:17:06Z</time></trkpt><trkpt lat="45.88912179432259" lon="11.902279937963467"><ele>833.0</ele><time>2026-04-26T08:17:07Z</time></trkpt><trkpt lat="45.8891166259295" lon="11.902099945608738"><ele>833.8</ele><time>2026-04-26T08:17:08Z</time></trkpt><trkpt lat="45.889096886273485" lon="11.901931204034682"><ele>834.5999999999999</ele><time>2026-04-26T08:17:09Z</time></trkpt><trkpt lat="45.889062064426014" lon="11.901793981737184"><ele>835.4000000000001</ele><time>2026-04-26T08:17:10Z</time></trkpt><trkpt lat="45.88901887471135" lon="11.901663394746565"><ele>836.2</ele><time>2026-04-26T08:17:11Z</time></trkpt><trkpt lat="45.888987568902145" lon="11.901548846278812"><ele>837.0</ele><time>2026-04-26T08:17:12Z</time></trkpt><trkpt lat="45.888969440028816" lon="11.901439749493484"><ele>837.5</ele><time>2026-04-26T08:17:13Z</time></trkpt><trkpt lat="45.88895757023144" lon="11.901336255159118"><ele>838.0</ele><time>2026-04-26T08:17:14Z</time></trkpt><trkpt lat="45.88894519006112" lon="11.90122626016471"><ele>838.5</ele><time>2026-04-26T08:17:15Z</time></trkpt><trkpt lat="45.8889369662763" lon="11.901116009041946"><ele>839.0</ele><time>2026-04-26T08:17:16Z</time></trkpt><trkpt lat="45.8889367443345" lon="11.901017778670832"><ele>839.5</ele><time>2026-04-26T08:17:17Z</time></trkpt><trkpt lat="45.88890648319486" lon="11.900928948809632"><ele>840.0</ele><time>2026-04-26T08:17:23Z</time></trkpt><trkpt lat="45.88902512728159" lon="11.90091875898115"><ele>840.0</ele><time>2026-04-26T08:17:29Z</time></trkpt></trkseg><trkseg><trkpt lat="45.88858458217781" lon="11.897437563177101"><ele>848.0000000000001</ele><time>2026-04-26T09:22:21.935Z</time></trkpt><trkpt lat="45.88863738086997" lon="11.897510740976253"><ele>848.0</ele><time>2026-04-26T09:23:18Z</time></trkpt><trkpt lat="45.88862380872197" lon="11.897624810135087"><ele>848.0</ele><time>2026-04-26T09:23:21Z</time></trkpt><trkpt lat="45.888647700910134" lon="11.897750931266906"><ele>848.0</ele><time>2026-04-26T09:23:23.999Z</time></trkpt><trkpt lat="45.88863568227328" lon="11.89785961059584"><ele>848.0000000000001</ele><time>2026-04-26T09:23:27.999Z</time></trkpt><trkpt lat="45.88860293585508" lon="11.897938012682669"><ele>848.0</ele><time>2026-04-26T09:23:34.999Z</time></trkpt><trkpt lat="45.88852876948713" lon="11.897893908044065"><ele>848.6666666666667</ele><time>2026-04-26T09:23:51.999Z</time></trkpt><trkpt lat="45.8884800166196" lon="11.897819856078872"><ele>849.3333333333334</ele><time>2026-04-26T09:23:54.999Z</time></trkpt><trkpt lat="45.88841970312912" lon="11.897750010293521"><ele>850.0</ele><time>2026-04-26T09:23:57.999Z</time></trkpt><trkpt lat="45.888338040416976" lon="11.897749057408326"><ele>850.6666666666667</ele><time>2026-04-26T09:24:00.999Z</time></trkpt><trkpt lat="45.8882683429877" lon="11.897682685021053"><ele>851.3333333333334</ele><time>2026-04-26T09:24:04.999Z</time></trkpt><trkpt lat="45.88822559223389" lon="11.897593679344281"><ele>852.0</ele><time>2026-04-26T09:24:07.999Z</time></trkpt><trkpt lat="45.888184516925406" lon="11.897522892706165"><ele>852.2</ele><time>2026-04-26T09:24:10.999Z</time></trkpt><trkpt lat="45.88813487904523" lon="11.897438298912721"><ele>852.4000000000001</ele><time>2026-04-26T09:24:12.999Z</time></trkpt><trkpt lat="45.88806626286472" lon="11.897321586931122"><ele>852.5999999999999</ele><time>2026-04-26T09:24:14.999Z</time></trkpt><trkpt lat="45.887985596283194" lon="11.897196988902596"><ele>852.8</ele><time>2026-04-26T09:24:16.999Z</time></trkpt><trkpt lat="45.887905739059235" lon="11.89708240884501"><ele>853.0</ele><time>2026-04-26T09:24:18.999Z</time></trkpt><trkpt lat="45.88784200933834" lon="11.896991082960026"><ele>853.0</ele><time>2026-04-26T09:24:20.999Z</time></trkpt><trkpt lat="45.887775303784316" lon="11.896921903929472"><ele>853.0</ele><time>2026-04-26T09:24:22.999Z</time></trkpt><trkpt lat="45.887695290910166" lon="11.896828456415996"><ele>853.0</ele><time>2026-04-26T09:24:24.999Z</time></trkpt><trkpt lat="45.88762371684708" lon="11.89673589048147"><ele>853.0</ele><time>2026-04-26T09:24:26.999Z</time></trkpt><trkpt lat="45.88756613657578" lon="11.896643795906861"><ele>853.0</ele><time>2026-04-26T09:24:28.999Z</time></trkpt><trkpt lat="45.887508703387894" lon="11.89653934353333"><ele>850.8</ele><time>2026-04-26T09:24:31Z</time></trkpt><trkpt lat="45.887460871883256" lon="11.896429128120245"><ele>848.5999999999999</ele><time>2026-04-26T09:24:33Z</time></trkpt><trkpt lat="45.88738963213957" lon="11.896331893663744"><ele>846.4000000000001</ele><time>2026-04-26T09:24:35Z</time></trkpt><trkpt lat="45.88730607153068" lon="11.896259284363815"><ele>844.2</ele><time>2026-04-26T09:24:37Z</time></trkpt><trkpt lat="45.88722340282552" lon="11.896167015481304"><ele>842.0</ele><time>2026-04-26T09:24:39Z</time></trkpt><trkpt lat="45.88714650803932" lon="11.896067679247238"><ele>842.0</ele><time>2026-04-26T09:24:41Z</time></trkpt><trkpt lat="45.88706885215726" lon="11.895950014165672"><ele>842.0</ele><time>2026-04-26T09:24:43Z</time></trkpt><trkpt lat="45.887034388656836" lon="11.89587415612239"><ele>842.0</ele><time>2026-04-26T09:24:44Z</time></trkpt><trkpt lat="45.886963418536666" lon="11.895751733451762"><ele>842.0</ele><time>2026-04-26T09:24:46Z</time></trkpt><trkpt lat="45.88692133657351" lon="11.89566531289401"><ele>842.0</ele><time>2026-04-26T09:24:47Z</time></trkpt><trkpt lat="45.886834728740105" lon="11.895539928632036"><ele>841.5000000000001</ele><time>2026-04-26T09:24:49Z</time></trkpt><trkpt lat="45.8867865506671" lon="11.895467596319726"><ele>841.0</ele><time>2026-04-26T09:24:50Z</time></trkpt><trkpt lat="45.886693528839494" lon="11.895326840134352"><ele>840.5</ele><time>2026-04-26T09:24:52Z</time></trkpt><trkpt lat="45.886611882012645" lon="11.895233359477375"><ele>840.0</ele><time>2026-04-26T09:24:54Z</time></trkpt><trkpt lat="45.88656562541992" lon="11.895154321050851"><ele>839.5000000000001</ele><time>2026-04-26T09:24:55Z</time></trkpt><trkpt lat="45.8865243595182" lon="11.895082839875345"><ele>839.0</ele><time>2026-04-26T09:24:56Z</time></trkpt><trkpt lat="45.886446721484305" lon="11.894935798913005"><ele>839.0</ele><time>2026-04-26T09:24:58Z</time></trkpt><trkpt lat="45.88640773019245" lon="11.894859428848633"><ele>839.0</ele><time>2026-04-26T09:24:59Z</time></trkpt><trkpt lat="45.88635478456689" lon="11.894782642092068"><ele>839.0</ele><time>2026-04-26T09:25:00Z</time></trkpt><trkpt lat="45.8862677075925" lon="11.894642737930251"><ele>839.0</ele><time>2026-04-26T09:25:02Z</time></trkpt><trkpt lat="45.886185318429476" lon="11.894495664745246"><ele>839.0</ele><time>2026-04-26T09:25:04Z</time></trkpt><trkpt lat="45.886100379786356" lon="11.894349057985611"><ele>840.4000000000001</ele><time>2026-04-26T09:25:06Z</time></trkpt><trkpt lat="45.88602366610394" lon="11.894186987731496"><ele>841.8</ele><time>2026-04-26T09:25:08Z</time></trkpt><trkpt lat="45.88595917515957" lon="11.894086763340315"><ele>843.2</ele><time>2026-04-26T09:25:09Z</time></trkpt><trkpt lat="45.88589537820209" lon="11.89399786090941"><ele>844.5999999999999</ele><time>2026-04-26T09:25:10Z</time></trkpt><trkpt lat="45.88584907995692" lon="11.893914947829936"><ele>846.0</ele><time>2026-04-26T09:25:11Z</time></trkpt><trkpt lat="45.88579200154227" lon="11.893842331778924"><ele>844.0</ele><time>2026-04-26T09:25:12Z</time></trkpt><trkpt lat="45.88570717319792" lon="11.893752669585352"><ele>842.0</ele><time>2026-04-26T09:25:13Z</time></trkpt><trkpt lat="45.885620286907795" lon="11.893643409701262"><ele>840.0</ele><time>2026-04-26T09:25:15Z</time></trkpt><trkpt lat="45.88551115439622" lon="11.893530353326044"><ele>838.0</ele><time>2026-04-26T09:25:17Z</time></trkpt><trkpt lat="45.88545736483507" lon="11.89347476484853"><ele>836.0</ele><time>2026-04-26T09:25:18Z</time></trkpt><trkpt lat="45.88537628816689" lon="11.893414214908582"><ele>836.0</ele><time>2026-04-26T09:25:20Z</time></trkpt><trkpt lat="45.88532174135251" lon="11.893353943667051"><ele>836.0</ele><time>2026-04-26T09:25:23Z</time></trkpt><trkpt lat="45.88524512923751" lon="11.893257631701424"><ele>836.0</ele><time>2026-04-26T09:25:25.999Z</time></trkpt><trkpt lat="45.88516451147553" lon="11.893109664065761"><ele>836.0</ele><time>2026-04-26T09:25:27.999Z</time></trkpt><trkpt lat="45.885103584414054" lon="11.892966258526092"><ele>836.0</ele><time>2026-04-26T09:25:29.999Z</time></trkpt><trkpt lat="45.88506983021882" lon="11.892887194100373"><ele>834.8571428571429</ele><time>2026-04-26T09:25:30.999Z</time></trkpt><trkpt lat="45.88500549436169" lon="11.892812382745198"><ele>833.7142857142857</ele><time>2026-04-26T09:25:33.999Z</time></trkpt><trkpt lat="45.88495849542455" lon="11.892729876760843"><ele>832.5714285714287</ele><time>2026-04-26T09:25:35.999Z</time></trkpt><trkpt lat="45.88490335832313" lon="11.89268067077431"><ele>831.4285714285714</ele><time>2026-04-26T09:25:37.999Z</time></trkpt><trkpt lat="45.8848397471479" lon="11.89263113482285"><ele>830.2857142857143</ele><time>2026-04-26T09:25:39.999Z</time></trkpt><trkpt lat="45.88476757345054" lon="11.892576133944894"><ele>829.1428571428572</ele><time>2026-04-26T09:25:41.999Z</time></trkpt><trkpt lat="45.88470445023501" lon="11.892551298649353"><ele>828.0</ele><time>2026-04-26T09:25:43.999Z</time></trkpt><trkpt lat="45.884619303156384" lon="11.89248571555216"><ele>828.0</ele><time>2026-04-26T09:25:45.999Z</time></trkpt><trkpt lat="45.88449867199191" lon="11.89238232039623"><ele>828.0</ele><time>2026-04-26T09:25:47.999Z</time></trkpt><trkpt lat="45.88442916313792" lon="11.892346047032792"><ele>828.0</ele><time>2026-04-26T09:25:48.999Z</time></trkpt><trkpt lat="45.8843519163683" lon="11.892293107266774"><ele>828.0</ele><time>2026-04-26T09:25:50.999Z</time></trkpt><trkpt lat="45.884253911806" lon="11.892222611177877"><ele>828.0</ele><time>2026-04-26T09:25:52.999Z</time></trkpt><trkpt lat="45.884185674960996" lon="11.892133988643055"><ele>828.0</ele><time>2026-04-26T09:25:54.999Z</time></trkpt><trkpt lat="45.88410289003153" lon="11.892004175936416"><ele>828.0</ele><time>2026-04-26T09:25:56.999Z</time></trkpt><trkpt lat="45.88403145427142" lon="11.89178883876344"><ele>828.0</ele><time>2026-04-26T09:25:58.999Z</time></trkpt><trkpt lat="45.88399923558208" lon="11.891699726489584"><ele>828.0</ele><time>2026-04-26T09:25:59.999Z</time></trkpt><trkpt lat="45.883882308891344" lon="11.89158850780893"><ele>828.0</ele><time>2026-04-26T09:26:01.999Z</time></trkpt><trkpt lat="45.88382244678088" lon="11.89149190220016"><ele>828.0</ele><time>2026-04-26T09:26:03.999Z</time></trkpt><trkpt lat="45.88372560428385" lon="11.891535483786244"><ele>828.0</ele><time>2026-04-26T09:26:04.999Z</time></trkpt><trkpt lat="45.883606349271915" lon="11.891446450185285"><ele>828.0</ele><time>2026-04-26T09:26:05.999Z</time></trkpt><trkpt lat="45.88355987046608" lon="11.89131912754703"><ele>828.0</ele><time>2026-04-26T09:26:07.999Z</time></trkpt><trkpt lat="45.88356839669562" lon="11.891202636667082"><ele>828.0</ele><time>2026-04-26T09:26:08.999Z</time></trkpt><trkpt lat="45.883563908515264" lon="11.891101816015247"><ele>828.0</ele><time>2026-04-26T09:26:09.999Z</time></trkpt><trkpt lat="45.88357510199533" lon="11.890984566784221"><ele>828.0</ele><time>2026-04-26T09:26:10.999Z</time></trkpt><trkpt lat="45.883588349390166" lon="11.890873652759288"><ele>828.0</ele><time>2026-04-26T09:26:11.999Z</time></trkpt><trkpt lat="45.88358541199534" lon="11.8907733312428"><ele>828.0</ele><time>2026-04-26T09:26:12.999Z</time></trkpt><trkpt lat="45.88356992602142" lon="11.890641668330012"><ele>828.0</ele><time>2026-04-26T09:26:13.999Z</time></trkpt><trkpt lat="45.88357226848308" lon="11.890499302027347"><ele>830.1666666666666</ele><time>2026-04-26T09:26:14.999Z</time></trkpt><trkpt lat="45.883558567011484" lon="11.89037754612135"><ele>832.3333333333333</ele><time>2026-04-26T09:26:15.999Z</time></trkpt><trkpt lat="45.88353896638354" lon="11.890254848745645"><ele>834.5</ele><time>2026-04-26T09:26:16.999Z</time></trkpt><trkpt lat="45.883521244173714" lon="11.890152658121329"><ele>836.6666666666666</ele><time>2026-04-26T09:26:17.999Z</time></trkpt><trkpt lat="45.88351215461129" lon="11.890042901622033"><ele>838.8333333333333</ele><time>2026-04-26T09:26:18.999Z</time></trkpt><trkpt lat="45.883489142364944" lon="11.88991867712558"><ele>841.0</ele><time>2026-04-26T09:26:19.999Z</time></trkpt><trkpt lat="45.88346699380051" lon="11.88980392648889"><ele>842.3333333333333</ele><time>2026-04-26T09:26:20.999Z</time></trkpt><trkpt lat="45.88344486662689" lon="11.889698849778016"><ele>843.6666666666666</ele><time>2026-04-26T09:26:21.999Z</time></trkpt><trkpt lat="45.88342503163866" lon="11.889596509049554"><ele>845.0</ele><time>2026-04-26T09:26:22.999Z</time></trkpt><trkpt lat="45.88340785730678" lon="11.889468355044496"><ele>846.3333333333333</ele><time>2026-04-26T09:26:23.999Z</time></trkpt><trkpt lat="45.88339277559279" lon="11.889350799557958"><ele>847.6666666666666</ele><time>2026-04-26T09:26:24.999Z</time></trkpt><trkpt lat="45.883372545970644" lon="11.889230158044462"><ele>849.0</ele><time>2026-04-26T09:26:25.999Z</time></trkpt><trkpt lat="45.88335692029164" lon="11.88912226668778"><ele>847.0</ele><time>2026-04-26T09:26:26.999Z</time></trkpt><trkpt lat="45.883343492972855" lon="11.88894093210334"><ele>845.0</ele><time>2026-04-26T09:26:28.999Z</time></trkpt><trkpt lat="45.88335212515283" lon="11.888837633659152"><ele>843.0</ele><time>2026-04-26T09:26:29.999Z</time></trkpt><trkpt lat="45.883358203966125" lon="11.888727253031044"><ele>841.0</ele><time>2026-04-26T09:26:30.999Z</time></trkpt><trkpt lat="45.88336244546974" lon="11.888613141157785"><ele>839.0</ele><time>2026-04-26T09:26:31.999Z</time></trkpt><trkpt lat="45.883369315589555" lon="11.88850632770476"><ele>837.0</ele><time>2026-04-26T09:26:32.999Z</time></trkpt><trkpt lat="45.8833680388891" lon="11.888402680809895"><ele>837.0</ele><time>2026-04-26T09:26:33.999Z</time></trkpt><trkpt lat="45.8833643010839" lon="11.888306921983935"><ele>837.0</ele><time>2026-04-26T09:26:34.999Z</time></trkpt><trkpt lat="45.883364498353586" lon="11.88820516461819"><ele>837.0</ele><time>2026-04-26T09:26:35.999Z</time></trkpt><trkpt lat="45.88339219651535" lon="11.888099766095841"><ele>837.0</ele><time>2026-04-26T09:26:37Z</time></trkpt><trkpt lat="45.883411731590826" lon="11.887913259017203"><ele>837.0</ele><time>2026-04-26T09:26:39Z</time></trkpt><trkpt lat="45.88343280781086" lon="11.88781636897786"><ele>837.0</ele><time>2026-04-26T09:26:40Z</time></trkpt><trkpt lat="45.88349088393873" lon="11.887711705473748"><ele>840.6666666666666</ele><time>2026-04-26T09:26:41Z</time></trkpt><trkpt lat="45.8835339231174" lon="11.88761866208388"><ele>844.3333333333333</ele><time>2026-04-26T09:26:42Z</time></trkpt><trkpt lat="45.883574411200684" lon="11.88751834075606"><ele>848.0</ele><time>2026-04-26T09:26:43Z</time></trkpt><trkpt lat="45.88357882670889" lon="11.887426019372827"><ele>851.6666666666666</ele><time>2026-04-26T09:26:44Z</time></trkpt><trkpt lat="45.88360503085065" lon="11.88728857748885"><ele>855.3333333333333</ele><time>2026-04-26T09:26:45Z</time></trkpt><trkpt lat="45.883611510817715" lon="11.887166405927342"><ele>859.0</ele><time>2026-04-26T09:26:46Z</time></trkpt><trkpt lat="45.88360457757307" lon="11.887041264932499"><ele>859.0</ele><time>2026-04-26T09:26:47Z</time></trkpt><trkpt lat="45.88358854468663" lon="11.8869167884123"><ele>859.0000000000001</ele><time>2026-04-26T09:26:48Z</time></trkpt><trkpt lat="45.883576576729745" lon="11.886794548906042"><ele>859.0000000000001</ele><time>2026-04-26T09:26:49Z</time></trkpt><trkpt lat="45.88354260397017" lon="11.886657789746872"><ele>859.0</ele><time>2026-04-26T09:26:50Z</time></trkpt><trkpt lat="45.88350716090232" lon="11.886532532370188"><ele>859.0</ele><time>2026-04-26T09:26:51Z</time></trkpt><trkpt lat="45.88346257912857" lon="11.886422038748345"><ele>856.8000000000001</ele><time>2026-04-26T09:26:52Z</time></trkpt><trkpt lat="45.883402035054196" lon="11.886303641391677"><ele>854.6000000000001</ele><time>2026-04-26T09:26:53Z</time></trkpt><trkpt lat="45.88334916531652" lon="11.88618611309758"><ele>852.4</ele><time>2026-04-26T09:26:54Z</time></trkpt><trkpt lat="45.88330081589584" lon="11.886068793985688"><ele>850.2</ele><time>2026-04-26T09:26:55Z</time></trkpt><trkpt lat="45.883267562790834" lon="11.885948891653559"><ele>848.0</ele><time>2026-04-26T09:26:56Z</time></trkpt><trkpt lat="45.883203794475484" lon="11.885794571136824"><ele>848.0</ele><time>2026-04-26T09:26:57Z</time></trkpt><trkpt lat="45.88315261026012" lon="11.885662384473893"><ele>848.0</ele><time>2026-04-26T09:26:58Z</time></trkpt><trkpt lat="45.8831131646971" lon="11.88553375925237"><ele>848.0</ele><time>2026-04-26T09:26:59Z</time></trkpt><trkpt lat="45.88308576300403" lon="11.88543840888149"><ele>848.0</ele><time>2026-04-26T09:27:00Z</time></trkpt><trkpt lat="45.883037372521315" lon="11.885303315509699"><ele>848.0</ele><time>2026-04-26T09:27:02Z</time></trkpt><trkpt lat="45.88298226345339" lon="11.88518574027349"><ele>848.0000000000001</ele><time>2026-04-26T09:27:04Z</time></trkpt><trkpt lat="45.882935759824306" lon="11.885122046748329"><ele>848.0</ele><time>2026-04-26T09:27:06Z</time></trkpt><trkpt lat="45.88290129079271" lon="11.885027198427128"><ele>848.0</ele><time>2026-04-26T09:27:09Z</time></trkpt><trkpt lat="45.88292635554364" lon="11.884897493593783"><ele>848.0</ele><time>2026-04-26T09:27:12Z</time></trkpt><trkpt lat="45.88301567889433" lon="11.88500375624005"><ele>848.0000000000001</ele><time>2026-04-26T09:27:15Z</time></trkpt><trkpt lat="45.88306954645562" lon="11.885068803618404"><ele>848.0</ele><time>2026-04-26T09:27:17Z</time></trkpt><trkpt lat="45.88312485257911" lon="11.885159931535393"><ele>848.0</ele><time>2026-04-26T09:27:19Z</time></trkpt><trkpt lat="45.88315502582671" lon="11.885269597659933"><ele>848.0</ele><time>2026-04-26T09:27:20Z</time></trkpt><trkpt lat="45.883199354706754" lon="11.885354895789964"><ele>848.0</ele><time>2026-04-26T09:27:21Z</time></trkpt><trkpt lat="45.883243005103374" lon="11.885439988993292"><ele>848.0</ele><time>2026-04-26T09:27:22Z</time></trkpt><trkpt lat="45.883292040498745" lon="11.885596585652046"><ele>848.0</ele><time>2026-04-26T09:27:23Z</time></trkpt><trkpt lat="45.88337144521239" lon="11.88574690344715"><ele>849.0</ele><time>2026-04-26T09:27:24Z</time></trkpt><trkpt lat="45.883466597939105" lon="11.885892705441385"><ele>850.0</ele><time>2026-04-26T09:27:25Z</time></trkpt><trkpt lat="45.88359269884509" lon="11.886043688846733"><ele>851.0</ele><time>2026-04-26T09:27:26Z</time></trkpt><trkpt lat="45.88371712089841" lon="11.886258383490715"><ele>853.0</ele><time>2026-04-26T09:27:27Z</time></trkpt><trkpt lat="45.883830902180584" lon="11.88649882825798"><ele>855.0</ele><time>2026-04-26T09:27:28Z</time></trkpt><trkpt lat="45.883878165413115" lon="11.886663821453597"><ele>857.0</ele><time>2026-04-26T09:27:29Z</time></trkpt><trkpt lat="45.88393262149173" lon="11.886831119399924"><ele>857.4000000000001</ele><time>2026-04-26T09:27:30Z</time></trkpt><trkpt lat="45.883984188403744" lon="11.886994108792983"><ele>857.8000000000001</ele><time>2026-04-26T09:27:31Z</time></trkpt><trkpt lat="45.88403234479682" lon="11.88712103052438"><ele>858.2</ele><time>2026-04-26T09:27:32Z</time></trkpt><trkpt lat="45.88407429615669" lon="11.887249462614715"><ele>858.6</ele><time>2026-04-26T09:27:33Z</time></trkpt><trkpt lat="45.88414506667814" lon="11.887329414007214"><ele>859.0</ele><time>2026-04-26T09:27:34Z</time></trkpt><trkpt lat="45.88420224085256" lon="11.887411035703543"><ele>858.9999999999999</ele><time>2026-04-26T09:27:35Z</time></trkpt><trkpt lat="45.8842504520328" lon="11.887513491962313"><ele>859.0</ele><time>2026-04-26T09:27:36Z</time></trkpt><trkpt lat="45.88428082783822" lon="11.887614273203287"><ele>859.0</ele><time>2026-04-26T09:27:37Z</time></trkpt><trkpt lat="45.884298113090935" lon="11.88771164147383"><ele>859.0</ele><time>2026-04-26T09:27:38Z</time></trkpt><trkpt lat="45.88431597912695" lon="11.887799162576313"><ele>858.9999999999999</ele><time>2026-04-26T09:27:39Z</time></trkpt><trkpt lat="45.88433284686781" lon="11.887891500499935"><ele>859.0</ele><time>2026-04-26T09:27:40Z</time></trkpt><trkpt lat="45.88435535667155" lon="11.88803863934759"><ele>858.5</ele><time>2026-04-26T09:27:42Z</time></trkpt><trkpt lat="45.88439649038542" lon="11.888182527918127"><ele>858.0</ele><time>2026-04-26T09:27:43.999Z</time></trkpt><trkpt lat="45.88445983437497" lon="11.888324877638643"><ele>857.5</ele><time>2026-04-26T09:27:45.999Z</time></trkpt><trkpt lat="45.88453353459924" lon="11.888454315997008"><ele>857.0</ele><time>2026-04-26T09:27:47.999Z</time></trkpt><trkpt lat="45.88460992164882" lon="11.88858233875461"><ele>857.0000000000001</ele><time>2026-04-26T09:27:49.999Z</time></trkpt><trkpt lat="45.884660381343515" lon="11.888654935987725"><ele>857.0</ele><time>2026-04-26T09:27:50.999Z</time></trkpt><trkpt lat="45.88471925978308" lon="11.888723747483906"><ele>857.0</ele><time>2026-04-26T09:27:51.999Z</time></trkpt><trkpt lat="45.88476595020565" lon="11.88881315772648"><ele>857.0</ele><time>2026-04-26T09:27:52.999Z</time></trkpt><trkpt lat="45.88482969035209" lon="11.888878634154825"><ele>857.0000000000001</ele><time>2026-04-26T09:27:53.999Z</time></trkpt><trkpt lat="45.88488781468581" lon="11.888957136814252"><ele>857.0</ele><time>2026-04-26T09:27:54.999Z</time></trkpt><trkpt lat="45.88495093376388" lon="11.889015530272077"><ele>857.0</ele><time>2026-04-26T09:27:55.999Z</time></trkpt><trkpt lat="45.88500370138749" lon="11.889076318869584"><ele>857.0</ele><time>2026-04-26T09:27:56.999Z</time></trkpt><trkpt lat="45.8850532156863" lon="11.889138700711975"><ele>857.0</ele><time>2026-04-26T09:27:57.999Z</time></trkpt><trkpt lat="45.88510375768409" lon="11.889198052676104"><ele>857.0</ele><time>2026-04-26T09:27:58.999Z</time></trkpt><trkpt lat="45.88518738387351" lon="11.889312503954576"><ele>857.0</ele><time>2026-04-26T09:28:00.999Z</time></trkpt><trkpt lat="45.88523912795145" lon="11.889375230710842"><ele>857.0</ele><time>2026-04-26T09:28:01.999Z</time></trkpt><trkpt lat="45.88528423614281" lon="11.889441046676616"><ele>857.0</ele><time>2026-04-26T09:28:02.999Z</time></trkpt><trkpt lat="45.88534223762173" lon="11.88951797765447"><ele>856.2857142857142</ele><time>2026-04-26T09:28:03.999Z</time></trkpt><trkpt lat="45.88540029235686" lon="11.88959296155418"><ele>855.5714285714286</ele><time>2026-04-26T09:28:04.999Z</time></trkpt><trkpt lat="45.88545841925218" lon="11.889658035295293"><ele>854.8571428571429</ele><time>2026-04-26T09:28:05.999Z</time></trkpt><trkpt lat="45.8855116834018" lon="11.889730541914139"><ele>854.1428571428571</ele><time>2026-04-26T09:28:06.999Z</time></trkpt><trkpt lat="45.885567908705575" lon="11.88980310490916"><ele>853.4285714285714</ele><time>2026-04-26T09:28:07.999Z</time></trkpt><trkpt lat="45.88562362100083" lon="11.889869143567193"><ele>852.7142857142857</ele><time>2026-04-26T09:28:08.999Z</time></trkpt><trkpt lat="45.885675032655755" lon="11.889943659573374"><ele>852.0</ele><time>2026-04-26T09:28:09.999Z</time></trkpt><trkpt lat="45.88572193561572" lon="11.89000823269227"><ele>852.0</ele><time>2026-04-26T09:28:10.999Z</time></trkpt><trkpt lat="45.88578381487378" lon="11.890072187059307"><ele>852.0</ele><time>2026-04-26T09:28:11.999Z</time></trkpt><trkpt lat="45.88583191630259" lon="11.890134695023379"><ele>852.0</ele><time>2026-04-26T09:28:12.999Z</time></trkpt><trkpt lat="45.88588758325551" lon="11.890191425854661"><ele>852.0</ele><time>2026-04-26T09:28:13.999Z</time></trkpt><trkpt lat="45.88593698849317" lon="11.890251953720995"><ele>852.0</ele><time>2026-04-26T09:28:14.999Z</time></trkpt><trkpt lat="45.88603057215121" lon="11.890373335360831"><ele>852.0</ele><time>2026-04-26T09:28:16.999Z</time></trkpt><trkpt lat="45.88612265702428" lon="11.89047395968286"><ele>851.2</ele><time>2026-04-26T09:28:18.999Z</time></trkpt><trkpt lat="45.88621459639615" lon="11.890572267810464"><ele>850.4000000000001</ele><time>2026-04-26T09:28:20.999Z</time></trkpt><trkpt lat="45.88630018395239" lon="11.8906755486614"><ele>849.5999999999999</ele><time>2026-04-26T09:28:22.999Z</time></trkpt><trkpt lat="45.886383402050406" lon="11.89074632139593"><ele>848.8</ele><time>2026-04-26T09:28:24.999Z</time></trkpt><trkpt lat="45.88647729102445" lon="11.89077765496983"><ele>848.0</ele><time>2026-04-26T09:28:26.999Z</time></trkpt><trkpt lat="45.8865206342725" lon="11.890705283289945"><ele>848.0</ele><time>2026-04-26T09:28:27.999Z</time></trkpt><trkpt lat="45.886522932564006" lon="11.89055651219558"><ele>848.0</ele><time>2026-04-26T09:28:29.999Z</time></trkpt><trkpt lat="45.88645272816649" lon="11.890438031378118"><ele>848.0</ele><time>2026-04-26T09:28:31.999Z</time></trkpt><trkpt lat="45.88635877747464" lon="11.890310642158443"><ele>848.0</ele><time>2026-04-26T09:28:33.999Z</time></trkpt><trkpt lat="45.886303748236315" lon="11.890156631745086"><ele>845.1666666666667</ele><time>2026-04-26T09:28:35.999Z</time></trkpt><trkpt lat="45.88623332074141" lon="11.890012866758838"><ele>842.3333333333334</ele><time>2026-04-26T09:28:37.999Z</time></trkpt><trkpt lat="45.88619664927938" lon="11.889932592152503"><ele>839.5</ele><time>2026-04-26T09:28:38.999Z</time></trkpt><trkpt lat="45.88615094748367" lon="11.889833384581328"><ele>836.6666666666667</ele><time>2026-04-26T09:28:39.999Z</time></trkpt><trkpt lat="45.886090796594104" lon="11.88975312839965"><ele>833.8333333333334</ele><time>2026-04-26T09:28:40.999Z</time></trkpt><trkpt lat="45.88605751139356" lon="11.889650264204422"><ele>831.0</ele><time>2026-04-26T09:28:41.999Z</time></trkpt><trkpt lat="45.88600244501159" lon="11.889570406610359"><ele>831.0</ele><time>2026-04-26T09:28:43Z</time></trkpt><trkpt lat="45.88595432325788" lon="11.889476409275641"><ele>831.0</ele><time>2026-04-26T09:28:44Z</time></trkpt><trkpt lat="45.88590734372402" lon="11.889355750250175"><ele>831.0</ele><time>2026-04-26T09:28:45Z</time></trkpt><trkpt lat="45.885862350219064" lon="11.889250953036433"><ele>831.0</ele><time>2026-04-26T09:28:46Z</time></trkpt><trkpt lat="45.885824383483886" lon="11.889146510496907"><ele>831.0</ele><time>2026-04-26T09:28:47Z</time></trkpt><trkpt lat="45.885782932602716" lon="11.889040214104083"><ele>831.0</ele><time>2026-04-26T09:28:48Z</time></trkpt><trkpt lat="45.88573716932077" lon="11.888942119569284"><ele>832.0</ele><time>2026-04-26T09:28:49Z</time></trkpt><trkpt lat="45.885678798761525" lon="11.888835547384703"><ele>833.0</ele><time>2026-04-26T09:28:50Z</time></trkpt><trkpt lat="45.88562866722489" lon="11.888719461284962"><ele>834.0</ele><time>2026-04-26T09:28:51Z</time></trkpt><trkpt lat="45.88559994169945" lon="11.88860351908649"><ele>835.0</ele><time>2026-04-26T09:28:52Z</time></trkpt><trkpt lat="45.88555810987821" lon="11.888499280771871"><ele>836.0</ele><time>2026-04-26T09:28:53Z</time></trkpt><trkpt lat="45.885519488956966" lon="11.888401273461197"><ele>837.0</ele><time>2026-04-26T09:28:54Z</time></trkpt><trkpt lat="45.88548800460221" lon="11.88829779591029"><ele>834.7142857142858</ele><time>2026-04-26T09:28:55Z</time></trkpt><trkpt lat="45.88546534763393" lon="11.888202921268862"><ele>832.4285714285714</ele><time>2026-04-26T09:28:56Z</time></trkpt><trkpt lat="45.88544172001521" lon="11.888104105357176"><ele>830.1428571428571</ele><time>2026-04-26T09:28:57Z</time></trkpt><trkpt lat="45.88542283719612" lon="11.888012665014108"><ele>827.8571428571429</ele><time>2026-04-26T09:28:58Z</time></trkpt><trkpt lat="45.88540373549283" lon="11.887910441179997"><ele>825.5714285714286</ele><time>2026-04-26T09:28:59Z</time></trkpt><trkpt lat="45.88538445814181" lon="11.887809088621712"><ele>823.2857142857143</ele><time>2026-04-26T09:29:00Z</time></trkpt><trkpt lat="45.88534141095034" lon="11.88770272951001"><ele>821.0</ele><time>2026-04-26T09:29:01Z</time></trkpt><trkpt lat="45.88528824022913" lon="11.887597289573737"><ele>823.1666666666667</ele><time>2026-04-26T09:29:02Z</time></trkpt><trkpt lat="45.88523316616952" lon="11.887513237869708"><ele>825.3333333333334</ele><time>2026-04-26T09:29:03Z</time></trkpt><trkpt lat="45.885179817163895" lon="11.887432854892113"><ele>827.5</ele><time>2026-04-26T09:29:04Z</time></trkpt><trkpt lat="45.885128691124656" lon="11.88735058230553"><ele>829.6666666666667</ele><time>2026-04-26T09:29:05Z</time></trkpt><trkpt lat="45.88507788941172" lon="11.887272540747956"><ele>831.8333333333334</ele><time>2026-04-26T09:29:06Z</time></trkpt><trkpt lat="45.885030446221336" lon="11.887205621832058"><ele>834.0</ele><time>2026-04-26T09:29:07Z</time></trkpt><trkpt lat="45.884984821866986" lon="11.887113550126296"><ele>834.0</ele><time>2026-04-26T09:29:08Z</time></trkpt><trkpt lat="45.88494598623116" lon="11.887015921765183"><ele>834.0</ele><time>2026-04-26T09:29:09Z</time></trkpt><trkpt lat="45.88492086614857" lon="11.886923397965852"><ele>834.0</ele><time>2026-04-26T09:29:10Z</time></trkpt><trkpt lat="45.884901246271674" lon="11.886829085569232"><ele>834.0</ele><time>2026-04-26T09:29:11Z</time></trkpt><trkpt lat="45.88488943802912" lon="11.886719149151313"><ele>834.0</ele><time>2026-04-26T09:29:12Z</time></trkpt><trkpt lat="45.884875418568974" lon="11.886618374854464"><ele>834.0</ele><time>2026-04-26T09:29:13Z</time></trkpt><trkpt lat="45.88486144817123" lon="11.886507183564204"><ele>834.0</ele><time>2026-04-26T09:29:14Z</time></trkpt><trkpt lat="45.88485965400014" lon="11.886405126132468"><ele>830.2</ele><time>2026-04-26T09:29:15Z</time></trkpt><trkpt lat="45.884853786986746" lon="11.886245958630473"><ele>826.4000000000001</ele><time>2026-04-26T09:29:16Z</time></trkpt><trkpt lat="45.884860538865134" lon="11.886117067481482"><ele>822.6</ele><time>2026-04-26T09:29:17Z</time></trkpt><trkpt lat="45.884870254309" lon="11.885992861935922"><ele>818.8</ele><time>2026-04-26T09:29:18Z</time></trkpt><trkpt lat="45.88487878610966" lon="11.885885900092433"><ele>815.0</ele><time>2026-04-26T09:29:19Z</time></trkpt><trkpt lat="45.88489000972704" lon="11.885752182322532"><ele>813.5000000000001</ele><time>2026-04-26T09:29:20Z</time></trkpt><trkpt lat="45.88490096587901" lon="11.885635656136737"><ele>812.0</ele><time>2026-04-26T09:29:21Z</time></trkpt><trkpt lat="45.88489930545709" lon="11.885511696723166"><ele>810.5</ele><time>2026-04-26T09:29:22Z</time></trkpt><trkpt lat="45.88491414941761" lon="11.885396429767109"><ele>809.0</ele><time>2026-04-26T09:29:23Z</time></trkpt><trkpt lat="45.8849200541906" lon="11.885292932725912"><ele>807.5000000000001</ele><time>2026-04-26T09:29:24Z</time></trkpt><trkpt lat="45.88494424690042" lon="11.885205625060566"><ele>806.0</ele><time>2026-04-26T09:29:25Z</time></trkpt><trkpt lat="45.884946809741834" lon="11.885029130193363"><ele>805.3333333333334</ele><time>2026-04-26T09:29:27Z</time></trkpt><trkpt lat="45.88496309484781" lon="11.88491137446379"><ele>804.6666666666667</ele><time>2026-04-26T09:29:28Z</time></trkpt><trkpt lat="45.88495543999194" lon="11.884803338214128"><ele>804.0</ele><time>2026-04-26T09:29:29Z</time></trkpt><trkpt lat="45.88492254760882" lon="11.884705195778253"><ele>803.3333333333333</ele><time>2026-04-26T09:29:30Z</time></trkpt><trkpt lat="45.884912956234615" lon="11.884603262544653"><ele>802.6666666666666</ele><time>2026-04-26T09:29:31Z</time></trkpt><trkpt lat="45.884872808793624" lon="11.884510499576134"><ele>802.0</ele><time>2026-04-26T09:29:32Z</time></trkpt><trkpt lat="45.88483757787023" lon="11.884408787984125"><ele>801.9999999999999</ele><time>2026-04-26T09:29:33Z</time></trkpt><trkpt lat="45.88480026892943" lon="11.884321846408543"><ele>802.0</ele><time>2026-04-26T09:29:34Z</time></trkpt><trkpt lat="45.88477037261349" lon="11.884222302501177"><ele>802.0</ele><time>2026-04-26T09:29:35Z</time></trkpt><trkpt lat="45.88472407296142" lon="11.884126904792405"><ele>802.0</ele><time>2026-04-26T09:29:36Z</time></trkpt><trkpt lat="45.88468252181861" lon="11.884039849325175"><ele>801.9999999999999</ele><time>2026-04-26T09:29:37Z</time></trkpt><trkpt lat="45.88464189451963" lon="11.883942433245243"><ele>802.0</ele><time>2026-04-26T09:29:38Z</time></trkpt><trkpt lat="45.88461342641092" lon="11.883829240152595"><ele>799.6666666666666</ele><time>2026-04-26T09:29:39Z</time></trkpt><trkpt lat="45.88459593154039" lon="11.883721556525922"><ele>797.3333333333333</ele><time>2026-04-26T09:29:40Z</time></trkpt><trkpt lat="45.88458249139723" lon="11.883613053026325"><ele>795.0</ele><time>2026-04-26T09:29:41Z</time></trkpt><trkpt lat="45.884559351695614" lon="11.883498433702691"><ele>792.6666666666667</ele><time>2026-04-26T09:29:42Z</time></trkpt><trkpt lat="45.8845404104347" lon="11.883401976247885"><ele>790.3333333333334</ele><time>2026-04-26T09:29:43Z</time></trkpt><trkpt lat="45.88452647178154" lon="11.883299247689882"><ele>788.0</ele><time>2026-04-26T09:29:44Z</time></trkpt><trkpt lat="45.88451935911256" lon="11.883177905551516"><ele>784.3333333333334</ele><time>2026-04-26T09:29:45Z</time></trkpt><trkpt lat="45.88450785748788" lon="11.883060945317462"><ele>780.6666666666667</ele><time>2026-04-26T09:29:46Z</time></trkpt><trkpt lat="45.88449709523466" lon="11.882933065823885"><ele>777.0</ele><time>2026-04-26T09:29:47Z</time></trkpt><trkpt lat="45.884485594117656" lon="11.882814667441242"><ele>773.3333333333334</ele><time>2026-04-26T09:29:48Z</time></trkpt><trkpt lat="45.88447864238203" lon="11.882704953280989"><ele>769.6666666666667</ele><time>2026-04-26T09:29:49Z</time></trkpt><trkpt lat="45.88446719929654" lon="11.882587188347737"><ele>766.0</ele><time>2026-04-26T09:29:50Z</time></trkpt><trkpt lat="45.88448981318567" lon="11.882407523884458"><ele>764.1999999999999</ele><time>2026-04-26T09:29:52Z</time></trkpt><trkpt lat="45.88457554418332" lon="11.882290780785125"><ele>762.4</ele><time>2026-04-26T09:29:54Z</time></trkpt><trkpt lat="45.88466539312367" lon="11.882194577017906"><ele>760.6</ele><time>2026-04-26T09:29:56Z</time></trkpt><trkpt lat="45.88471212779654" lon="11.882012487818745"><ele>758.8</ele><time>2026-04-26T09:29:57.999Z</time></trkpt><trkpt lat="45.88470380698778" lon="11.881895653702102"><ele>757.0</ele><time>2026-04-26T09:29:58.999Z</time></trkpt><trkpt lat="45.88468628523338" lon="11.881786245719681"><ele>756.8333333333334</ele><time>2026-04-26T09:29:59.999Z</time></trkpt><trkpt lat="45.88466889134642" lon="11.881675298823325"><ele>756.6666666666667</ele><time>2026-04-26T09:30:00.999Z</time></trkpt><trkpt lat="45.88465945932548" lon="11.881555836600135"><ele>756.5</ele><time>2026-04-26T09:30:01.999Z</time></trkpt><trkpt lat="45.88464208323572" lon="11.881421476056166"><ele>756.3333333333334</ele><time>2026-04-26T09:30:02.999Z</time></trkpt><trkpt lat="45.8846380183304" lon="11.881285703165704"><ele>756.1666666666666</ele><time>2026-04-26T09:30:03.999Z</time></trkpt><trkpt lat="45.884636657341865" lon="11.881165813309167"><ele>756.0</ele><time>2026-04-26T09:30:04.999Z</time></trkpt><trkpt lat="45.884630744480056" lon="11.881038703071019"><ele>754.0</ele><time>2026-04-26T09:30:05.999Z</time></trkpt><trkpt lat="45.88462230178289" lon="11.880924587056574"><ele>752.0</ele><time>2026-04-26T09:30:06.999Z</time></trkpt><trkpt lat="45.88461254586475" lon="11.88080262166593"><ele>750.0</ele><time>2026-04-26T09:30:07.999Z</time></trkpt><trkpt lat="45.88459878457722" lon="11.88065585880638"><ele>748.0</ele><time>2026-04-26T09:30:08.999Z</time></trkpt><trkpt lat="45.884585567373755" lon="11.880529165142839"><ele>746.0</ele><time>2026-04-26T09:30:09.999Z</time></trkpt><trkpt lat="45.88457335955727" lon="11.880410481464121"><ele>744.0</ele><time>2026-04-26T09:30:10.999Z</time></trkpt><trkpt lat="45.88456135154581" lon="11.880304268675953"><ele>744.0000000000001</ele><time>2026-04-26T09:30:11.999Z</time></trkpt><trkpt lat="45.88454463472004" lon="11.880200520594421"><ele>744.0</ele><time>2026-04-26T09:30:12.999Z</time></trkpt><trkpt lat="45.88452614212675" lon="11.880105206104316"><ele>744.0</ele><time>2026-04-26T09:30:13.999Z</time></trkpt><trkpt lat="45.884503884406016" lon="11.880006349590337"><ele>744.0</ele><time>2026-04-26T09:30:14.999Z</time></trkpt><trkpt lat="45.88448112336882" lon="11.879910515432794"><ele>744.0</ele><time>2026-04-26T09:30:15.999Z</time></trkpt><trkpt lat="45.88445565569881" lon="11.879814074548463"><ele>744.0000000000001</ele><time>2026-04-26T09:30:16.999Z</time></trkpt><trkpt lat="45.88442560905682" lon="11.879727093647855"><ele>744.0</ele><time>2026-04-26T09:30:17.999Z</time></trkpt><trkpt lat="45.88439472866588" lon="11.879642815822386"><ele>741.0</ele><time>2026-04-26T09:30:18.999Z</time></trkpt><trkpt lat="45.88434084425241" lon="11.87950556773083"><ele>738.0</ele><time>2026-04-26T09:30:20.999Z</time></trkpt><trkpt lat="45.88430484407177" lon="11.87942401723527"><ele>735.0</ele><time>2026-04-26T09:30:21.999Z</time></trkpt><trkpt lat="45.884224184644594" lon="11.879268313009957"><ele>732.0</ele><time>2026-04-26T09:30:23.999Z</time></trkpt><trkpt lat="45.88418824938144" lon="11.879181301799516"><ele>729.0</ele><time>2026-04-26T09:30:24.999Z</time></trkpt><trkpt lat="45.88415530870783" lon="11.879076277638784"><ele>728.1666666666666</ele><time>2026-04-26T09:30:25.999Z</time></trkpt><trkpt lat="45.884140638374255" lon="11.878965240044563"><ele>727.3333333333334</ele><time>2026-04-26T09:30:26.999Z</time></trkpt><trkpt lat="45.88418849942365" lon="11.878843639509919"><ele>726.5</ele><time>2026-04-26T09:30:27.999Z</time></trkpt><trkpt lat="45.884203778320575" lon="11.878748013229824"><ele>725.6666666666667</ele><time>2026-04-26T09:30:28.999Z</time></trkpt><trkpt lat="45.884216887474274" lon="11.878658368020066"><ele>724.8333333333334</ele><time>2026-04-26T09:30:29.999Z</time></trkpt><trkpt lat="45.88423094161012" lon="11.878559876514696"><ele>724.0</ele><time>2026-04-26T09:30:30.999Z</time></trkpt><trkpt lat="45.88427944892173" lon="11.878452782015275"><ele>726.3333333333334</ele><time>2026-04-26T09:30:31.999Z</time></trkpt><trkpt lat="45.884320682761455" lon="11.878354675315975"><ele>728.6666666666667</ele><time>2026-04-26T09:30:32.999Z</time></trkpt><trkpt lat="45.88436795554136" lon="11.878266895646922"><ele>731.0</ele><time>2026-04-26T09:30:33.999Z</time></trkpt><trkpt lat="45.88444852679025" lon="11.878223308225373"><ele>733.3333333333334</ele><time>2026-04-26T09:30:34.999Z</time></trkpt><trkpt lat="45.8845115289571" lon="11.878149408953307"><ele>735.6666666666666</ele><time>2026-04-26T09:30:35.999Z</time></trkpt><trkpt lat="45.88456601980926" lon="11.87808925253605"><ele>738.0</ele><time>2026-04-26T09:30:36.999Z</time></trkpt><trkpt lat="45.88464207488731" lon="11.87804956564692"><ele>738.0</ele><time>2026-04-26T09:30:37.999Z</time></trkpt><trkpt lat="45.8847140003546" lon="11.877992108186252"><ele>738.0</ele><time>2026-04-26T09:30:38.999Z</time></trkpt><trkpt lat="45.88478176835852" lon="11.877936889672249"><ele>738.0</ele><time>2026-04-26T09:30:39.999Z</time></trkpt><trkpt lat="45.884847612727846" lon="11.87788147346713"><ele>738.0</ele><time>2026-04-26T09:30:40.999Z</time></trkpt><trkpt lat="45.88490991567318" lon="11.8778055134886"><ele>738.0</ele><time>2026-04-26T09:30:41.999Z</time></trkpt><trkpt lat="45.88501606859843" lon="11.877730324319863"><ele>738.0</ele><time>2026-04-26T09:30:42.999Z</time></trkpt><trkpt lat="45.88509222642443" lon="11.877651668534478"><ele>732.4</ele><time>2026-04-26T09:30:43.999Z</time></trkpt><trkpt lat="45.885164863111385" lon="11.877524673035854"><ele>726.8</ele><time>2026-04-26T09:30:44.999Z</time></trkpt><trkpt lat="45.88523559192343" lon="11.87743822767072"><ele>721.2</ele><time>2026-04-26T09:30:45.999Z</time></trkpt><trkpt lat="45.88530005994488" lon="11.877341884405855"><ele>715.6</ele><time>2026-04-26T09:30:46.999Z</time></trkpt><trkpt lat="45.885371301412356" lon="11.877264857089585"><ele>710.0</ele><time>2026-04-26T09:30:47.999Z</time></trkpt><trkpt lat="45.885438938065114" lon="11.877211721247678"><ele>710.0</ele><time>2026-04-26T09:30:49Z</time></trkpt><trkpt lat="45.88555553510273" lon="11.877151064910196"><ele>710.0</ele><time>2026-04-26T09:30:51Z</time></trkpt><trkpt lat="45.885585466493836" lon="11.876941526952265"><ele>710.0</ele><time>2026-04-26T09:30:53Z</time></trkpt><trkpt lat="45.885589162492046" lon="11.876847203357984"><ele>710.0</ele><time>2026-04-26T09:30:54Z</time></trkpt><trkpt lat="45.885597512712955" lon="11.876756899873708"><ele>710.0</ele><time>2026-04-26T09:30:55Z</time></trkpt><trkpt lat="45.885605429270875" lon="11.876645035973002"><ele>712.0</ele><time>2026-04-26T09:30:56Z</time></trkpt><trkpt lat="45.885599396505725" lon="11.87654160000981"><ele>714.0</ele><time>2026-04-26T09:30:57Z</time></trkpt><trkpt lat="45.885623418356815" lon="11.876436451151342"><ele>716.0</ele><time>2026-04-26T09:30:58Z</time></trkpt><trkpt lat="45.88569393814691" lon="11.876344099782491"><ele>718.0</ele><time>2026-04-26T09:30:59Z</time></trkpt><trkpt lat="45.88577251552732" lon="11.876199340433333"><ele>720.0</ele><time>2026-04-26T09:31:01Z</time></trkpt><trkpt lat="45.88581410415063" lon="11.87612650670646"><ele>722.0</ele><time>2026-04-26T09:31:02Z</time></trkpt><trkpt lat="45.885850745894665" lon="11.875953105782989"><ele>724.6</ele><time>2026-04-26T09:31:04Z</time></trkpt><trkpt lat="45.88588335256733" lon="11.875788240572346"><ele>727.2</ele><time>2026-04-26T09:31:06Z</time></trkpt><trkpt lat="45.88592536782469" lon="11.875717053228009"><ele>729.8</ele><time>2026-04-26T09:31:07Z</time></trkpt><trkpt lat="45.88602764379718" lon="11.875668953595897"><ele>732.4</ele><time>2026-04-26T09:31:09Z</time></trkpt><trkpt lat="45.8861177979945" lon="11.875705330110756"><ele>735.0</ele><time>2026-04-26T09:31:11Z</time></trkpt><trkpt lat="45.88611524859018" lon="11.875844985173464"><ele>729.5</ele><time>2026-04-26T09:31:13Z</time></trkpt><trkpt lat="45.8861908788107" lon="11.875950734949908"><ele>724.0</ele><time>2026-04-26T09:31:14Z</time></trkpt><trkpt lat="45.88629866554402" lon="11.876036669987224"><ele>718.5</ele><time>2026-04-26T09:31:15Z</time></trkpt><trkpt lat="45.88641966343715" lon="11.876082971893888"><ele>713.0</ele><time>2026-04-26T09:31:17Z</time></trkpt><trkpt lat="45.88651232916904" lon="11.876017489091865"><ele>713.0</ele><time>2026-04-26T09:31:18Z</time></trkpt><trkpt lat="45.88663456861868" lon="11.875984710416915"><ele>713.0</ele><time>2026-04-26T09:31:20Z</time></trkpt><trkpt lat="45.88670393794424" lon="11.875967764362121"><ele>713.0</ele><time>2026-04-26T09:31:21Z</time></trkpt><trkpt lat="45.88677365280259" lon="11.875954157050193"><ele>713.0</ele><time>2026-04-26T09:31:22Z</time></trkpt><trkpt lat="45.88685625096774" lon="11.875963725990198"><ele>713.0</ele><time>2026-04-26T09:31:23Z</time></trkpt><trkpt lat="45.8869657573404" lon="11.876004455464813"><ele>719.4</ele><time>2026-04-26T09:31:25Z</time></trkpt><trkpt lat="45.88705459071626" lon="11.875931499637039"><ele>725.8</ele><time>2026-04-26T09:31:27Z</time></trkpt><trkpt lat="45.88717537749777" lon="11.87590339259608"><ele>732.2</ele><time>2026-04-26T09:31:29Z</time></trkpt><trkpt lat="45.88713543314094" lon="11.876006678002188"><ele>738.6</ele><time>2026-04-26T09:31:31Z</time></trkpt><trkpt lat="45.88713426110841" lon="11.87614777991814"><ele>745.0</ele><time>2026-04-26T09:31:32Z</time></trkpt><trkpt lat="45.8870903432399" lon="11.87625037941403"><ele>745.0</ele><time>2026-04-26T09:31:33Z</time></trkpt><trkpt lat="45.88700434674303" lon="11.876324784378822"><ele>745.0</ele><time>2026-04-26T09:31:35Z</time></trkpt><trkpt lat="45.886864977683054" lon="11.876378018527463"><ele>745.0</ele><time>2026-04-26T09:31:37Z</time></trkpt><trkpt lat="45.8868098719751" lon="11.876425618338562"><ele>745.0</ele><time>2026-04-26T09:31:38Z</time></trkpt><trkpt lat="45.88671068775098" lon="11.876538741787506"><ele>745.0</ele><time>2026-04-26T09:31:40Z</time></trkpt><trkpt lat="45.8867013981694" lon="11.876654400624593"><ele>738.0</ele><time>2026-04-26T09:31:41Z</time></trkpt><trkpt lat="45.88670407253015" lon="11.876812258156995"><ele>731.0</ele><time>2026-04-26T09:31:42Z</time></trkpt><trkpt lat="45.88671709608573" lon="11.876936490743695"><ele>724.0</ele><time>2026-04-26T09:31:43Z</time></trkpt><trkpt lat="45.88671734160927" lon="11.877046783079683"><ele>717.0</ele><time>2026-04-26T09:31:44Z</time></trkpt><trkpt lat="45.886714653346004" lon="11.877160566286715"><ele>710.0</ele><time>2026-04-26T09:31:45Z</time></trkpt><trkpt lat="45.88672147017467" lon="11.877262876657442"><ele>703.0</ele><time>2026-04-26T09:31:46Z</time></trkpt><trkpt lat="45.886736826703995" lon="11.877383726775133"><ele>703.0</ele><time>2026-04-26T09:31:47Z</time></trkpt><trkpt lat="45.88675915804395" lon="11.87749588751263"><ele>703.0</ele><time>2026-04-26T09:31:48Z</time></trkpt><trkpt lat="45.88678424485419" lon="11.877596564414977"><ele>703.0</ele><time>2026-04-26T09:31:49Z</time></trkpt><trkpt lat="45.886774850880904" lon="11.877691556123498"><ele>703.0</ele><time>2026-04-26T09:31:50Z</time></trkpt><trkpt lat="45.88676387561441" lon="11.87779135443137"><ele>703.0</ele><time>2026-04-26T09:31:51Z</time></trkpt><trkpt lat="45.88674395311016" lon="11.877942796639632"><ele>703.0</ele><time>2026-04-26T09:31:52Z</time></trkpt><trkpt lat="45.88670139821022" lon="11.878074082107783"><ele>701.0</ele><time>2026-04-26T09:31:53Z</time></trkpt><trkpt lat="45.88669651622454" lon="11.878171511743156"><ele>699.0</ele><time>2026-04-26T09:31:54Z</time></trkpt><trkpt lat="45.88666043053871" lon="11.87826054707691"><ele>697.0</ele><time>2026-04-26T09:31:55Z</time></trkpt><trkpt lat="45.8866519365706" lon="11.878392921547166"><ele>695.0</ele><time>2026-04-26T09:31:56Z</time></trkpt><trkpt lat="45.88662941164925" lon="11.878495886569553"><ele>693.0</ele><time>2026-04-26T09:31:57Z</time></trkpt><trkpt lat="45.8866344037032" lon="11.878706523693893"><ele>693.1666666666666</ele><time>2026-04-26T09:31:59Z</time></trkpt><trkpt lat="45.886683013603495" lon="11.878797186110791"><ele>693.3333333333334</ele><time>2026-04-26T09:32:00Z</time></trkpt><trkpt lat="45.88672442933345" lon="11.878875938734017"><ele>693.5</ele><time>2026-04-26T09:32:01Z</time></trkpt><trkpt lat="45.88677954674102" lon="11.878963448584853"><ele>693.6666666666667</ele><time>2026-04-26T09:32:02Z</time></trkpt><trkpt lat="45.886873868391405" lon="11.878937600347829"><ele>693.8333333333334</ele><time>2026-04-26T09:32:03Z</time></trkpt><trkpt lat="45.886945459385885" lon="11.878973977782781"><ele>694.0</ele><time>2026-04-26T09:32:04Z</time></trkpt><trkpt lat="45.887010073306726" lon="11.879005599191153"><ele>694.0</ele><time>2026-04-26T09:32:05Z</time></trkpt><trkpt lat="45.88714570115811" lon="11.879062565677117"><ele>694.0</ele><time>2026-04-26T09:32:07Z</time></trkpt><trkpt lat="45.88721572760642" lon="11.879084988395167"><ele>694.0</ele><time>2026-04-26T09:32:08Z</time></trkpt><trkpt lat="45.887280861546856" lon="11.879097376541452"><ele>694.0</ele><time>2026-04-26T09:32:09Z</time></trkpt><trkpt lat="45.88736267852392" lon="11.87913416525025"><ele>694.0</ele><time>2026-04-26T09:32:10Z</time></trkpt><trkpt lat="45.88743817465965" lon="11.879152940045197"><ele>694.0</ele><time>2026-04-26T09:32:11Z</time></trkpt><trkpt lat="45.88750475898547" lon="11.879147361904018"><ele>694.0</ele><time>2026-04-26T09:32:12Z</time></trkpt><trkpt lat="45.887572532086004" lon="11.879174639339615"><ele>694.0</ele><time>2026-04-26T09:32:13Z</time></trkpt><trkpt lat="45.8876327714637" lon="11.8792442651855"><ele>694.0</ele><time>2026-04-26T09:32:13.999Z</time></trkpt><trkpt lat="45.88764188026595" lon="11.87935633927679"><ele>694.0</ele><time>2026-04-26T09:32:14.999Z</time></trkpt><trkpt lat="45.88768691045202" lon="11.87952215279553"><ele>694.0</ele><time>2026-04-26T09:32:15.999Z</time></trkpt><trkpt lat="45.88773303660936" lon="11.879625762775218"><ele>694.0</ele><time>2026-04-26T09:32:16.999Z</time></trkpt><trkpt lat="45.887772279484984" lon="11.879723985157025"><ele>694.6666666666667</ele><time>2026-04-26T09:32:17.999Z</time></trkpt><trkpt lat="45.887824908248945" lon="11.8799086187539"><ele>695.3333333333334</ele><time>2026-04-26T09:32:19.999Z</time></trkpt><trkpt lat="45.88784035083955" lon="11.88001313691237"><ele>696.0</ele><time>2026-04-26T09:32:20.999Z</time></trkpt><trkpt lat="45.8878910352511" lon="11.880092831779614"><ele>696.6666666666666</ele><time>2026-04-26T09:32:21.999Z</time></trkpt><trkpt lat="45.887942546665585" lon="11.88016195682203"><ele>697.3333333333333</ele><time>2026-04-26T09:32:22.999Z</time></trkpt><trkpt lat="45.8880132511555" lon="11.880232035615846"><ele>698.0</ele><time>2026-04-26T09:32:23.999Z</time></trkpt><trkpt lat="45.888077928494276" lon="11.880315671462027"><ele>691.8333333333333</ele><time>2026-04-26T09:32:24.999Z</time></trkpt><trkpt lat="45.88815056998365" lon="11.880409606217425"><ele>685.6666666666666</ele><time>2026-04-26T09:32:25.999Z</time></trkpt><trkpt lat="45.8882174760537" lon="11.880500696772986"><ele>679.5</ele><time>2026-04-26T09:32:26.999Z</time></trkpt><trkpt lat="45.888277021929376" lon="11.880585050543617"><ele>673.3333333333334</ele><time>2026-04-26T09:32:27.999Z</time></trkpt><trkpt lat="45.888321985830366" lon="11.880672213896403"><ele>667.1666666666667</ele><time>2026-04-26T09:32:28.999Z</time></trkpt><trkpt lat="45.888381810464274" lon="11.88075950696211"><ele>661.0</ele><time>2026-04-26T09:32:29.999Z</time></trkpt><trkpt lat="45.88842524089851" lon="11.880842643739266"><ele>658.4285714285714</ele><time>2026-04-26T09:32:30.999Z</time></trkpt><trkpt lat="45.88846459488578" lon="11.88092494686687"><ele>655.8571428571429</ele><time>2026-04-26T09:32:31.999Z</time></trkpt><trkpt lat="45.88849680318889" lon="11.8810092784256"><ele>653.2857142857142</ele><time>2026-04-26T09:32:32.999Z</time></trkpt><trkpt lat="45.88853709730753" lon="11.881080447307276"><ele>650.7142857142858</ele><time>2026-04-26T09:32:33.999Z</time></trkpt><trkpt lat="45.88855406383873" lon="11.881212759260684"><ele>648.1428571428572</ele><time>2026-04-26T09:32:34.999Z</time></trkpt><trkpt lat="45.888597110579546" lon="11.881290182633395"><ele>645.5714285714286</ele><time>2026-04-26T09:32:35.999Z</time></trkpt><trkpt lat="45.88864053307323" lon="11.88137992993412"><ele>643.0</ele><time>2026-04-26T09:32:36.999Z</time></trkpt><trkpt lat="45.88868709725156" lon="11.881449314742067"><ele>643.0</ele><time>2026-04-26T09:32:37.999Z</time></trkpt><trkpt lat="45.88874462507468" lon="11.881504275507458"><ele>643.0</ele><time>2026-04-26T09:32:38.999Z</time></trkpt><trkpt lat="45.88880271115116" lon="11.881548224885982"><ele>643.0</ele><time>2026-04-26T09:32:39.999Z</time></trkpt><trkpt lat="45.888870742328024" lon="11.881579297101561"><ele>643.0</ele><time>2026-04-26T09:32:40.999Z</time></trkpt><trkpt lat="45.88894673366481" lon="11.881537996231994"><ele>643.0</ele><time>2026-04-26T09:32:41.999Z</time></trkpt><trkpt lat="45.88902671705386" lon="11.881464985597423"><ele>643.0</ele><time>2026-04-26T09:32:42.999Z</time></trkpt><trkpt lat="45.889112618167836" lon="11.881430678300752"><ele>643.0</ele><time>2026-04-26T09:32:43.999Z</time></trkpt><trkpt lat="45.88918157283755" lon="11.881412763169385"><ele>643.0</ele><time>2026-04-26T09:32:44.999Z</time></trkpt><trkpt lat="45.889257950674704" lon="11.881409248680505"><ele>643.0</ele><time>2026-04-26T09:32:45.999Z</time></trkpt><trkpt lat="45.88933846702575" lon="11.881401679107972"><ele>643.0</ele><time>2026-04-26T09:32:46.999Z</time></trkpt><trkpt lat="45.88940850684561" lon="11.88140924726157"><ele>643.0</ele><time>2026-04-26T09:32:47.999Z</time></trkpt><trkpt lat="45.88949635859336" lon="11.881376511598335"><ele>643.0</ele><time>2026-04-26T09:32:48.999Z</time></trkpt><trkpt lat="45.88958655354483" lon="11.881411651578052"><ele>643.1666666666667</ele><time>2026-04-26T09:32:49.999Z</time></trkpt><trkpt lat="45.88966009667386" lon="11.88142414246778"><ele>643.3333333333334</ele><time>2026-04-26T09:32:50.999Z</time></trkpt><trkpt lat="45.889739348382605" lon="11.881434670419669"><ele>643.5</ele><time>2026-04-26T09:32:51.999Z</time></trkpt><trkpt lat="45.88981300783271" lon="11.881472788691207"><ele>643.6666666666666</ele><time>2026-04-26T09:32:52.999Z</time></trkpt><trkpt lat="45.889887533121446" lon="11.881524972310197"><ele>643.8333333333333</ele><time>2026-04-26T09:32:53.999Z</time></trkpt><trkpt lat="45.889959689579555" lon="11.881565461433034"><ele>644.0</ele><time>2026-04-26T09:32:55Z</time></trkpt><trkpt lat="45.89003130545189" lon="11.881605097594777"><ele>641.4000000000001</ele><time>2026-04-26T09:32:56Z</time></trkpt><trkpt lat="45.89009379159564" lon="11.881662894555252"><ele>638.8000000000001</ele><time>2026-04-26T09:32:57Z</time></trkpt><trkpt lat="45.89014029919092" lon="11.881725423462258"><ele>636.2</ele><time>2026-04-26T09:32:58Z</time></trkpt><trkpt lat="45.890252797480116" lon="11.88184639049264"><ele>633.6</ele><time>2026-04-26T09:33:00Z</time></trkpt><trkpt lat="45.89031212031952" lon="11.881953106409606"><ele>631.0</ele><time>2026-04-26T09:33:02Z</time></trkpt><trkpt lat="45.89034714685373" lon="11.88207364579572"><ele>627.8333333333334</ele><time>2026-04-26T09:33:03Z</time></trkpt><trkpt lat="45.890444259804845" lon="11.882208043578665"><ele>624.6666666666667</ele><time>2026-04-26T09:33:05Z</time></trkpt><trkpt lat="45.890494226057136" lon="11.882263588890163"><ele>621.5</ele><time>2026-04-26T09:33:06Z</time></trkpt><trkpt lat="45.89051634837144" lon="11.882360900593255"><ele>618.3333333333334</ele><time>2026-04-26T09:33:08Z</time></trkpt><trkpt lat="45.8904373973561" lon="11.88231980112382"><ele>615.1666666666666</ele><time>2026-04-26T09:33:10Z</time></trkpt><trkpt lat="45.89038364978496" lon="11.882261655601859"><ele>612.0</ele><time>2026-04-26T09:33:11Z</time></trkpt><trkpt lat="45.89034115482605" lon="11.882109359285579"><ele>612.0</ele><time>2026-04-26T09:33:13Z</time></trkpt><trkpt lat="45.89027490991996" lon="11.881993714145906"><ele>612.0</ele><time>2026-04-26T09:33:15Z</time></trkpt><trkpt lat="45.890194809650644" lon="11.881898584541252"><ele>612.0</ele><time>2026-04-26T09:33:17Z</time></trkpt><trkpt lat="45.890136566005765" lon="11.88185046648356"><ele>612.0</ele><time>2026-04-26T09:33:18Z</time></trkpt><trkpt lat="45.89004137178732" lon="11.881774369737517"><ele>612.0</ele><time>2026-04-26T09:33:20Z</time></trkpt><trkpt lat="45.889893567474495" lon="11.881778852257268"><ele>610.2</ele><time>2026-04-26T09:33:22Z</time></trkpt><trkpt lat="45.8898042541777" lon="11.881756414714937"><ele>608.4000000000001</ele><time>2026-04-26T09:33:23Z</time></trkpt><trkpt lat="45.88969727294457" lon="11.881755878255891"><ele>606.5999999999999</ele><time>2026-04-26T09:33:24Z</time></trkpt><trkpt lat="45.8896058301889" lon="11.88178414622414"><ele>604.8</ele><time>2026-04-26T09:33:25Z</time></trkpt><trkpt lat="45.88951869365742" lon="11.881784733700984"><ele>603.0</ele><time>2026-04-26T09:33:26Z</time></trkpt><trkpt lat="45.889394840063304" lon="11.881838701225492"><ele>603.0</ele><time>2026-04-26T09:33:27Z</time></trkpt><trkpt lat="45.88927680867586" lon="11.88187675941401"><ele>603.0</ele><time>2026-04-26T09:33:28Z</time></trkpt><trkpt lat="45.88916853448793" lon="11.881972346991722"><ele>603.0</ele><time>2026-04-26T09:33:29Z</time></trkpt><trkpt lat="45.88910299225339" lon="11.882049339162293"><ele>603.0</ele><time>2026-04-26T09:33:30Z</time></trkpt><trkpt lat="45.88901482301622" lon="11.882107614449579"><ele>603.0</ele><time>2026-04-26T09:33:31Z</time></trkpt><trkpt lat="45.88893343669582" lon="11.882225690341567"><ele>601.1666666666666</ele><time>2026-04-26T09:33:32Z</time></trkpt><trkpt lat="45.88885205082234" lon="11.882308139420454"><ele>599.3333333333334</ele><time>2026-04-26T09:33:33Z</time></trkpt><trkpt lat="45.8887695923345" lon="11.88236369255114"><ele>597.5</ele><time>2026-04-26T09:33:34Z</time></trkpt><trkpt lat="45.88869514980509" lon="11.88240965106735"><ele>595.6666666666667</ele><time>2026-04-26T09:33:35Z</time></trkpt><trkpt lat="45.88862359233948" lon="11.882410899936433"><ele>593.8333333333334</ele><time>2026-04-26T09:33:36Z</time></trkpt><trkpt lat="45.888539237212726" lon="11.882394178039863"><ele>592.0</ele><time>2026-04-26T09:33:37Z</time></trkpt><trkpt lat="45.888434622450355" lon="11.88233830067699"><ele>591.0</ele><time>2026-04-26T09:33:38Z</time></trkpt><trkpt lat="45.88833060385471" lon="11.882302364378969"><ele>590.0</ele><time>2026-04-26T09:33:39Z</time></trkpt><trkpt lat="45.888220397827986" lon="11.882238647424833"><ele>589.0</ele><time>2026-04-26T09:33:41Z</time></trkpt><trkpt lat="45.88818265612815" lon="11.882165846135614"><ele>588.0</ele><time>2026-04-26T09:33:42Z</time></trkpt><trkpt lat="45.88809093469098" lon="11.882141503982371"><ele>587.0</ele><time>2026-04-26T09:33:43Z</time></trkpt><trkpt lat="45.88802165131697" lon="11.88206649888759"><ele>587.0</ele><time>2026-04-26T09:33:44Z</time></trkpt><trkpt lat="45.88794902717889" lon="11.881994402102702"><ele>587.0</ele><time>2026-04-26T09:33:45Z</time></trkpt><trkpt lat="45.88788307798734" lon="11.88191932431871"><ele>587.0</ele><time>2026-04-26T09:33:46Z</time></trkpt><trkpt lat="45.88786349900722" lon="11.881803236890995"><ele>587.0</ele><time>2026-04-26T09:33:47Z</time></trkpt><trkpt lat="45.88780306309203" lon="11.881738168688635"><ele>587.0</ele><time>2026-04-26T09:33:48Z</time></trkpt><trkpt lat="45.88773151528255" lon="11.881661895901601"><ele>587.0</ele><time>2026-04-26T09:33:49Z</time></trkpt><trkpt lat="45.887656263664596" lon="11.881624642521768"><ele>588.8333333333333</ele><time>2026-04-26T09:33:50Z</time></trkpt><trkpt lat="45.887598298761795" lon="11.88156383317258"><ele>590.6666666666666</ele><time>2026-04-26T09:33:51Z</time></trkpt><trkpt lat="45.8875317690336" lon="11.881503124045794"><ele>592.5</ele><time>2026-04-26T09:33:52Z</time></trkpt><trkpt lat="45.88747351291477" lon="11.881429911974864"><ele>594.3333333333334</ele><time>2026-04-26T09:33:53Z</time></trkpt><trkpt lat="45.88741682290704" lon="11.881346979854342"><ele>596.1666666666667</ele><time>2026-04-26T09:33:54Z</time></trkpt><trkpt lat="45.88736471661853" lon="11.88126448658171"><ele>598.0</ele><time>2026-04-26T09:33:55Z</time></trkpt><trkpt lat="45.88728773724061" lon="11.881215890744564"><ele>598.0</ele><time>2026-04-26T09:33:56Z</time></trkpt><trkpt lat="45.8872357416093" lon="11.881156555035604"><ele>598.0</ele><time>2026-04-26T09:33:57Z</time></trkpt><trkpt lat="45.88717055493105" lon="11.88118521130779"><ele>598.0</ele><time>2026-04-26T09:33:58Z</time></trkpt><trkpt lat="45.887056384093356" lon="11.881160878685684"><ele>598.0</ele><time>2026-04-26T09:34:00Z</time></trkpt><trkpt lat="45.886963523867706" lon="11.881104391472144"><ele>598.0</ele><time>2026-04-26T09:34:02Z</time></trkpt><trkpt lat="45.88689071769198" lon="11.881206672682469"><ele>598.0</ele><time>2026-04-26T09:34:03Z</time></trkpt><trkpt lat="45.886909132906084" lon="11.881368990940949"><ele>598.0</ele><time>2026-04-26T09:34:05Z</time></trkpt><trkpt lat="45.88693038587643" lon="11.88147842375114"><ele>598.0</ele><time>2026-04-26T09:34:06Z</time></trkpt><trkpt lat="45.88707070973951" lon="11.881450428995654"><ele>598.0</ele><time>2026-04-26T09:34:07Z</time></trkpt><trkpt lat="45.887138986641034" lon="11.881590256741415"><ele>598.0</ele><time>2026-04-26T09:34:09Z</time></trkpt><trkpt lat="45.88717951253432" lon="11.88174778585843"><ele>598.0</ele><time>2026-04-26T09:34:11Z</time></trkpt><trkpt lat="45.88719116391365" lon="11.881917900188446"><ele>598.0</ele><time>2026-04-26T09:34:13Z</time></trkpt><trkpt lat="45.88717208002971" lon="11.882028410516233"><ele>598.0</ele><time>2026-04-26T09:34:14Z</time></trkpt><trkpt lat="45.887225857986124" lon="11.882159808488401"><ele>598.0</ele><time>2026-04-26T09:34:15Z</time></trkpt><trkpt lat="45.887262831973146" lon="11.882258916535863"><ele>595.0</ele><time>2026-04-26T09:34:16Z</time></trkpt><trkpt lat="45.88731282363722" lon="11.882329746757698"><ele>592.0</ele><time>2026-04-26T09:34:17Z</time></trkpt><trkpt lat="45.88736739860858" lon="11.882481466857609"><ele>589.0</ele><time>2026-04-26T09:34:19Z</time></trkpt><trkpt lat="45.887396138654296" lon="11.882571940737181"><ele>586.0</ele><time>2026-04-26T09:34:20Z</time></trkpt><trkpt lat="45.88740321857295" lon="11.882762905255335"><ele>583.0</ele><time>2026-04-26T09:34:22Z</time></trkpt><trkpt lat="45.887416712200256" lon="11.882865537102324"><ele>583.0</ele><time>2026-04-26T09:34:23Z</time></trkpt><trkpt lat="45.88744489188845" lon="11.882951783950093"><ele>583.0</ele><time>2026-04-26T09:34:24Z</time></trkpt><trkpt lat="45.88755689170634" lon="11.883078913383038"><ele>583.0</ele><time>2026-04-26T09:34:24.999Z</time></trkpt><trkpt lat="45.88762651579264" lon="11.883269836194165"><ele>583.0</ele><time>2026-04-26T09:34:26.999Z</time></trkpt><trkpt lat="45.88769434565023" lon="11.883330384561306"><ele>583.0</ele><time>2026-04-26T09:34:27.999Z</time></trkpt><trkpt lat="45.887754956116396" lon="11.88340258494641"><ele>578.1666666666667</ele><time>2026-04-26T09:34:28.999Z</time></trkpt><trkpt lat="45.88783276783059" lon="11.883466474965976"><ele>573.3333333333334</ele><time>2026-04-26T09:34:29.999Z</time></trkpt><trkpt lat="45.88789890559879" lon="11.883533417795764"><ele>568.5</ele><time>2026-04-26T09:34:30.999Z</time></trkpt><trkpt lat="45.88794508373249" lon="11.88363949276394"><ele>563.6666666666666</ele><time>2026-04-26T09:34:31.999Z</time></trkpt><trkpt lat="45.8879664877546" lon="11.883735550732501"><ele>558.8333333333333</ele><time>2026-04-26T09:34:32.999Z</time></trkpt><trkpt lat="45.887961407718436" lon="11.883892547730738"><ele>554.0</ele><time>2026-04-26T09:34:34.999Z</time></trkpt><trkpt lat="45.88798594225034" lon="11.883981589422266"><ele>554.0</ele><time>2026-04-26T09:34:35.999Z</time></trkpt><trkpt lat="45.88801015061011" lon="11.884080736550892"><ele>554.0</ele><time>2026-04-26T09:34:36.999Z</time></trkpt><trkpt lat="45.88805487361867" lon="11.884146465877535"><ele>554.0</ele><time>2026-04-26T09:34:37.999Z</time></trkpt><trkpt lat="45.888113980382954" lon="11.884196382946826"><ele>554.0</ele><time>2026-04-26T09:34:38.999Z</time></trkpt><trkpt lat="45.888206580527545" lon="11.884241652878245"><ele>554.0</ele><time>2026-04-26T09:34:39.999Z</time></trkpt><trkpt lat="45.88828839823175" lon="11.8842674234207"><ele>554.0</ele><time>2026-04-26T09:34:40.999Z</time></trkpt><trkpt lat="45.888361643740424" lon="11.884301128107516"><ele>550.3333333333333</ele><time>2026-04-26T09:34:41.999Z</time></trkpt><trkpt lat="45.88844273504391" lon="11.884337009935098"><ele>546.6666666666666</ele><time>2026-04-26T09:34:42.999Z</time></trkpt><trkpt lat="45.888520818538794" lon="11.884372103964397"><ele>543.0</ele><time>2026-04-26T09:34:43.999Z</time></trkpt><trkpt lat="45.88859845966617" lon="11.884391078741855"><ele>539.3333333333334</ele><time>2026-04-26T09:34:44.999Z</time></trkpt><trkpt lat="45.888664362894204" lon="11.884409086695905"><ele>535.6666666666667</ele><time>2026-04-26T09:34:45.999Z</time></trkpt><trkpt lat="45.88875515895588" lon="11.88448529796693"><ele>532.0</ele><time>2026-04-26T09:34:46.999Z</time></trkpt><trkpt lat="45.88882209140719" lon="11.884560863082703"><ele>532.0</ele><time>2026-04-26T09:34:47.999Z</time></trkpt><trkpt lat="45.88888284873543" lon="11.884665579861254"><ele>532.0</ele><time>2026-04-26T09:34:48.999Z</time></trkpt><trkpt lat="45.88895338745929" lon="11.884782371948807"><ele>532.0</ele><time>2026-04-26T09:34:49.999Z</time></trkpt><trkpt lat="45.88900428429494" lon="11.884879773762096"><ele>532.0</ele><time>2026-04-26T09:34:50.999Z</time></trkpt><trkpt lat="45.88906403041509" lon="11.884989606631418"><ele>532.0</ele><time>2026-04-26T09:34:51.999Z</time></trkpt><trkpt lat="45.88913974668863" lon="11.885120063416485"><ele>528.3333333333334</ele><time>2026-04-26T09:34:52.999Z</time></trkpt><trkpt lat="45.88919784208861" lon="11.885178286597503"><ele>524.6666666666667</ele><time>2026-04-26T09:34:53.999Z</time></trkpt><trkpt lat="45.889252119565676" lon="11.885275057949583"><ele>521.0</ele><time>2026-04-26T09:34:54.999Z</time></trkpt><trkpt lat="45.88929989360754" lon="11.885355447682658"><ele>517.3333333333334</ele><time>2026-04-26T09:34:55.999Z</time></trkpt><trkpt lat="45.88936212631893" lon="11.885436665080297"><ele>513.6666666666666</ele><time>2026-04-26T09:34:56.999Z</time></trkpt><trkpt lat="45.88943256400369" lon="11.885513333359572"><ele>510.0</ele><time>2026-04-26T09:34:57.999Z</time></trkpt><trkpt lat="45.88951742463043" lon="11.885511315481983"><ele>510.0</ele><time>2026-04-26T09:34:58.999Z</time></trkpt><trkpt lat="45.88958223859724" lon="11.885545376819051"><ele>510.0</ele><time>2026-04-26T09:34:59.999Z</time></trkpt><trkpt lat="45.88963962475177" lon="11.885597090788822"><ele>510.0</ele><time>2026-04-26T09:35:01Z</time></trkpt><trkpt lat="45.889684990847876" lon="11.885666302199203"><ele>510.0</ele><time>2026-04-26T09:35:02Z</time></trkpt><trkpt lat="45.889743314195215" lon="11.885841720116368"><ele>510.0</ele><time>2026-04-26T09:35:04Z</time></trkpt><trkpt lat="45.88978687891079" lon="11.885931086319857"><ele>510.0</ele><time>2026-04-26T09:35:05Z</time></trkpt><trkpt lat="45.8898560823615" lon="11.886059347965105"><ele>505.8</ele><time>2026-04-26T09:35:06Z</time></trkpt><trkpt lat="45.88991947046502" lon="11.886152982346458"><ele>501.6</ele><time>2026-04-26T09:35:07Z</time></trkpt><trkpt lat="45.889996092269946" lon="11.886233955132969"><ele>497.4</ele><time>2026-04-26T09:35:08Z</time></trkpt><trkpt lat="45.890066524872445" lon="11.886319034549691"><ele>493.2</ele><time>2026-04-26T09:35:09Z</time></trkpt><trkpt lat="45.8901298934925" lon="11.886418413638108"><ele>489.0</ele><time>2026-04-26T09:35:10Z</time></trkpt><trkpt lat="45.89022018006017" lon="11.886487450838109"><ele>489.0</ele><time>2026-04-26T09:35:11Z</time></trkpt><trkpt lat="45.890297067861816" lon="11.886577699649335"><ele>489.0</ele><time>2026-04-26T09:35:12Z</time></trkpt><trkpt lat="45.89037282463855" lon="11.886657685966389"><ele>489.0</ele><time>2026-04-26T09:35:13Z</time></trkpt><trkpt lat="45.890459949123674" lon="11.886735224983596"><ele>489.0</ele><time>2026-04-26T09:35:14Z</time></trkpt><trkpt lat="45.89053834157468" lon="11.886825400846513"><ele>489.0</ele><time>2026-04-26T09:35:15Z</time></trkpt><trkpt lat="45.89059725408133" lon="11.886906614330346"><ele>489.4</ele><time>2026-04-26T09:35:16Z</time></trkpt><trkpt lat="45.890673122335635" lon="11.886981177732512"><ele>489.79999999999995</ele><time>2026-04-26T09:35:17Z</time></trkpt><trkpt lat="45.89075565523906" lon="11.887036408410513"><ele>490.20000000000005</ele><time>2026-04-26T09:35:18Z</time></trkpt><trkpt lat="45.89083840869476" lon="11.88706057539835"><ele>490.6</ele><time>2026-04-26T09:35:19Z</time></trkpt><trkpt lat="45.89090667742126" lon="11.8871034053465"><ele>491.0</ele><time>2026-04-26T09:35:20Z</time></trkpt><trkpt lat="45.89101439275417" lon="11.887155981835503"><ele>491.0</ele><time>2026-04-26T09:35:21Z</time></trkpt><trkpt lat="45.89112495492474" lon="11.887185595897021"><ele>491.0</ele><time>2026-04-26T09:35:22Z</time></trkpt><trkpt lat="45.89117887388099" lon="11.887239514922845"><ele>491.0</ele><time>2026-04-26T09:35:23Z</time></trkpt><trkpt lat="45.89124653957104" lon="11.88730886957007"><ele>491.0</ele><time>2026-04-26T09:35:24Z</time></trkpt><trkpt lat="45.89130663434071" lon="11.887375470892348"><ele>491.0</ele><time>2026-04-26T09:35:25Z</time></trkpt><trkpt lat="45.891431312092585" lon="11.887364360557518"><ele>490.99999999999994</ele><time>2026-04-26T09:35:26Z</time></trkpt><trkpt lat="45.89150470654394" lon="11.887364363308583"><ele>491.0</ele><time>2026-04-26T09:35:27Z</time></trkpt><trkpt lat="45.891603199616064" lon="11.887382057621187"><ele>491.0</ele><time>2026-04-26T09:35:28Z</time></trkpt><trkpt lat="45.891668908625604" lon="11.887371224631744"><ele>491.0</ele><time>2026-04-26T09:35:29Z</time></trkpt><trkpt lat="45.89173102266471" lon="11.887387719886664"><ele>490.99999999999994</ele><time>2026-04-26T09:35:30Z</time></trkpt><trkpt lat="45.89178935869126" lon="11.887433747337097"><ele>491.0</ele><time>2026-04-26T09:35:31Z</time></trkpt><trkpt lat="45.89185927950095" lon="11.887509953352668"><ele>489.49999999999994</ele><time>2026-04-26T09:35:32Z</time></trkpt><trkpt lat="45.89192826785578" lon="11.887571940796638"><ele>488.0</ele><time>2026-04-26T09:35:33Z</time></trkpt><trkpt lat="45.892043904384465" lon="11.88750352653282"><ele>486.5</ele><time>2026-04-26T09:35:34Z</time></trkpt><trkpt lat="45.89211005118088" lon="11.88747242760279"><ele>485.0</ele><time>2026-04-26T09:35:35Z</time></trkpt><trkpt lat="45.89219466704517" lon="11.887471914237604"><ele>483.49999999999994</ele><time>2026-04-26T09:35:36Z</time></trkpt><trkpt lat="45.89227799349783" lon="11.887452810822372"><ele>482.0</ele><time>2026-04-26T09:35:37Z</time></trkpt><trkpt lat="45.892368349978824" lon="11.887462305761058"><ele>482.0</ele><time>2026-04-26T09:35:38Z</time></trkpt><trkpt lat="45.892453620171466" lon="11.887448935655268"><ele>482.00000000000006</ele><time>2026-04-26T09:35:39Z</time></trkpt><trkpt lat="45.8925592662445" lon="11.887447345719211"><ele>482.00000000000006</ele><time>2026-04-26T09:35:40Z</time></trkpt><trkpt lat="45.8926518739737" lon="11.887420729950872"><ele>482.0</ele><time>2026-04-26T09:35:41Z</time></trkpt><trkpt lat="45.89274613343611" lon="11.887411801001141"><ele>482.0</ele><time>2026-04-26T09:35:42Z</time></trkpt><trkpt lat="45.89283825532253" lon="11.8874273529425"><ele>478.8</ele><time>2026-04-26T09:35:43Z</time></trkpt><trkpt lat="45.89292554335313" lon="11.887410878818296"><ele>475.6</ele><time>2026-04-26T09:35:44Z</time></trkpt><trkpt lat="45.89301950228708" lon="11.887446210068333"><ele>472.40000000000003</ele><time>2026-04-26T09:35:45Z</time></trkpt><trkpt lat="45.89313425654089" lon="11.887439348786868"><ele>469.20000000000005</ele><time>2026-04-26T09:35:47Z</time></trkpt><trkpt lat="45.89321224549681" lon="11.887468266651164"><ele>466.0</ele><time>2026-04-26T09:35:48Z</time></trkpt><trkpt lat="45.893281044255204" lon="11.887490304427974"><ele>466.00000000000006</ele><time>2026-04-26T09:35:49Z</time></trkpt><trkpt lat="45.89334920745104" lon="11.887520728542103"><ele>466.0</ele><time>2026-04-26T09:35:50Z</time></trkpt><trkpt lat="45.89342299067144" lon="11.887567751757935"><ele>466.0</ele><time>2026-04-26T09:35:51Z</time></trkpt><trkpt lat="45.89348634997925" lon="11.8876211179978"><ele>466.0</ele><time>2026-04-26T09:35:52Z</time></trkpt><trkpt lat="45.89356363876912" lon="11.887671135582796"><ele>466.00000000000006</ele><time>2026-04-26T09:35:53Z</time></trkpt><trkpt lat="45.893650927314425" lon="11.887699309955384"><ele>466.0</ele><time>2026-04-26T09:35:54Z</time></trkpt><trkpt lat="45.893774990821576" lon="11.88771505883228"><ele>468.00000000000006</ele><time>2026-04-26T09:35:55Z</time></trkpt><trkpt lat="45.893856340452906" lon="11.887744738942095"><ele>470.0</ele><time>2026-04-26T09:35:56Z</time></trkpt><trkpt lat="45.893932259882035" lon="11.887780951864679"><ele>472.0</ele><time>2026-04-26T09:35:57Z</time></trkpt><trkpt lat="45.89399654746076" lon="11.887809744586363"><ele>474.0</ele><time>2026-04-26T09:35:58Z</time></trkpt><trkpt lat="45.89406140690305" lon="11.887836255805688"><ele>476.00000000000006</ele><time>2026-04-26T09:35:59Z</time></trkpt><trkpt lat="45.89416863098983" lon="11.88787753154028"><ele>478.0</ele><time>2026-04-26T09:36:00Z</time></trkpt><trkpt lat="45.89426611171588" lon="11.887931455522946"><ele>469.25</ele><time>2026-04-26T09:36:01Z</time></trkpt><trkpt lat="45.894356564496995" lon="11.887977057142015"><ele>460.5</ele><time>2026-04-26T09:36:02Z</time></trkpt><trkpt lat="45.89447029642669" lon="11.888005484198935"><ele>451.75</ele><time>2026-04-26T09:36:04Z</time></trkpt><trkpt lat="45.89460766444118" lon="11.888059547502092"><ele>443.0</ele><time>2026-04-26T09:36:05Z</time></trkpt><trkpt lat="45.89472899774214" lon="11.888138767068128"><ele>443.0</ele><time>2026-04-26T09:36:07Z</time></trkpt><trkpt lat="45.894808507509964" lon="11.888160305241835"><ele>442.99999999999994</ele><time>2026-04-26T09:36:08Z</time></trkpt><trkpt lat="45.894919912732846" lon="11.888176581529592"><ele>442.99999999999994</ele><time>2026-04-26T09:36:09Z</time></trkpt><trkpt lat="45.89500240435884" lon="11.888200373636376"><ele>443.0</ele><time>2026-04-26T09:36:10Z</time></trkpt><trkpt lat="45.895111260214954" lon="11.888204301104318"><ele>443.0</ele><time>2026-04-26T09:36:11Z</time></trkpt><trkpt lat="45.89520020533426" lon="11.888285604318195"><ele>442.5</ele><time>2026-04-26T09:36:12Z</time></trkpt><trkpt lat="45.89526974915164" lon="11.888365645328443"><ele>442.0</ele><time>2026-04-26T09:36:13Z</time></trkpt><trkpt lat="45.895391104280804" lon="11.888483259066911"><ele>441.5</ele><time>2026-04-26T09:36:15Z</time></trkpt><trkpt lat="45.895527304480986" lon="11.888505813807214"><ele>441.0</ele><time>2026-04-26T09:36:16Z</time></trkpt><trkpt lat="45.89562262525256" lon="11.88859591583465"><ele>441.0</ele><time>2026-04-26T09:36:18Z</time></trkpt><trkpt lat="45.895760610178414" lon="11.888651891174835"><ele>441.0</ele><time>2026-04-26T09:36:20Z</time></trkpt><trkpt lat="45.89581209939815" lon="11.888716290709096"><ele>441.0</ele><time>2026-04-26T09:36:21Z</time></trkpt><trkpt lat="45.89591552083987" lon="11.888674322192582"><ele>441.0</ele><time>2026-04-26T09:36:22Z</time></trkpt><trkpt lat="45.89604427252673" lon="11.888683565356846"><ele>441.0</ele><time>2026-04-26T09:36:24Z</time></trkpt><trkpt lat="45.89617243831267" lon="11.888694018228982"><ele>434.8</ele><time>2026-04-26T09:36:25.999Z</time></trkpt><trkpt lat="45.8962633901746" lon="11.888726636954525"><ele>428.6</ele><time>2026-04-26T09:36:26.999Z</time></trkpt><trkpt lat="45.89637075422552" lon="11.888791279097092"><ele>422.4</ele><time>2026-04-26T09:36:28.999Z</time></trkpt><trkpt lat="45.89648366558943" lon="11.888910510274352"><ele>416.2</ele><time>2026-04-26T09:36:30.999Z</time></trkpt><trkpt lat="45.89644133521241" lon="11.888993877539292"><ele>410.0</ele><time>2026-04-26T09:36:31.999Z</time></trkpt><trkpt lat="45.89654012702058" lon="11.889049537080167"><ele>409.99999999999994</ele><time>2026-04-26T09:36:33.999Z</time></trkpt><trkpt lat="45.89657765937767" lon="11.88895904306082"><ele>410.0</ele><time>2026-04-26T09:36:34.999Z</time></trkpt><trkpt lat="45.89653555823611" lon="11.888794777764195"><ele>410.0</ele><time>2026-04-26T09:36:36.999Z</time></trkpt><trkpt lat="45.89650382122402" lon="11.888712736977952"><ele>410.0</ele><time>2026-04-26T09:36:37.999Z</time></trkpt><trkpt lat="45.896448695936805" lon="11.888570148334821"><ele>409.99999999999994</ele><time>2026-04-26T09:36:39.999Z</time></trkpt><trkpt lat="45.89641477616242" lon="11.888493775975821"><ele>410.0</ele><time>2026-04-26T09:36:40.999Z</time></trkpt><trkpt lat="45.89637787644566" lon="11.888407858016826"><ele>407.16666666666663</ele><time>2026-04-26T09:36:41.999Z</time></trkpt><trkpt lat="45.89633077185681" lon="11.888337802761832"><ele>404.3333333333333</ele><time>2026-04-26T09:36:42.999Z</time></trkpt><trkpt lat="45.8962702678386" lon="11.888287119244026"><ele>401.5</ele><time>2026-04-26T09:36:43.999Z</time></trkpt><trkpt lat="45.89621273291747" lon="11.88824815298882"><ele>398.66666666666663</ele><time>2026-04-26T09:36:44.999Z</time></trkpt><trkpt lat="45.896136938596335" lon="11.888147576998211"><ele>395.8333333333333</ele><time>2026-04-26T09:36:46.999Z</time></trkpt><trkpt lat="45.89614173179552" lon="11.888039224507063"><ele>393.0</ele><time>2026-04-26T09:36:48.999Z</time></trkpt><trkpt lat="45.89623399783303" lon="11.888047841254705"><ele>393.0</ele><time>2026-04-26T09:36:51.999Z</time></trkpt><trkpt lat="45.896331117321104" lon="11.888089446496874"><ele>393.0</ele><time>2026-04-26T09:36:53.999Z</time></trkpt><trkpt lat="45.896456046292975" lon="11.888222154415459"><ele>393.0</ele><time>2026-04-26T09:36:55.999Z</time></trkpt><trkpt lat="45.896655850907" lon="11.888302006161314"><ele>392.0</ele><time>2026-04-26T09:36:57.999Z</time></trkpt><trkpt lat="45.89675881462509" lon="11.888337599183727"><ele>391.0</ele><time>2026-04-26T09:36:58.999Z</time></trkpt><trkpt lat="45.89684827700631" lon="11.888367614829354"><ele>390.0</ele><time>2026-04-26T09:36:59.999Z</time></trkpt><trkpt lat="45.89691817090615" lon="11.888396388938428"><ele>389.0</ele><time>2026-04-26T09:37:00.999Z</time></trkpt><trkpt lat="45.89699294753797" lon="11.888433760181133"><ele>388.0</ele><time>2026-04-26T09:37:01.999Z</time></trkpt><trkpt lat="45.89710394898908" lon="11.888450261110625"><ele>387.33333333333337</ele><time>2026-04-26T09:37:02.999Z</time></trkpt><trkpt lat="45.89718556088805" lon="11.888466517761268"><ele>386.6666666666667</ele><time>2026-04-26T09:37:03.999Z</time></trkpt><trkpt lat="45.897266832451976" lon="11.888495801245634"><ele>386.0</ele><time>2026-04-26T09:37:04.999Z</time></trkpt><trkpt lat="45.897332938153745" lon="11.888513223156835"><ele>385.33333333333337</ele><time>2026-04-26T09:37:05.999Z</time></trkpt><trkpt lat="45.89740918891061" lon="11.888575232993176"><ele>384.6666666666667</ele><time>2026-04-26T09:37:07Z</time></trkpt><trkpt lat="45.89749876757528" lon="11.888667212265014"><ele>384.0</ele><time>2026-04-26T09:37:08Z</time></trkpt><trkpt lat="45.89758008280415" lon="11.888752225500996"><ele>383.0</ele><time>2026-04-26T09:37:09Z</time></trkpt><trkpt lat="45.89765406581458" lon="11.888835047016572"><ele>382.0</ele><time>2026-04-26T09:37:10Z</time></trkpt><trkpt lat="45.89773249020224" lon="11.888927191058459"><ele>381.0</ele><time>2026-04-26T09:37:11Z</time></trkpt><trkpt lat="45.89777236131504" lon="11.889044350879493"><ele>380.0</ele><time>2026-04-26T09:37:12Z</time></trkpt><trkpt lat="45.89782849283079" lon="11.889137736579054"><ele>379.0</ele><time>2026-04-26T09:37:13Z</time></trkpt><trkpt lat="45.897884300283586" lon="11.889250488366034"><ele>377.6</ele><time>2026-04-26T09:37:14Z</time></trkpt><trkpt lat="45.897940927225115" lon="11.889368418360188"><ele>376.2</ele><time>2026-04-26T09:37:15Z</time></trkpt><trkpt lat="45.897978822816185" lon="11.889505236714555"><ele>374.8</ele><time>2026-04-26T09:37:16Z</time></trkpt><trkpt lat="45.89794970433057" lon="11.88958723580885"><ele>373.40000000000003</ele><time>2026-04-26T09:37:17Z</time></trkpt><trkpt lat="45.89793199333205" lon="11.88973354783136"><ele>372.0</ele><time>2026-04-26T09:37:18Z</time></trkpt><trkpt lat="45.897959271639415" lon="11.889856300966324"><ele>372.0</ele><time>2026-04-26T09:37:19Z</time></trkpt><trkpt lat="45.89799911522527" lon="11.889968298195223"><ele>372.0</ele><time>2026-04-26T09:37:20Z</time></trkpt><trkpt lat="45.89804242305322" lon="11.890072538977682"><ele>372.0</ele><time>2026-04-26T09:37:21Z</time></trkpt><trkpt lat="45.89809066445075" lon="11.89016171958688"><ele>372.0</ele><time>2026-04-26T09:37:22Z</time></trkpt><trkpt lat="45.898175106333156" lon="11.89020917993611"><ele>372.0</ele><time>2026-04-26T09:37:23Z</time></trkpt><trkpt lat="45.89825047981425" lon="11.890259751305244"><ele>372.0</ele><time>2026-04-26T09:37:24Z</time></trkpt><trkpt lat="45.89831294966826" lon="11.890342560660683"><ele>373.5</ele><time>2026-04-26T09:37:25Z</time></trkpt><trkpt lat="45.89837706671118" lon="11.89041890945265"><ele>375.0</ele><time>2026-04-26T09:37:26Z</time></trkpt><trkpt lat="45.898438569658715" lon="11.890502846920022"><ele>376.5</ele><time>2026-04-26T09:37:27Z</time></trkpt><trkpt lat="45.89850964472513" lon="11.890586613648814"><ele>378.0</ele><time>2026-04-26T09:37:28Z</time></trkpt><trkpt lat="45.898586191232795" lon="11.890663985131113"><ele>379.5</ele><time>2026-04-26T09:37:29Z</time></trkpt><trkpt lat="45.898642955722806" lon="11.890759534532272"><ele>381.0</ele><time>2026-04-26T09:37:30Z</time></trkpt><trkpt lat="45.898720483496355" lon="11.89083818530174"><ele>377.0</ele><time>2026-04-26T09:37:31Z</time></trkpt><trkpt lat="45.898803773080985" lon="11.89090550928191"><ele>373.0</ele><time>2026-04-26T09:37:32Z</time></trkpt><trkpt lat="45.89889427540849" lon="11.890946649252731"><ele>369.0</ele><time>2026-04-26T09:37:33Z</time></trkpt><trkpt lat="45.8989801924441" lon="11.891006679592664"><ele>365.0</ele><time>2026-04-26T09:37:34Z</time></trkpt><trkpt lat="45.89905069605202" lon="11.89106839555792"><ele>361.0</ele><time>2026-04-26T09:37:35Z</time></trkpt><trkpt lat="45.899127113961" lon="11.891144921306378"><ele>360.8</ele><time>2026-04-26T09:37:36Z</time></trkpt><trkpt lat="45.8992135559095" lon="11.891210190161402"><ele>360.6</ele><time>2026-04-26T09:37:37Z</time></trkpt><trkpt lat="45.8992957635153" lon="11.891327478246197"><ele>360.4</ele><time>2026-04-26T09:37:38Z</time></trkpt><trkpt lat="45.899379029441135" lon="11.891404648684002"><ele>360.2</ele><time>2026-04-26T09:37:39Z</time></trkpt><trkpt lat="45.89942447890469" lon="11.891494777209898"><ele>360.0</ele><time>2026-04-26T09:37:40Z</time></trkpt><trkpt lat="45.899452841568575" lon="11.891615659265899"><ele>361.0</ele><time>2026-04-26T09:37:41Z</time></trkpt><trkpt lat="45.89948438485006" lon="11.891735610673527"><ele>362.0</ele><time>2026-04-26T09:37:42Z</time></trkpt><trkpt lat="45.89950669713642" lon="11.891841465177642"><ele>363.0</ele><time>2026-04-26T09:37:43Z</time></trkpt><trkpt lat="45.899503488215565" lon="11.891959876571958"><ele>364.0</ele><time>2026-04-26T09:37:44Z</time></trkpt><trkpt lat="45.899507520943445" lon="11.892109230015453"><ele>365.0</ele><time>2026-04-26T09:37:45Z</time></trkpt><trkpt lat="45.89946446393592" lon="11.892242486733053"><ele>362.83333333333337</ele><time>2026-04-26T09:37:46Z</time></trkpt><trkpt lat="45.89947699434665" lon="11.89235619416052"><ele>360.6666666666667</ele><time>2026-04-26T09:37:47Z</time></trkpt><trkpt lat="45.899476979858896" lon="11.892487690891638"><ele>358.5</ele><time>2026-04-26T09:37:48Z</time></trkpt><trkpt lat="45.89948600081668" lon="11.892607577564029"><ele>356.3333333333333</ele><time>2026-04-26T09:37:49Z</time></trkpt><trkpt lat="45.8995013976094" lon="11.892726983661944"><ele>354.16666666666663</ele><time>2026-04-26T09:37:50Z</time></trkpt><trkpt lat="45.899502264212046" lon="11.892835423012942"><ele>352.0</ele><time>2026-04-26T09:37:51Z</time></trkpt><trkpt lat="45.89950812105283" lon="11.892950309177014"><ele>350.6</ele><time>2026-04-26T09:37:52Z</time></trkpt><trkpt lat="45.89951971820089" lon="11.893084811516447"><ele>349.20000000000005</ele><time>2026-04-26T09:37:53Z</time></trkpt><trkpt lat="45.89953061717842" lon="11.89323111416191"><ele>347.8</ele><time>2026-04-26T09:37:54Z</time></trkpt><trkpt lat="45.899533002859755" lon="11.893390424357117"><ele>346.4</ele><time>2026-04-26T09:37:55Z</time></trkpt><trkpt lat="45.89954170120132" lon="11.893539547073702"><ele>345.0</ele><time>2026-04-26T09:37:56Z</time></trkpt><trkpt lat="45.89963836016897" lon="11.893666825204203"><ele>344.2</ele><time>2026-04-26T09:37:57Z</time></trkpt><trkpt lat="45.899692916027405" lon="11.893782927732921"><ele>343.4</ele><time>2026-04-26T09:37:58Z</time></trkpt><trkpt lat="45.899748729928326" lon="11.893898703659122"><ele>342.6</ele><time>2026-04-26T09:37:59Z</time></trkpt><trkpt lat="45.899816208399066" lon="11.89398317876016"><ele>341.8</ele><time>2026-04-26T09:38:00Z</time></trkpt><trkpt lat="45.899892720314355" lon="11.894059880481313"><ele>341.0</ele><time>2026-04-26T09:38:01Z</time></trkpt><trkpt lat="45.89997200619719" lon="11.89413398810198"><ele>341.0</ele><time>2026-04-26T09:38:02Z</time></trkpt><trkpt lat="45.90004575310262" lon="11.894201876633606"><ele>341.0</ele><time>2026-04-26T09:38:03Z</time></trkpt><trkpt lat="45.9001055681605" lon="11.894284865185282"><ele>341.0</ele><time>2026-04-26T09:38:04Z</time></trkpt><trkpt lat="45.900177380237196" lon="11.894355571799387"><ele>341.0</ele><time>2026-04-26T09:38:05Z</time></trkpt><trkpt lat="45.90023306336214" lon="11.894440809230062"><ele>341.0</ele><time>2026-04-26T09:38:06Z</time></trkpt><trkpt lat="45.900270023681024" lon="11.894529242220758"><ele>341.0</ele><time>2026-04-26T09:38:07Z</time></trkpt><trkpt lat="45.900320256253316" lon="11.894639672902198"><ele>341.42857142857144</ele><time>2026-04-26T09:38:08Z</time></trkpt><trkpt lat="45.90034392417076" lon="11.894746403971604"><ele>341.8571428571429</ele><time>2026-04-26T09:38:09Z</time></trkpt><trkpt lat="45.90036290949826" lon="11.894846677255027"><ele>342.28571428571433</ele><time>2026-04-26T09:38:10Z</time></trkpt><trkpt lat="45.90039007337525" lon="11.894962715610832"><ele>342.7142857142857</ele><time>2026-04-26T09:38:11Z</time></trkpt><trkpt lat="45.900407439551856" lon="11.895070924016597"><ele>343.14285714285717</ele><time>2026-04-26T09:38:12Z</time></trkpt><trkpt lat="45.90042306357993" lon="11.895166674100526"><ele>343.5714285714286</ele><time>2026-04-26T09:38:13Z</time></trkpt><trkpt lat="45.900433743635126" lon="11.895259863445037"><ele>344.0</ele><time>2026-04-26T09:38:14Z</time></trkpt><trkpt lat="45.900441105070186" lon="11.895354635521374"><ele>342.6666666666667</ele><time>2026-04-26T09:38:15Z</time></trkpt><trkpt lat="45.900425848586536" lon="11.89544561370531"><ele>341.33333333333337</ele><time>2026-04-26T09:38:16Z</time></trkpt><trkpt lat="45.90039493540798" lon="11.89553832397508"><ele>340.0</ele><time>2026-04-26T09:38:17Z</time></trkpt><trkpt lat="45.90036862965341" lon="11.895627604293049"><ele>338.6666666666667</ele><time>2026-04-26T09:38:18Z</time></trkpt><trkpt lat="45.90034410253759" lon="11.895715040081619"><ele>337.3333333333333</ele><time>2026-04-26T09:38:19Z</time></trkpt><trkpt lat="45.90031570531626" lon="11.895802116126642"><ele>336.0</ele><time>2026-04-26T09:38:20Z</time></trkpt><trkpt lat="45.900255429687476" lon="11.895948973946059"><ele>333.6666666666667</ele><time>2026-04-26T09:38:22Z</time></trkpt><trkpt lat="45.90022383848552" lon="11.896118039024856"><ele>331.3333333333333</ele><time>2026-04-26T09:38:23.999Z</time></trkpt><trkpt lat="45.90023567007061" lon="11.896208917824254"><ele>329.0</ele><time>2026-04-26T09:38:24.999Z</time></trkpt><trkpt lat="45.900271719704875" lon="11.896297536624191"><ele>326.66666666666663</ele><time>2026-04-26T09:38:25.999Z</time></trkpt><trkpt lat="45.900334334020314" lon="11.896350528260742"><ele>324.3333333333333</ele><time>2026-04-26T09:38:26.999Z</time></trkpt><trkpt lat="45.900424063467405" lon="11.896324763024397"><ele>322.0</ele><time>2026-04-26T09:38:27.999Z</time></trkpt><trkpt lat="45.90051534222859" lon="11.896206916738713"><ele>322.0</ele><time>2026-04-26T09:38:28.999Z</time></trkpt><trkpt lat="45.90058454988098" lon="11.896223512381908"><ele>322.0</ele><time>2026-04-26T09:38:29.999Z</time></trkpt><trkpt lat="45.900683029838376" lon="11.896250575688557"><ele>322.0</ele><time>2026-04-26T09:38:30.999Z</time></trkpt><trkpt lat="45.9007506709553" lon="11.896280777045927"><ele>322.0</ele><time>2026-04-26T09:38:31.999Z</time></trkpt><trkpt lat="45.900817486955354" lon="11.896323958045825"><ele>322.0</ele><time>2026-04-26T09:38:32.999Z</time></trkpt><trkpt lat="45.900881539352795" lon="11.896385959880112"><ele>322.0</ele><time>2026-04-26T09:38:33.999Z</time></trkpt><trkpt lat="45.90090278702878" lon="11.896607514973027"><ele>322.0</ele><time>2026-04-26T09:38:34.999Z</time></trkpt><trkpt lat="45.90087237667514" lon="11.896715690657008"><ele>322.0</ele><time>2026-04-26T09:38:35.999Z</time></trkpt><trkpt lat="45.900816306091386" lon="11.896816431131361"><ele>322.0</ele><time>2026-04-26T09:38:36.999Z</time></trkpt><trkpt lat="45.900765835022526" lon="11.89691585433202"><ele>322.0</ele><time>2026-04-26T09:38:37.999Z</time></trkpt><trkpt lat="45.90073779662941" lon="11.89700432365001"><ele>322.0</ele><time>2026-04-26T09:38:38.999Z</time></trkpt><trkpt lat="45.900678797306085" lon="11.897080477015438"><ele>322.0</ele><time>2026-04-26T09:38:39.999Z</time></trkpt><trkpt lat="45.90063113295558" lon="11.89716040875005"><ele>320.66666666666663</ele><time>2026-04-26T09:38:40.999Z</time></trkpt><trkpt lat="45.900607538106065" lon="11.897252825466827"><ele>319.3333333333333</ele><time>2026-04-26T09:38:41.999Z</time></trkpt><trkpt lat="45.900596147720314" lon="11.897375960372466"><ele>318.0</ele><time>2026-04-26T09:38:42.999Z</time></trkpt><trkpt lat="45.90058580303263" lon="11.897495778739025"><ele>316.6666666666667</ele><time>2026-04-26T09:38:43.999Z</time></trkpt><trkpt lat="45.90059133458441" lon="11.897601108718005"><ele>315.33333333333337</ele><time>2026-04-26T09:38:44.999Z</time></trkpt><trkpt lat="45.90059594403873" lon="11.8977091590331"><ele>314.0</ele><time>2026-04-26T09:38:45.999Z</time></trkpt><trkpt lat="45.90060167349878" lon="11.897831765064383"><ele>313.59999999999997</ele><time>2026-04-26T09:38:46.999Z</time></trkpt><trkpt lat="45.90062860412979" lon="11.897961677605974"><ele>313.2</ele><time>2026-04-26T09:38:47.999Z</time></trkpt><trkpt lat="45.90065082983421" lon="11.898108256002851"><ele>312.79999999999995</ele><time>2026-04-26T09:38:48.999Z</time></trkpt><trkpt lat="45.90070069264502" lon="11.898230553887894"><ele>312.4</ele><time>2026-04-26T09:38:49.999Z</time></trkpt><trkpt lat="45.90077328269087" lon="11.898336500508726"><ele>312.0</ele><time>2026-04-26T09:38:50.999Z</time></trkpt><trkpt lat="45.90084906316326" lon="11.89843527119141"><ele>312.75</ele><time>2026-04-26T09:38:51.999Z</time></trkpt><trkpt lat="45.9009263408758" lon="11.898531304044427"><ele>313.5</ele><time>2026-04-26T09:38:52.999Z</time></trkpt><trkpt lat="45.90098533491157" lon="11.898661729990865"><ele>314.25</ele><time>2026-04-26T09:38:53.999Z</time></trkpt><trkpt lat="45.90099697037444" lon="11.898842308406994"><ele>315.0</ele><time>2026-04-26T09:38:54.999Z</time></trkpt><trkpt lat="45.90098793188665" lon="11.89901643094983"><ele>315.0</ele><time>2026-04-26T09:38:55.999Z</time></trkpt><trkpt lat="45.90098181611583" lon="11.899192564267807"><ele>315.0</ele><time>2026-04-26T09:38:56.999Z</time></trkpt><trkpt lat="45.900976835442165" lon="11.899396861730295"><ele>315.0</ele><time>2026-04-26T09:38:57.999Z</time></trkpt><trkpt lat="45.90099634639102" lon="11.899573211401012"><ele>315.0</ele><time>2026-04-26T09:38:58.999Z</time></trkpt><trkpt lat="45.90099140779558" lon="11.899741828479815"><ele>315.0</ele><time>2026-04-26T09:38:59.999Z</time></trkpt><trkpt lat="45.90101231304296" lon="11.899879678413287"><ele>315.0</ele><time>2026-04-26T09:39:00.999Z</time></trkpt><trkpt lat="45.9010011389631" lon="11.90004198294645"><ele>315.0</ele><time>2026-04-26T09:39:01.999Z</time></trkpt><trkpt lat="45.900952086996824" lon="11.900210213640637"><ele>315.0</ele><time>2026-04-26T09:39:02.999Z</time></trkpt><trkpt lat="45.90092127797641" lon="11.90038804549209"><ele>313.6</ele><time>2026-04-26T09:39:03.999Z</time></trkpt><trkpt lat="45.900912570985774" lon="11.900560587697674"><ele>312.2</ele><time>2026-04-26T09:39:04.999Z</time></trkpt><trkpt lat="45.90090812065152" lon="11.90071600010181"><ele>310.8</ele><time>2026-04-26T09:39:05.999Z</time></trkpt><trkpt lat="45.900897173483926" lon="11.900864816661043"><ele>309.4</ele><time>2026-04-26T09:39:06.999Z</time></trkpt><trkpt lat="45.90088720118649" lon="11.901018731092732"><ele>308.0</ele><time>2026-04-26T09:39:07.999Z</time></trkpt><trkpt lat="45.900888118255175" lon="11.901176036553151"><ele>308.0</ele><time>2026-04-26T09:39:08.999Z</time></trkpt><trkpt lat="45.90090708841802" lon="11.90129243871732"><ele>308.0</ele><time>2026-04-26T09:39:09.999Z</time></trkpt><trkpt lat="45.900908605148096" lon="11.901419764746365"><ele>308.0</ele><time>2026-04-26T09:39:10.999Z</time></trkpt><trkpt lat="45.90090797015751" lon="11.901537619942728"><ele>308.0</ele><time>2026-04-26T09:39:11.999Z</time></trkpt><trkpt lat="45.90091833947787" lon="11.901645471057098"><ele>308.0</ele><time>2026-04-26T09:39:13Z</time></trkpt><trkpt lat="45.9009282286469" lon="11.901745495774547"><ele>308.0</ele><time>2026-04-26T09:39:14Z</time></trkpt><trkpt lat="45.90092905383322" lon="11.901861652887181"><ele>304.4</ele><time>2026-04-26T09:39:15Z</time></trkpt><trkpt lat="45.90096504620826" lon="11.901941742914527"><ele>300.8</ele><time>2026-04-26T09:39:16Z</time></trkpt><trkpt lat="45.90106819536913" lon="11.90199253800955"><ele>297.2</ele><time>2026-04-26T09:39:18Z</time></trkpt><trkpt lat="45.90117467046375" lon="11.901946599933769"><ele>293.6</ele><time>2026-04-26T09:39:20Z</time></trkpt><trkpt lat="45.901293776817305" lon="11.901947587590904"><ele>290.0</ele><time>2026-04-26T09:39:22Z</time></trkpt><trkpt lat="45.90135134579615" lon="11.902002395106662"><ele>290.0</ele><time>2026-04-26T09:39:23Z</time></trkpt><trkpt lat="45.90142195987421" lon="11.90214536437405"><ele>290.0</ele><time>2026-04-26T09:39:25Z</time></trkpt><trkpt lat="45.90146493507714" lon="11.902219323667495"><ele>290.0</ele><time>2026-04-26T09:39:26Z</time></trkpt><trkpt lat="45.901510305497126" lon="11.902320136678954"><ele>290.0</ele><time>2026-04-26T09:39:27Z</time></trkpt><trkpt lat="45.90158205675006" lon="11.902367947364446"><ele>290.0</ele><time>2026-04-26T09:39:28Z</time></trkpt><trkpt lat="45.901647084247045" lon="11.902427422190007"><ele>290.0</ele><time>2026-04-26T09:39:29Z</time></trkpt><trkpt lat="45.90173574849751" lon="11.902431888429584"><ele>292.6</ele><time>2026-04-26T09:39:30Z</time></trkpt><trkpt lat="45.90182356636166" lon="11.902427160072044"><ele>295.2</ele><time>2026-04-26T09:39:31Z</time></trkpt><trkpt lat="45.90191322523583" lon="11.90243089801403"><ele>297.8</ele><time>2026-04-26T09:39:32Z</time></trkpt><trkpt lat="45.90200693952479" lon="11.902448599067633"><ele>300.4</ele><time>2026-04-26T09:39:33Z</time></trkpt><trkpt lat="45.902110823951986" lon="11.902490421006044"><ele>303.0</ele><time>2026-04-26T09:39:34Z</time></trkpt><trkpt lat="45.90217720310882" lon="11.902572094276923"><ele>301.2</ele><time>2026-04-26T09:39:35Z</time></trkpt><trkpt lat="45.9022451602651" lon="11.902662637282685"><ele>299.4</ele><time>2026-04-26T09:39:36Z</time></trkpt><trkpt lat="45.90230207096738" lon="11.902785658932691"><ele>297.59999999999997</ele><time>2026-04-26T09:39:37Z</time></trkpt><trkpt lat="45.90236439839607" lon="11.90289250107672"><ele>295.8</ele><time>2026-04-26T09:39:38Z</time></trkpt><trkpt lat="45.90242417133663" lon="11.903016386395448"><ele>294.0</ele><time>2026-04-26T09:39:39Z</time></trkpt><trkpt lat="45.90248818631273" lon="11.903135536862624"><ele>294.0</ele><time>2026-04-26T09:39:40Z</time></trkpt><trkpt lat="45.902564995221" lon="11.903258614081444"><ele>294.0</ele><time>2026-04-26T09:39:41Z</time></trkpt><trkpt lat="45.90262636618244" lon="11.903373878618112"><ele>294.0</ele><time>2026-04-26T09:39:42Z</time></trkpt><trkpt lat="45.90268635441843" lon="11.903473166861085"><ele>294.0</ele><time>2026-04-26T09:39:43Z</time></trkpt><trkpt lat="45.90273218045174" lon="11.903556632750142"><ele>294.0</ele><time>2026-04-26T09:39:44Z</time></trkpt><trkpt lat="45.90276450692216" lon="11.90366114278345"><ele>293.59999999999997</ele><time>2026-04-26T09:39:45Z</time></trkpt><trkpt lat="45.902808544837846" lon="11.903758398190158"><ele>293.2</ele><time>2026-04-26T09:39:46Z</time></trkpt><trkpt lat="45.90283270188983" lon="11.903898240336476"><ele>292.79999999999995</ele><time>2026-04-26T09:39:47Z</time></trkpt><trkpt lat="45.90286907437648" lon="11.904029232338631"><ele>292.4</ele><time>2026-04-26T09:39:48Z</time></trkpt><trkpt lat="45.90291074082927" lon="11.904136098040636"><ele>292.0</ele><time>2026-04-26T09:39:49Z</time></trkpt><trkpt lat="45.90294726591812" lon="11.904262184968152"><ele>292.0</ele><time>2026-04-26T09:39:50Z</time></trkpt><trkpt lat="45.902992203706255" lon="11.904368077389211"><ele>292.0</ele><time>2026-04-26T09:39:51Z</time></trkpt><trkpt lat="45.90304882485522" lon="11.904463060458719"><ele>292.0</ele><time>2026-04-26T09:39:52Z</time></trkpt><trkpt lat="45.903109009758566" lon="11.904565176324645"><ele>292.0</ele><time>2026-04-26T09:39:53Z</time></trkpt><trkpt lat="45.90314981758312" lon="11.904693378808828"><ele>292.0</ele><time>2026-04-26T09:39:54Z</time></trkpt><trkpt lat="45.90319273954169" lon="11.904822858273418"><ele>292.0</ele><time>2026-04-26T09:39:55Z</time></trkpt><trkpt lat="45.90323669381959" lon="11.904945274729068"><ele>292.0</ele><time>2026-04-26T09:39:56Z</time></trkpt><trkpt lat="45.90327126209583" lon="11.905076472901413"><ele>292.0</ele><time>2026-04-26T09:39:57Z</time></trkpt><trkpt lat="45.90330865954611" lon="11.905203869494187"><ele>292.0</ele><time>2026-04-26T09:39:58Z</time></trkpt><trkpt lat="45.903354140983595" lon="11.905326933656632"><ele>292.0</ele><time>2026-04-26T09:39:59Z</time></trkpt><trkpt lat="45.9033963602624" lon="11.905446636875725"><ele>292.8333333333333</ele><time>2026-04-26T09:40:00Z</time></trkpt><trkpt lat="45.90341367070126" lon="11.905571085677018"><ele>293.66666666666663</ele><time>2026-04-26T09:40:01Z</time></trkpt><trkpt lat="45.90342043305618" lon="11.905703624851114"><ele>294.5</ele><time>2026-04-26T09:40:02Z</time></trkpt><trkpt lat="45.90345272937594" lon="11.905812760236921"><ele>295.3333333333333</ele><time>2026-04-26T09:40:03Z</time></trkpt><trkpt lat="45.90349072955559" lon="11.905912515808398"><ele>296.1666666666667</ele><time>2026-04-26T09:40:04Z</time></trkpt><trkpt lat="45.9035290397223" lon="11.906025882355655"><ele>297.0</ele><time>2026-04-26T09:40:05Z</time></trkpt><trkpt lat="45.903565945610666" lon="11.90613896769448"><ele>297.0</ele><time>2026-04-26T09:40:06Z</time></trkpt><trkpt lat="45.90360744600166" lon="11.906252469586454"><ele>297.0</ele><time>2026-04-26T09:40:07Z</time></trkpt><trkpt lat="45.90364139532122" lon="11.9063744578947"><ele>297.0</ele><time>2026-04-26T09:40:08Z</time></trkpt><trkpt lat="45.903661495035706" lon="11.906500835072968"><ele>297.0</ele><time>2026-04-26T09:40:09Z</time></trkpt><trkpt lat="45.90368028820933" lon="11.90664148895497"><ele>297.0</ele><time>2026-04-26T09:40:10Z</time></trkpt><trkpt lat="45.90370711639449" lon="11.906781824560577"><ele>296.2</ele><time>2026-04-26T09:40:11Z</time></trkpt><trkpt lat="45.90373317660796" lon="11.906910797332655"><ele>295.4</ele><time>2026-04-26T09:40:12Z</time></trkpt><trkpt lat="45.90376657192958" lon="11.907038483235223"><ele>294.6</ele><time>2026-04-26T09:40:13Z</time></trkpt><trkpt lat="45.90379243112237" lon="11.907182007609887"><ele>293.8</ele><time>2026-04-26T09:40:14Z</time></trkpt><trkpt lat="45.90382477007019" lon="11.907333570440853"><ele>293.0</ele><time>2026-04-26T09:40:15Z</time></trkpt><trkpt lat="45.903859436656816" lon="11.90747035957249"><ele>292.1666666666667</ele><time>2026-04-26T09:40:16Z</time></trkpt><trkpt lat="45.90389153993052" lon="11.907596390481089"><ele>291.33333333333337</ele><time>2026-04-26T09:40:17Z</time></trkpt><trkpt lat="45.90391914607102" lon="11.907713736515797"><ele>290.5</ele><time>2026-04-26T09:40:18Z</time></trkpt><trkpt lat="45.9039445550723" lon="11.907818912554745"><ele>289.6666666666667</ele><time>2026-04-26T09:40:19Z</time></trkpt><trkpt lat="45.903989638509" lon="11.90792327645095"><ele>288.8333333333333</ele><time>2026-04-26T09:40:20Z</time></trkpt><trkpt lat="45.90403007160459" lon="11.908040984786108"><ele>288.0</ele><time>2026-04-26T09:40:21Z</time></trkpt><trkpt lat="45.90408240549172" lon="11.908139384639744"><ele>288.0</ele><time>2026-04-26T09:40:22Z</time></trkpt><trkpt lat="45.90413470495054" lon="11.908240169536393"><ele>288.0</ele><time>2026-04-26T09:40:23Z</time></trkpt><trkpt lat="45.90414571701105" lon="11.90834817342317"><ele>288.0</ele><time>2026-04-26T09:40:24Z</time></trkpt><trkpt lat="45.90415945026652" lon="11.908462223711073"><ele>288.0</ele><time>2026-04-26T09:40:24.999Z</time></trkpt><trkpt lat="45.90417579607947" lon="11.908575552472751"><ele>288.0</ele><time>2026-04-26T09:40:25.999Z</time></trkpt><trkpt lat="45.90419693337678" lon="11.908669790151597"><ele>288.0</ele><time>2026-04-26T09:40:26.999Z</time></trkpt><trkpt lat="45.90423250964394" lon="11.908764504203964"><ele>289.1666666666667</ele><time>2026-04-26T09:40:27.999Z</time></trkpt><trkpt lat="45.90430754087644" lon="11.908927328819727"><ele>290.3333333333333</ele><time>2026-04-26T09:40:29.999Z</time></trkpt><trkpt lat="45.90435751071865" lon="11.909001501212119"><ele>291.5</ele><time>2026-04-26T09:40:30.999Z</time></trkpt><trkpt lat="45.90442047828186" lon="11.909067872026545"><ele>292.66666666666663</ele><time>2026-04-26T09:40:31.999Z</time></trkpt><trkpt lat="45.90448650310088" lon="11.909106864682103"><ele>293.8333333333333</ele><time>2026-04-26T09:40:32.999Z</time></trkpt><trkpt lat="45.90456634473963" lon="11.909127979053714"><ele>295.0</ele><time>2026-04-26T09:40:33.999Z</time></trkpt><trkpt lat="45.9046450511868" lon="11.90912591922298"><ele>295.0</ele><time>2026-04-26T09:40:34.999Z</time></trkpt><trkpt lat="45.904728251835984" lon="11.909137339609542"><ele>295.0</ele><time>2026-04-26T09:40:35.999Z</time></trkpt><trkpt lat="45.90479830875078" lon="11.90911964118978"><ele>295.0</ele><time>2026-04-26T09:40:36.999Z</time></trkpt><trkpt lat="45.904878951782514" lon="11.90909235679992"><ele>295.0</ele><time>2026-04-26T09:40:37.999Z</time></trkpt><trkpt lat="45.90496242881933" lon="11.909071499982703"><ele>295.0</ele><time>2026-04-26T09:40:38.999Z</time></trkpt><trkpt lat="45.9050362943707" lon="11.909046629905307"><ele>295.0</ele><time>2026-04-26T09:40:39.999Z</time></trkpt><trkpt lat="45.90510326617876" lon="11.909035132153951"><ele>295.14285714285717</ele><time>2026-04-26T09:40:40.999Z</time></trkpt><trkpt lat="45.90517705700182" lon="11.909017215330142"><ele>295.2857142857143</ele><time>2026-04-26T09:40:41.999Z</time></trkpt><trkpt lat="45.90524867685502" lon="11.908995108078273"><ele>295.42857142857144</ele><time>2026-04-26T09:40:42.999Z</time></trkpt><trkpt lat="45.90532136153908" lon="11.908986081333527"><ele>295.57142857142856</ele><time>2026-04-26T09:40:43.999Z</time></trkpt><trkpt lat="45.90539175054585" lon="11.908965756362644"><ele>295.7142857142857</ele><time>2026-04-26T09:40:44.999Z</time></trkpt><trkpt lat="45.90546450217467" lon="11.908943989899864"><ele>295.8571428571429</ele><time>2026-04-26T09:40:45.999Z</time></trkpt><trkpt lat="45.90553621820263" lon="11.908925724198454"><ele>296.0</ele><time>2026-04-26T09:40:46.999Z</time></trkpt><trkpt lat="45.90561049553155" lon="11.90891060100918"><ele>296.0</ele><time>2026-04-26T09:40:47.999Z</time></trkpt><trkpt lat="45.90574992842076" lon="11.908910445692118"><ele>296.0</ele><time>2026-04-26T09:40:49.999Z</time></trkpt><trkpt lat="45.90582015021812" lon="11.908912129302875"><ele>296.0</ele><time>2026-04-26T09:40:50.999Z</time></trkpt><trkpt lat="45.90588434938405" lon="11.908906075473531"><ele>296.0</ele><time>2026-04-26T09:40:51.999Z</time></trkpt><trkpt lat="45.906020020027704" lon="11.90890909404615"><ele>296.0</ele><time>2026-04-26T09:40:53.999Z</time></trkpt><trkpt lat="45.906097678575264" lon="11.908933286007189"><ele>296.33333333333337</ele><time>2026-04-26T09:40:54.999Z</time></trkpt><trkpt lat="45.906186859243384" lon="11.90892938985718"><ele>296.6666666666667</ele><time>2026-04-26T09:40:55.999Z</time></trkpt><trkpt lat="45.906260553445605" lon="11.908924861820056"><ele>297.0</ele><time>2026-04-26T09:40:56.999Z</time></trkpt><trkpt lat="45.906347496568515" lon="11.90888831652511"><ele>297.3333333333333</ele><time>2026-04-26T09:40:57.999Z</time></trkpt><trkpt lat="45.9064276545083" lon="11.908853023632318"><ele>297.66666666666663</ele><time>2026-04-26T09:40:58.999Z</time></trkpt><trkpt lat="45.906491256172146" lon="11.908825292120625"><ele>298.0</ele><time>2026-04-26T09:40:59.999Z</time></trkpt><trkpt lat="45.906553179066684" lon="11.908798951016651"><ele>298.0</ele><time>2026-04-26T09:41:00.999Z</time></trkpt><trkpt lat="45.906656477850724" lon="11.908749653253889"><ele>298.0</ele><time>2026-04-26T09:41:02.999Z</time></trkpt><trkpt lat="45.906771519748666" lon="11.90867564607568"><ele>298.0</ele><time>2026-04-26T09:41:04.999Z</time></trkpt><trkpt lat="45.906874722936344" lon="11.9086142023982"><ele>298.0</ele><time>2026-04-26T09:41:06.999Z</time></trkpt><trkpt lat="45.90695254841605" lon="11.90857184441061"><ele>298.0</ele><time>2026-04-26T09:41:08.999Z</time></trkpt><trkpt lat="45.90701867344853" lon="11.908533515760542"><ele>298.1428571428571</ele><time>2026-04-26T09:41:10.999Z</time></trkpt><trkpt lat="45.907088795217355" lon="11.908475403411718"><ele>298.2857142857143</ele><time>2026-04-26T09:41:13.999Z</time></trkpt><trkpt lat="45.90715344577238" lon="11.908439786194705"><ele>298.42857142857144</ele><time>2026-04-26T09:41:15.999Z</time></trkpt><trkpt lat="45.907217460926084" lon="11.908411585010585"><ele>298.57142857142856</ele><time>2026-04-26T09:41:19Z</time></trkpt><trkpt lat="45.90727979524222" lon="11.908358879874381"><ele>298.7142857142857</ele><time>2026-04-26T09:41:23Z</time></trkpt><trkpt lat="45.90734100263812" lon="11.908321520216385"><ele>298.85714285714283</ele><time>2026-04-26T09:41:27Z</time></trkpt><trkpt lat="45.90741656906579" lon="11.908272534090813"><ele>299.0</ele><time>2026-04-26T09:42:50.999Z</time></trkpt><trkpt lat="45.90746787100721" lon="11.908212120062759"><ele>299.0</ele><time>2026-04-26T09:46:01.999Z</time></trkpt><trkpt lat="45.90755914475653" lon="11.908186053894795"><ele>299.0</ele><time>2026-04-26T09:46:47.999Z</time></trkpt><trkpt lat="45.90764446518947" lon="11.908119663091846"><ele>299.0</ele><time>2026-04-26T09:46:54.999Z</time></trkpt><trkpt lat="45.907754381979274" lon="11.908098624035738"><ele>299.0</ele><time>2026-04-26T09:46:56.999Z</time></trkpt><trkpt lat="45.90776781741799" lon="11.908188939150977"><ele>299.0</ele><time>2026-04-26T09:47:13.999Z</time></trkpt><trkpt lat="45.907745797187204" lon="11.90828398333317"><ele>299.0</ele><time>2026-04-26T09:47:51Z</time></trkpt><trkpt lat="45.907838207061154" lon="11.908438350862594"><ele>298.4</ele><time>2026-04-26T09:47:56Z</time></trkpt><trkpt lat="45.907857906491664" lon="11.908527624545506"><ele>297.79999999999995</ele><time>2026-04-26T09:47:57Z</time></trkpt><trkpt lat="45.90788647912437" lon="11.908641445428684"><ele>297.20000000000005</ele><time>2026-04-26T09:47:58Z</time></trkpt><trkpt lat="45.9079273035313" lon="11.908772040389254"><ele>296.6</ele><time>2026-04-26T09:47:59Z</time></trkpt><trkpt lat="45.907957318966574" lon="11.908927514988456"><ele>296.0</ele><time>2026-04-26T09:48:00Z</time></trkpt><trkpt lat="45.90798443550458" lon="11.909079211967594"><ele>295.0</ele><time>2026-04-26T09:48:01Z</time></trkpt><trkpt lat="45.908017415102215" lon="11.909247786821332"><ele>294.0</ele><time>2026-04-26T09:48:02Z</time></trkpt><trkpt lat="45.90803540090488" lon="11.909407316132864"><ele>293.0</ele><time>2026-04-26T09:48:03Z</time></trkpt><trkpt lat="45.908085580615655" lon="11.909582193183855"><ele>292.0</ele><time>2026-04-26T09:48:04Z</time></trkpt><trkpt lat="45.90812802603644" lon="11.90976128218328"><ele>292.0</ele><time>2026-04-26T09:48:05Z</time></trkpt><trkpt lat="45.90817488671897" lon="11.909922313692874"><ele>292.0</ele><time>2026-04-26T09:48:06Z</time></trkpt><trkpt lat="45.90820948688745" lon="11.910096380397231"><ele>292.0</ele><time>2026-04-26T09:48:07Z</time></trkpt><trkpt lat="45.90824266847307" lon="11.910265995855609"><ele>292.0</ele><time>2026-04-26T09:48:08Z</time></trkpt><trkpt lat="45.908290223857044" lon="11.910407881915484"><ele>291.4</ele><time>2026-04-26T09:48:09Z</time></trkpt><trkpt lat="45.908336187037534" lon="11.910561354829602"><ele>290.79999999999995</ele><time>2026-04-26T09:48:10Z</time></trkpt><trkpt lat="45.908370033445664" lon="11.910691252691842"><ele>290.2</ele><time>2026-04-26T09:48:11Z</time></trkpt><trkpt lat="45.90839352029971" lon="11.910807932451537"><ele>289.59999999999997</ele><time>2026-04-26T09:48:12Z</time></trkpt><trkpt lat="45.90842135858424" lon="11.910916036458023"><ele>289.0</ele><time>2026-04-26T09:48:13Z</time></trkpt><trkpt lat="45.90846185009925" lon="11.911060170233972"><ele>287.2</ele><time>2026-04-26T09:48:15Z</time></trkpt><trkpt lat="45.908494029654385" lon="11.91123262202228"><ele>285.4</ele><time>2026-04-26T09:48:17Z</time></trkpt><trkpt lat="45.90854416267565" lon="11.911351892335015"><ele>283.6</ele><time>2026-04-26T09:48:19Z</time></trkpt><trkpt lat="45.90858042370968" lon="11.911463695034875"><ele>281.8</ele><time>2026-04-26T09:48:21Z</time></trkpt><trkpt lat="45.90860426912523" lon="11.911616734508453"><ele>280.0</ele><time>2026-04-26T09:48:23Z</time></trkpt><trkpt lat="45.90864172747335" lon="11.91179031929003"><ele>279.4</ele><time>2026-04-26T09:48:25Z</time></trkpt><trkpt lat="45.90865616514247" lon="11.911883364913455"><ele>278.8</ele><time>2026-04-26T09:48:26Z</time></trkpt><trkpt lat="45.90868401563175" lon="11.912052298133698"><ele>278.2</ele><time>2026-04-26T09:48:28Z</time></trkpt><trkpt lat="45.908692601330856" lon="11.912148586622083"><ele>277.6</ele><time>2026-04-26T09:48:29Z</time></trkpt><trkpt lat="45.908710642991174" lon="11.91232704047992"><ele>277.0</ele><time>2026-04-26T09:48:31Z</time></trkpt><trkpt lat="45.908736427544994" lon="11.912503474373914"><ele>276.6</ele><time>2026-04-26T09:48:33Z</time></trkpt><trkpt lat="45.90877860585077" lon="11.912647044203432"><ele>276.2</ele><time>2026-04-26T09:48:35Z</time></trkpt><trkpt lat="45.908797075463276" lon="11.912802576103656"><ele>275.8</ele><time>2026-04-26T09:48:37Z</time></trkpt><trkpt lat="45.90882656946619" lon="11.912947131806584"><ele>275.4</ele><time>2026-04-26T09:48:39Z</time></trkpt><trkpt lat="45.90885762206577" lon="11.913073330500076"><ele>275.0</ele><time>2026-04-26T09:48:41Z</time></trkpt><trkpt lat="45.908878413771156" lon="11.913232219882278"><ele>275.0</ele><time>2026-04-26T09:48:42.999Z</time></trkpt><trkpt lat="45.908911140871425" lon="11.913384915286253"><ele>275.0</ele><time>2026-04-26T09:48:44.999Z</time></trkpt><trkpt lat="45.908950650221556" lon="11.913555399573506"><ele>275.0</ele><time>2026-04-26T09:48:46.999Z</time></trkpt><trkpt lat="45.90898148028303" lon="11.913733936829233"><ele>275.0</ele><time>2026-04-26T09:48:48.999Z</time></trkpt><trkpt lat="45.90901898923189" lon="11.913911893504077"><ele>274.5</ele><time>2026-04-26T09:48:50.999Z</time></trkpt><trkpt lat="45.909043901193954" lon="11.9140138768965"><ele>274.0</ele><time>2026-04-26T09:48:51.999Z</time></trkpt><trkpt lat="45.90907653960843" lon="11.914097836117381"><ele>273.5</ele><time>2026-04-26T09:48:52.999Z</time></trkpt><trkpt lat="45.909122317147094" lon="11.914167610445537"><ele>273.0</ele><time>2026-04-26T09:48:53.999Z</time></trkpt><trkpt lat="45.909187753877774" lon="11.914207168549787"><ele>272.5</ele><time>2026-04-26T09:48:54.999Z</time></trkpt><trkpt lat="45.90925040162817" lon="11.914250086304927"><ele>272.0</ele><time>2026-04-26T09:48:55.999Z</time></trkpt><trkpt lat="45.90935986216087" lon="11.914299538019398"><ele>270.83333333333337</ele><time>2026-04-26T09:48:57.999Z</time></trkpt><trkpt lat="45.909428266945234" lon="11.914329541756002"><ele>269.6666666666667</ele><time>2026-04-26T09:48:58.999Z</time></trkpt><trkpt lat="45.909491895682464" lon="11.914355591673122"><ele>268.5</ele><time>2026-04-26T09:48:59.999Z</time></trkpt><trkpt lat="45.90956346352544" lon="11.914392293754787"><ele>267.3333333333333</ele><time>2026-04-26T09:49:00.999Z</time></trkpt><trkpt lat="45.909656948484816" lon="11.91443368614393"><ele>266.16666666666663</ele><time>2026-04-26T09:49:01.999Z</time></trkpt><trkpt lat="45.909750383167214" lon="11.914480006980318"><ele>265.0</ele><time>2026-04-26T09:49:02.999Z</time></trkpt><trkpt lat="45.90984534481438" lon="11.914504821454404"><ele>265.0</ele><time>2026-04-26T09:49:03.999Z</time></trkpt><trkpt lat="45.90994069483741" lon="11.914519243787538"><ele>265.0</ele><time>2026-04-26T09:49:04.999Z</time></trkpt><trkpt lat="45.91003170687497" lon="11.914537652347889"><ele>265.0</ele><time>2026-04-26T09:49:05.999Z</time></trkpt><trkpt lat="45.91011453546486" lon="11.914522728865755"><ele>265.0</ele><time>2026-04-26T09:49:06.999Z</time></trkpt><trkpt lat="45.91019870561394" lon="11.914525398835954"><ele>265.0</ele><time>2026-04-26T09:49:07.999Z</time></trkpt><trkpt lat="45.910355288448734" lon="11.914543037495653"><ele>264.3333333333333</ele><time>2026-04-26T09:49:09.999Z</time></trkpt><trkpt lat="45.910449851962" lon="11.914553131196417"><ele>263.66666666666663</ele><time>2026-04-26T09:49:10.999Z</time></trkpt><trkpt lat="45.91053523718827" lon="11.91455029248684"><ele>263.0</ele><time>2026-04-26T09:49:11.999Z</time></trkpt><trkpt lat="45.91062919596618" lon="11.914544493262927"><ele>262.3333333333333</ele><time>2026-04-26T09:49:12.999Z</time></trkpt><trkpt lat="45.910705605855895" lon="11.914548026405328"><ele>261.6666666666667</ele><time>2026-04-26T09:49:13.999Z</time></trkpt><trkpt lat="45.910796058185966" lon="11.914554940553291"><ele>261.0</ele><time>2026-04-26T09:49:14.999Z</time></trkpt><trkpt lat="45.91092241637332" lon="11.91460856772733"><ele>261.0</ele><time>2026-04-26T09:49:15.999Z</time></trkpt><trkpt lat="45.91101388964628" lon="11.914663991056358"><ele>261.0</ele><time>2026-04-26T09:49:16.999Z</time></trkpt><trkpt lat="45.91109058458542" lon="11.914721410510563"><ele>261.0</ele><time>2026-04-26T09:49:17.999Z</time></trkpt><trkpt lat="45.91116396797431" lon="11.914770694295505"><ele>261.0</ele><time>2026-04-26T09:49:18.999Z</time></trkpt><trkpt lat="45.911232789303135" lon="11.9148381131799"><ele>261.0</ele><time>2026-04-26T09:49:19.999Z</time></trkpt><trkpt lat="45.91129534588281" lon="11.914895486100963"><ele>261.0</ele><time>2026-04-26T09:49:20.999Z</time></trkpt><trkpt lat="45.91134460153445" lon="11.914968772162208"><ele>261.0</ele><time>2026-04-26T09:49:21.999Z</time></trkpt><trkpt lat="45.911388240545165" lon="11.915055471414474"><ele>261.0</ele><time>2026-04-26T09:49:22.999Z</time></trkpt><trkpt lat="45.91143239199171" lon="11.915153999804636"><ele>261.0</ele><time>2026-04-26T09:49:23.999Z</time></trkpt><trkpt lat="45.91147466182731" lon="11.915267038453146"><ele>261.0</ele><time>2026-04-26T09:49:24.999Z</time></trkpt><trkpt lat="45.91148262835237" lon="11.915405369609815"><ele>261.0</ele><time>2026-04-26T09:49:25.999Z</time></trkpt><trkpt lat="45.91147825643771" lon="11.915548740733517"><ele>261.0</ele><time>2026-04-26T09:49:26.999Z</time></trkpt><trkpt lat="45.91146361240812" lon="11.915696744861453"><ele>261.6</ele><time>2026-04-26T09:49:27.999Z</time></trkpt><trkpt lat="45.91144682781212" lon="11.91585600084093"><ele>262.20000000000005</ele><time>2026-04-26T09:49:28.999Z</time></trkpt><trkpt lat="45.91144369355308" lon="11.916031932879182"><ele>262.79999999999995</ele><time>2026-04-26T09:49:29.999Z</time></trkpt><trkpt lat="45.911424665023326" lon="11.916170012541386"><ele>263.4</ele><time>2026-04-26T09:49:30.999Z</time></trkpt><trkpt lat="45.91138447741879" lon="11.916272197058666"><ele>264.0</ele><time>2026-04-26T09:49:31.999Z</time></trkpt><trkpt lat="45.91135375219285" lon="11.916365949620424"><ele>264.0</ele><time>2026-04-26T09:49:32.999Z</time></trkpt><trkpt lat="45.9113229729776" lon="11.916481796374308"><ele>264.0</ele><time>2026-04-26T09:49:35.999Z</time></trkpt><trkpt lat="45.911271935472584" lon="11.91659557296449"><ele>264.0</ele><time>2026-04-26T09:49:39.999Z</time></trkpt><trkpt lat="45.91126259535905" lon="11.916728581850807"><ele>264.0</ele><time>2026-04-26T09:49:41.999Z</time></trkpt><trkpt lat="45.91132839103667" lon="11.916769815832735"><ele>264.0</ele><time>2026-04-26T09:49:43Z</time></trkpt><trkpt lat="45.91145074032883" lon="11.916623057456967"><ele>264.0</ele><time>2026-04-26T09:49:46Z</time></trkpt><trkpt lat="45.9114644524962" lon="11.916517693745199"><ele>264.0</ele><time>2026-04-26T09:49:47Z</time></trkpt><trkpt lat="45.91149085221672" lon="11.916419115316215"><ele>264.0</ele><time>2026-04-26T09:49:48Z</time></trkpt><trkpt lat="45.91152262726289" lon="11.9163236400089"><ele>264.0</ele><time>2026-04-26T09:49:49Z</time></trkpt><trkpt lat="45.91156322700757" lon="11.91622241559459"><ele>264.0</ele><time>2026-04-26T09:49:50Z</time></trkpt><trkpt lat="45.911604162749796" lon="11.916133556357934"><ele>264.0</ele><time>2026-04-26T09:49:51Z</time></trkpt><trkpt lat="45.91166566003541" lon="11.9160056783259"><ele>264.0</ele><time>2026-04-26T09:49:53Z</time></trkpt><trkpt lat="45.91172470123845" lon="11.915916707335093"><ele>264.0</ele><time>2026-04-26T09:49:55Z</time></trkpt><trkpt lat="45.91180159958824" lon="11.915839979886009"><ele>264.0</ele><time>2026-04-26T09:49:57Z</time></trkpt><trkpt lat="45.91188855691558" lon="11.915805790760814"><ele>264.0</ele><time>2026-04-26T09:49:59Z</time></trkpt><trkpt lat="45.91212273481159" lon="11.915799209379704"><ele>265.0</ele><time>2026-04-26T09:50:05Z</time></trkpt><trkpt lat="45.91222323032904" lon="11.915841850974584"><ele>266.0</ele><time>2026-04-26T09:50:07Z</time></trkpt><trkpt lat="45.91229340616937" lon="11.915886449584116"><ele>267.0</ele><time>2026-04-26T09:50:09Z</time></trkpt><trkpt lat="45.91237495768549" lon="11.915878337747067"><ele>268.0</ele><time>2026-04-26T09:50:12Z</time></trkpt><trkpt lat="45.91234629929281" lon="11.915769460245302"><ele>269.0</ele><time>2026-04-26T09:50:34Z</time></trkpt><trkpt lat="45.9123121694104" lon="11.915628205909927"><ele>270.0</ele><time>2026-04-26T09:50:36Z</time></trkpt><trkpt lat="45.91229201841815" lon="11.915510414043704"><ele>270.0</ele><time>2026-04-26T09:50:38Z</time></trkpt><trkpt lat="45.91225996815206" lon="11.915366695479761"><ele>270.0</ele><time>2026-04-26T09:50:40Z</time></trkpt><trkpt lat="45.912213298838836" lon="11.915198086619986"><ele>270.0</ele><time>2026-04-26T09:50:42Z</time></trkpt><trkpt lat="45.912174030427" lon="11.915112245389068"><ele>270.0</ele><time>2026-04-26T09:50:43Z</time></trkpt><trkpt lat="45.9121300164143" lon="11.915007106963543"><ele>270.0</ele><time>2026-04-26T09:50:44Z</time></trkpt><trkpt lat="45.91209600108083" lon="11.914898769395709"><ele>270.5</ele><time>2026-04-26T09:50:45Z</time></trkpt><trkpt lat="45.912064018062416" lon="11.914791087476205"><ele>271.0</ele><time>2026-04-26T09:50:46Z</time></trkpt><trkpt lat="45.912052059460414" lon="11.914686035246202"><ele>271.5</ele><time>2026-04-26T09:50:47Z</time></trkpt><trkpt lat="45.91204046004088" lon="11.914571796679123"><ele>272.0</ele><time>2026-04-26T09:50:48Z</time></trkpt><trkpt lat="45.91203067815166" lon="11.914459908522696"><ele>272.5</ele><time>2026-04-26T09:50:49Z</time></trkpt><trkpt lat="45.91200884335297" lon="11.914352485627557"><ele>273.0</ele><time>2026-04-26T09:50:50Z</time></trkpt><trkpt lat="45.91199081989356" lon="11.914247096284628"><ele>273.1666666666667</ele><time>2026-04-26T09:50:51Z</time></trkpt><trkpt lat="45.91197424334381" lon="11.914155550511346"><ele>273.3333333333333</ele><time>2026-04-26T09:50:52Z</time></trkpt><trkpt lat="45.91199420218484" lon="11.913980677770121"><ele>273.5</ele><time>2026-04-26T09:50:54Z</time></trkpt><trkpt lat="45.91201178016596" lon="11.913883402888223"><ele>273.66666666666663</ele><time>2026-04-26T09:50:55Z</time></trkpt><trkpt lat="45.91203936542227" lon="11.91377675083453"><ele>273.8333333333333</ele><time>2026-04-26T09:50:56Z</time></trkpt><trkpt lat="45.912074135431496" lon="11.91367666282656"><ele>274.0</ele><time>2026-04-26T09:50:57Z</time></trkpt><trkpt lat="45.912119273820146" lon="11.913581488101848"><ele>274.0</ele><time>2026-04-26T09:50:58Z</time></trkpt><trkpt lat="45.91215241975523" lon="11.913480359660563"><ele>274.0</ele><time>2026-04-26T09:50:59Z</time></trkpt><trkpt lat="45.91220498211176" lon="11.913388962155338"><ele>274.0</ele><time>2026-04-26T09:51:00Z</time></trkpt><trkpt lat="45.912261251484225" lon="11.913302415636798"><ele>274.0</ele><time>2026-04-26T09:51:01Z</time></trkpt><trkpt lat="45.9123220811086" lon="11.91323048056801"><ele>274.0</ele><time>2026-04-26T09:51:02Z</time></trkpt><trkpt lat="45.91237774647254" lon="11.913142198985755"><ele>274.0</ele><time>2026-04-26T09:51:03Z</time></trkpt><trkpt lat="45.91242493592617" lon="11.913040414410442"><ele>274.0</ele><time>2026-04-26T09:51:04Z</time></trkpt><trkpt lat="45.912486237917015" lon="11.91294187287454"><ele>274.0</ele><time>2026-04-26T09:51:05Z</time></trkpt><trkpt lat="45.91254494528422" lon="11.912859107012402"><ele>274.0</ele><time>2026-04-26T09:51:06Z</time></trkpt><trkpt lat="45.91259905462881" lon="11.912762016614646"><ele>274.0</ele><time>2026-04-26T09:51:07Z</time></trkpt><trkpt lat="45.912643546154094" lon="11.91264867174805"><ele>274.0</ele><time>2026-04-26T09:51:08Z</time></trkpt><trkpt lat="45.91268955313045" lon="11.91255383222687"><ele>274.0</ele><time>2026-04-26T09:51:09Z</time></trkpt><trkpt lat="45.91272858192799" lon="11.91239562841269"><ele>275.4</ele><time>2026-04-26T09:51:11Z</time></trkpt><trkpt lat="45.91274436363383" lon="11.912305579155566"><ele>276.79999999999995</ele><time>2026-04-26T09:51:11.999Z</time></trkpt><trkpt lat="45.912755198393484" lon="11.91221382711769"><ele>278.20000000000005</ele><time>2026-04-26T09:51:12.999Z</time></trkpt><trkpt lat="45.91279042757715" lon="11.912037932287543"><ele>279.6</ele><time>2026-04-26T09:51:14.999Z</time></trkpt><trkpt lat="45.91283833666112" lon="11.911918189684481"><ele>281.0</ele><time>2026-04-26T09:51:16.999Z</time></trkpt><trkpt lat="45.9129267279866" lon="11.91181273174844"><ele>281.1666666666667</ele><time>2026-04-26T09:51:18.999Z</time></trkpt><trkpt lat="45.91296063707485" lon="11.911734835620948"><ele>281.33333333333337</ele><time>2026-04-26T09:51:19.999Z</time></trkpt><trkpt lat="45.913038900057366" lon="11.911657858668432"><ele>281.5</ele><time>2026-04-26T09:51:21.999Z</time></trkpt><trkpt lat="45.9130750182274" lon="11.911576464668595"><ele>281.6666666666667</ele><time>2026-04-26T09:51:23.999Z</time></trkpt><trkpt lat="45.91311938884023" lon="11.911511642917985"><ele>281.8333333333333</ele><time>2026-04-26T09:51:25.999Z</time></trkpt><trkpt lat="45.91317625165483" lon="11.911471330977687"><ele>282.0</ele><time>2026-04-26T09:51:27.999Z</time></trkpt><trkpt lat="45.91325787211262" lon="11.911359091766935"><ele>282.0</ele><time>2026-04-26T09:51:29.999Z</time></trkpt><trkpt lat="45.91331803948473" lon="11.911223243994982"><ele>282.0</ele><time>2026-04-26T09:51:31.999Z</time></trkpt><trkpt lat="45.913344431927584" lon="11.911093249922024"><ele>282.0</ele><time>2026-04-26T09:51:33.999Z</time></trkpt><trkpt lat="45.91342616153008" lon="11.910988363101165"><ele>282.0</ele><time>2026-04-26T09:51:35.999Z</time></trkpt><trkpt lat="45.91352142759874" lon="11.910873320588372"><ele>282.0</ele><time>2026-04-26T09:51:37.999Z</time></trkpt><trkpt lat="45.91357310066627" lon="11.910810920603586"><ele>282.7142857142857</ele><time>2026-04-26T09:51:38.999Z</time></trkpt><trkpt lat="45.91362721368721" lon="11.910745574211775"><ele>283.42857142857144</ele><time>2026-04-26T09:51:39.999Z</time></trkpt><trkpt lat="45.91368192218258" lon="11.91067950869524"><ele>284.1428571428571</ele><time>2026-04-26T09:51:40.999Z</time></trkpt><trkpt lat="45.913735965042" lon="11.910613273455828"><ele>284.8571428571429</ele><time>2026-04-26T09:51:41.999Z</time></trkpt><trkpt lat="45.913785836399896" lon="11.910550959259007"><ele>285.57142857142856</ele><time>2026-04-26T09:51:42.999Z</time></trkpt><trkpt lat="45.91382869308972" lon="11.910467387513885"><ele>286.2857142857143</ele><time>2026-04-26T09:51:43.999Z</time></trkpt><trkpt lat="45.9138765046664" lon="11.910403532009632"><ele>287.0</ele><time>2026-04-26T09:51:44.999Z</time></trkpt><trkpt lat="45.913943170529215" lon="11.910319630553378"><ele>287.0</ele><time>2026-04-26T09:51:46.999Z</time></trkpt><trkpt lat="45.9140172342705" lon="11.910249514279576"><ele>287.0</ele><time>2026-04-26T09:51:50Z</time></trkpt><trkpt lat="45.9140847022672" lon="11.910158050471965"><ele>287.0</ele><time>2026-04-26T09:51:52Z</time></trkpt><trkpt lat="45.914060191689835" lon="11.910025708420111"><ele>287.0</ele><time>2026-04-26T09:51:54Z</time></trkpt><trkpt lat="45.9140727251511" lon="11.90993684330591"><ele>287.0</ele><time>2026-04-26T09:51:56Z</time></trkpt><trkpt lat="45.91406844700883" lon="11.90981948608255"><ele>287.0</ele><time>2026-04-26T09:51:58Z</time></trkpt><trkpt lat="45.91408809680911" lon="11.909718870226936"><ele>287.6666666666667</ele><time>2026-04-26T09:52:00Z</time></trkpt><trkpt lat="45.91407330741542" lon="11.909608699608977"><ele>288.33333333333337</ele><time>2026-04-26T09:52:03Z</time></trkpt><trkpt lat="45.914085483835" lon="11.909501235569996"><ele>289.0</ele><time>2026-04-26T09:52:06Z</time></trkpt><trkpt lat="45.91400573732508" lon="11.909465033206724"><ele>289.6666666666667</ele><time>2026-04-26T09:52:07Z</time></trkpt><trkpt lat="45.913920654117625" lon="11.90938705914135"><ele>290.3333333333333</ele><time>2026-04-26T09:52:10Z</time></trkpt><trkpt lat="45.91385511664763" lon="11.909352240068545"><ele>291.0</ele><time>2026-04-26T09:52:12Z</time></trkpt><trkpt lat="45.91377705165133" lon="11.909266660064931"><ele>292.5</ele><time>2026-04-26T09:52:15Z</time></trkpt><trkpt lat="45.913709527152115" lon="11.909205106963183"><ele>294.0</ele><time>2026-04-26T09:52:18Z</time></trkpt><trkpt lat="45.913652743931536" lon="11.909165548466952"><ele>295.5</ele><time>2026-04-26T09:52:20Z</time></trkpt><trkpt lat="45.91360998277982" lon="11.909048448219314"><ele>297.0</ele><time>2026-04-26T09:52:24Z</time></trkpt><trkpt lat="45.91363127228887" lon="11.908946975396528"><ele>298.5</ele><time>2026-04-26T09:52:27Z</time></trkpt><trkpt lat="45.913695186041714" lon="11.909019008973418"><ele>300.0</ele><time>2026-04-26T09:52:30Z</time></trkpt><trkpt lat="45.913751184682845" lon="11.909070468313688"><ele>300.0</ele><time>2026-04-26T09:52:32Z</time></trkpt><trkpt lat="45.9139193035324" lon="11.909091308497342"><ele>300.0</ele><time>2026-04-26T09:52:39Z</time></trkpt><trkpt lat="45.91391662488329" lon="11.908993280768154"><ele>300.0</ele><time>2026-04-26T09:52:41Z</time></trkpt><trkpt lat="45.913873288140095" lon="11.908876376653414"><ele>300.0</ele><time>2026-04-26T09:52:43Z</time></trkpt><trkpt lat="45.91381899573977" lon="11.908802232009851"><ele>300.0</ele><time>2026-04-26T09:52:45Z</time></trkpt><trkpt lat="45.91375056252259" lon="11.908693841143085"><ele>300.0</ele><time>2026-04-26T09:52:48Z</time></trkpt><trkpt lat="45.91367706585121" lon="11.908624046483823"><ele>300.0</ele><time>2026-04-26T09:52:51Z</time></trkpt><trkpt lat="45.913610942847164" lon="11.9085475804861"><ele>300.0</ele><time>2026-04-26T09:52:54Z</time></trkpt><trkpt lat="45.91355346159894" lon="11.908493069274234"><ele>300.0</ele><time>2026-04-26T09:52:56Z</time></trkpt><trkpt lat="45.91348292037567" lon="11.908420700521894"><ele>300.0</ele><time>2026-04-26T09:52:59Z</time></trkpt><trkpt lat="45.91341718257933" lon="11.908344990790747"><ele>300.0</ele><time>2026-04-26T09:53:02Z</time></trkpt><trkpt lat="45.913365809802656" lon="11.908281728268111"><ele>301.57142857142856</ele><time>2026-04-26T09:53:05Z</time></trkpt><trkpt lat="45.91328203889354" lon="11.908217829430795"><ele>303.1428571428571</ele><time>2026-04-26T09:53:09Z</time></trkpt><trkpt lat="45.9132241920031" lon="11.908162856499294"><ele>304.71428571428567</ele><time>2026-04-26T09:53:15Z</time></trkpt><trkpt lat="45.91317534272282" lon="11.908101878705384"><ele>306.2857142857143</ele><time>2026-04-26T09:53:28.999Z</time></trkpt><trkpt lat="45.9131243786374" lon="11.908045209615796"><ele>307.8571428571429</ele><time>2026-04-26T09:53:43.999Z</time></trkpt><trkpt lat="45.913058957288" lon="11.908044853357683"><ele>309.4285714285714</ele><time>2026-04-26T09:53:55Z</time></trkpt><trkpt lat="45.91299538431483" lon="11.908023527062252"><ele>311.0</ele><time>2026-04-26T09:54:07Z</time></trkpt><trkpt lat="45.91295065034426" lon="11.907937752712186"><ele>311.0</ele><time>2026-04-26T09:57:11Z</time></trkpt><trkpt lat="45.91290429554054" lon="11.90786662403293"><ele>311.0</ele><time>2026-04-26T09:57:16.999Z</time></trkpt><trkpt lat="45.91286299736845" lon="11.907984388499601"><ele>311.0</ele><time>2026-04-26T09:59:13Z</time></trkpt><trkpt lat="45.91292498804309" lon="11.908011696518543"><ele>311.0</ele><time>2026-04-26T10:02:06Z</time></trkpt><trkpt lat="45.91299383399738" lon="11.908056332065772"><ele>311.0</ele><time>2026-04-26T10:02:13.999Z</time></trkpt><trkpt lat="45.913067678544856" lon="11.908091486649788"><ele>311.0</ele><time>2026-04-26T10:02:37Z</time></trkpt><trkpt lat="45.913018108150574" lon="11.908017773977567"><ele>311.0</ele><time>2026-04-26T10:03:02Z</time></trkpt><trkpt lat="45.91296383086347" lon="11.907948059662806"><ele>311.0</ele><time>2026-04-26T10:03:09Z</time></trkpt><trkpt lat="45.91290850847981" lon="11.90789476599544"><ele>311.0</ele><time>2026-04-26T10:03:14Z</time></trkpt><trkpt lat="45.91284699075118" lon="11.907867210245975"><ele>311.0</ele><time>2026-04-26T10:03:21Z</time></trkpt><trkpt lat="45.912780839997474" lon="11.907867859273003"><ele>311.0</ele><time>2026-04-26T10:03:32Z</time></trkpt><trkpt lat="45.91272066453822" lon="11.907900246839656"><ele>311.0</ele><time>2026-04-26T10:03:44Z</time></trkpt><trkpt lat="45.912790945179495" lon="11.907926834197413"><ele>311.0</ele><time>2026-04-26T10:04:05Z</time></trkpt><trkpt lat="45.91285538921424" lon="11.907923058834065"><ele>311.0</ele><time>2026-04-26T10:04:11Z</time></trkpt><trkpt lat="45.91292093624557" lon="11.907966017149297"><ele>311.0</ele><time>2026-04-26T10:04:19.999Z</time></trkpt><trkpt lat="45.91297707310256" lon="11.908007312159276"><ele>311.0</ele><time>2026-04-26T10:04:27.999Z</time></trkpt><trkpt lat="45.91292982942805" lon="11.907927262261724"><ele>311.0</ele><time>2026-04-26T10:05:53Z</time></trkpt><trkpt lat="45.912867909156134" lon="11.907901975298493"><ele>311.0</ele><time>2026-04-26T10:05:56.999Z</time></trkpt><trkpt lat="45.912804404272485" lon="11.90790100237118"><ele>311.0</ele><time>2026-04-26T10:06:01.999Z</time></trkpt><trkpt lat="45.91272317818543" lon="11.90790505804617"><ele>311.0</ele><time>2026-04-26T10:06:12.999Z</time></trkpt><trkpt lat="45.912678820332125" lon="11.907838243798333"><ele>311.0</ele><time>2026-04-26T10:06:20.999Z</time></trkpt><trkpt lat="45.91262457916462" lon="11.907777315593963"><ele>311.0</ele><time>2026-04-26T10:06:25.999Z</time></trkpt><trkpt lat="45.912579367788396" lon="11.907702054978053"><ele>311.0</ele><time>2026-04-26T10:06:35.999Z</time></trkpt><trkpt lat="45.91253651161126" lon="11.907632389084744"><ele>311.0</ele><time>2026-04-26T10:06:48.999Z</time></trkpt><trkpt lat="45.912523225355606" lon="11.907528106081365"><ele>311.0</ele><time>2026-04-26T10:06:54.999Z</time></trkpt><trkpt lat="45.91244457765111" lon="11.907550398824611"><ele>311.0</ele><time>2026-04-26T10:07:05Z</time></trkpt><trkpt lat="45.91241413628121" lon="11.907423759659165"><ele>311.0</ele><time>2026-04-26T10:07:15Z</time></trkpt><trkpt lat="45.91237983334363" lon="11.907308743111498"><ele>310.1428571428571</ele><time>2026-04-26T10:07:24Z</time></trkpt><trkpt lat="45.91231627847417" lon="11.907336208901093"><ele>309.28571428571433</ele><time>2026-04-26T10:07:58Z</time></trkpt><trkpt lat="45.912278107624495" lon="11.907262622230334"><ele>308.42857142857144</ele><time>2026-04-26T10:08:01Z</time></trkpt><trkpt lat="45.91220280600403" lon="11.907240795851749"><ele>307.57142857142856</ele><time>2026-04-26T10:08:10Z</time></trkpt><trkpt lat="45.91212869577423" lon="11.907218991842269"><ele>306.71428571428567</ele><time>2026-04-26T10:08:21Z</time></trkpt><trkpt lat="45.91209104059695" lon="11.907292815316874"><ele>305.8571428571429</ele><time>2026-04-26T10:08:26Z</time></trkpt><trkpt lat="45.9120433151666" lon="11.907213567432098"><ele>305.0</ele><time>2026-04-26T10:08:30Z</time></trkpt><trkpt lat="45.91197360480554" lon="11.907199955953796"><ele>305.0</ele><time>2026-04-26T10:08:42.999Z</time></trkpt><trkpt lat="45.91191749834298" lon="11.907247346514216"><ele>305.0</ele><time>2026-04-26T10:08:56Z</time></trkpt><trkpt lat="45.91186082811258" lon="11.907153706130343"><ele>305.0</ele><time>2026-04-26T10:09:04Z</time></trkpt><trkpt lat="45.9118048717868" lon="11.907096517927192"><ele>305.0</ele><time>2026-04-26T10:09:13Z</time></trkpt><trkpt lat="45.911709093146385" lon="11.907096569619283"><ele>305.0</ele><time>2026-04-26T10:09:33Z</time></trkpt><trkpt lat="45.91167451007378" lon="11.90701596823385"><ele>305.0</ele><time>2026-04-26T10:09:56Z</time></trkpt><trkpt lat="45.91160312597892" lon="11.906963144572378"><ele>301.83333333333337</ele><time>2026-04-26T10:10:27Z</time></trkpt><trkpt lat="45.91153949459223" lon="11.907013076212191"><ele>298.6666666666667</ele><time>2026-04-26T10:10:33Z</time></trkpt><trkpt lat="45.91146739981024" lon="11.907062450877051"><ele>295.5</ele><time>2026-04-26T10:10:41Z</time></trkpt><trkpt lat="45.911385171529176" lon="11.907052873537898"><ele>292.3333333333333</ele><time>2026-04-26T10:10:47Z</time></trkpt><trkpt lat="45.911313832118" lon="11.907089875040342"><ele>289.16666666666663</ele><time>2026-04-26T10:10:55Z</time></trkpt><trkpt lat="45.9112482268261" lon="11.907094418663098"><ele>286.0</ele><time>2026-04-26T10:11:06Z</time></trkpt><trkpt lat="45.91117171271108" lon="11.907071540086065"><ele>285.99999999999994</ele><time>2026-04-26T10:11:14Z</time></trkpt><trkpt lat="45.91123460276039" lon="11.907093210797948"><ele>286.0</ele><time>2026-04-26T10:11:43Z</time></trkpt><trkpt lat="45.911307016598926" lon="11.907115093717074"><ele>286.0</ele><time>2026-04-26T10:11:48Z</time></trkpt><trkpt lat="45.911373901320104" lon="11.907094379492976"><ele>286.0</ele><time>2026-04-26T10:11:54Z</time></trkpt><trkpt lat="45.91144318306199" lon="11.907071842513448"><ele>286.0</ele><time>2026-04-26T10:12:01Z</time></trkpt><trkpt lat="45.91149068886455" lon="11.907004837422896"><ele>285.99999999999994</ele><time>2026-04-26T10:12:11Z</time></trkpt><trkpt lat="45.91154761693131" lon="11.907058041213446"><ele>286.0</ele><time>2026-04-26T10:12:35Z</time></trkpt><trkpt lat="45.91161025150636" lon="11.907074699916864"><ele>285.99999999999994</ele><time>2026-04-26T10:12:38Z</time></trkpt><trkpt lat="45.91166451714286" lon="11.907128059397149"><ele>286.0</ele><time>2026-04-26T10:12:46Z</time></trkpt><trkpt lat="45.911707232758246" lon="11.907201487329079"><ele>286.0</ele><time>2026-04-26T10:13:05Z</time></trkpt><trkpt lat="45.91180563077742" lon="11.907212380877038"><ele>286.0</ele><time>2026-04-26T10:13:18Z</time></trkpt><trkpt lat="45.91187059235188" lon="11.90724095431741"><ele>286.0</ele><time>2026-04-26T10:13:41Z</time></trkpt><trkpt lat="45.91193101943047" lon="11.907308730908115"><ele>285.99999999999994</ele><time>2026-04-26T10:13:46Z</time></trkpt><trkpt lat="45.9119929409715" lon="11.907272591931545"><ele>286.0</ele><time>2026-04-26T10:13:54Z</time></trkpt><trkpt lat="45.9120619686927" lon="11.907348942980548"><ele>287.0</ele><time>2026-04-26T10:14:09Z</time></trkpt><trkpt lat="45.91218913473713" lon="11.907363184620571"><ele>288.0</ele><time>2026-04-26T10:14:31Z</time></trkpt><trkpt lat="45.91229009245489" lon="11.90737973519687"><ele>289.0</ele><time>2026-04-26T10:14:43Z</time></trkpt><trkpt lat="45.91235427067597" lon="11.907412463333342"><ele>290.0</ele><time>2026-04-26T10:14:52Z</time></trkpt><trkpt lat="45.912406119744325" lon="11.907466268469742"><ele>291.0</ele><time>2026-04-26T10:15:04Z</time></trkpt><trkpt lat="45.91241278051993" lon="11.907557610265195"><ele>292.0</ele><time>2026-04-26T10:15:14Z</time></trkpt><trkpt lat="45.91247440729421" lon="11.90761055319782"><ele>292.0</ele><time>2026-04-26T10:15:48Z</time></trkpt><trkpt lat="45.9125051057811" lon="11.907699437894026"><ele>292.0</ele><time>2026-04-26T10:15:53Z</time></trkpt><trkpt lat="45.91256950048477" lon="11.907737247633607"><ele>292.0</ele><time>2026-04-26T10:16:08Z</time></trkpt><trkpt lat="45.912603999138696" lon="11.907817056121813"><ele>292.0</ele><time>2026-04-26T10:16:17Z</time></trkpt><trkpt lat="45.91265555499601" lon="11.90787540169402"><ele>292.0</ele><time>2026-04-26T10:16:32Z</time></trkpt><trkpt lat="45.912709166823404" lon="11.907935031723397"><ele>292.0</ele><time>2026-04-26T10:16:48Z</time></trkpt><trkpt lat="45.91277833514565" lon="11.907960550319459"><ele>292.0</ele><time>2026-04-26T10:28:15Z</time></trkpt><trkpt lat="45.91287683234909" lon="11.907969459771694"><ele>295.8</ele><time>2026-04-26T10:28:27Z</time></trkpt><trkpt lat="45.912934741077315" lon="11.908005561004874"><ele>299.6</ele><time>2026-04-26T10:28:33Z</time></trkpt><trkpt lat="45.91299474859749" lon="11.908063467364718"><ele>303.40000000000003</ele><time>2026-04-26T10:28:40Z</time></trkpt><trkpt lat="45.91316094978225" lon="11.9080484479136"><ele>307.2</ele><time>2026-04-26T10:31:26.999Z</time></trkpt><trkpt lat="45.91323137825001" lon="11.908146634199689"><ele>311.0</ele><time>2026-04-26T10:31:28.999Z</time></trkpt><trkpt lat="45.913287959470765" lon="11.908220621029505"><ele>311.0</ele><time>2026-04-26T10:31:30.999Z</time></trkpt><trkpt lat="45.913362756386235" lon="11.908292676257876"><ele>311.0</ele><time>2026-04-26T10:31:32.999Z</time></trkpt><trkpt lat="45.91344285069893" lon="11.908399852652032"><ele>311.0</ele><time>2026-04-26T10:31:34.999Z</time></trkpt><trkpt lat="45.91354361628318" lon="11.90850758007097"><ele>311.0</ele><time>2026-04-26T10:31:36.999Z</time></trkpt><trkpt lat="45.913594575883636" lon="11.908561009228258"><ele>311.0</ele><time>2026-04-26T10:31:37.999Z</time></trkpt><trkpt lat="45.913682838607876" lon="11.908631644287551"><ele>308.8</ele><time>2026-04-26T10:31:39.999Z</time></trkpt><trkpt lat="45.913736220485156" lon="11.908704117047025"><ele>306.6</ele><time>2026-04-26T10:31:41.999Z</time></trkpt><trkpt lat="45.9138136984586" lon="11.908802640274857"><ele>304.4</ele><time>2026-04-26T10:31:44Z</time></trkpt><trkpt lat="45.9138800648184" lon="11.908913245487541"><ele>302.2</ele><time>2026-04-26T10:31:46Z</time></trkpt><trkpt lat="45.91391316853272" lon="11.909019145478691"><ele>300.0</ele><time>2026-04-26T10:31:48Z</time></trkpt><trkpt lat="45.913845899918414" lon="11.9091236904709"><ele>300.0</ele><time>2026-04-26T10:31:51Z</time></trkpt><trkpt lat="45.913770105163024" lon="11.90906013623976"><ele>300.0</ele><time>2026-04-26T10:31:52Z</time></trkpt><trkpt lat="45.91370781792325" lon="11.908968116099123"><ele>300.0</ele><time>2026-04-26T10:31:54Z</time></trkpt><trkpt lat="45.913623061357434" lon="11.908918083809231"><ele>300.0</ele><time>2026-04-26T10:31:56Z</time></trkpt><trkpt lat="45.913525699562285" lon="11.908953854287827"><ele>300.0</ele><time>2026-04-26T10:31:58Z</time></trkpt><trkpt lat="45.91352342984731" lon="11.909049603046858"><ele>300.0</ele><time>2026-04-26T10:31:59Z</time></trkpt><trkpt lat="45.91357331455762" lon="11.909110998479358"><ele>300.0</ele><time>2026-04-26T10:32:00Z</time></trkpt><trkpt lat="45.91363698490118" lon="11.909190693190228"><ele>300.0</ele><time>2026-04-26T10:32:02Z</time></trkpt><trkpt lat="45.9137127748121" lon="11.909266440855715"><ele>300.0</ele><time>2026-04-26T10:32:04Z</time></trkpt><trkpt lat="45.91377282851306" lon="11.909302866603987"><ele>300.0</ele><time>2026-04-26T10:32:05Z</time></trkpt><trkpt lat="45.91382925917481" lon="11.909343715788326"><ele>300.0</ele><time>2026-04-26T10:32:06Z</time></trkpt><trkpt lat="45.913923798755654" lon="11.909443888931115"><ele>300.0</ele><time>2026-04-26T10:32:08Z</time></trkpt><trkpt lat="45.91403026484899" lon="11.90952307282012"><ele>298.5</ele><time>2026-04-26T10:32:10Z</time></trkpt><trkpt lat="45.91408827960984" lon="11.909627821346561"><ele>297.0</ele><time>2026-04-26T10:32:12Z</time></trkpt><trkpt lat="45.91404570235728" lon="11.909785544485795"><ele>295.5</ele><time>2026-04-26T10:32:13Z</time></trkpt><trkpt lat="45.91404451662092" lon="11.909883449851327"><ele>294.0</ele><time>2026-04-26T10:32:14Z</time></trkpt><trkpt lat="45.91404189165145" lon="11.909977363941028"><ele>292.5</ele><time>2026-04-26T10:32:15Z</time></trkpt><trkpt lat="45.91403145576957" lon="11.910121321164535"><ele>291.0</ele><time>2026-04-26T10:32:17Z</time></trkpt><trkpt lat="45.914028966987225" lon="11.910257225337501"><ele>290.3333333333333</ele><time>2026-04-26T10:32:19Z</time></trkpt><trkpt lat="45.913944014672154" lon="11.91031506437071"><ele>289.6666666666667</ele><time>2026-04-26T10:32:20Z</time></trkpt><trkpt lat="45.91389094234014" lon="11.91037567178941"><ele>289.0</ele><time>2026-04-26T10:32:21Z</time></trkpt><trkpt lat="45.91382533593025" lon="11.91043683955862"><ele>288.33333333333337</ele><time>2026-04-26T10:32:22Z</time></trkpt><trkpt lat="45.913758699840436" lon="11.910541090994093"><ele>287.6666666666667</ele><time>2026-04-26T10:32:23Z</time></trkpt><trkpt lat="45.91368405712241" lon="11.910611645117484"><ele>287.0</ele><time>2026-04-26T10:32:24Z</time></trkpt><trkpt lat="45.91361264652031" lon="11.910692319516627"><ele>287.0</ele><time>2026-04-26T10:32:25Z</time></trkpt><trkpt lat="45.91354316842764" lon="11.910773669935693"><ele>287.0</ele><time>2026-04-26T10:32:26Z</time></trkpt><trkpt lat="45.91347854429622" lon="11.910847110502598"><ele>287.0</ele><time>2026-04-26T10:32:27Z</time></trkpt><trkpt lat="45.9134177014694" lon="11.910916548236525"><ele>287.0</ele><time>2026-04-26T10:32:28Z</time></trkpt><trkpt lat="45.91336779804505" lon="11.91098946286923"><ele>287.0</ele><time>2026-04-26T10:32:29Z</time></trkpt><trkpt lat="45.913312080147996" lon="11.911051578614751"><ele>287.0</ele><time>2026-04-26T10:32:30Z</time></trkpt><trkpt lat="45.91326394314827" lon="11.911116833079618"><ele>286.1666666666667</ele><time>2026-04-26T10:32:31Z</time></trkpt><trkpt lat="45.9132285508391" lon="11.911201962408894"><ele>285.33333333333337</ele><time>2026-04-26T10:32:32Z</time></trkpt><trkpt lat="45.913205809991496" lon="11.911310342457286"><ele>284.5</ele><time>2026-04-26T10:32:33Z</time></trkpt><trkpt lat="45.91317695698362" lon="11.911447247520998"><ele>283.6666666666667</ele><time>2026-04-26T10:32:35Z</time></trkpt><trkpt lat="45.91306748948104" lon="11.911491066970358"><ele>282.8333333333333</ele><time>2026-04-26T10:32:36Z</time></trkpt><trkpt lat="45.91301219298365" lon="11.911569249624995"><ele>282.0</ele><time>2026-04-26T10:32:37Z</time></trkpt><trkpt lat="45.91296592988545" lon="11.91163987625559"><ele>282.0</ele><time>2026-04-26T10:32:38Z</time></trkpt><trkpt lat="45.912916537345055" lon="11.911720480657621"><ele>282.0</ele><time>2026-04-26T10:32:39Z</time></trkpt><trkpt lat="45.912862288114106" lon="11.911800649559265"><ele>282.0</ele><time>2026-04-26T10:32:40Z</time></trkpt><trkpt lat="45.91281695296941" lon="11.911867093307578"><ele>282.0</ele><time>2026-04-26T10:32:41Z</time></trkpt><trkpt lat="45.91275803479033" lon="11.911992297108085"><ele>282.0</ele><time>2026-04-26T10:32:43Z</time></trkpt><trkpt lat="45.912717822017406" lon="11.912131546526153"><ele>282.0</ele><time>2026-04-26T10:32:45Z</time></trkpt><trkpt lat="45.91269167898678" lon="11.912275690222154"><ele>281.75</ele><time>2026-04-26T10:32:47Z</time></trkpt><trkpt lat="45.91267186902407" lon="11.912432161697534"><ele>281.5</ele><time>2026-04-26T10:32:49Z</time></trkpt><trkpt lat="45.91262614311333" lon="11.91258395723919"><ele>281.25</ele><time>2026-04-26T10:32:51Z</time></trkpt><trkpt lat="45.9125624218611" lon="11.912719018339311"><ele>281.0</ele><time>2026-04-26T10:32:53Z</time></trkpt><trkpt lat="45.91249089696292" lon="11.912856363302778"><ele>280.00000000000006</ele><time>2026-04-26T10:32:55Z</time></trkpt><trkpt lat="45.91244830499392" lon="11.912940896292833"><ele>279.0</ele><time>2026-04-26T10:32:56Z</time></trkpt><trkpt lat="45.91239909580461" lon="11.913032279173597"><ele>278.0</ele><time>2026-04-26T10:32:57Z</time></trkpt><trkpt lat="45.9123440445009" lon="11.913115274658306"><ele>277.0</ele><time>2026-04-26T10:32:58Z</time></trkpt><trkpt lat="45.912298194163746" lon="11.913186188288229"><ele>276.0</ele><time>2026-04-26T10:32:59Z</time></trkpt><trkpt lat="45.91225113345721" lon="11.913256350718964"><ele>275.00000000000006</ele><time>2026-04-26T10:33:00Z</time></trkpt><trkpt lat="45.91220414468069" lon="11.913328791703503"><ele>274.0</ele><time>2026-04-26T10:33:01Z</time></trkpt><trkpt lat="45.91215532619815" lon="11.913399404316111"><ele>274.00000000000006</ele><time>2026-04-26T10:33:02Z</time></trkpt><trkpt lat="45.912106689571736" lon="11.91346827805483"><ele>274.0</ele><time>2026-04-26T10:33:03Z</time></trkpt><trkpt lat="45.91206701516118" lon="11.913547198703863"><ele>274.0</ele><time>2026-04-26T10:33:04Z</time></trkpt><trkpt lat="45.912028911850136" lon="11.913623373640466"><ele>274.0</ele><time>2026-04-26T10:33:05Z</time></trkpt><trkpt lat="45.91199390619965" lon="11.913703846425136"><ele>274.0</ele><time>2026-04-26T10:33:06Z</time></trkpt><trkpt lat="45.91197842229871" lon="11.913801187473176"><ele>274.00000000000006</ele><time>2026-04-26T10:33:07Z</time></trkpt><trkpt lat="45.911958097923616" lon="11.913891879926297"><ele>274.0</ele><time>2026-04-26T10:33:08Z</time></trkpt><trkpt lat="45.911943137380504" lon="11.913987502639168"><ele>274.0</ele><time>2026-04-26T10:33:09Z</time></trkpt><trkpt lat="45.91192261218856" lon="11.914089437104082"><ele>274.0</ele><time>2026-04-26T10:33:10Z</time></trkpt><trkpt lat="45.91192718868457" lon="11.914186425692257"><ele>274.0</ele><time>2026-04-26T10:33:11Z</time></trkpt><trkpt lat="45.91193842467256" lon="11.914277484941575"><ele>274.0</ele><time>2026-04-26T10:33:12Z</time></trkpt><trkpt lat="45.911976903252445" lon="11.914446714983711"><ele>274.0</ele><time>2026-04-26T10:33:14Z</time></trkpt><trkpt lat="45.911989858985656" lon="11.914545511845802"><ele>274.0</ele><time>2026-04-26T10:33:15Z</time></trkpt><trkpt lat="45.912003212154715" lon="11.91464166848302"><ele>273.8</ele><time>2026-04-26T10:33:16Z</time></trkpt><trkpt lat="45.91201069120223" lon="11.914731640724147"><ele>273.59999999999997</ele><time>2026-04-26T10:33:16.999Z</time></trkpt><trkpt lat="45.91204391891597" lon="11.914885447403957"><ele>273.4</ele><time>2026-04-26T10:33:18.999Z</time></trkpt><trkpt lat="45.912085255521134" lon="11.91502868404124"><ele>273.2</ele><time>2026-04-26T10:33:20.999Z</time></trkpt><trkpt lat="45.91211728891888" lon="11.915114140293234"><ele>273.0</ele><time>2026-04-26T10:33:21.999Z</time></trkpt><trkpt lat="45.91217970116642" lon="11.915287439890864"><ele>272.4</ele><time>2026-04-26T10:33:23.999Z</time></trkpt><trkpt lat="45.912218262786645" lon="11.91544908587113"><ele>271.8</ele><time>2026-04-26T10:33:25.999Z</time></trkpt><trkpt lat="45.91226436208803" lon="11.915569890651811"><ele>271.2</ele><time>2026-04-26T10:33:27.999Z</time></trkpt><trkpt lat="45.912198773094545" lon="11.915666421897503"><ele>270.6</ele><time>2026-04-26T10:33:29.999Z</time></trkpt><trkpt lat="45.91224731423704" lon="11.915731663911274"><ele>270.0</ele><time>2026-04-26T10:33:54Z</time></trkpt><trkpt lat="45.912297688205044" lon="11.915834416664591"><ele>269.4</ele><time>2026-04-26T10:33:57Z</time></trkpt><trkpt lat="45.912309232523455" lon="11.915954617561697"><ele>268.8</ele><time>2026-04-26T10:33:58Z</time></trkpt><trkpt lat="45.91242165916507" lon="11.916015654458658"><ele>268.2</ele><time>2026-04-26T10:34:00Z</time></trkpt><trkpt lat="45.912471278427304" lon="11.91609270029737"><ele>267.6</ele><time>2026-04-26T10:34:01Z</time></trkpt><trkpt lat="45.91255783193708" lon="11.9161612602345"><ele>267.0</ele><time>2026-04-26T10:34:02Z</time></trkpt><trkpt lat="45.91264629195014" lon="11.916248449917433"><ele>266.8333333333333</ele><time>2026-04-26T10:34:03Z</time></trkpt><trkpt lat="45.912722344748225" lon="11.916327801075441"><ele>266.6666666666667</ele><time>2026-04-26T10:34:04Z</time></trkpt><trkpt lat="45.912795723014405" lon="11.916408372596921"><ele>266.5</ele><time>2026-04-26T10:34:05Z</time></trkpt><trkpt lat="45.91285970423455" lon="11.916480354867387"><ele>266.33333333333337</ele><time>2026-04-26T10:34:06Z</time></trkpt><trkpt lat="45.91292177982803" lon="11.916550612767622"><ele>266.1666666666667</ele><time>2026-04-26T10:34:07Z</time></trkpt><trkpt lat="45.912983642889074" lon="11.916621267231536"><ele>266.0</ele><time>2026-04-26T10:34:08Z</time></trkpt><trkpt lat="45.91304284331294" lon="11.916688896327056"><ele>264.25</ele><time>2026-04-26T10:34:09Z</time></trkpt><trkpt lat="45.91314840467599" lon="11.91681479328517"><ele>262.5</ele><time>2026-04-26T10:34:11Z</time></trkpt><trkpt lat="45.91321369503263" lon="11.9169125217755"><ele>260.75</ele><time>2026-04-26T10:34:13Z</time></trkpt><trkpt lat="45.91327129789474" lon="11.916980061786509"><ele>259.0</ele><time>2026-04-26T10:34:15Z</time></trkpt><trkpt lat="45.91341715674977" lon="11.91684255022436"><ele>256.59999999999997</ele><time>2026-04-26T10:34:21Z</time></trkpt><trkpt lat="45.91348456341709" lon="11.916807665508202"><ele>254.2</ele><time>2026-04-26T10:34:22Z</time></trkpt><trkpt lat="45.913547663965055" lon="11.91673179168675"><ele>251.79999999999998</ele><time>2026-04-26T10:34:23Z</time></trkpt><trkpt lat="45.91360481531511" lon="11.916648986542711"><ele>249.39999999999998</ele><time>2026-04-26T10:34:24Z</time></trkpt><trkpt lat="45.913680163238276" lon="11.916497910119979"><ele>247.0</ele><time>2026-04-26T10:34:25Z</time></trkpt><trkpt lat="45.91377212531785" lon="11.916350558886009"><ele>247.0</ele><time>2026-04-26T10:34:26Z</time></trkpt><trkpt lat="45.91382142404175" lon="11.916216508088363"><ele>247.0</ele><time>2026-04-26T10:34:27Z</time></trkpt><trkpt lat="45.91387986155236" lon="11.91611814548885"><ele>247.0</ele><time>2026-04-26T10:34:28Z</time></trkpt><trkpt lat="45.91393332736837" lon="11.916010312188787"><ele>247.0</ele><time>2026-04-26T10:34:29Z</time></trkpt><trkpt lat="45.91398547596021" lon="11.915903359244847"><ele>247.0</ele><time>2026-04-26T10:34:30Z</time></trkpt><trkpt lat="45.91404806875642" lon="11.915800730194485"><ele>246.6</ele><time>2026-04-26T10:34:31Z</time></trkpt><trkpt lat="45.914116082119634" lon="11.91569064773282"><ele>246.2</ele><time>2026-04-26T10:34:32Z</time></trkpt><trkpt lat="45.91417786980166" lon="11.915604509227546"><ele>245.8</ele><time>2026-04-26T10:34:33Z</time></trkpt><trkpt lat="45.914267768983365" lon="11.915481890273966"><ele>245.4</ele><time>2026-04-26T10:34:34Z</time></trkpt><trkpt lat="45.914361826495536" lon="11.915353599918705"><ele>245.0</ele><time>2026-04-26T10:34:35Z</time></trkpt><trkpt lat="45.914468393214825" lon="11.915206000239223"><ele>245.0</ele><time>2026-04-26T10:34:36Z</time></trkpt><trkpt lat="45.914558462727825" lon="11.915079346595347"><ele>245.0</ele><time>2026-04-26T10:34:37Z</time></trkpt><trkpt lat="45.914674936956175" lon="11.914917562265932"><ele>245.0</ele><time>2026-04-26T10:34:38Z</time></trkpt><trkpt lat="45.91474619770417" lon="11.914820449361242"><ele>245.0</ele><time>2026-04-26T10:34:39Z</time></trkpt><trkpt lat="45.914816771201075" lon="11.914730385948173"><ele>246.2</ele><time>2026-04-26T10:34:40Z</time></trkpt><trkpt lat="45.91489350469005" lon="11.91465023434449"><ele>247.4</ele><time>2026-04-26T10:34:41Z</time></trkpt><trkpt lat="45.91497925393609" lon="11.914636411710031"><ele>248.60000000000002</ele><time>2026-04-26T10:34:42Z</time></trkpt><trkpt lat="45.91509741435166" lon="11.914658649020124"><ele>249.8</ele><time>2026-04-26T10:34:43Z</time></trkpt><trkpt lat="45.9151822581765" lon="11.91475190661921"><ele>251.0</ele><time>2026-04-26T10:34:44Z</time></trkpt><trkpt lat="45.91524202398898" lon="11.914824076040102"><ele>251.00000000000003</ele><time>2026-04-26T10:34:45Z</time></trkpt><trkpt lat="45.915297958063896" lon="11.91489689453953"><ele>251.0</ele><time>2026-04-26T10:34:46Z</time></trkpt><trkpt lat="45.91536666431461" lon="11.914988387578411"><ele>251.0</ele><time>2026-04-26T10:34:47Z</time></trkpt><trkpt lat="45.915412718698015" lon="11.91507897230245"><ele>251.0</ele><time>2026-04-26T10:34:48Z</time></trkpt><trkpt lat="45.91548590048072" lon="11.915133976475538"><ele>251.00000000000003</ele><time>2026-04-26T10:34:49Z</time></trkpt><trkpt lat="45.91554541667839" lon="11.915206896723344"><ele>251.0</ele><time>2026-04-26T10:34:50Z</time></trkpt><trkpt lat="45.91559734960357" lon="11.91527068031775"><ele>251.33333333333334</ele><time>2026-04-26T10:34:51Z</time></trkpt><trkpt lat="45.91569232775394" lon="11.915408642011663"><ele>251.66666666666669</ele><time>2026-04-26T10:34:53Z</time></trkpt><trkpt lat="45.9157405276821" lon="11.91546880435432"><ele>252.0</ele><time>2026-04-26T10:34:54Z</time></trkpt><trkpt lat="45.91578565912273" lon="11.915534955058078"><ele>252.33333333333331</ele><time>2026-04-26T10:34:55Z</time></trkpt><trkpt lat="45.9158327180696" lon="11.915598831464408"><ele>252.66666666666666</ele><time>2026-04-26T10:34:56Z</time></trkpt><trkpt lat="45.91587217184881" lon="11.915690733870054"><ele>253.0</ele><time>2026-04-26T10:34:57Z</time></trkpt><trkpt lat="45.91589391022503" lon="11.915801735046212"><ele>254.83333333333331</ele><time>2026-04-26T10:34:58Z</time></trkpt><trkpt lat="45.915862212530484" lon="11.915907829516566"><ele>256.66666666666663</ele><time>2026-04-26T10:34:59Z</time></trkpt><trkpt lat="45.915823912624205" lon="11.916017807201634"><ele>258.5</ele><time>2026-04-26T10:35:00Z</time></trkpt><trkpt lat="45.915778856786254" lon="11.916109646524767"><ele>260.3333333333333</ele><time>2026-04-26T10:35:01Z</time></trkpt><trkpt lat="45.915756212937566" lon="11.916206256359459"><ele>262.1666666666667</ele><time>2026-04-26T10:35:02Z</time></trkpt><trkpt lat="45.91571756777148" lon="11.916299782068885"><ele>264.0</ele><time>2026-04-26T10:35:03Z</time></trkpt><trkpt lat="45.91567964631687" lon="11.916390672600272"><ele>264.0</ele><time>2026-04-26T10:35:04Z</time></trkpt><trkpt lat="45.91566340527712" lon="11.916497762794252"><ele>264.0</ele><time>2026-04-26T10:35:05Z</time></trkpt><trkpt lat="45.9156342346661" lon="11.916590147734098"><ele>264.0</ele><time>2026-04-26T10:35:06Z</time></trkpt><trkpt lat="45.915611841612" lon="11.916674920729646"><ele>264.0</ele><time>2026-04-26T10:35:07Z</time></trkpt><trkpt lat="45.9155852701548" lon="11.916781936906228"><ele>264.0</ele><time>2026-04-26T10:35:08Z</time></trkpt><trkpt lat="45.9155544097222" lon="11.916879959759445"><ele>264.0</ele><time>2026-04-26T10:35:09Z</time></trkpt><trkpt lat="45.91551413852928" lon="11.916998236120692"><ele>264.6666666666667</ele><time>2026-04-26T10:35:10Z</time></trkpt><trkpt lat="45.915477259271626" lon="11.917119633949827"><ele>265.3333333333333</ele><time>2026-04-26T10:35:11Z</time></trkpt><trkpt lat="45.91544940197364" lon="11.917232766123284"><ele>266.0</ele><time>2026-04-26T10:35:12Z</time></trkpt><trkpt lat="45.91541999385515" lon="11.917349371210056"><ele>266.66666666666663</ele><time>2026-04-26T10:35:13Z</time></trkpt><trkpt lat="45.91540280496529" lon="11.91746941234333"><ele>267.3333333333333</ele><time>2026-04-26T10:35:14Z</time></trkpt><trkpt lat="45.91539323741169" lon="11.917575367447334"><ele>268.0</ele><time>2026-04-26T10:35:15Z</time></trkpt><trkpt lat="45.91538122818519" lon="11.917681243444672"><ele>268.66666666666663</ele><time>2026-04-26T10:35:16Z</time></trkpt><trkpt lat="45.91536320995441" lon="11.91778268563087"><ele>269.3333333333333</ele><time>2026-04-26T10:35:17Z</time></trkpt><trkpt lat="45.91534931892199" lon="11.917893758335873"><ele>270.0</ele><time>2026-04-26T10:35:18Z</time></trkpt><trkpt lat="45.915334448706396" lon="11.918001822810476"><ele>270.6666666666667</ele><time>2026-04-26T10:35:19Z</time></trkpt><trkpt lat="45.91531525604407" lon="11.91810780402713"><ele>271.33333333333337</ele><time>2026-04-26T10:35:20Z</time></trkpt><trkpt lat="45.91530420783624" lon="11.918212634808063"><ele>272.0</ele><time>2026-04-26T10:35:21Z</time></trkpt><trkpt lat="45.915289944652166" lon="11.91832598086179"><ele>271.99999999999994</ele><time>2026-04-26T10:35:22Z</time></trkpt><trkpt lat="45.91528318722831" lon="11.918417372291506"><ele>272.0</ele><time>2026-04-26T10:35:23Z</time></trkpt><trkpt lat="45.915269799860695" lon="11.918508402680526"><ele>272.0</ele><time>2026-04-26T10:35:24Z</time></trkpt><trkpt lat="45.91524699620115" lon="11.918603744937657"><ele>272.0</ele><time>2026-04-26T10:35:25Z</time></trkpt><trkpt lat="45.91523135347284" lon="11.918701661607978"><ele>272.0</ele><time>2026-04-26T10:35:26Z</time></trkpt><trkpt lat="45.91521910136637" lon="11.918793515312073"><ele>271.99999999999994</ele><time>2026-04-26T10:35:27Z</time></trkpt><trkpt lat="45.915207238104365" lon="11.918889127669711"><ele>272.0</ele><time>2026-04-26T10:35:28Z</time></trkpt><trkpt lat="45.91519471790562" lon="11.918983433475738"><ele>272.0</ele><time>2026-04-26T10:35:29Z</time></trkpt><trkpt lat="45.91521071044504" lon="11.919143087260027"><ele>272.0</ele><time>2026-04-26T10:35:31Z</time></trkpt><trkpt lat="45.9152545164965" lon="11.919295251307123"><ele>272.0</ele><time>2026-04-26T10:35:33Z</time></trkpt><trkpt lat="45.915275531444806" lon="11.91938393433212"><ele>272.0</ele><time>2026-04-26T10:35:34Z</time></trkpt><trkpt lat="45.91530241175782" lon="11.919489727560485"><ele>272.0</ele><time>2026-04-26T10:35:35Z</time></trkpt><trkpt lat="45.915336275332564" lon="11.919573064833587"><ele>272.0</ele><time>2026-04-26T10:35:36Z</time></trkpt><trkpt lat="45.91537137413549" lon="11.919648709197022"><ele>271.4</ele><time>2026-04-26T10:35:37Z</time></trkpt><trkpt lat="45.91544904393807" lon="11.919709080647962"><ele>270.79999999999995</ele><time>2026-04-26T10:35:38Z</time></trkpt><trkpt lat="45.9154894894693" lon="11.919780648792992"><ele>270.2</ele><time>2026-04-26T10:35:39Z</time></trkpt><trkpt lat="45.91557025097353" lon="11.919920805815808"><ele>269.59999999999997</ele><time>2026-04-26T10:35:41Z</time></trkpt><trkpt lat="45.91564455079513" lon="11.920049746634584"><ele>269.0</ele><time>2026-04-26T10:35:43Z</time></trkpt><trkpt lat="45.91571051079138" lon="11.920165406730538"><ele>269.4</ele><time>2026-04-26T10:35:45Z</time></trkpt><trkpt lat="45.915782390566605" lon="11.920301665586221"><ele>269.79999999999995</ele><time>2026-04-26T10:35:47Z</time></trkpt><trkpt lat="45.91586261845695" lon="11.92033180209667"><ele>270.20000000000005</ele><time>2026-04-26T10:35:49Z</time></trkpt><trkpt lat="45.91595148717198" lon="11.920203449656038"><ele>270.6</ele><time>2026-04-26T10:35:50.999Z</time></trkpt><trkpt lat="45.91600729953802" lon="11.920138016565044"><ele>271.0</ele><time>2026-04-26T10:35:51.999Z</time></trkpt><trkpt lat="45.916054939216416" lon="11.92006638473144"><ele>271.0</ele><time>2026-04-26T10:35:52.999Z</time></trkpt><trkpt lat="45.91610775822953" lon="11.919986965189457"><ele>271.0</ele><time>2026-04-26T10:35:53.999Z</time></trkpt><trkpt lat="45.91615704974454" lon="11.919912849667975"><ele>271.0</ele><time>2026-04-26T10:35:55Z</time></trkpt><trkpt lat="45.91621604975303" lon="11.919823791128577"><ele>271.0</ele><time>2026-04-26T10:35:56Z</time></trkpt><trkpt lat="45.91626762668149" lon="11.919745196190204"><ele>271.0</ele><time>2026-04-26T10:35:57Z</time></trkpt><trkpt lat="45.916313609130015" lon="11.919651195035632"><ele>271.0</ele><time>2026-04-26T10:35:58Z</time></trkpt><trkpt lat="45.916377162289216" lon="11.91957828142412"><ele>271.0</ele><time>2026-04-26T10:35:59Z</time></trkpt><trkpt lat="45.916426694061094" lon="11.919502802842615"><ele>271.0</ele><time>2026-04-26T10:36:00Z</time></trkpt><trkpt lat="45.91647532147699" lon="11.919428702498164"><ele>271.0</ele><time>2026-04-26T10:36:01Z</time></trkpt><trkpt lat="45.916537284738624" lon="11.919339480937937"><ele>271.0</ele><time>2026-04-26T10:36:02Z</time></trkpt><trkpt lat="45.91659471657609" lon="11.919274918785646"><ele>271.0</ele><time>2026-04-26T10:36:03Z</time></trkpt><trkpt lat="45.916644643005036" lon="11.919194119266772"><ele>271.0</ele><time>2026-04-26T10:36:04Z</time></trkpt><trkpt lat="45.91668680193284" lon="11.919107456908991"><ele>271.16666666666663</ele><time>2026-04-26T10:36:05Z</time></trkpt><trkpt lat="45.916735947642266" lon="11.91903306166471"><ele>271.3333333333333</ele><time>2026-04-26T10:36:06Z</time></trkpt><trkpt lat="45.91680143259034" lon="11.918921368216424"><ele>271.5</ele><time>2026-04-26T10:36:08Z</time></trkpt><trkpt lat="45.9168478135753" lon="11.91885440444284"><ele>271.6666666666667</ele><time>2026-04-26T10:36:09Z</time></trkpt><trkpt lat="45.916905718643434" lon="11.918758513429973"><ele>271.83333333333337</ele><time>2026-04-26T10:36:11Z</time></trkpt><trkpt lat="45.9169825641295" lon="11.918642418566007"><ele>272.0</ele><time>2026-04-26T10:36:13Z</time></trkpt><trkpt lat="45.917028134399494" lon="11.9185718057891"><ele>272.0</ele><time>2026-04-26T10:36:14Z</time></trkpt><trkpt lat="45.91710166130973" lon="11.918439143067623"><ele>272.0</ele><time>2026-04-26T10:36:16Z</time></trkpt><trkpt lat="45.9171776518481" lon="11.918340159249347"><ele>272.0</ele><time>2026-04-26T10:36:18Z</time></trkpt><trkpt lat="45.91724355416935" lon="11.91826224342451"><ele>272.0</ele><time>2026-04-26T10:36:21Z</time></trkpt><trkpt lat="45.91735069775728" lon="11.918236719435226"><ele>272.0</ele><time>2026-04-26T10:36:23Z</time></trkpt><trkpt lat="45.917392807519704" lon="11.91812495815433"><ele>272.2</ele><time>2026-04-26T10:36:24Z</time></trkpt><trkpt lat="45.91742988657019" lon="11.917959343324636"><ele>272.4</ele><time>2026-04-26T10:36:26Z</time></trkpt><trkpt lat="45.917481132137496" lon="11.917879799871864"><ele>272.6</ele><time>2026-04-26T10:36:27Z</time></trkpt><trkpt lat="45.91753682418439" lon="11.917759916084412"><ele>272.8</ele><time>2026-04-26T10:36:28Z</time></trkpt><trkpt lat="45.917611875276336" lon="11.917662384620025"><ele>273.0</ele><time>2026-04-26T10:36:29Z</time></trkpt><trkpt lat="45.917686522419075" lon="11.917594043294494"><ele>274.4</ele><time>2026-04-26T10:36:30Z</time></trkpt><trkpt lat="45.91777880586432" lon="11.917505289631988"><ele>275.8</ele><time>2026-04-26T10:36:31Z</time></trkpt><trkpt lat="45.91785734170378" lon="11.91742631074997"><ele>277.2</ele><time>2026-04-26T10:36:32Z</time></trkpt><trkpt lat="45.91792278013966" lon="11.917335316825678"><ele>278.6</ele><time>2026-04-26T10:36:33Z</time></trkpt><trkpt lat="45.9179934279024" lon="11.91727192963089"><ele>280.0</ele><time>2026-04-26T10:36:34Z</time></trkpt><trkpt lat="45.918059396367504" lon="11.917195371237884"><ele>280.0</ele><time>2026-04-26T10:36:35Z</time></trkpt><trkpt lat="45.91813860357104" lon="11.91713796238881"><ele>280.0</ele><time>2026-04-26T10:36:36Z</time></trkpt><trkpt lat="45.91822049110317" lon="11.917051502665153"><ele>280.0</ele><time>2026-04-26T10:36:37Z</time></trkpt><trkpt lat="45.918305777319645" lon="11.91696107892321"><ele>280.0</ele><time>2026-04-26T10:36:38Z</time></trkpt><trkpt lat="45.91838453544501" lon="11.916901750336875"><ele>280.0</ele><time>2026-04-26T10:36:39Z</time></trkpt><trkpt lat="45.918455921685315" lon="11.916876309839854"><ele>281.8</ele><time>2026-04-26T10:36:40Z</time></trkpt><trkpt lat="45.918553994125766" lon="11.916922582211466"><ele>283.6</ele><time>2026-04-26T10:36:41Z</time></trkpt><trkpt lat="45.918647828450204" lon="11.917000499668944"><ele>285.4</ele><time>2026-04-26T10:36:42Z</time></trkpt><trkpt lat="45.91872017679618" lon="11.917130198434554"><ele>287.2</ele><time>2026-04-26T10:36:43Z</time></trkpt><trkpt lat="45.918797185973425" lon="11.917234495186143"><ele>289.0</ele><time>2026-04-26T10:36:44Z</time></trkpt><trkpt lat="45.918842910111245" lon="11.917326784731564"><ele>289.0</ele><time>2026-04-26T10:36:45Z</time></trkpt><trkpt lat="45.918924219656795" lon="11.917406537190518"><ele>289.0</ele><time>2026-04-26T10:36:46Z</time></trkpt><trkpt lat="45.919037394489486" lon="11.917504292065702"><ele>289.0</ele><time>2026-04-26T10:36:48Z</time></trkpt><trkpt lat="45.91909223413616" lon="11.917552904794086"><ele>289.0</ele><time>2026-04-26T10:36:49Z</time></trkpt><trkpt lat="45.919197502846835" lon="11.91765601865227"><ele>289.0</ele><time>2026-04-26T10:36:51Z</time></trkpt><trkpt lat="45.91923786305212" lon="11.917740489922744"><ele>288.42857142857144</ele><time>2026-04-26T10:36:52Z</time></trkpt><trkpt lat="45.9192708768508" lon="11.917829057141304"><ele>287.85714285714283</ele><time>2026-04-26T10:36:53Z</time></trkpt><trkpt lat="45.91930209326349" lon="11.917918932763895"><ele>287.2857142857143</ele><time>2026-04-26T10:36:54Z</time></trkpt><trkpt lat="45.919330194594245" lon="11.918000846357582"><ele>286.7142857142857</ele><time>2026-04-26T10:36:55Z</time></trkpt><trkpt lat="45.919360403153135" lon="11.918105127228786"><ele>286.14285714285717</ele><time>2026-04-26T10:36:56Z</time></trkpt><trkpt lat="45.919415735760005" lon="11.918184796624846"><ele>285.57142857142856</ele><time>2026-04-26T10:36:57Z</time></trkpt><trkpt lat="45.91946577081198" lon="11.918270255272658"><ele>285.0</ele><time>2026-04-26T10:36:58Z</time></trkpt><trkpt lat="45.919515700814216" lon="11.918332958860061"><ele>285.0</ele><time>2026-04-26T10:36:59Z</time></trkpt><trkpt lat="45.91960618088192" lon="11.91843022665125"><ele>285.0</ele><time>2026-04-26T10:37:01Z</time></trkpt><trkpt lat="45.91971648913008" lon="11.91849171586505"><ele>285.0</ele><time>2026-04-26T10:37:03Z</time></trkpt><trkpt lat="45.919817387215275" lon="11.918455994148543"><ele>285.0</ele><time>2026-04-26T10:37:05Z</time></trkpt><trkpt lat="45.91987640210058" lon="11.918394729624916"><ele>285.0</ele><time>2026-04-26T10:37:06Z</time></trkpt><trkpt lat="45.91997597379692" lon="11.918293715150757"><ele>285.0</ele><time>2026-04-26T10:37:08Z</time></trkpt><trkpt lat="45.92003118990128" lon="11.918225018376228"><ele>285.0</ele><time>2026-04-26T10:37:09Z</time></trkpt><trkpt lat="45.92009580284868" lon="11.918196957473784"><ele>285.0</ele><time>2026-04-26T10:37:10Z</time></trkpt><trkpt lat="45.920165860588284" lon="11.918197302939582"><ele>285.0</ele><time>2026-04-26T10:37:11Z</time></trkpt><trkpt lat="45.92024604859031" lon="11.918214795582713"><ele>285.0</ele><time>2026-04-26T10:37:12Z</time></trkpt><trkpt lat="45.9203644625411" lon="11.918243480616063"><ele>285.0</ele><time>2026-04-26T10:37:13Z</time></trkpt><trkpt lat="45.9204457181306" lon="11.918247061099727"><ele>283.1428571428571</ele><time>2026-04-26T10:37:14Z</time></trkpt><trkpt lat="45.92052802455906" lon="11.918250924079231"><ele>281.2857142857143</ele><time>2026-04-26T10:37:15Z</time></trkpt><trkpt lat="45.92059677325609" lon="11.918250316156746"><ele>279.42857142857144</ele><time>2026-04-26T10:37:16Z</time></trkpt><trkpt lat="45.92067029973456" lon="11.918235215448872"><ele>277.57142857142856</ele><time>2026-04-26T10:37:17Z</time></trkpt><trkpt lat="45.92074316212621" lon="11.918199098786246"><ele>275.7142857142857</ele><time>2026-04-26T10:37:18Z</time></trkpt><trkpt lat="45.92080836869756" lon="11.918159355905438"><ele>273.85714285714283</ele><time>2026-04-26T10:37:19Z</time></trkpt><trkpt lat="45.920876125381945" lon="11.918116636809893"><ele>272.0</ele><time>2026-04-26T10:37:20Z</time></trkpt><trkpt lat="45.92094011328598" lon="11.918072377044062"><ele>268.83333333333337</ele><time>2026-04-26T10:37:21Z</time></trkpt><trkpt lat="45.92100340980038" lon="11.918030517843553"><ele>265.6666666666667</ele><time>2026-04-26T10:37:22Z</time></trkpt><trkpt lat="45.92106594343607" lon="11.918003261537486"><ele>262.5</ele><time>2026-04-26T10:37:23Z</time></trkpt><trkpt lat="45.921140883807446" lon="11.917966948194882"><ele>259.3333333333333</ele><time>2026-04-26T10:37:24Z</time></trkpt><trkpt lat="45.921213872630595" lon="11.917916537216628"><ele>256.16666666666663</ele><time>2026-04-26T10:37:25Z</time></trkpt><trkpt lat="45.92129487316419" lon="11.917892903796366"><ele>253.0</ele><time>2026-04-26T10:37:26Z</time></trkpt><trkpt lat="45.921357928005534" lon="11.917818213066276"><ele>253.00000000000003</ele><time>2026-04-26T10:37:27Z</time></trkpt><trkpt lat="45.92142381999766" lon="11.917761422425897"><ele>253.0</ele><time>2026-04-26T10:37:28Z</time></trkpt><trkpt lat="45.92148283947996" lon="11.917698564093746"><ele>253.00000000000003</ele><time>2026-04-26T10:37:29Z</time></trkpt><trkpt lat="45.921544004304444" lon="11.917641220535952"><ele>253.00000000000003</ele><time>2026-04-26T10:37:30Z</time></trkpt><trkpt lat="45.92160233586286" lon="11.917583982268786"><ele>253.0</ele><time>2026-04-26T10:37:31Z</time></trkpt><trkpt lat="45.9216563894651" lon="11.917533026367433"><ele>253.00000000000003</ele><time>2026-04-26T10:37:32Z</time></trkpt><trkpt lat="45.921707316246234" lon="11.917475031779878"><ele>253.00000000000003</ele><time>2026-04-26T10:37:33Z</time></trkpt><trkpt lat="45.921757873414485" lon="11.917418959251581"><ele>251.33333333333331</ele><time>2026-04-26T10:37:34Z</time></trkpt><trkpt lat="45.921822551159806" lon="11.917364199525128"><ele>249.66666666666666</ele><time>2026-04-26T10:37:35Z</time></trkpt><trkpt lat="45.921880438491186" lon="11.917290858313043"><ele>248.0</ele><time>2026-04-26T10:37:36Z</time></trkpt><trkpt lat="45.921939621117765" lon="11.917219263009153"><ele>246.33333333333331</ele><time>2026-04-26T10:37:37Z</time></trkpt><trkpt lat="45.92200027026868" lon="11.917129556612563"><ele>244.66666666666666</ele><time>2026-04-26T10:37:38Z</time></trkpt><trkpt lat="45.92206495929124" lon="11.917059377514063"><ele>243.0</ele><time>2026-04-26T10:37:39Z</time></trkpt><trkpt lat="45.922144686447226" lon="11.916999285955022"><ele>243.0</ele><time>2026-04-26T10:37:40Z</time></trkpt><trkpt lat="45.9222519830053" lon="11.91690359752761"><ele>243.0</ele><time>2026-04-26T10:37:42Z</time></trkpt><trkpt lat="45.922313864424595" lon="11.91684425878858"><ele>243.0</ele><time>2026-04-26T10:37:43Z</time></trkpt><trkpt lat="45.92236451208748" lon="11.916750533037035"><ele>243.0</ele><time>2026-04-26T10:37:44Z</time></trkpt><trkpt lat="45.92239295575759" lon="11.916642544661334"><ele>243.0</ele><time>2026-04-26T10:37:45Z</time></trkpt><trkpt lat="45.9224832717436" lon="11.916600539984934"><ele>245.75</ele><time>2026-04-26T10:37:46Z</time></trkpt><trkpt lat="45.922588005884904" lon="11.916633961992996"><ele>248.5</ele><time>2026-04-26T10:37:47Z</time></trkpt><trkpt lat="45.922686453244516" lon="11.916571472536274"><ele>251.25</ele><time>2026-04-26T10:37:48Z</time></trkpt><trkpt lat="45.922786344692334" lon="11.916491569839879"><ele>254.0</ele><time>2026-04-26T10:37:49Z</time></trkpt><trkpt lat="45.92288275316747" lon="11.916386894486054"><ele>254.0</ele><time>2026-04-26T10:37:50Z</time></trkpt><trkpt lat="45.92298055601669" lon="11.916305398904655"><ele>253.99999999999997</ele><time>2026-04-26T10:37:51Z</time></trkpt><trkpt lat="45.923059900583674" lon="11.916259172505482"><ele>253.99999999999997</ele><time>2026-04-26T10:37:52Z</time></trkpt><trkpt lat="45.92313173583121" lon="11.916169451333344"><ele>254.0</ele><time>2026-04-26T10:37:53Z</time></trkpt><trkpt lat="45.923215764525565" lon="11.916102634488096"><ele>254.0</ele><time>2026-04-26T10:37:54Z</time></trkpt><trkpt lat="45.92329901480837" lon="11.916053631379663"><ele>254.00000000000003</ele><time>2026-04-26T10:37:55Z</time></trkpt><trkpt lat="45.92337277651512" lon="11.91599912878289"><ele>254.0</ele><time>2026-04-26T10:37:56Z</time></trkpt><trkpt lat="45.92345436681595" lon="11.91594508246856"><ele>254.0</ele><time>2026-04-26T10:37:57Z</time></trkpt><trkpt lat="45.92353235674947" lon="11.915888753053276"><ele>254.0</ele><time>2026-04-26T10:37:58Z</time></trkpt><trkpt lat="45.92362102309168" lon="11.915850337775757"><ele>254.00000000000003</ele><time>2026-04-26T10:37:59Z</time></trkpt><trkpt lat="45.9236859143012" lon="11.915750596460878"><ele>254.0</ele><time>2026-04-26T10:38:00Z</time></trkpt><trkpt lat="45.923758489511066" lon="11.915684615421991"><ele>253.83333333333334</ele><time>2026-04-26T10:38:01Z</time></trkpt><trkpt lat="45.923824167382186" lon="11.915623700309062"><ele>253.66666666666669</ele><time>2026-04-26T10:38:02Z</time></trkpt><trkpt lat="45.92390294352986" lon="11.91555781554421"><ele>253.5</ele><time>2026-04-26T10:38:03Z</time></trkpt><trkpt lat="45.92397966230991" lon="11.915506988763752"><ele>253.33333333333331</ele><time>2026-04-26T10:38:04Z</time></trkpt><trkpt lat="45.92405804371712" lon="11.915458861564579"><ele>253.16666666666666</ele><time>2026-04-26T10:38:05Z</time></trkpt><trkpt lat="45.924139066839224" lon="11.915414955691622"><ele>253.0</ele><time>2026-04-26T10:38:06Z</time></trkpt><trkpt lat="45.92422999475303" lon="11.915369399004463"><ele>250.0</ele><time>2026-04-26T10:38:07Z</time></trkpt><trkpt lat="45.92432038976036" lon="11.91532347942003"><ele>247.0</ele><time>2026-04-26T10:38:08Z</time></trkpt><trkpt lat="45.92440616659842" lon="11.915270284038328"><ele>244.0</ele><time>2026-04-26T10:38:09Z</time></trkpt><trkpt lat="45.92449038361649" lon="11.915214394765261"><ele>241.0</ele><time>2026-04-26T10:38:10Z</time></trkpt><trkpt lat="45.924583748964764" lon="11.915170960013272"><ele>238.0</ele><time>2026-04-26T10:38:11Z</time></trkpt><trkpt lat="45.92466362003852" lon="11.91512260493662"><ele>237.99999999999997</ele><time>2026-04-26T10:38:12Z</time></trkpt><trkpt lat="45.924739133637836" lon="11.915078329906033"><ele>238.0</ele><time>2026-04-26T10:38:13Z</time></trkpt><trkpt lat="45.924791406227016" lon="11.915017060757942"><ele>238.0</ele><time>2026-04-26T10:38:14Z</time></trkpt><trkpt lat="45.92484731615189" lon="11.914926409853182"><ele>238.0</ele><time>2026-04-26T10:38:15Z</time></trkpt><trkpt lat="45.9249005394544" lon="11.914849517458048"><ele>237.99999999999997</ele><time>2026-04-26T10:38:16Z</time></trkpt><trkpt lat="45.924940500477554" lon="11.914764855689144"><ele>238.0</ele><time>2026-04-26T10:38:17Z</time></trkpt><trkpt lat="45.92499465817894" lon="11.914679787095213"><ele>237.71428571428572</ele><time>2026-04-26T10:38:18Z</time></trkpt><trkpt lat="45.92503976538366" lon="11.914595037522801"><ele>237.42857142857144</ele><time>2026-04-26T10:38:19Z</time></trkpt><trkpt lat="45.925079961121845" lon="11.914511537008067"><ele>237.14285714285714</ele><time>2026-04-26T10:38:20Z</time></trkpt><trkpt lat="45.92510308311335" lon="11.91440471390558"><ele>236.85714285714286</ele><time>2026-04-26T10:38:21Z</time></trkpt><trkpt lat="45.92514724050065" lon="11.914314067363271"><ele>236.57142857142858</ele><time>2026-04-26T10:38:22Z</time></trkpt><trkpt lat="45.92519208294639" lon="11.914224681507807"><ele>236.28571428571428</ele><time>2026-04-26T10:38:23Z</time></trkpt><trkpt lat="45.925227982894775" lon="11.91414058112788"><ele>236.0</ele><time>2026-04-26T10:38:24Z</time></trkpt><trkpt lat="45.92526580116555" lon="11.91404328969184"><ele>239.00000000000003</ele><time>2026-04-26T10:38:25Z</time></trkpt><trkpt lat="45.92532256024326" lon="11.913977492715079"><ele>242.0</ele><time>2026-04-26T10:38:26Z</time></trkpt><trkpt lat="45.925374157673005" lon="11.913924633591064"><ele>245.0</ele><time>2026-04-26T10:38:27Z</time></trkpt><trkpt lat="45.92543872160837" lon="11.913794456960561"><ele>248.0</ele><time>2026-04-26T10:38:29Z</time></trkpt><trkpt lat="45.92547934507947" lon="11.913709850133522"><ele>251.00000000000003</ele><time>2026-04-26T10:38:30Z</time></trkpt><trkpt lat="45.925541368839546" lon="11.913556362263796"><ele>254.0</ele><time>2026-04-26T10:38:32Z</time></trkpt><trkpt lat="45.925626850820215" lon="11.913431855806401"><ele>255.2</ele><time>2026-04-26T10:38:34Z</time></trkpt><trkpt lat="45.92567787711144" lon="11.913364851358493"><ele>256.4</ele><time>2026-04-26T10:38:35Z</time></trkpt><trkpt lat="45.92578350265609" lon="11.913284805450811"><ele>257.6</ele><time>2026-04-26T10:38:37Z</time></trkpt><trkpt lat="45.92586223818031" lon="11.913309509969404"><ele>258.8</ele><time>2026-04-26T10:38:38Z</time></trkpt><trkpt lat="45.92592423018433" lon="11.91333037534144"><ele>260.0</ele><time>2026-04-26T10:38:39Z</time></trkpt><trkpt lat="45.92605265673722" lon="11.913386461437897"><ele>260.0</ele><time>2026-04-26T10:38:41Z</time></trkpt><trkpt lat="45.926122452972066" lon="11.91338678702842"><ele>260.0</ele><time>2026-04-26T10:38:42Z</time></trkpt><trkpt lat="45.926196884464225" lon="11.913358599221068"><ele>260.0</ele><time>2026-04-26T10:38:43Z</time></trkpt><trkpt lat="45.92626697474092" lon="11.91329995975816"><ele>260.0</ele><time>2026-04-26T10:38:44Z</time></trkpt><trkpt lat="45.92632492275006" lon="11.913216585388598"><ele>260.0</ele><time>2026-04-26T10:38:45Z</time></trkpt><trkpt lat="45.926392042391974" lon="11.913156582255867"><ele>260.0</ele><time>2026-04-26T10:38:46Z</time></trkpt><trkpt lat="45.92645798527432" lon="11.91307616144269"><ele>260.0</ele><time>2026-04-26T10:38:47Z</time></trkpt><trkpt lat="45.92652191184054" lon="11.912998202188719"><ele>260.0</ele><time>2026-04-26T10:38:48Z</time></trkpt><trkpt lat="45.9265856830351" lon="11.912913145463257"><ele>260.0</ele><time>2026-04-26T10:38:49Z</time></trkpt><trkpt lat="45.92662186142105" lon="11.912831460740863"><ele>260.0</ele><time>2026-04-26T10:38:50Z</time></trkpt><trkpt lat="45.92667816056487" lon="11.912760538574904"><ele>260.0</ele><time>2026-04-26T10:38:51Z</time></trkpt><trkpt lat="45.92673144415353" lon="11.912692229611919"><ele>260.0</ele><time>2026-04-26T10:38:52Z</time></trkpt><trkpt lat="45.92677904652067" lon="11.912621460298682"><ele>260.0</ele><time>2026-04-26T10:38:53Z</time></trkpt><trkpt lat="45.92683592834119" lon="11.912547200874151"><ele>260.0</ele><time>2026-04-26T10:38:54Z</time></trkpt><trkpt lat="45.926890527470604" lon="11.912476802731488"><ele>260.0</ele><time>2026-04-26T10:38:55Z</time></trkpt><trkpt lat="45.92696321411925" lon="11.912407798178696"><ele>260.0</ele><time>2026-04-26T10:38:56Z</time></trkpt><trkpt lat="45.927033197897174" lon="11.912353700074483"><ele>260.0</ele><time>2026-04-26T10:38:57Z</time></trkpt><trkpt lat="45.927103936593305" lon="11.91229563805509"><ele>260.0</ele><time>2026-04-26T10:38:58Z</time></trkpt><trkpt lat="45.92715830412971" lon="11.912231135169236"><ele>260.0</ele><time>2026-04-26T10:38:59Z</time></trkpt><trkpt lat="45.9272230431965" lon="11.912160101738966"><ele>260.0</ele><time>2026-04-26T10:39:00Z</time></trkpt><trkpt lat="45.927290937248756" lon="11.912104263385599"><ele>260.0</ele><time>2026-04-26T10:39:01Z</time></trkpt><trkpt lat="45.92736205176453" lon="11.912056963381296"><ele>260.0</ele><time>2026-04-26T10:39:02Z</time></trkpt><trkpt lat="45.92743645220662" lon="11.912024398036769"><ele>260.0</ele><time>2026-04-26T10:39:03Z</time></trkpt><trkpt lat="45.92751427861365" lon="11.911987650767898"><ele>260.0</ele><time>2026-04-26T10:39:04Z</time></trkpt><trkpt lat="45.92758224934874" lon="11.911966343250098"><ele>258.83333333333337</ele><time>2026-04-26T10:39:05Z</time></trkpt><trkpt lat="45.9276558459065" lon="11.911964038675018"><ele>257.6666666666667</ele><time>2026-04-26T10:39:06Z</time></trkpt><trkpt lat="45.927727545866254" lon="11.911980241759734"><ele>256.5</ele><time>2026-04-26T10:39:07Z</time></trkpt><trkpt lat="45.927799213298826" lon="11.911998568613898"><ele>255.33333333333331</ele><time>2026-04-26T10:39:08Z</time></trkpt><trkpt lat="45.92789800232334" lon="11.912007997408507"><ele>254.16666666666666</ele><time>2026-04-26T10:39:09Z</time></trkpt><trkpt lat="45.92797464948086" lon="11.912017337887217"><ele>253.0</ele><time>2026-04-26T10:39:10Z</time></trkpt><trkpt lat="45.9280519817212" lon="11.912016427732384"><ele>252.99999999999997</ele><time>2026-04-26T10:39:11Z</time></trkpt><trkpt lat="45.928122714703925" lon="11.91200007776138"><ele>253.0</ele><time>2026-04-26T10:39:12Z</time></trkpt><trkpt lat="45.92819558081159" lon="11.911998604061168"><ele>253.0</ele><time>2026-04-26T10:39:13Z</time></trkpt><trkpt lat="45.92832588137882" lon="11.911982935790595"><ele>253.0</ele><time>2026-04-26T10:39:15Z</time></trkpt><trkpt lat="45.92839489072316" lon="11.911965699078609"><ele>252.99999999999997</ele><time>2026-04-26T10:39:16Z</time></trkpt><trkpt lat="45.92846762700989" lon="11.911939596383203"><ele>253.0</ele><time>2026-04-26T10:39:17Z</time></trkpt><trkpt lat="45.92853758130952" lon="11.911831972111948"><ele>253.16666666666666</ele><time>2026-04-26T10:39:19Z</time></trkpt><trkpt lat="45.92856198244368" lon="11.91174246049283"><ele>253.33333333333331</ele><time>2026-04-26T10:39:20Z</time></trkpt><trkpt lat="45.928582639068196" lon="11.911629760605786"><ele>253.5</ele><time>2026-04-26T10:39:21Z</time></trkpt><trkpt lat="45.92857168132015" lon="11.911527734851784"><ele>253.66666666666669</ele><time>2026-04-26T10:39:22Z</time></trkpt><trkpt lat="45.928535065745976" lon="11.911446562251097"><ele>253.83333333333334</ele><time>2026-04-26T10:39:23Z</time></trkpt><trkpt lat="45.928510890600116" lon="11.911285463361583"><ele>254.0</ele><time>2026-04-26T10:39:24Z</time></trkpt><trkpt lat="45.92849772410446" lon="11.911171833735777"><ele>254.00000000000003</ele><time>2026-04-26T10:39:25Z</time></trkpt><trkpt lat="45.92849452350987" lon="11.911064698110447"><ele>254.0</ele><time>2026-04-26T10:39:26Z</time></trkpt><trkpt lat="45.92850129715422" lon="11.91095800971261"><ele>254.0</ele><time>2026-04-26T10:39:27Z</time></trkpt><trkpt lat="45.92857122681377" lon="11.91087832238897"><ele>254.0</ele><time>2026-04-26T10:39:28Z</time></trkpt><trkpt lat="45.92860143011428" lon="11.910773084391069"><ele>254.00000000000003</ele><time>2026-04-26T10:39:29Z</time></trkpt><trkpt lat="45.92861860538053" lon="11.910670440740834"><ele>254.0</ele><time>2026-04-26T10:39:30Z</time></trkpt><trkpt lat="45.92862262439578" lon="11.910552441545523"><ele>254.50000000000003</ele><time>2026-04-26T10:39:31Z</time></trkpt><trkpt lat="45.92864272097464" lon="11.910431535390433"><ele>255.0</ele><time>2026-04-26T10:39:32Z</time></trkpt><trkpt lat="45.928681753659696" lon="11.910337785680905"><ele>255.5</ele><time>2026-04-26T10:39:33Z</time></trkpt><trkpt lat="45.92872741614967" lon="11.910268176403934"><ele>256.0</ele><time>2026-04-26T10:39:34Z</time></trkpt><trkpt lat="45.92878299595071" lon="11.910212145158415"><ele>256.5</ele><time>2026-04-26T10:39:35Z</time></trkpt><trkpt lat="45.92884484114651" lon="11.910099870879352"><ele>257.0</ele><time>2026-04-26T10:39:36Z</time></trkpt><trkpt lat="45.92889236367014" lon="11.9100014259112"><ele>257.5</ele><time>2026-04-26T10:39:37Z</time></trkpt><trkpt lat="45.92894355541384" lon="11.909918571364363"><ele>258.0</ele><time>2026-04-26T10:39:38Z</time></trkpt><trkpt lat="45.92899262206354" lon="11.90983297611947"><ele>258.5</ele><time>2026-04-26T10:39:39Z</time></trkpt><trkpt lat="45.929055740079065" lon="11.909790306421947"><ele>259.0</ele><time>2026-04-26T10:39:40Z</time></trkpt><trkpt lat="45.92913641495454" lon="11.909748597404434"><ele>259.5</ele><time>2026-04-26T10:39:41Z</time></trkpt><trkpt lat="45.929214296339865" lon="11.909719770491716"><ele>260.0</ele><time>2026-04-26T10:39:42Z</time></trkpt><trkpt lat="45.92927282348327" lon="11.909674661983082"><ele>260.0</ele><time>2026-04-26T10:39:43Z</time></trkpt><trkpt lat="45.92935297199777" lon="11.909643535920956"><ele>260.0</ele><time>2026-04-26T10:39:44Z</time></trkpt><trkpt lat="45.92944279878218" lon="11.909574592206706"><ele>260.0</ele><time>2026-04-26T10:39:45Z</time></trkpt><trkpt lat="45.92951667737556" lon="11.909517522301966"><ele>260.0</ele><time>2026-04-26T10:39:46Z</time></trkpt><trkpt lat="45.92959587175779" lon="11.90948689100588"><ele>260.0</ele><time>2026-04-26T10:39:47Z</time></trkpt><trkpt lat="45.929660263835764" lon="11.909465068292553"><ele>260.0</ele><time>2026-04-26T10:39:48Z</time></trkpt><trkpt lat="45.92974352110763" lon="11.909443510179416"><ele>260.0</ele><time>2026-04-26T10:39:49Z</time></trkpt><trkpt lat="45.929818155515754" lon="11.9094158192118"><ele>260.0</ele><time>2026-04-26T10:39:50Z</time></trkpt><trkpt lat="45.92988439957162" lon="11.909366162876088"><ele>260.0</ele><time>2026-04-26T10:39:51Z</time></trkpt><trkpt lat="45.92996314852726" lon="11.909352391166891"><ele>260.0</ele><time>2026-04-26T10:39:52Z</time></trkpt><trkpt lat="45.93004188566383" lon="11.909325413426776"><ele>260.0</ele><time>2026-04-26T10:39:53Z</time></trkpt><trkpt lat="45.93013844171584" lon="11.909305528616537"><ele>260.0</ele><time>2026-04-26T10:39:55Z</time></trkpt><trkpt lat="45.93023908873106" lon="11.909278281530947"><ele>260.1666666666667</ele><time>2026-04-26T10:39:56Z</time></trkpt><trkpt lat="45.9303191129456" lon="11.909282069604659"><ele>260.33333333333337</ele><time>2026-04-26T10:39:57Z</time></trkpt><trkpt lat="45.93039737007405" lon="11.90927116820067"><ele>260.5</ele><time>2026-04-26T10:39:58Z</time></trkpt><trkpt lat="45.93047626804371" lon="11.909226967674158"><ele>260.6666666666667</ele><time>2026-04-26T10:39:59Z</time></trkpt><trkpt lat="45.9305704667315" lon="11.909248417490177"><ele>260.8333333333333</ele><time>2026-04-26T10:40:00Z</time></trkpt><trkpt lat="45.930666474470264" lon="11.909275391496745"><ele>261.0</ele><time>2026-04-26T10:40:01Z</time></trkpt><trkpt lat="45.93075303259061" lon="11.909297058900753"><ele>261.0</ele><time>2026-04-26T10:40:02Z</time></trkpt><trkpt lat="45.93084225445957" lon="11.909350600931283"><ele>261.0</ele><time>2026-04-26T10:40:03Z</time></trkpt><trkpt lat="45.93093200008202" lon="11.909351353648074"><ele>261.0</ele><time>2026-04-26T10:40:04Z</time></trkpt><trkpt lat="45.93100954471522" lon="11.909382479120431"><ele>261.0</ele><time>2026-04-26T10:40:05Z</time></trkpt><trkpt lat="45.931102768207765" lon="11.909376055135578"><ele>261.0</ele><time>2026-04-26T10:40:06Z</time></trkpt><trkpt lat="45.93119389186551" lon="11.909377062932794"><ele>260.8333333333333</ele><time>2026-04-26T10:40:07Z</time></trkpt><trkpt lat="45.93129229800692" lon="11.909378650561557"><ele>260.6666666666667</ele><time>2026-04-26T10:40:08Z</time></trkpt><trkpt lat="45.93140306722932" lon="11.909386821305818"><ele>260.5</ele><time>2026-04-26T10:40:09Z</time></trkpt><trkpt lat="45.931490761651574" lon="11.909381430449816"><ele>260.33333333333337</ele><time>2026-04-26T10:40:10Z</time></trkpt><trkpt lat="45.93156171037691" lon="11.90935872489024"><ele>260.1666666666667</ele><time>2026-04-26T10:40:11Z</time></trkpt><trkpt lat="45.93162847604088" lon="11.909335071420019"><ele>260.0</ele><time>2026-04-26T10:40:12Z</time></trkpt><trkpt lat="45.931706297276655" lon="11.90931925025797"><ele>261.6666666666667</ele><time>2026-04-26T10:40:13Z</time></trkpt><trkpt lat="45.931768371677045" lon="11.909294404140226"><ele>263.33333333333337</ele><time>2026-04-26T10:40:14Z</time></trkpt><trkpt lat="45.93184506010206" lon="11.909288692118075"><ele>265.0</ele><time>2026-04-26T10:40:15Z</time></trkpt><trkpt lat="45.9319199107005" lon="11.909348322368261"><ele>266.6666666666667</ele><time>2026-04-26T10:40:16Z</time></trkpt><trkpt lat="45.93199084394874" lon="11.9093889277613"><ele>268.3333333333333</ele><time>2026-04-26T10:40:17Z</time></trkpt><trkpt lat="45.93207434246988" lon="11.909434864713944"><ele>270.0</ele><time>2026-04-26T10:40:18Z</time></trkpt><trkpt lat="45.93216340403633" lon="11.909469113391898"><ele>270.0</ele><time>2026-04-26T10:40:19Z</time></trkpt><trkpt lat="45.9322441792383" lon="11.909483932395375"><ele>270.0</ele><time>2026-04-26T10:40:20Z</time></trkpt><trkpt lat="45.93234259930145" lon="11.909493480028326"><ele>270.0</ele><time>2026-04-26T10:40:21Z</time></trkpt><trkpt lat="45.93243773867202" lon="11.90947202280404"><ele>270.0</ele><time>2026-04-26T10:40:22Z</time></trkpt><trkpt lat="45.93270730680178" lon="11.909554269765433"><ele>271.8</ele><time>2026-04-26T10:40:25Z</time></trkpt><trkpt lat="45.93281099089335" lon="11.90959202023334"><ele>273.6</ele><time>2026-04-26T10:40:26Z</time></trkpt><trkpt lat="45.932883696750295" lon="11.90962460721849"><ele>275.4</ele><time>2026-04-26T10:40:27Z</time></trkpt><trkpt lat="45.9329845767776" lon="11.909669429717502"><ele>277.2</ele><time>2026-04-26T10:40:28Z</time></trkpt><trkpt lat="45.93308241436842" lon="11.909712122889731"><ele>279.0</ele><time>2026-04-26T10:40:29Z</time></trkpt><trkpt lat="45.93318593162493" lon="11.909759737897865"><ele>279.0</ele><time>2026-04-26T10:40:30Z</time></trkpt><trkpt lat="45.933278773564965" lon="11.909794731971601"><ele>279.0</ele><time>2026-04-26T10:40:31Z</time></trkpt><trkpt lat="45.93338764058559" lon="11.909825678596691"><ele>279.0</ele><time>2026-04-26T10:40:32Z</time></trkpt><trkpt lat="45.93348208152068" lon="11.909864534036222"><ele>279.0</ele><time>2026-04-26T10:40:33Z</time></trkpt><trkpt lat="45.933595063602944" lon="11.909867175628035"><ele>279.0</ele><time>2026-04-26T10:40:34Z</time></trkpt><trkpt lat="45.933684051128054" lon="11.909887234163508"><ele>280.0</ele><time>2026-04-26T10:40:35Z</time></trkpt><trkpt lat="45.933779406211286" lon="11.909927786066813"><ele>281.0</ele><time>2026-04-26T10:40:36Z</time></trkpt><trkpt lat="45.93386702499376" lon="11.90997162640717"><ele>282.0</ele><time>2026-04-26T10:40:37Z</time></trkpt><trkpt lat="45.93395032207059" lon="11.910012458024875"><ele>283.0</ele><time>2026-04-26T10:40:38Z</time></trkpt><trkpt lat="45.93402191601259" lon="11.910054096544016"><ele>284.0</ele><time>2026-04-26T10:40:39Z</time></trkpt><trkpt lat="45.93410506607191" lon="11.91009253909302"><ele>285.0</ele><time>2026-04-26T10:40:40Z</time></trkpt><trkpt lat="45.934173345451335" lon="11.910116167706905"><ele>285.0</ele><time>2026-04-26T10:40:41Z</time></trkpt><trkpt lat="45.93427168117411" lon="11.910070055631751"><ele>285.0</ele><time>2026-04-26T10:40:42Z</time></trkpt><trkpt lat="45.93435391483" lon="11.90996024383664"><ele>285.0</ele><time>2026-04-26T10:40:43Z</time></trkpt><trkpt lat="45.93444009828383" lon="11.9098806757945"><ele>285.0</ele><time>2026-04-26T10:40:44Z</time></trkpt><trkpt lat="45.93450817402863" lon="11.909843796704612"><ele>285.0</ele><time>2026-04-26T10:40:45Z</time></trkpt><trkpt lat="45.93460001200853" lon="11.909813629751055"><ele>285.0</ele><time>2026-04-26T10:40:46Z</time></trkpt><trkpt lat="45.93469291515422" lon="11.909780036369515"><ele>285.0</ele><time>2026-04-26T10:40:47Z</time></trkpt><trkpt lat="45.9347911817617" lon="11.909773711887558"><ele>285.0</ele><time>2026-04-26T10:40:48Z</time></trkpt><trkpt lat="45.93489628475723" lon="11.909774960406178"><ele>285.0</ele><time>2026-04-26T10:40:49Z</time></trkpt><trkpt lat="45.93498507732911" lon="11.909767246505387"><ele>285.0</ele><time>2026-04-26T10:40:50Z</time></trkpt><trkpt lat="45.93507470563937" lon="11.909771626258685"><ele>283.4</ele><time>2026-04-26T10:40:51Z</time></trkpt><trkpt lat="45.93516290102138" lon="11.909789699567524"><ele>281.8</ele><time>2026-04-26T10:40:52Z</time></trkpt><trkpt lat="45.935257332861006" lon="11.90980964630825"><ele>280.2</ele><time>2026-04-26T10:40:53Z</time></trkpt><trkpt lat="45.93532937988518" lon="11.909832393017371"><ele>278.6</ele><time>2026-04-26T10:40:54Z</time></trkpt><trkpt lat="45.935397611258956" lon="11.90984948160776"><ele>277.0</ele><time>2026-04-26T10:40:55Z</time></trkpt><trkpt lat="45.93553170883131" lon="11.909841493118092"><ele>277.0</ele><time>2026-04-26T10:40:57Z</time></trkpt><trkpt lat="45.93558940684962" lon="11.909762561817478"><ele>277.0</ele><time>2026-04-26T10:40:58Z</time></trkpt><trkpt lat="45.93564137848618" lon="11.909689397285803"><ele>277.0</ele><time>2026-04-26T10:40:59Z</time></trkpt><trkpt lat="45.93568109241616" lon="11.909580411128557"><ele>277.0</ele><time>2026-04-26T10:41:00Z</time></trkpt><trkpt lat="45.9357240104764" lon="11.909468640964553"><ele>277.0</ele><time>2026-04-26T10:41:01Z</time></trkpt><trkpt lat="45.93575935391671" lon="11.909349283372853"><ele>277.0</ele><time>2026-04-26T10:41:02Z</time></trkpt><trkpt lat="45.9357943365411" lon="11.909222142138631"><ele>279.0</ele><time>2026-04-26T10:41:03Z</time></trkpt><trkpt lat="45.935837037243346" lon="11.90909540469607"><ele>281.0</ele><time>2026-04-26T10:41:04Z</time></trkpt><trkpt lat="45.93587350462557" lon="11.908965758073117"><ele>283.0</ele><time>2026-04-26T10:41:05Z</time></trkpt><trkpt lat="45.935929140932906" lon="11.908836030612841"><ele>285.0</ele><time>2026-04-26T10:41:06Z</time></trkpt><trkpt lat="45.93598853506423" lon="11.908704709953863"><ele>287.0</ele><time>2026-04-26T10:41:07Z</time></trkpt><trkpt lat="45.93604421782079" lon="11.908574837151653"><ele>287.8</ele><time>2026-04-26T10:41:08Z</time></trkpt><trkpt lat="45.93611013257208" lon="11.908431259351762"><ele>288.6</ele><time>2026-04-26T10:41:09Z</time></trkpt><trkpt lat="45.93616601818011" lon="11.908302769592519"><ele>289.40000000000003</ele><time>2026-04-26T10:41:10Z</time></trkpt><trkpt lat="45.93621028632147" lon="11.908172772720649"><ele>290.2</ele><time>2026-04-26T10:41:11Z</time></trkpt><trkpt lat="45.936226369692285" lon="11.908042808877152"><ele>291.0</ele><time>2026-04-26T10:41:12Z</time></trkpt><trkpt lat="45.93625413001211" lon="11.907927552162347"><ele>289.6666666666667</ele><time>2026-04-26T10:41:13Z</time></trkpt><trkpt lat="45.936269925450624" lon="11.907837902867206"><ele>288.3333333333333</ele><time>2026-04-26T10:41:14Z</time></trkpt><trkpt lat="45.93631787706319" lon="11.907687888460115"><ele>287.0</ele><time>2026-04-26T10:41:16Z</time></trkpt><trkpt lat="45.936359896784886" lon="11.907581330391306"><ele>285.66666666666663</ele><time>2026-04-26T10:41:18Z</time></trkpt><trkpt lat="45.93638778437014" lon="11.907499895717537"><ele>284.3333333333333</ele><time>2026-04-26T10:41:20Z</time></trkpt><trkpt lat="45.93643573870538" lon="11.90740574297205"><ele>283.0</ele><time>2026-04-26T10:41:22Z</time></trkpt><trkpt lat="45.93649176898467" lon="11.907310729589472"><ele>282.66666666666663</ele><time>2026-04-26T10:41:26Z</time></trkpt><trkpt lat="45.9365225390602" lon="11.907215259015592"><ele>282.3333333333333</ele><time>2026-04-26T10:41:28Z</time></trkpt><trkpt lat="45.936573006859994" lon="11.90711825275185"><ele>282.0</ele><time>2026-04-26T10:41:32Z</time></trkpt><trkpt lat="45.936601065783584" lon="11.907036374974844"><ele>281.6666666666667</ele><time>2026-04-26T10:41:34Z</time></trkpt><trkpt lat="45.93664597687674" lon="11.906963572798954"><ele>281.33333333333337</ele><time>2026-04-26T10:41:57Z</time></trkpt><trkpt lat="45.936694744065115" lon="11.906804833876487"><ele>281.0</ele><time>2026-04-26T10:42:18Z</time></trkpt><trkpt lat="45.93672124260383" lon="11.906677489881439"><ele>285.33333333333337</ele><time>2026-04-26T10:42:20Z</time></trkpt><trkpt lat="45.936734141869074" lon="11.906545744937091"><ele>289.6666666666667</ele><time>2026-04-26T10:42:23Z</time></trkpt><trkpt lat="45.93677133796376" lon="11.906464193176099"><ele>294.0</ele><time>2026-04-26T10:42:25Z</time></trkpt><trkpt lat="45.936832946015244" lon="11.90641979779135"><ele>298.3333333333333</ele><time>2026-04-26T10:42:27Z</time></trkpt><trkpt lat="45.936899773581196" lon="11.906345922116914"><ele>302.66666666666663</ele><time>2026-04-26T10:42:30Z</time></trkpt><trkpt lat="45.93699651568029" lon="11.90637159372525"><ele>307.0</ele><time>2026-04-26T10:42:32Z</time></trkpt><trkpt lat="45.937016901254246" lon="11.906459379932414"><ele>307.0</ele><time>2026-04-26T10:42:33Z</time></trkpt><trkpt lat="45.93700844431703" lon="11.906655024344602"><ele>307.0</ele><time>2026-04-26T10:42:35Z</time></trkpt><trkpt lat="45.93701040851073" lon="11.906782514925839"><ele>307.0</ele><time>2026-04-26T10:42:36Z</time></trkpt><trkpt lat="45.93701418558762" lon="11.906940791822839"><ele>307.0</ele><time>2026-04-26T10:42:37Z</time></trkpt><trkpt lat="45.93698621673849" lon="11.90708991987421"><ele>307.0</ele><time>2026-04-26T10:42:38Z</time></trkpt><trkpt lat="45.936941219379406" lon="11.907202251535887"><ele>309.5</ele><time>2026-04-26T10:42:39Z</time></trkpt><trkpt lat="45.93688721564765" lon="11.907321214964998"><ele>312.0</ele><time>2026-04-26T10:42:40Z</time></trkpt><trkpt lat="45.93679869549559" lon="11.90750140507338"><ele>314.5</ele><time>2026-04-26T10:42:41Z</time></trkpt><trkpt lat="45.93675592090864" lon="11.907641733724734"><ele>317.0</ele><time>2026-04-26T10:42:42Z</time></trkpt><trkpt lat="45.93669926730491" lon="11.907765258706933"><ele>311.8</ele><time>2026-04-26T10:42:43Z</time></trkpt><trkpt lat="45.93665250246702" lon="11.907888689493163"><ele>306.6</ele><time>2026-04-26T10:42:44Z</time></trkpt><trkpt lat="45.93661344708589" lon="11.90802262668328"><ele>301.40000000000003</ele><time>2026-04-26T10:42:45Z</time></trkpt><trkpt lat="45.93657705605117" lon="11.9081773338624"><ele>296.2</ele><time>2026-04-26T10:42:46Z</time></trkpt><trkpt lat="45.93655002896038" lon="11.908334668810815"><ele>291.0</ele><time>2026-04-26T10:42:47Z</time></trkpt><trkpt lat="45.936531618225345" lon="11.908501993857186"><ele>291.0</ele><time>2026-04-26T10:42:48Z</time></trkpt><trkpt lat="45.936518356748856" lon="11.908629474189532"><ele>291.0</ele><time>2026-04-26T10:42:49Z</time></trkpt><trkpt lat="45.93650133641426" lon="11.908750310394007"><ele>291.0</ele><time>2026-04-26T10:42:50Z</time></trkpt><trkpt lat="45.93649137154653" lon="11.908877126800625"><ele>291.0</ele><time>2026-04-26T10:42:51Z</time></trkpt><trkpt lat="45.936476715706775" lon="11.909003436196592"><ele>291.0</ele><time>2026-04-26T10:42:52Z</time></trkpt><trkpt lat="45.93644933567722" lon="11.909112191834042"><ele>291.0</ele><time>2026-04-26T10:42:53Z</time></trkpt><trkpt lat="45.93641960173636" lon="11.909235511867376"><ele>296.25</ele><time>2026-04-26T10:42:54Z</time></trkpt><trkpt lat="45.93638848819413" lon="11.909370826104702"><ele>301.5</ele><time>2026-04-26T10:42:55Z</time></trkpt><trkpt lat="45.93636038427873" lon="11.909515469512826"><ele>306.75</ele><time>2026-04-26T10:42:56Z</time></trkpt><trkpt lat="45.93631717913241" lon="11.909676510249705"><ele>312.0</ele><time>2026-04-26T10:42:57Z</time></trkpt><trkpt lat="45.936226598406456" lon="11.909818079607652"><ele>312.0</ele><time>2026-04-26T10:42:58Z</time></trkpt><trkpt lat="45.93614440844038" lon="11.909950468217914"><ele>312.0</ele><time>2026-04-26T10:42:59Z</time></trkpt><trkpt lat="45.93606132643041" lon="11.910064971251451"><ele>312.0</ele><time>2026-04-26T10:43:00Z</time></trkpt><trkpt lat="45.935982934014376" lon="11.91014322073831"><ele>312.0</ele><time>2026-04-26T10:43:01Z</time></trkpt><trkpt lat="45.93590179757748" lon="11.910203663568494"><ele>312.0</ele><time>2026-04-26T10:43:02Z</time></trkpt><trkpt lat="45.935813199612596" lon="11.910252385909883"><ele>309.0</ele><time>2026-04-26T10:43:03Z</time></trkpt><trkpt lat="45.935674973528954" lon="11.910319164691687"><ele>306.0</ele><time>2026-04-26T10:43:04Z</time></trkpt><trkpt lat="45.93549981084871" lon="11.910392800936544"><ele>303.0</ele><time>2026-04-26T10:43:05Z</time></trkpt><trkpt lat="45.93530505165464" lon="11.91049802157099"><ele>303.0</ele><time>2026-04-26T10:43:06Z</time></trkpt><trkpt lat="45.93511195239556" lon="11.910602965834014"><ele>303.0</ele><time>2026-04-26T10:43:07Z</time></trkpt><trkpt lat="45.93493155763004" lon="11.910661406363088"><ele>303.0</ele><time>2026-04-26T10:43:08Z</time></trkpt><trkpt lat="45.93477143934079" lon="11.910707212543075"><ele>297.0</ele><time>2026-04-26T10:43:09Z</time></trkpt><trkpt lat="45.93463413054998" lon="11.910752041694252"><ele>291.0</ele><time>2026-04-26T10:43:10Z</time></trkpt><trkpt lat="45.93449073053763" lon="11.910798885800403"><ele>285.0</ele><time>2026-04-26T10:43:11Z</time></trkpt><trkpt lat="45.934321153476134" lon="11.910838620506993"><ele>281.25</ele><time>2026-04-26T10:43:12Z</time></trkpt><trkpt lat="45.9341744355315" lon="11.910868020064315"><ele>277.5</ele><time>2026-04-26T10:43:13Z</time></trkpt><trkpt lat="45.93405298185755" lon="11.9109135462267"><ele>273.75</ele><time>2026-04-26T10:43:14Z</time></trkpt><trkpt lat="45.93392859657905" lon="11.910954556491026"><ele>270.0</ele><time>2026-04-26T10:43:15Z</time></trkpt><trkpt lat="45.93379336668501" lon="11.910983927296513"><ele>275.5</ele><time>2026-04-26T10:43:16Z</time></trkpt><trkpt lat="45.933667427011194" lon="11.911026561046748"><ele>281.0</ele><time>2026-04-26T10:43:17Z</time></trkpt><trkpt lat="45.933549168779734" lon="11.911058847929501"><ele>286.5</ele><time>2026-04-26T10:43:18Z</time></trkpt><trkpt lat="45.93344253562345" lon="11.91108371533373"><ele>292.0</ele><time>2026-04-26T10:43:19Z</time></trkpt><trkpt lat="45.93333714592871" lon="11.91103906798009"><ele>292.0</ele><time>2026-04-26T10:43:20Z</time></trkpt><trkpt lat="45.93323812319697" lon="11.911005988093693"><ele>292.0</ele><time>2026-04-26T10:43:21Z</time></trkpt><trkpt lat="45.93316403056748" lon="11.910977096586747"><ele>292.0</ele><time>2026-04-26T10:43:22Z</time></trkpt><trkpt lat="45.93307602659936" lon="11.910940929064152"><ele>292.0</ele><time>2026-04-26T10:43:23Z</time></trkpt><trkpt lat="45.93298352971678" lon="11.91090291500414"><ele>292.0</ele><time>2026-04-26T10:43:24Z</time></trkpt><trkpt lat="45.93288895498839" lon="11.910864046976581"><ele>287.2</ele><time>2026-04-26T10:43:25Z</time></trkpt><trkpt lat="45.932797488549156" lon="11.910840289574443"><ele>282.4</ele><time>2026-04-26T10:43:26Z</time></trkpt><trkpt lat="45.9327237846602" lon="11.910801658122054"><ele>277.6</ele><time>2026-04-26T10:43:27Z</time></trkpt><trkpt lat="45.93263002346688" lon="11.9107619481744"><ele>272.8</ele><time>2026-04-26T10:43:28Z</time></trkpt><trkpt lat="45.932542161908124" lon="11.910766241046675"><ele>268.0</ele><time>2026-04-26T10:43:29Z</time></trkpt><trkpt lat="45.93244897504923" lon="11.910761261107611"><ele>268.0</ele><time>2026-04-26T10:43:30Z</time></trkpt><trkpt lat="45.932354142419314" lon="11.910739847238682"><ele>268.0</ele><time>2026-04-26T10:43:31Z</time></trkpt><trkpt lat="45.93227037628491" lon="11.910747993353402"><ele>268.0</ele><time>2026-04-26T10:43:32Z</time></trkpt><trkpt lat="45.93218511413127" lon="11.910779292876219"><ele>268.0</ele><time>2026-04-26T10:43:33Z</time></trkpt><trkpt lat="45.93210241933325" lon="11.910787446682066"><ele>268.0</ele><time>2026-04-26T10:43:34Z</time></trkpt><trkpt lat="45.93203029071496" lon="11.910794407337928"><ele>268.0</ele><time>2026-04-26T10:43:35Z</time></trkpt><trkpt lat="45.931938803593575" lon="11.910777273592053"><ele>268.0</ele><time>2026-04-26T10:43:36Z</time></trkpt><trkpt lat="45.93184921542585" lon="11.910778584131117"><ele>268.0</ele><time>2026-04-26T10:43:37Z</time></trkpt><trkpt lat="45.93175999235659" lon="11.910792748368063"><ele>268.0</ele><time>2026-04-26T10:43:38Z</time></trkpt><trkpt lat="45.93168803522484" lon="11.91077749425677"><ele>268.0</ele><time>2026-04-26T10:43:39Z</time></trkpt><trkpt lat="45.9316246188213" lon="11.91072458043744"><ele>268.0</ele><time>2026-04-26T10:43:40Z</time></trkpt><trkpt lat="45.931531776918916" lon="11.910654773084367"><ele>268.0</ele><time>2026-04-26T10:43:41Z</time></trkpt><trkpt lat="45.93145031951189" lon="11.910608021804958"><ele>268.2</ele><time>2026-04-26T10:43:42Z</time></trkpt><trkpt lat="45.93137300724053" lon="11.91054415467865"><ele>268.4</ele><time>2026-04-26T10:43:43Z</time></trkpt><trkpt lat="45.93126871019734" lon="11.910491331104842"><ele>268.59999999999997</ele><time>2026-04-26T10:43:44Z</time></trkpt><trkpt lat="45.93117184925746" lon="11.91048821882922"><ele>268.8</ele><time>2026-04-26T10:43:45Z</time></trkpt><trkpt lat="45.93107225871669" lon="11.910496552993338"><ele>269.0</ele><time>2026-04-26T10:43:46Z</time></trkpt><trkpt lat="45.930979978103935" lon="11.91053846835281"><ele>269.8</ele><time>2026-04-26T10:43:47Z</time></trkpt><trkpt lat="45.93088863439985" lon="11.910581395977175"><ele>270.59999999999997</ele><time>2026-04-26T10:43:48Z</time></trkpt><trkpt lat="45.93081474071303" lon="11.91064122606871"><ele>271.4</ele><time>2026-04-26T10:43:49Z</time></trkpt><trkpt lat="45.93072390359008" lon="11.910706675753584"><ele>272.2</ele><time>2026-04-26T10:43:50Z</time></trkpt><trkpt lat="45.93062141563676" lon="11.910764631075336"><ele>273.0</ele><time>2026-04-26T10:43:51Z</time></trkpt><trkpt lat="45.930525974519824" lon="11.910784323932553"><ele>273.0</ele><time>2026-04-26T10:43:52Z</time></trkpt><trkpt lat="45.93042310884963" lon="11.910805315629334"><ele>273.0</ele><time>2026-04-26T10:43:53Z</time></trkpt><trkpt lat="45.93032350028701" lon="11.91081820670655"><ele>273.0</ele><time>2026-04-26T10:43:54Z</time></trkpt><trkpt lat="45.93022859831085" lon="11.91082209777913"><ele>273.0</ele><time>2026-04-26T10:43:55Z</time></trkpt><trkpt lat="45.93013612573348" lon="11.910826223957867"><ele>273.0</ele><time>2026-04-26T10:43:56Z</time></trkpt><trkpt lat="45.9300510319976" lon="11.910831625240165"><ele>274.0</ele><time>2026-04-26T10:43:57Z</time></trkpt><trkpt lat="45.92996240203347" lon="11.91086649780606"><ele>275.0</ele><time>2026-04-26T10:43:58Z</time></trkpt><trkpt lat="45.92987466898444" lon="11.910901458741785"><ele>276.0</ele><time>2026-04-26T10:43:59Z</time></trkpt><trkpt lat="45.92981765646657" lon="11.911021013704504"><ele>277.0</ele><time>2026-04-26T10:44:00Z</time></trkpt><trkpt lat="45.929777861790456" lon="11.911157743268104"><ele>278.0</ele><time>2026-04-26T10:44:01Z</time></trkpt><trkpt lat="45.929759597517375" lon="11.91129245849032"><ele>278.0</ele><time>2026-04-26T10:44:02Z</time></trkpt><trkpt lat="45.92974872171628" lon="11.911431096452647"><ele>278.0</ele><time>2026-04-26T10:44:03Z</time></trkpt><trkpt lat="45.92974771417633" lon="11.911548372217624"><ele>278.0</ele><time>2026-04-26T10:44:04Z</time></trkpt><trkpt lat="45.9297355370773" lon="11.911687687025676"><ele>278.0</ele><time>2026-04-26T10:44:05Z</time></trkpt><trkpt lat="45.92971352772546" lon="11.911844311355283"><ele>278.0</ele><time>2026-04-26T10:44:06Z</time></trkpt><trkpt lat="45.92968709895655" lon="11.91198486551206"><ele>281.8</ele><time>2026-04-26T10:44:07Z</time></trkpt><trkpt lat="45.92966657771671" lon="11.912119190202054"><ele>285.6</ele><time>2026-04-26T10:44:08Z</time></trkpt><trkpt lat="45.92961934617848" lon="11.9122529269925"><ele>289.4</ele><time>2026-04-26T10:44:09Z</time></trkpt><trkpt lat="45.9295412393324" lon="11.912369924365175"><ele>293.2</ele><time>2026-04-26T10:44:10Z</time></trkpt><trkpt lat="45.92947709376707" lon="11.912486715784876"><ele>297.0</ele><time>2026-04-26T10:44:11Z</time></trkpt><trkpt lat="45.929405328748025" lon="11.912612484212055"><ele>300.6</ele><time>2026-04-26T10:44:12Z</time></trkpt><trkpt lat="45.9293284067886" lon="11.912743219736331"><ele>304.2</ele><time>2026-04-26T10:44:13Z</time></trkpt><trkpt lat="45.92926367267312" lon="11.912850708521841"><ele>307.8</ele><time>2026-04-26T10:44:14Z</time></trkpt><trkpt lat="45.92919117693319" lon="11.91296308768616"><ele>311.4</ele><time>2026-04-26T10:44:15Z</time></trkpt><trkpt lat="45.92910968069643" lon="11.913074137226248"><ele>315.0</ele><time>2026-04-26T10:44:16Z</time></trkpt><trkpt lat="45.92903360592665" lon="11.913170413209327"><ele>311.2</ele><time>2026-04-26T10:44:17Z</time></trkpt><trkpt lat="45.928960692451035" lon="11.913282205446928"><ele>307.4</ele><time>2026-04-26T10:44:18Z</time></trkpt><trkpt lat="45.928875294429105" lon="11.913375324990543"><ele>303.6</ele><time>2026-04-26T10:44:19Z</time></trkpt><trkpt lat="45.928789618799584" lon="11.91347205468273"><ele>299.8</ele><time>2026-04-26T10:44:20Z</time></trkpt><trkpt lat="45.92870547339333" lon="11.9135625631038"><ele>296.0</ele><time>2026-04-26T10:44:21Z</time></trkpt><trkpt lat="45.92861857372613" lon="11.913641178989485"><ele>296.0</ele><time>2026-04-26T10:44:22Z</time></trkpt><trkpt lat="45.928537877123745" lon="11.913713785055599"><ele>296.0</ele><time>2026-04-26T10:44:23Z</time></trkpt><trkpt lat="45.92845649886637" lon="11.913791068355911"><ele>296.0</ele><time>2026-04-26T10:44:24Z</time></trkpt><trkpt lat="45.928383720328775" lon="11.913868448288271"><ele>296.0</ele><time>2026-04-26T10:44:25Z</time></trkpt><trkpt lat="45.9283077138527" lon="11.913947135564651"><ele>296.0</ele><time>2026-04-26T10:44:26Z</time></trkpt><trkpt lat="45.92822546344833" lon="11.914032552348694"><ele>296.1666666666667</ele><time>2026-04-26T10:44:27Z</time></trkpt><trkpt lat="45.928145772982084" lon="11.914107331715242"><ele>296.33333333333337</ele><time>2026-04-26T10:44:28Z</time></trkpt><trkpt lat="45.92807238944397" lon="11.914167289353175"><ele>296.5</ele><time>2026-04-26T10:44:29Z</time></trkpt><trkpt lat="45.92799037950537" lon="11.914210387381981"><ele>296.6666666666667</ele><time>2026-04-26T10:44:30Z</time></trkpt><trkpt lat="45.927911942209214" lon="11.914264093011388"><ele>296.8333333333333</ele><time>2026-04-26T10:44:31Z</time></trkpt><trkpt lat="45.927829899813695" lon="11.914322145900966"><ele>297.0</ele><time>2026-04-26T10:44:32Z</time></trkpt><trkpt lat="45.927760532203436" lon="11.914408851234377"><ele>297.0</ele><time>2026-04-26T10:44:33Z</time></trkpt><trkpt lat="45.92769552953243" lon="11.914499767091224"><ele>297.0</ele><time>2026-04-26T10:44:34Z</time></trkpt><trkpt lat="45.927646270222084" lon="11.914595478741633"><ele>297.0</ele><time>2026-04-26T10:44:35Z</time></trkpt><trkpt lat="45.92759718740205" lon="11.914687179514338"><ele>297.0</ele><time>2026-04-26T10:44:36Z</time></trkpt><trkpt lat="45.92754642504742" lon="11.914783970546523"><ele>297.0</ele><time>2026-04-26T10:44:37Z</time></trkpt><trkpt lat="45.92749440689353" lon="11.914874513364682"><ele>297.0</ele><time>2026-04-26T10:44:38Z</time></trkpt><trkpt lat="45.92743720932008" lon="11.914967442742313"><ele>296.0</ele><time>2026-04-26T10:44:39Z</time></trkpt><trkpt lat="45.92737804424525" lon="11.915068734957186"><ele>295.0</ele><time>2026-04-26T10:44:40Z</time></trkpt><trkpt lat="45.92731773651456" lon="11.915179964638764"><ele>294.0</ele><time>2026-04-26T10:44:41Z</time></trkpt><trkpt lat="45.92727251200431" lon="11.915296867573801"><ele>293.0</ele><time>2026-04-26T10:44:42Z</time></trkpt><trkpt lat="45.92722698089506" lon="11.915420048619803"><ele>292.0</ele><time>2026-04-26T10:44:43Z</time></trkpt><trkpt lat="45.92717797505371" lon="11.915543523874188"><ele>292.0</ele><time>2026-04-26T10:44:44Z</time></trkpt><trkpt lat="45.92711500370487" lon="11.915644623556265"><ele>292.0</ele><time>2026-04-26T10:44:45Z</time></trkpt><trkpt lat="45.92704482922623" lon="11.915724624372311"><ele>292.0</ele><time>2026-04-26T10:44:46Z</time></trkpt><trkpt lat="45.926966334065845" lon="11.915800811015712"><ele>292.0</ele><time>2026-04-26T10:44:47Z</time></trkpt><trkpt lat="45.92688378356005" lon="11.915879822507184"><ele>292.0</ele><time>2026-04-26T10:44:48Z</time></trkpt><trkpt lat="45.926802800921635" lon="11.915948360492747"><ele>293.0</ele><time>2026-04-26T10:44:49Z</time></trkpt><trkpt lat="45.92672510593262" lon="11.916019196430263"><ele>294.0</ele><time>2026-04-26T10:44:50Z</time></trkpt><trkpt lat="45.92664582323149" lon="11.916076129274138"><ele>295.0</ele><time>2026-04-26T10:44:51Z</time></trkpt><trkpt lat="45.92656184980683" lon="11.916138014795013"><ele>296.0</ele><time>2026-04-26T10:44:52Z</time></trkpt><trkpt lat="45.926481461189894" lon="11.916214537564574"><ele>297.0</ele><time>2026-04-26T10:44:53Z</time></trkpt><trkpt lat="45.92639956956292" lon="11.916305674222976"><ele>297.0</ele><time>2026-04-26T10:44:54Z</time></trkpt><trkpt lat="45.926320754648955" lon="11.916399504636788"><ele>297.0</ele><time>2026-04-26T10:44:55Z</time></trkpt><trkpt lat="45.92624888892683" lon="11.916490358144092"><ele>297.0</ele><time>2026-04-26T10:44:56Z</time></trkpt><trkpt lat="45.92617564467292" lon="11.916574517285182"><ele>297.0</ele><time>2026-04-26T10:44:57Z</time></trkpt><trkpt lat="45.926101530309545" lon="11.916658411515336"><ele>297.0</ele><time>2026-04-26T10:44:58Z</time></trkpt><trkpt lat="45.926012692867815" lon="11.916706706010556"><ele>298.4</ele><time>2026-04-26T10:44:59Z</time></trkpt><trkpt lat="45.92592377497966" lon="11.916761182830674"><ele>299.79999999999995</ele><time>2026-04-26T10:45:00Z</time></trkpt><trkpt lat="45.92583959434007" lon="11.9168351795492"><ele>301.2</ele><time>2026-04-26T10:45:01Z</time></trkpt><trkpt lat="45.92575282428157" lon="11.916885289327322"><ele>302.59999999999997</ele><time>2026-04-26T10:45:02Z</time></trkpt><trkpt lat="45.92566835788863" lon="11.916947580658794"><ele>304.0</ele><time>2026-04-26T10:45:03Z</time></trkpt><trkpt lat="45.92559198379037" lon="11.917018612433717"><ele>304.0</ele><time>2026-04-26T10:45:04Z</time></trkpt><trkpt lat="45.92552553996638" lon="11.917094845473882"><ele>304.0</ele><time>2026-04-26T10:45:05Z</time></trkpt><trkpt lat="45.92545402077985" lon="11.917166262732568"><ele>304.0</ele><time>2026-04-26T10:45:06Z</time></trkpt><trkpt lat="45.92538534478056" lon="11.917252537196317"><ele>304.0</ele><time>2026-04-26T10:45:07Z</time></trkpt><trkpt lat="45.925315492233814" lon="11.91733689185591"><ele>304.0</ele><time>2026-04-26T10:45:08Z</time></trkpt><trkpt lat="45.92524463560755" lon="11.917426857025669"><ele>304.0</ele><time>2026-04-26T10:45:09Z</time></trkpt><trkpt lat="45.92516858314609" lon="11.917519841869211"><ele>302.8</ele><time>2026-04-26T10:45:10Z</time></trkpt><trkpt lat="45.92509320598773" lon="11.917620168879367"><ele>301.59999999999997</ele><time>2026-04-26T10:45:11Z</time></trkpt><trkpt lat="45.92503088694302" lon="11.917738393826426"><ele>300.4</ele><time>2026-04-26T10:45:12Z</time></trkpt><trkpt lat="45.92496157988398" lon="11.917836559846553"><ele>299.2</ele><time>2026-04-26T10:45:13Z</time></trkpt><trkpt lat="45.92488689598425" lon="11.917928168945153"><ele>298.0</ele><time>2026-04-26T10:45:14Z</time></trkpt><trkpt lat="45.92480065146539" lon="11.918006877888681"><ele>298.0</ele><time>2026-04-26T10:45:15Z</time></trkpt><trkpt lat="45.92470119657282" lon="11.918093221730876"><ele>298.0</ele><time>2026-04-26T10:45:16Z</time></trkpt><trkpt lat="45.924618097409216" lon="11.918161453306048"><ele>298.0</ele><time>2026-04-26T10:45:17Z</time></trkpt><trkpt lat="45.92454031716471" lon="11.918232021196804"><ele>298.0</ele><time>2026-04-26T10:45:18Z</time></trkpt><trkpt lat="45.92446289924568" lon="11.918317733496329"><ele>298.0</ele><time>2026-04-26T10:45:19Z</time></trkpt><trkpt lat="45.92438095942854" lon="11.918402047852007"><ele>293.6</ele><time>2026-04-26T10:45:20Z</time></trkpt><trkpt lat="45.924285727552885" lon="11.918508254562777"><ele>289.20000000000005</ele><time>2026-04-26T10:45:21Z</time></trkpt><trkpt lat="45.924212108432094" lon="11.918633738935265"><ele>284.8</ele><time>2026-04-26T10:45:22Z</time></trkpt><trkpt lat="45.92415577193495" lon="11.918775795546345"><ele>280.40000000000003</ele><time>2026-04-26T10:45:23Z</time></trkpt><trkpt lat="45.92412259684241" lon="11.918912106022393"><ele>276.0</ele><time>2026-04-26T10:45:24Z</time></trkpt><trkpt lat="45.92408327600501" lon="11.919040673976578"><ele>276.0</ele><time>2026-04-26T10:45:25Z</time></trkpt><trkpt lat="45.92405443242292" lon="11.919178549271745"><ele>276.0</ele><time>2026-04-26T10:45:26Z</time></trkpt><trkpt lat="45.924018794570976" lon="11.919306453568012"><ele>276.0</ele><time>2026-04-26T10:45:27Z</time></trkpt><trkpt lat="45.92397644457022" lon="11.919437004982179"><ele>276.0</ele><time>2026-04-26T10:45:28Z</time></trkpt><trkpt lat="45.92391904014238" lon="11.919551587109128"><ele>276.0</ele><time>2026-04-26T10:45:29Z</time></trkpt><trkpt lat="45.923820908024105" lon="11.919642289262471"><ele>275.8</ele><time>2026-04-26T10:45:30Z</time></trkpt><trkpt lat="45.923733779132306" lon="11.919736817325985"><ele>275.6</ele><time>2026-04-26T10:45:31Z</time></trkpt><trkpt lat="45.92363737909103" lon="11.919825082658312"><ele>275.4</ele><time>2026-04-26T10:45:32Z</time></trkpt><trkpt lat="45.92354172816414" lon="11.919897499562557"><ele>275.2</ele><time>2026-04-26T10:45:33Z</time></trkpt><trkpt lat="45.923447400733444" lon="11.919979977009726"><ele>275.0</ele><time>2026-04-26T10:45:34Z</time></trkpt><trkpt lat="45.92336160639579" lon="11.920080465844682"><ele>275.0</ele><time>2026-04-26T10:45:35Z</time></trkpt><trkpt lat="45.92328746639738" lon="11.920206619110001"><ele>275.0</ele><time>2026-04-26T10:45:36Z</time></trkpt><trkpt lat="45.923225455341765" lon="11.92033078829976"><ele>275.0</ele><time>2026-04-26T10:45:37Z</time></trkpt><trkpt lat="45.92317797204227" lon="11.920473985457397"><ele>275.0</ele><time>2026-04-26T10:45:38Z</time></trkpt><trkpt lat="45.92313211189452" lon="11.920632478335786"><ele>275.0</ele><time>2026-04-26T10:45:39Z</time></trkpt><trkpt lat="45.92310017725571" lon="11.920794085043491"><ele>275.0</ele><time>2026-04-26T10:45:40Z</time></trkpt><trkpt lat="45.923099049590036" lon="11.920954900421279"><ele>275.0</ele><time>2026-04-26T10:45:41Z</time></trkpt><trkpt lat="45.92308887429887" lon="11.921114322253876"><ele>275.0</ele><time>2026-04-26T10:45:42Z</time></trkpt><trkpt lat="45.923077652707875" lon="11.921266775193072"><ele>275.0</ele><time>2026-04-26T10:45:43Z</time></trkpt><trkpt lat="45.92305229371619" lon="11.921409230057689"><ele>275.2</ele><time>2026-04-26T10:45:44Z</time></trkpt><trkpt lat="45.92303848539773" lon="11.921549565752628"><ele>275.4</ele><time>2026-04-26T10:45:45Z</time></trkpt><trkpt lat="45.923021651305234" lon="11.92168603700003"><ele>275.6</ele><time>2026-04-26T10:45:46Z</time></trkpt><trkpt lat="45.9230217873317" lon="11.921836420300101"><ele>275.8</ele><time>2026-04-26T10:45:47Z</time></trkpt><trkpt lat="45.923003997622224" lon="11.921963091798837"><ele>276.0</ele><time>2026-04-26T10:45:48Z</time></trkpt><trkpt lat="45.9230140365862" lon="11.922082527023486"><ele>277.0</ele><time>2026-04-26T10:45:49Z</time></trkpt><trkpt lat="45.92302549117619" lon="11.922198384765942"><ele>278.0</ele><time>2026-04-26T10:45:50Z</time></trkpt><trkpt lat="45.92303901583103" lon="11.922315540527048"><ele>279.0</ele><time>2026-04-26T10:45:51Z</time></trkpt><trkpt lat="45.92305558348378" lon="11.922442831092061"><ele>280.0</ele><time>2026-04-26T10:45:52Z</time></trkpt><trkpt lat="45.92306681617215" lon="11.92257908881628"><ele>281.0</ele><time>2026-04-26T10:45:53Z</time></trkpt><trkpt lat="45.92306583386507" lon="11.922718799705125"><ele>282.0</ele><time>2026-04-26T10:45:54Z</time></trkpt><trkpt lat="45.923057496732056" lon="11.922863220856419"><ele>283.4</ele><time>2026-04-26T10:45:55Z</time></trkpt><trkpt lat="45.92302654210703" lon="11.923004775756358"><ele>284.79999999999995</ele><time>2026-04-26T10:45:56Z</time></trkpt><trkpt lat="45.92298073076686" lon="11.923133590217603"><ele>286.2</ele><time>2026-04-26T10:45:57Z</time></trkpt><trkpt lat="45.922934130970546" lon="11.92325215255145"><ele>287.59999999999997</ele><time>2026-04-26T10:45:58Z</time></trkpt><trkpt lat="45.922884031905134" lon="11.923356364905281"><ele>289.0</ele><time>2026-04-26T10:45:59Z</time></trkpt><trkpt lat="45.922837703342786" lon="11.923456763619859"><ele>289.0</ele><time>2026-04-26T10:46:00Z</time></trkpt><trkpt lat="45.92279397669392" lon="11.92355795110882"><ele>289.0</ele><time>2026-04-26T10:46:01Z</time></trkpt><trkpt lat="45.92274451789563" lon="11.923663003954891"><ele>289.0</ele><time>2026-04-26T10:46:02Z</time></trkpt><trkpt lat="45.92267467702752" lon="11.923758216575864"><ele>289.0</ele><time>2026-04-26T10:46:03Z</time></trkpt><trkpt lat="45.92259695428471" lon="11.923830507305693"><ele>289.0</ele><time>2026-04-26T10:46:04Z</time></trkpt><trkpt lat="45.922521719949515" lon="11.923900198193945"><ele>289.0</ele><time>2026-04-26T10:46:05Z</time></trkpt><trkpt lat="45.9224579840827" lon="11.923986011922159"><ele>285.66666666666663</ele><time>2026-04-26T10:46:06Z</time></trkpt><trkpt lat="45.9224317741451" lon="11.924084323466788"><ele>282.3333333333333</ele><time>2026-04-26T10:46:07Z</time></trkpt><trkpt lat="45.92239257663737" lon="11.924166905206324"><ele>279.0</ele><time>2026-04-26T10:46:08Z</time></trkpt><trkpt lat="45.92236833628324" lon="11.924256777764757"><ele>275.6666666666667</ele><time>2026-04-26T10:46:09Z</time></trkpt><trkpt lat="45.92234262407189" lon="11.924411273474453"><ele>272.33333333333337</ele><time>2026-04-26T10:46:11Z</time></trkpt><trkpt lat="45.92232831734559" lon="11.924535207860428"><ele>269.0</ele><time>2026-04-26T10:46:13Z</time></trkpt><trkpt lat="45.92232325323505" lon="11.924642240612428"><ele>269.0</ele><time>2026-04-26T10:46:15Z</time></trkpt><trkpt lat="45.92232030981329" lon="11.924763519406039"><ele>269.0</ele><time>2026-04-26T10:46:17Z</time></trkpt><trkpt lat="45.922337336623556" lon="11.92489372088341"><ele>269.0</ele><time>2026-04-26T10:46:19Z</time></trkpt><trkpt lat="45.922343300730894" lon="11.925045856042045"><ele>269.0</ele><time>2026-04-26T10:46:21Z</time></trkpt><trkpt lat="45.92237381245631" lon="11.92519803170842"><ele>269.0</ele><time>2026-04-26T10:46:23Z</time></trkpt><trkpt lat="45.922429378274664" lon="11.925337347265726"><ele>268.2</ele><time>2026-04-26T10:46:25Z</time></trkpt><trkpt lat="45.92248865045269" lon="11.925482036212777"><ele>267.4</ele><time>2026-04-26T10:46:27Z</time></trkpt><trkpt lat="45.922556765049514" lon="11.925660556465253"><ele>266.6</ele><time>2026-04-26T10:46:29Z</time></trkpt><trkpt lat="45.922624991941355" lon="11.925792434246976"><ele>265.8</ele><time>2026-04-26T10:46:31Z</time></trkpt><trkpt lat="45.922660162048714" lon="11.92587462137042"><ele>265.0</ele><time>2026-04-26T10:46:32Z</time></trkpt><trkpt lat="45.92269481441575" lon="11.925954901247803"><ele>271.75</ele><time>2026-04-26T10:46:33Z</time></trkpt><trkpt lat="45.92275149689244" lon="11.926151779526705"><ele>278.5</ele><time>2026-04-26T10:46:35Z</time></trkpt><trkpt lat="45.922768756055895" lon="11.92631232345391"><ele>285.25</ele><time>2026-04-26T10:46:37Z</time></trkpt><trkpt lat="45.92274752827411" lon="11.926403327689961"><ele>292.0</ele><time>2026-04-26T10:46:38Z</time></trkpt><trkpt lat="45.92272744856183" lon="11.926589575722401"><ele>292.0</ele><time>2026-04-26T10:46:40Z</time></trkpt><trkpt lat="45.92270525391813" lon="11.92668331879702"><ele>292.0</ele><time>2026-04-26T10:46:41Z</time></trkpt><trkpt lat="45.9226898216475" lon="11.926784199575284"><ele>292.0</ele><time>2026-04-26T10:46:42Z</time></trkpt><trkpt lat="45.922676759849" lon="11.926875523235667"><ele>292.0</ele><time>2026-04-26T10:46:43Z</time></trkpt><trkpt lat="45.92266160509605" lon="11.92696534114553"><ele>292.0</ele><time>2026-04-26T10:46:44Z</time></trkpt><trkpt lat="45.92260048387054" lon="11.927115506498511"><ele>292.0</ele><time>2026-04-26T10:46:46Z</time></trkpt><trkpt lat="45.92255599815716" lon="11.92725295889538"><ele>288.2</ele><time>2026-04-26T10:46:48Z</time></trkpt><trkpt lat="45.922508499747195" lon="11.927355272720266"><ele>284.4</ele><time>2026-04-26T10:46:50Z</time></trkpt><trkpt lat="45.9224131426208" lon="11.927442135747837"><ele>280.6</ele><time>2026-04-26T10:46:52Z</time></trkpt><trkpt lat="45.922297628571776" lon="11.92751597718069"><ele>276.8</ele><time>2026-04-26T10:46:54Z</time></trkpt><trkpt lat="45.92218276413354" lon="11.92756968582874"><ele>273.0</ele><time>2026-04-26T10:46:56Z</time></trkpt><trkpt lat="45.922077970713936" lon="11.927644997747256"><ele>273.0</ele><time>2026-04-26T10:46:58Z</time></trkpt><trkpt lat="45.921986893223796" lon="11.92771010733317"><ele>273.0</ele><time>2026-04-26T10:47:00Z</time></trkpt><trkpt lat="45.9219268927243" lon="11.927737937319066"><ele>273.0</ele><time>2026-04-26T10:47:01Z</time></trkpt><trkpt lat="45.92187119480066" lon="11.927783788564506"><ele>273.0</ele><time>2026-04-26T10:47:02Z</time></trkpt><trkpt lat="45.92175356538904" lon="11.927831100262656"><ele>273.0</ele><time>2026-04-26T10:47:04Z</time></trkpt><trkpt lat="45.921646496716825" lon="11.927898152584024"><ele>272.0</ele><time>2026-04-26T10:47:06Z</time></trkpt><trkpt lat="45.92157642845265" lon="11.927942033151197"><ele>271.0</ele><time>2026-04-26T10:47:07Z</time></trkpt><trkpt lat="45.92151451627969" lon="11.927999208306254"><ele>270.0</ele><time>2026-04-26T10:47:08Z</time></trkpt><trkpt lat="45.92145649024381" lon="11.928037915026264"><ele>269.0</ele><time>2026-04-26T10:47:09Z</time></trkpt><trkpt lat="45.921348719389435" lon="11.92810053031046"><ele>268.0</ele><time>2026-04-26T10:47:11Z</time></trkpt><trkpt lat="45.92128766937587" lon="11.928134357041564"><ele>267.0</ele><time>2026-04-26T10:47:12Z</time></trkpt><trkpt lat="45.92122612041472" lon="11.928172243795442"><ele>267.0</ele><time>2026-04-26T10:47:13Z</time></trkpt><trkpt lat="45.92115243366211" lon="11.92819428696332"><ele>267.0</ele><time>2026-04-26T10:47:14Z</time></trkpt><trkpt lat="45.92107700900577" lon="11.928256686802689"><ele>267.0</ele><time>2026-04-26T10:47:15Z</time></trkpt><trkpt lat="45.921006703760746" lon="11.928292645684074"><ele>267.0</ele><time>2026-04-26T10:47:16Z</time></trkpt><trkpt lat="45.9209177357791" lon="11.928307625577837"><ele>267.0</ele><time>2026-04-26T10:47:17Z</time></trkpt><trkpt lat="45.920835572794374" lon="11.928342251339648"><ele>267.0</ele><time>2026-04-26T10:47:18Z</time></trkpt><trkpt lat="45.92073254976384" lon="11.928385539951817"><ele>267.0</ele><time>2026-04-26T10:47:19Z</time></trkpt><trkpt lat="45.920640615937984" lon="11.9284231726716"><ele>267.0</ele><time>2026-04-26T10:47:20Z</time></trkpt><trkpt lat="45.920554698298496" lon="11.928458447051229"><ele>267.0</ele><time>2026-04-26T10:47:21Z</time></trkpt><trkpt lat="45.92048734640774" lon="11.928486268466592"><ele>267.0</ele><time>2026-04-26T10:47:22Z</time></trkpt><trkpt lat="45.92041941996172" lon="11.928515401837315"><ele>267.0</ele><time>2026-04-26T10:47:23Z</time></trkpt><trkpt lat="45.920294288926" lon="11.928572419923839"><ele>267.0</ele><time>2026-04-26T10:47:25Z</time></trkpt><trkpt lat="45.92022578055953" lon="11.928611109592248"><ele>267.0</ele><time>2026-04-26T10:47:26Z</time></trkpt><trkpt lat="45.92016338880926" lon="11.928653707503686"><ele>267.0</ele><time>2026-04-26T10:47:27Z</time></trkpt><trkpt lat="45.920054318754175" lon="11.92872538595039"><ele>267.0</ele><time>2026-04-26T10:47:29Z</time></trkpt><trkpt lat="45.9199860190427" lon="11.928768489275916"><ele>267.0</ele><time>2026-04-26T10:47:30Z</time></trkpt><trkpt lat="45.91991102382661" lon="11.92881590615431"><ele>267.0</ele><time>2026-04-26T10:47:31Z</time></trkpt><trkpt lat="45.919839264902805" lon="11.928859905254257"><ele>266.3333333333333</ele><time>2026-04-26T10:47:32Z</time></trkpt><trkpt lat="45.91976608514575" lon="11.928904775478095"><ele>265.6666666666667</ele><time>2026-04-26T10:47:33Z</time></trkpt><trkpt lat="45.91968696741982" lon="11.928954010219748"><ele>265.0</ele><time>2026-04-26T10:47:34Z</time></trkpt><trkpt lat="45.91960652716993" lon="11.92900607374325"><ele>264.33333333333337</ele><time>2026-04-26T10:47:35Z</time></trkpt><trkpt lat="45.91953085392447" lon="11.929055052341415"><ele>263.6666666666667</ele><time>2026-04-26T10:47:36Z</time></trkpt><trkpt lat="45.91945895319817" lon="11.929103424502127"><ele>263.0</ele><time>2026-04-26T10:47:37Z</time></trkpt><trkpt lat="45.91939498285694" lon="11.929165178561204"><ele>263.0</ele><time>2026-04-26T10:47:38Z</time></trkpt><trkpt lat="45.91932971909869" lon="11.929190067393217"><ele>263.0</ele><time>2026-04-26T10:47:39Z</time></trkpt><trkpt lat="45.919254535224475" lon="11.929265071318166"><ele>263.0</ele><time>2026-04-26T10:47:41Z</time></trkpt><trkpt lat="45.91918244547153" lon="11.929315794004392"><ele>263.0</ele><time>2026-04-26T10:47:44Z</time></trkpt><trkpt lat="45.91911020425979" lon="11.929341315854359"><ele>263.0</ele><time>2026-04-26T10:47:46Z</time></trkpt><trkpt lat="45.91901909598273" lon="11.929360182158856"><ele>263.0</ele><time>2026-04-26T10:47:48Z</time></trkpt><trkpt lat="45.918949346522744" lon="11.929429517288117"><ele>262.6666666666667</ele><time>2026-04-26T10:47:50Z</time></trkpt><trkpt lat="45.918880758882835" lon="11.929490172506853"><ele>262.33333333333337</ele><time>2026-04-26T10:47:52Z</time></trkpt><trkpt lat="45.91882292516687" lon="11.929532165012764"><ele>262.0</ele><time>2026-04-26T10:47:55Z</time></trkpt><trkpt lat="45.91877356328877" lon="11.929600269461773"><ele>261.6666666666667</ele><time>2026-04-26T10:47:58Z</time></trkpt><trkpt lat="45.91869106094875" lon="11.929703066456913"><ele>261.3333333333333</ele><time>2026-04-26T10:48:01Z</time></trkpt><trkpt lat="45.91862075580773" lon="11.929672535625036"><ele>261.0</ele><time>2026-04-26T10:48:02Z</time></trkpt><trkpt lat="45.91870331704367" lon="11.929689000999556"><ele>261.0</ele><time>2026-04-26T10:48:28.999Z</time></trkpt><trkpt lat="45.91861315449018" lon="11.929714020565363"><ele>261.0</ele><time>2026-04-26T10:48:33Z</time></trkpt><trkpt lat="45.918584395306745" lon="11.929863728910652"><ele>261.0</ele><time>2026-04-26T10:48:35Z</time></trkpt><trkpt lat="45.91850321602442" lon="11.929916882792044"><ele>261.0</ele><time>2026-04-26T10:48:37Z</time></trkpt><trkpt lat="45.91838059414098" lon="11.929883476499372"><ele>261.0</ele><time>2026-04-26T10:48:39Z</time></trkpt><trkpt lat="45.91830533378399" lon="11.929807812125029"><ele>260.6666666666667</ele><time>2026-04-26T10:48:40Z</time></trkpt><trkpt lat="45.91821275588498" lon="11.929766635720547"><ele>260.3333333333333</ele><time>2026-04-26T10:48:41Z</time></trkpt><trkpt lat="45.918141775756176" lon="11.929727074744388"><ele>260.0</ele><time>2026-04-26T10:48:42Z</time></trkpt><trkpt lat="45.91806754083943" lon="11.929690912020538"><ele>259.66666666666663</ele><time>2026-04-26T10:48:43Z</time></trkpt><trkpt lat="45.91799866365586" lon="11.929658492293475"><ele>259.3333333333333</ele><time>2026-04-26T10:48:44Z</time></trkpt><trkpt lat="45.91792162196272" lon="11.929610161282781"><ele>259.0</ele><time>2026-04-26T10:48:45Z</time></trkpt><trkpt lat="45.91784727839428" lon="11.929583988525177"><ele>259.0</ele><time>2026-04-26T10:48:46Z</time></trkpt><trkpt lat="45.91777606143882" lon="11.929549538820371"><ele>259.0</ele><time>2026-04-26T10:48:47Z</time></trkpt><trkpt lat="45.91770120969186" lon="11.929521351821974"><ele>259.0</ele><time>2026-04-26T10:48:48Z</time></trkpt><trkpt lat="45.91759223285349" lon="11.929504563472003"><ele>259.0</ele><time>2026-04-26T10:48:50Z</time></trkpt><trkpt lat="45.917504272697364" lon="11.929461092848266"><ele>259.0</ele><time>2026-04-26T10:48:51Z</time></trkpt><trkpt lat="45.91742987499194" lon="11.929419847421112"><ele>259.0</ele><time>2026-04-26T10:48:52Z</time></trkpt><trkpt lat="45.91729857021816" lon="11.929383886045999"><ele>258.4</ele><time>2026-04-26T10:48:54Z</time></trkpt><trkpt lat="45.917176395536124" lon="11.929355325686318"><ele>257.79999999999995</ele><time>2026-04-26T10:48:56Z</time></trkpt><trkpt lat="45.9170911598687" lon="11.92931224270817"><ele>257.20000000000005</ele><time>2026-04-26T10:48:57Z</time></trkpt><trkpt lat="45.91702832220831" lon="11.92930188682249"><ele>256.6</ele><time>2026-04-26T10:48:58Z</time></trkpt><trkpt lat="45.91691342277783" lon="11.929276788104904"><ele>256.0</ele><time>2026-04-26T10:49:00Z</time></trkpt><trkpt lat="45.91679970848381" lon="11.929239511802683"><ele>256.0</ele><time>2026-04-26T10:49:02Z</time></trkpt><trkpt lat="45.916731436150286" lon="11.929229594150431"><ele>255.99999999999997</ele><time>2026-04-26T10:49:03Z</time></trkpt><trkpt lat="45.91666128317278" lon="11.929255279528183"><ele>256.0</ele><time>2026-04-26T10:49:04Z</time></trkpt><trkpt lat="45.916600131686636" lon="11.929288208048751"><ele>256.0</ele><time>2026-04-26T10:49:05Z</time></trkpt><trkpt lat="45.916538981335" lon="11.929327360957933"><ele>255.99999999999997</ele><time>2026-04-26T10:49:06Z</time></trkpt><trkpt lat="45.9164761829833" lon="11.929388817409297"><ele>256.0</ele><time>2026-04-26T10:49:07Z</time></trkpt><trkpt lat="45.916421381548034" lon="11.9294736993228"><ele>256.0</ele><time>2026-04-26T10:49:08Z</time></trkpt><trkpt lat="45.91636181716273" lon="11.92955363232358"><ele>255.99999999999997</ele><time>2026-04-26T10:49:09Z</time></trkpt><trkpt lat="45.91629921232019" lon="11.929632131806262"><ele>256.0</ele><time>2026-04-26T10:49:10Z</time></trkpt><trkpt lat="45.91623443355754" lon="11.929701143673505"><ele>256.0</ele><time>2026-04-26T10:49:11Z</time></trkpt><trkpt lat="45.91615018835061" lon="11.929757146055518"><ele>256.0</ele><time>2026-04-26T10:49:12Z</time></trkpt><trkpt lat="45.91607354363324" lon="11.929800575917517"><ele>255.99999999999997</ele><time>2026-04-26T10:49:13Z</time></trkpt><trkpt lat="45.91599816610712" lon="11.929831119422724"><ele>256.0</ele><time>2026-04-26T10:49:14Z</time></trkpt><trkpt lat="45.91591601430126" lon="11.929850618304005"><ele>255.99999999999997</ele><time>2026-04-26T10:49:15Z</time></trkpt><trkpt lat="45.91583393656739" lon="11.929880866573827"><ele>256.0</ele><time>2026-04-26T10:49:16Z</time></trkpt><trkpt lat="45.91576493052419" lon="11.92995649582252"><ele>256.0</ele><time>2026-04-26T10:49:17Z</time></trkpt><trkpt lat="45.91569905920582" lon="11.930047906574302"><ele>256.0</ele><time>2026-04-26T10:49:18Z</time></trkpt><trkpt lat="45.91564778946194" lon="11.930145148808279"><ele>255.99999999999997</ele><time>2026-04-26T10:49:19Z</time></trkpt><trkpt lat="45.91558455149727" lon="11.930225192093214"><ele>256.0</ele><time>2026-04-26T10:49:20Z</time></trkpt><trkpt lat="45.91550617664453" lon="11.93027508280174"><ele>255.99999999999997</ele><time>2026-04-26T10:49:21Z</time></trkpt><trkpt lat="45.91542314598915" lon="11.93028321449415"><ele>256.0</ele><time>2026-04-26T10:49:22Z</time></trkpt><trkpt lat="45.91534663351872" lon="11.930302771362383"><ele>256.0</ele><time>2026-04-26T10:49:23Z</time></trkpt><trkpt lat="45.915269512908075" lon="11.93031959593833"><ele>256.0</ele><time>2026-04-26T10:49:24Z</time></trkpt><trkpt lat="45.91518359974204" lon="11.930336832078112"><ele>255.99999999999997</ele><time>2026-04-26T10:49:25Z</time></trkpt><trkpt lat="45.91509749439924" lon="11.930384442460333"><ele>256.0</ele><time>2026-04-26T10:49:26Z</time></trkpt><trkpt lat="45.91500888617789" lon="11.930399400316333"><ele>254.8</ele><time>2026-04-26T10:49:27Z</time></trkpt><trkpt lat="45.914931939750346" lon="11.93048092519554"><ele>253.60000000000002</ele><time>2026-04-26T10:49:28Z</time></trkpt><trkpt lat="45.91486457628075" lon="11.93056820344313"><ele>252.4</ele><time>2026-04-26T10:49:29Z</time></trkpt><trkpt lat="45.91478933917185" lon="11.930640685349278"><ele>251.2</ele><time>2026-04-26T10:49:30Z</time></trkpt><trkpt lat="45.91471044156697" lon="11.93071204402877"><ele>250.0</ele><time>2026-04-26T10:49:31Z</time></trkpt><trkpt lat="45.91462140456045" lon="11.930766721588897"><ele>250.0</ele><time>2026-04-26T10:49:32Z</time></trkpt><trkpt lat="45.91452065867374" lon="11.930782628017605"><ele>250.0</ele><time>2026-04-26T10:49:33Z</time></trkpt><trkpt lat="45.91440884898418" lon="11.930836522221934"><ele>250.0</ele><time>2026-04-26T10:49:34Z</time></trkpt><trkpt lat="45.91432045513844" lon="11.930877537277276"><ele>250.0</ele><time>2026-04-26T10:49:35Z</time></trkpt><trkpt lat="45.914225188985974" lon="11.9309172210538"><ele>250.0</ele><time>2026-04-26T10:49:36Z</time></trkpt><trkpt lat="45.914128778095" lon="11.93096282437282"><ele>249.6</ele><time>2026-04-26T10:49:37Z</time></trkpt><trkpt lat="45.914003686780546" lon="11.93098011696934"><ele>249.2</ele><time>2026-04-26T10:49:38Z</time></trkpt><trkpt lat="45.91391040138957" lon="11.931041435062843"><ele>248.8</ele><time>2026-04-26T10:49:39Z</time></trkpt><trkpt lat="45.91383506666834" lon="11.93110953465188"><ele>248.4</ele><time>2026-04-26T10:49:40Z</time></trkpt><trkpt lat="45.913757488433234" lon="11.931185635028811"><ele>248.0</ele><time>2026-04-26T10:49:41Z</time></trkpt><trkpt lat="45.91368991094479" lon="11.931285084568012"><ele>248.0</ele><time>2026-04-26T10:49:42Z</time></trkpt><trkpt lat="45.91362467873442" lon="11.931371532797927"><ele>248.0</ele><time>2026-04-26T10:49:43Z</time></trkpt><trkpt lat="45.91356226590085" lon="11.93146717114531"><ele>248.0</ele><time>2026-04-26T10:49:44Z</time></trkpt><trkpt lat="45.913506863583315" lon="11.931587542413412"><ele>248.0</ele><time>2026-04-26T10:49:45Z</time></trkpt><trkpt lat="45.913445971087334" lon="11.931675714849913"><ele>248.0</ele><time>2026-04-26T10:49:46Z</time></trkpt><trkpt lat="45.91339293805732" lon="11.931778137014492"><ele>247.50000000000003</ele><time>2026-04-26T10:49:47Z</time></trkpt><trkpt lat="45.91332735067875" lon="11.931868684146709"><ele>247.0</ele><time>2026-04-26T10:49:48Z</time></trkpt><trkpt lat="45.91325272665246" lon="11.931941432942297"><ele>246.5</ele><time>2026-04-26T10:49:49Z</time></trkpt><trkpt lat="45.91318303235406" lon="11.932017288778493"><ele>246.0</ele><time>2026-04-26T10:49:50Z</time></trkpt><trkpt lat="45.9131063018123" lon="11.932086114238706"><ele>245.50000000000003</ele><time>2026-04-26T10:49:51Z</time></trkpt><trkpt lat="45.913031597059195" lon="11.93213680646052"><ele>245.0</ele><time>2026-04-26T10:49:52Z</time></trkpt><trkpt lat="45.91293894084425" lon="11.932197868499063"><ele>245.0</ele><time>2026-04-26T10:49:53Z</time></trkpt><trkpt lat="45.91286388918645" lon="11.93225947342224"><ele>245.0</ele><time>2026-04-26T10:49:54Z</time></trkpt><trkpt lat="45.912777391406365" lon="11.932319649389838"><ele>245.0</ele><time>2026-04-26T10:49:55Z</time></trkpt><trkpt lat="45.91268694472982" lon="11.932384148876418"><ele>245.0</ele><time>2026-04-26T10:49:56Z</time></trkpt><trkpt lat="45.91258955872453" lon="11.932449212986581"><ele>245.0</ele><time>2026-04-26T10:49:57Z</time></trkpt><trkpt lat="45.91249703678916" lon="11.932513753678004"><ele>244.6</ele><time>2026-04-26T10:49:58Z</time></trkpt><trkpt lat="45.91240291824071" lon="11.9325477659666"><ele>244.2</ele><time>2026-04-26T10:49:59Z</time></trkpt><trkpt lat="45.912297994570864" lon="11.932564072533824"><ele>243.8</ele><time>2026-04-26T10:50:00Z</time></trkpt><trkpt lat="45.912179380388444" lon="11.932555988268128"><ele>243.4</ele><time>2026-04-26T10:50:01Z</time></trkpt><trkpt lat="45.91206948165029" lon="11.932568781066301"><ele>243.0</ele><time>2026-04-26T10:50:02Z</time></trkpt><trkpt lat="45.9119586826723" lon="11.93257851585811"><ele>243.0</ele><time>2026-04-26T10:50:03Z</time></trkpt><trkpt lat="45.9118530314681" lon="11.932592305378382"><ele>243.0</ele><time>2026-04-26T10:50:04Z</time></trkpt><trkpt lat="45.91175840461974" lon="11.932584976079525"><ele>243.0</ele><time>2026-04-26T10:50:05Z</time></trkpt><trkpt lat="45.91166937301968" lon="11.932551111059766"><ele>243.0</ele><time>2026-04-26T10:50:06Z</time></trkpt><trkpt lat="45.91158978558437" lon="11.932496106274586"><ele>243.0</ele><time>2026-04-26T10:50:07Z</time></trkpt><trkpt lat="45.91151800333785" lon="11.932469985873958"><ele>238.33333333333334</ele><time>2026-04-26T10:50:08Z</time></trkpt><trkpt lat="45.91143694851803" lon="11.93246809670137"><ele>233.66666666666669</ele><time>2026-04-26T10:50:09Z</time></trkpt><trkpt lat="45.911351357769135" lon="11.932483269449245"><ele>229.0</ele><time>2026-04-26T10:50:10Z</time></trkpt><trkpt lat="45.91126833260718" lon="11.932494079705906"><ele>224.33333333333334</ele><time>2026-04-26T10:50:10.999Z</time></trkpt><trkpt lat="45.91119439302053" lon="11.93250682165552"><ele>219.66666666666669</ele><time>2026-04-26T10:50:11.999Z</time></trkpt><trkpt lat="45.911118712320004" lon="11.932517557009415"><ele>215.0</ele><time>2026-04-26T10:50:12.999Z</time></trkpt><trkpt lat="45.91104061703768" lon="11.932533355601505"><ele>218.16666666666669</ele><time>2026-04-26T10:50:13.999Z</time></trkpt><trkpt lat="45.910965668677456" lon="11.932567689192572"><ele>221.33333333333334</ele><time>2026-04-26T10:50:14.999Z</time></trkpt><trkpt lat="45.91089071041282" lon="11.93261943630969"><ele>224.5</ele><time>2026-04-26T10:50:15.999Z</time></trkpt><trkpt lat="45.91082216046676" lon="11.932675942808098"><ele>227.66666666666669</ele><time>2026-04-26T10:50:16.999Z</time></trkpt><trkpt lat="45.910749108677194" lon="11.932739802111163"><ele>230.83333333333334</ele><time>2026-04-26T10:50:17.999Z</time></trkpt><trkpt lat="45.91067969069783" lon="11.932807775956555"><ele>234.0</ele><time>2026-04-26T10:50:18.999Z</time></trkpt><trkpt lat="45.91059112188019" lon="11.932827482808243"><ele>234.0</ele><time>2026-04-26T10:50:19.999Z</time></trkpt><trkpt lat="45.91050763660531" lon="11.932852059603917"><ele>234.0</ele><time>2026-04-26T10:50:20.999Z</time></trkpt><trkpt lat="45.910423068081286" lon="11.932863712447864"><ele>234.0</ele><time>2026-04-26T10:50:21.999Z</time></trkpt><trkpt lat="45.91032772120987" lon="11.932879643304458"><ele>234.0</ele><time>2026-04-26T10:50:22.999Z</time></trkpt><trkpt lat="45.910237173511476" lon="11.932913260839046"><ele>234.0</ele><time>2026-04-26T10:50:23.999Z</time></trkpt><trkpt lat="45.9101497176183" lon="11.932936616388703"><ele>234.0</ele><time>2026-04-26T10:50:24.999Z</time></trkpt><trkpt lat="45.91006775283412" lon="11.932979036415231"><ele>229.79999999999998</ele><time>2026-04-26T10:50:25.999Z</time></trkpt><trkpt lat="45.9099890243373" lon="11.933032489163573"><ele>225.59999999999997</ele><time>2026-04-26T10:50:26.999Z</time></trkpt><trkpt lat="45.9099170869796" lon="11.933095677369373"><ele>221.4</ele><time>2026-04-26T10:50:27.999Z</time></trkpt><trkpt lat="45.909837529854585" lon="11.933163151010163"><ele>217.2</ele><time>2026-04-26T10:50:28.999Z</time></trkpt><trkpt lat="45.909784484953015" lon="11.933280779947147"><ele>213.0</ele><time>2026-04-26T10:50:29.999Z</time></trkpt><trkpt lat="45.909721567360904" lon="11.93338791438005"><ele>215.60000000000002</ele><time>2026-04-26T10:50:30.999Z</time></trkpt><trkpt lat="45.9096723713232" lon="11.933507393921026"><ele>218.20000000000002</ele><time>2026-04-26T10:50:31.999Z</time></trkpt><trkpt lat="45.9096346064969" lon="11.933633372785414"><ele>220.8</ele><time>2026-04-26T10:50:32.999Z</time></trkpt><trkpt lat="45.90959036036224" lon="11.933748853974814"><ele>223.4</ele><time>2026-04-26T10:50:33.999Z</time></trkpt><trkpt lat="45.909554047907406" lon="11.933854735998437"><ele>226.0</ele><time>2026-04-26T10:50:34.999Z</time></trkpt><trkpt lat="45.90949326017969" lon="11.933956076702218"><ele>225.99999999999997</ele><time>2026-04-26T10:50:35.999Z</time></trkpt><trkpt lat="45.90944189039103" lon="11.934066683503884"><ele>226.0</ele><time>2026-04-26T10:50:37Z</time></trkpt><trkpt lat="45.909398453086695" lon="11.934188578013185"><ele>226.0</ele><time>2026-04-26T10:50:38Z</time></trkpt><trkpt lat="45.90937140413585" lon="11.934285459941389"><ele>226.0</ele><time>2026-04-26T10:50:39Z</time></trkpt><trkpt lat="45.909334633073456" lon="11.934387869751502"><ele>225.99999999999997</ele><time>2026-04-26T10:50:40Z</time></trkpt><trkpt lat="45.90929340075305" lon="11.934478748297758"><ele>226.0</ele><time>2026-04-26T10:50:41Z</time></trkpt><trkpt lat="45.90926051634159" lon="11.93457064518841"><ele>221.4</ele><time>2026-04-26T10:50:42Z</time></trkpt><trkpt lat="45.90921113109607" lon="11.934637150757974"><ele>216.8</ele><time>2026-04-26T10:50:43Z</time></trkpt><trkpt lat="45.90909544407092" lon="11.934689214792645"><ele>212.20000000000002</ele><time>2026-04-26T10:50:45Z</time></trkpt><trkpt lat="45.908966025438325" lon="11.934644138917749"><ele>207.60000000000002</ele><time>2026-04-26T10:50:47Z</time></trkpt><trkpt lat="45.9088949622155" lon="11.93458661981909"><ele>203.0</ele><time>2026-04-26T10:50:48Z</time></trkpt><trkpt lat="45.90882490171785" lon="11.934541090580806"><ele>203.00000000000003</ele><time>2026-04-26T10:50:49Z</time></trkpt><trkpt lat="45.90874877081358" lon="11.934491001451605"><ele>203.0</ele><time>2026-04-26T10:50:50Z</time></trkpt><trkpt lat="45.908674893222646" lon="11.934442326355718"><ele>203.0</ele><time>2026-04-26T10:50:51Z</time></trkpt><trkpt lat="45.90860699052807" lon="11.934400109069651"><ele>203.0</ele><time>2026-04-26T10:50:52Z</time></trkpt><trkpt lat="45.90854435293184" lon="11.934361606685968"><ele>203.00000000000003</ele><time>2026-04-26T10:50:53Z</time></trkpt><trkpt lat="45.90848319573976" lon="11.934319764590681"><ele>203.0</ele><time>2026-04-26T10:50:54Z</time></trkpt><trkpt lat="45.90837925146241" lon="11.934249885200762"><ele>200.75</ele><time>2026-04-26T10:50:56Z</time></trkpt><trkpt lat="45.908263417498354" lon="11.934182287621915"><ele>198.5</ele><time>2026-04-26T10:50:58Z</time></trkpt><trkpt lat="45.90815923480032" lon="11.934119130186389"><ele>196.25</ele><time>2026-04-26T10:51:00Z</time></trkpt><trkpt lat="45.90804226687675" lon="11.93407278224414"><ele>194.0</ele><time>2026-04-26T10:51:02Z</time></trkpt><trkpt lat="45.90792263141901" lon="11.93409901918203"><ele>194.00000000000003</ele><time>2026-04-26T10:51:04Z</time></trkpt><trkpt lat="45.90785950482164" lon="11.934152777389787"><ele>194.0</ele><time>2026-04-26T10:51:05Z</time></trkpt><trkpt lat="45.90780437137329" lon="11.93422534902995"><ele>194.0</ele><time>2026-04-26T10:51:06Z</time></trkpt><trkpt lat="45.907750355665634" lon="11.934310364214259"><ele>194.0</ele><time>2026-04-26T10:51:07Z</time></trkpt><trkpt lat="45.90770401414572" lon="11.934390480402502"><ele>194.00000000000003</ele><time>2026-04-26T10:51:08Z</time></trkpt><trkpt lat="45.907666047179404" lon="11.934505459131039"><ele>194.0</ele><time>2026-04-26T10:51:09Z</time></trkpt><trkpt lat="45.90761592313047" lon="11.934610306919835"><ele>194.6</ele><time>2026-04-26T10:51:10Z</time></trkpt><trkpt lat="45.90756790465854" lon="11.934719095383752"><ele>195.2</ele><time>2026-04-26T10:51:11Z</time></trkpt><trkpt lat="45.907509330972665" lon="11.934826733685558"><ele>195.79999999999998</ele><time>2026-04-26T10:51:12Z</time></trkpt><trkpt lat="45.90745488599089" lon="11.934939883781837"><ele>196.39999999999998</ele><time>2026-04-26T10:51:13Z</time></trkpt><trkpt lat="45.90739313187368" lon="11.935056187708236"><ele>197.0</ele><time>2026-04-26T10:51:14Z</time></trkpt><trkpt lat="45.90733625684866" lon="11.935183763899305"><ele>195.25</ele><time>2026-04-26T10:51:15Z</time></trkpt><trkpt lat="45.90726431640983" lon="11.935323609778608"><ele>193.5</ele><time>2026-04-26T10:51:16Z</time></trkpt><trkpt lat="45.907198902628835" lon="11.935462993682558"><ele>191.75</ele><time>2026-04-26T10:51:17Z</time></trkpt><trkpt lat="45.90713621403376" lon="11.935585741819317"><ele>190.0</ele><time>2026-04-26T10:51:18Z</time></trkpt><trkpt lat="45.90707641082758" lon="11.935715096833476"><ele>190.0</ele><time>2026-04-26T10:51:19Z</time></trkpt><trkpt lat="45.907022131600705" lon="11.935861623805406"><ele>190.0</ele><time>2026-04-26T10:51:20Z</time></trkpt><trkpt lat="45.906958542853225" lon="11.935963089142678"><ele>190.0</ele><time>2026-04-26T10:51:21Z</time></trkpt><trkpt lat="45.906897330686135" lon="11.936053046212558"><ele>190.0</ele><time>2026-04-26T10:51:22Z</time></trkpt><trkpt lat="45.906855894219454" lon="11.93615621326038"><ele>190.0</ele><time>2026-04-26T10:51:23Z</time></trkpt><trkpt lat="45.906808064115786" lon="11.936247232918547"><ele>190.5</ele><time>2026-04-26T10:51:24Z</time></trkpt><trkpt lat="45.90675922779576" lon="11.936322120526345"><ele>191.0</ele><time>2026-04-26T10:51:25Z</time></trkpt><trkpt lat="45.90671759686739" lon="11.936399917544165"><ele>191.5</ele><time>2026-04-26T10:51:26Z</time></trkpt><trkpt lat="45.906677165145" lon="11.93647418071751"><ele>192.0</ele><time>2026-04-26T10:51:27Z</time></trkpt><trkpt lat="45.906628415711694" lon="11.93654304866969"><ele>192.49999999999997</ele><time>2026-04-26T10:51:28Z</time></trkpt><trkpt lat="45.90653984479974" lon="11.936672286526534"><ele>193.0</ele><time>2026-04-26T10:51:30Z</time></trkpt><trkpt lat="45.90645887702097" lon="11.93678404801182"><ele>191.8</ele><time>2026-04-26T10:51:32Z</time></trkpt><trkpt lat="45.90639791908189" lon="11.93689001546757"><ele>190.60000000000002</ele><time>2026-04-26T10:51:34Z</time></trkpt><trkpt lat="45.90634107453585" lon="11.936971674118082"><ele>189.39999999999998</ele><time>2026-04-26T10:51:36Z</time></trkpt><trkpt lat="45.906283881296716" lon="11.937066277290821"><ele>188.2</ele><time>2026-04-26T10:51:38Z</time></trkpt><trkpt lat="45.90621440250766" lon="11.937163085250095"><ele>187.0</ele><time>2026-04-26T10:51:40Z</time></trkpt><trkpt lat="45.9061642517324" lon="11.937273303540854"><ele>187.0</ele><time>2026-04-26T10:51:42Z</time></trkpt><trkpt lat="45.90611247608472" lon="11.9374158587402"><ele>187.0</ele><time>2026-04-26T10:51:44Z</time></trkpt><trkpt lat="45.906060769247794" lon="11.937566266398496"><ele>187.0</ele><time>2026-04-26T10:51:46Z</time></trkpt><trkpt lat="45.90599627448585" lon="11.937724806038569"><ele>187.0</ele><time>2026-04-26T10:51:48Z</time></trkpt><trkpt lat="45.90596204957047" lon="11.937813912051206"><ele>187.0</ele><time>2026-04-26T10:51:49Z</time></trkpt><trkpt lat="45.90592927745402" lon="11.937909430765997"><ele>187.0</ele><time>2026-04-26T10:51:50Z</time></trkpt><trkpt lat="45.90589926251203" lon="11.938007334427768"><ele>187.0</ele><time>2026-04-26T10:51:51Z</time></trkpt><trkpt lat="45.90586196018415" lon="11.938108886024962"><ele>187.0</ele><time>2026-04-26T10:51:52Z</time></trkpt><trkpt lat="45.905818780345406" lon="11.938215949738689"><ele>187.0</ele><time>2026-04-26T10:51:53Z</time></trkpt><trkpt lat="45.905778273550816" lon="11.93831023890556"><ele>187.0</ele><time>2026-04-26T10:51:54Z</time></trkpt><trkpt lat="45.9057432499282" lon="11.938400288156492"><ele>187.0</ele><time>2026-04-26T10:51:55Z</time></trkpt><trkpt lat="45.90571155746229" lon="11.938492527237509"><ele>187.0</ele><time>2026-04-26T10:51:56Z</time></trkpt><trkpt lat="45.90567801475869" lon="11.938575371929915"><ele>187.0</ele><time>2026-04-26T10:51:57Z</time></trkpt><trkpt lat="45.90564938489481" lon="11.938659774235862"><ele>187.0</ele><time>2026-04-26T10:51:58Z</time></trkpt><trkpt lat="45.90561149961695" lon="11.938745233289183"><ele>187.0</ele><time>2026-04-26T10:51:59Z</time></trkpt><trkpt lat="45.9055816289261" lon="11.938829218378725"><ele>187.0</ele><time>2026-04-26T10:52:00Z</time></trkpt><trkpt lat="45.905557517718826" lon="11.938943306432733"><ele>187.0</ele><time>2026-04-26T10:52:01Z</time></trkpt><trkpt lat="45.905541527076856" lon="11.93904526830189"><ele>187.0</ele><time>2026-04-26T10:52:02Z</time></trkpt><trkpt lat="45.90553075382463" lon="11.939149420059032"><ele>186.33333333333334</ele><time>2026-04-26T10:52:03Z</time></trkpt><trkpt lat="45.905526079661264" lon="11.939255755592058"><ele>185.66666666666669</ele><time>2026-04-26T10:52:04Z</time></trkpt><trkpt lat="45.90551987604282" lon="11.939350629545132"><ele>185.0</ele><time>2026-04-26T10:52:05Z</time></trkpt><trkpt lat="45.90551373243065" lon="11.939453643965862"><ele>184.33333333333334</ele><time>2026-04-26T10:52:06Z</time></trkpt><trkpt lat="45.90551490852586" lon="11.939552244328162"><ele>183.66666666666666</ele><time>2026-04-26T10:52:07Z</time></trkpt><trkpt lat="45.90551348244122" lon="11.939650336574148"><ele>183.0</ele><time>2026-04-26T10:52:08Z</time></trkpt><trkpt lat="45.90550266801992" lon="11.939817652339482"><ele>183.0</ele><time>2026-04-26T10:52:10Z</time></trkpt><trkpt lat="45.9054879454179" lon="11.939976417613902"><ele>183.0</ele><time>2026-04-26T10:52:12Z</time></trkpt><trkpt lat="45.90545875699307" lon="11.94011096647041"><ele>183.0</ele><time>2026-04-26T10:52:13.999Z</time></trkpt><trkpt lat="45.9054496025635" lon="11.940202347353843"><ele>183.0</ele><time>2026-04-26T10:52:16.999Z</time></trkpt><trkpt lat="45.90542280605991" lon="11.940289724373782"><ele>183.0</ele><time>2026-04-26T10:52:20.999Z</time></trkpt><trkpt lat="45.905413444894435" lon="11.940379774394016"><ele>183.0</ele><time>2026-04-26T10:52:24.999Z</time></trkpt><trkpt lat="45.905384746806575" lon="11.940462131810461"><ele>183.0</ele><time>2026-04-26T10:52:28.999Z</time></trkpt><trkpt lat="45.90534148828024" lon="11.940571749076478"><ele>183.0</ele><time>2026-04-26T10:53:00Z</time></trkpt><trkpt lat="45.90530753738767" lon="11.940674966943362"><ele>183.0</ele><time>2026-04-26T10:53:02Z</time></trkpt><trkpt lat="45.905259066626265" lon="11.94077461864998"><ele>183.0</ele><time>2026-04-26T10:53:04Z</time></trkpt><trkpt lat="45.90519822434527" lon="11.940842659220015"><ele>183.0</ele><time>2026-04-26T10:53:06Z</time></trkpt><trkpt lat="45.90513063050048" lon="11.940902159887601"><ele>183.0</ele><time>2026-04-26T10:53:08Z</time></trkpt><trkpt lat="45.905047601044664" lon="11.94102892339683"><ele>183.0</ele><time>2026-04-26T10:53:10Z</time></trkpt><trkpt lat="45.905048101374916" lon="11.94114221489396"><ele>183.0</ele><time>2026-04-26T10:53:11Z</time></trkpt><trkpt lat="45.90505207037717" lon="11.941240161544236"><ele>183.0</ele><time>2026-04-26T10:53:12Z</time></trkpt><trkpt lat="45.90513488912331" lon="11.941360657479926"><ele>183.0</ele><time>2026-04-26T10:53:14Z</time></trkpt><trkpt lat="45.905194903848034" lon="11.941412197694559"><ele>183.0</ele><time>2026-04-26T10:53:15Z</time></trkpt><trkpt lat="45.90527499484133" lon="11.941419185747565"><ele>183.0</ele><time>2026-04-26T10:53:16Z</time></trkpt><trkpt lat="45.90536064403277" lon="11.941390696056978"><ele>183.0</ele><time>2026-04-26T10:53:17Z</time></trkpt><trkpt lat="45.90543460773384" lon="11.941416487197046"><ele>183.0</ele><time>2026-04-26T10:53:18Z</time></trkpt><trkpt lat="45.905514259787445" lon="11.941438030733485"><ele>183.0</ele><time>2026-04-26T10:53:19Z</time></trkpt><trkpt lat="45.905606511152854" lon="11.94141733950063"><ele>183.0</ele><time>2026-04-26T10:53:20Z</time></trkpt><trkpt lat="45.905701829472584" lon="11.941488689481021"><ele>183.0</ele><time>2026-04-26T10:53:21Z</time></trkpt><trkpt lat="45.9057999425137" lon="11.941517430600438"><ele>183.0</ele><time>2026-04-26T10:53:22Z</time></trkpt><trkpt lat="45.90590779529213" lon="11.941555573985095"><ele>183.0</ele><time>2026-04-26T10:53:23Z</time></trkpt><trkpt lat="45.90601057772621" lon="11.94160351320032"><ele>183.0</ele><time>2026-04-26T10:53:24Z</time></trkpt><trkpt lat="45.906118146307435" lon="11.94165790167188"><ele>183.0</ele><time>2026-04-26T10:53:25Z</time></trkpt><trkpt lat="45.906232075652014" lon="11.941717585631617"><ele>181.75</ele><time>2026-04-26T10:53:26Z</time></trkpt><trkpt lat="45.906359109348195" lon="11.94177776562568"><ele>180.5</ele><time>2026-04-26T10:53:27Z</time></trkpt><trkpt lat="45.90647404506089" lon="11.94182824056315"><ele>179.25</ele><time>2026-04-26T10:53:28Z</time></trkpt><trkpt lat="45.906588825108145" lon="11.941873418825887"><ele>178.0</ele><time>2026-04-26T10:53:29Z</time></trkpt><trkpt lat="45.90670107564615" lon="11.941928167081345"><ele>178.0</ele><time>2026-04-26T10:53:30Z</time></trkpt><trkpt lat="45.90681395783439" lon="11.941973000258315"><ele>178.0</ele><time>2026-04-26T10:53:31Z</time></trkpt><trkpt lat="45.90690775150035" lon="11.942035763322478"><ele>178.0</ele><time>2026-04-26T10:53:32Z</time></trkpt><trkpt lat="45.90701623682178" lon="11.942084031097487"><ele>178.0</ele><time>2026-04-26T10:53:33Z</time></trkpt><trkpt lat="45.90713196724588" lon="11.942134131270919"><ele>178.0</ele><time>2026-04-26T10:53:34Z</time></trkpt><trkpt lat="45.90724992257404" lon="11.942185248054402"><ele>178.0</ele><time>2026-04-26T10:53:35Z</time></trkpt><trkpt lat="45.90736609665464" lon="11.942232451669177"><ele>178.0</ele><time>2026-04-26T10:53:36Z</time></trkpt><trkpt lat="45.90747469051214" lon="11.942285287624719"><ele>178.0</ele><time>2026-04-26T10:53:37Z</time></trkpt><trkpt lat="45.90759572915648" lon="11.942336242019294"><ele>178.75</ele><time>2026-04-26T10:53:38Z</time></trkpt><trkpt lat="45.90771091625087" lon="11.942389839652487"><ele>179.5</ele><time>2026-04-26T10:53:39Z</time></trkpt><trkpt lat="45.9078262234468" lon="11.942438663957413"><ele>180.25</ele><time>2026-04-26T10:53:40Z</time></trkpt><trkpt lat="45.907947283845786" lon="11.942470528733688"><ele>181.0</ele><time>2026-04-26T10:53:41Z</time></trkpt><trkpt lat="45.90807294088301" lon="11.942494274683114"><ele>181.0</ele><time>2026-04-26T10:53:42Z</time></trkpt><trkpt lat="45.90819964086083" lon="11.942494750766315"><ele>181.0</ele><time>2026-04-26T10:53:43Z</time></trkpt><trkpt lat="45.90833005820771" lon="11.942474951293333"><ele>181.0</ele><time>2026-04-26T10:53:44Z</time></trkpt><trkpt lat="45.90845486018821" lon="11.942442050541818"><ele>181.0</ele><time>2026-04-26T10:53:45Z</time></trkpt><trkpt lat="45.908585518597306" lon="11.942382079105919"><ele>182.33333333333334</ele><time>2026-04-26T10:53:46Z</time></trkpt><trkpt lat="45.90873035502339" lon="11.942330109637345"><ele>183.66666666666666</ele><time>2026-04-26T10:53:47Z</time></trkpt><trkpt lat="45.90887205313037" lon="11.942285574921078"><ele>185.0</ele><time>2026-04-26T10:53:48Z</time></trkpt><trkpt lat="45.9090244842308" lon="11.94223618677051"><ele>185.0</ele><time>2026-04-26T10:53:49Z</time></trkpt><trkpt lat="45.909173488784695" lon="11.942189039129627"><ele>185.0</ele><time>2026-04-26T10:53:50Z</time></trkpt><trkpt lat="45.909306874793195" lon="11.942134099509111"><ele>185.0</ele><time>2026-04-26T10:53:51Z</time></trkpt><trkpt lat="45.909439826753335" lon="11.942076492681505"><ele>185.0</ele><time>2026-04-26T10:53:52Z</time></trkpt><trkpt lat="45.909563985198545" lon="11.94204064895881"><ele>184.0</ele><time>2026-04-26T10:53:53Z</time></trkpt><trkpt lat="45.90969902175459" lon="11.941987370155024"><ele>183.0</ele><time>2026-04-26T10:53:54Z</time></trkpt><trkpt lat="45.90983325122205" lon="11.941936428460195"><ele>182.0</ele><time>2026-04-26T10:53:55Z</time></trkpt><trkpt lat="45.90996185075373" lon="11.941891275150184"><ele>181.0</ele><time>2026-04-26T10:53:56Z</time></trkpt><trkpt lat="45.910086148202666" lon="11.941852650528665"><ele>180.25</ele><time>2026-04-26T10:53:57Z</time></trkpt><trkpt lat="45.91021339913259" lon="11.941801897721179"><ele>179.5</ele><time>2026-04-26T10:53:58Z</time></trkpt><trkpt lat="45.910336403039445" lon="11.941758273262181"><ele>178.75</ele><time>2026-04-26T10:53:59Z</time></trkpt><trkpt lat="45.91046334684665" lon="11.94171980914043"><ele>178.0</ele><time>2026-04-26T10:54:00Z</time></trkpt><trkpt lat="45.910592425022266" lon="11.941702366268586"><ele>181.5</ele><time>2026-04-26T10:54:01Z</time></trkpt><trkpt lat="45.91071798666999" lon="11.941659549931966"><ele>185.0</ele><time>2026-04-26T10:54:02Z</time></trkpt><trkpt lat="45.91084740005589" lon="11.9416374351716"><ele>188.5</ele><time>2026-04-26T10:54:03Z</time></trkpt><trkpt lat="45.91097049982468" lon="11.941613731780002"><ele>192.0</ele><time>2026-04-26T10:54:04Z</time></trkpt><trkpt lat="45.911087775200116" lon="11.941592484125584"><ele>192.0</ele><time>2026-04-26T10:54:05Z</time></trkpt><trkpt lat="45.911208748200764" lon="11.941562143237245"><ele>192.0</ele><time>2026-04-26T10:54:06Z</time></trkpt><trkpt lat="45.91133681553843" lon="11.941550381324543"><ele>192.0</ele><time>2026-04-26T10:54:07Z</time></trkpt><trkpt lat="45.91146575168328" lon="11.941523694677555"><ele>192.0</ele><time>2026-04-26T10:54:08Z</time></trkpt><trkpt lat="45.911601379421306" lon="11.941492266744849"><ele>192.0</ele><time>2026-04-26T10:54:09Z</time></trkpt><trkpt lat="45.91173324282837" lon="11.941467799190693"><ele>192.0</ele><time>2026-04-26T10:54:10Z</time></trkpt><trkpt lat="45.91186985722017" lon="11.94143579841626"><ele>192.0</ele><time>2026-04-26T10:54:11Z</time></trkpt><trkpt lat="45.911998729040235" lon="11.941409090640509"><ele>192.0</ele><time>2026-04-26T10:54:12Z</time></trkpt><trkpt lat="45.91213009003918" lon="11.941384287472555"><ele>191.5</ele><time>2026-04-26T10:54:13Z</time></trkpt><trkpt lat="45.9122569718714" lon="11.941359662631509"><ele>191.0</ele><time>2026-04-26T10:54:14Z</time></trkpt><trkpt lat="45.91238454528768" lon="11.941336470928276"><ele>190.5</ele><time>2026-04-26T10:54:15Z</time></trkpt><trkpt lat="45.912510079606605" lon="11.941316794838274"><ele>190.0</ele><time>2026-04-26T10:54:16Z</time></trkpt><trkpt lat="45.91263958064335" lon="11.941309491390042"><ele>191.25</ele><time>2026-04-26T10:54:17Z</time></trkpt><trkpt lat="45.912769460063" lon="11.941308339332656"><ele>192.5</ele><time>2026-04-26T10:54:18Z</time></trkpt><trkpt lat="45.91289917557743" lon="11.941316100715825"><ele>193.75</ele><time>2026-04-26T10:54:19Z</time></trkpt><trkpt lat="45.913027730208064" lon="11.941327396563892"><ele>195.0</ele><time>2026-04-26T10:54:20Z</time></trkpt><trkpt lat="45.91315937483966" lon="11.941344250360846"><ele>195.0</ele><time>2026-04-26T10:54:21Z</time></trkpt><trkpt lat="45.913295301089974" lon="11.94136708540326"><ele>195.0</ele><time>2026-04-26T10:54:22Z</time></trkpt><trkpt lat="45.91343167180708" lon="11.941386519492335"><ele>195.0</ele><time>2026-04-26T10:54:23Z</time></trkpt><trkpt lat="45.9135725590388" lon="11.941413169884315"><ele>195.0</ele><time>2026-04-26T10:54:24Z</time></trkpt><trkpt lat="45.913709555116064" lon="11.941439535840358"><ele>195.75</ele><time>2026-04-26T10:54:24.999Z</time></trkpt><trkpt lat="45.91385390909326" lon="11.941467165483058"><ele>196.5</ele><time>2026-04-26T10:54:25.999Z</time></trkpt><trkpt lat="45.91399719541996" lon="11.941484829706626"><ele>197.25</ele><time>2026-04-26T10:54:26.999Z</time></trkpt><trkpt lat="45.91414998768369" lon="11.94150957284866"><ele>198.0</ele><time>2026-04-26T10:54:27.999Z</time></trkpt><trkpt lat="45.9143023228719" lon="11.94153759019284"><ele>200.5</ele><time>2026-04-26T10:54:28.999Z</time></trkpt><trkpt lat="45.914454357678075" lon="11.941563004002546"><ele>203.0</ele><time>2026-04-26T10:54:29.999Z</time></trkpt><trkpt lat="45.91459751257617" lon="11.941585193015689"><ele>205.5</ele><time>2026-04-26T10:54:30.999Z</time></trkpt><trkpt lat="45.91473219249103" lon="11.941610121261657"><ele>208.0</ele><time>2026-04-26T10:54:31.999Z</time></trkpt><trkpt lat="45.91486488469213" lon="11.941631272562672"><ele>208.0</ele><time>2026-04-26T10:54:32.999Z</time></trkpt><trkpt lat="45.91499923508816" lon="11.941652621158946"><ele>208.0</ele><time>2026-04-26T10:54:33.999Z</time></trkpt><trkpt lat="45.91512992326445" lon="11.941665454011273"><ele>208.0</ele><time>2026-04-26T10:54:34.999Z</time></trkpt><trkpt lat="45.91526018647903" lon="11.941680390579974"><ele>208.0</ele><time>2026-04-26T10:54:35.999Z</time></trkpt><trkpt lat="45.915386680898024" lon="11.941699512341387"><ele>207.25</ele><time>2026-04-26T10:54:36.999Z</time></trkpt><trkpt lat="45.91551376372105" lon="11.94171936745007"><ele>206.5</ele><time>2026-04-26T10:54:37.999Z</time></trkpt><trkpt lat="45.91563316187573" lon="11.941737216669086"><ele>205.75</ele><time>2026-04-26T10:54:38.999Z</time></trkpt><trkpt lat="45.91575226176866" lon="11.941755475222251"><ele>205.0</ele><time>2026-04-26T10:54:39.999Z</time></trkpt><trkpt lat="45.915872654560296" lon="11.941772989233138"><ele>206.25</ele><time>2026-04-26T10:54:40.999Z</time></trkpt><trkpt lat="45.91599605173879" lon="11.941791873579954"><ele>207.5</ele><time>2026-04-26T10:54:41.999Z</time></trkpt><trkpt lat="45.91611966493025" lon="11.941813794176532"><ele>208.75</ele><time>2026-04-26T10:54:42.999Z</time></trkpt><trkpt lat="45.91624022326626" lon="11.941834584381478"><ele>210.0</ele><time>2026-04-26T10:54:43.999Z</time></trkpt><trkpt lat="45.916357865433014" lon="11.941865850830295"><ele>210.0</ele><time>2026-04-26T10:54:44.999Z</time></trkpt><trkpt lat="45.916482529485954" lon="11.941884596551022"><ele>210.0</ele><time>2026-04-26T10:54:45.999Z</time></trkpt><trkpt lat="45.916602832185646" lon="11.94189910957854"><ele>210.0</ele><time>2026-04-26T10:54:46.999Z</time></trkpt><trkpt lat="45.91672279034735" lon="11.94191782729788"><ele>210.0</ele><time>2026-04-26T10:54:47.999Z</time></trkpt><trkpt lat="45.9168434981964" lon="11.941935684373558"><ele>212.25</ele><time>2026-04-26T10:54:49Z</time></trkpt><trkpt lat="45.916965876579866" lon="11.941957541491053"><ele>214.5</ele><time>2026-04-26T10:54:50Z</time></trkpt><trkpt lat="45.9170850691273" lon="11.941978259478294"><ele>216.75</ele><time>2026-04-26T10:54:51Z</time></trkpt><trkpt lat="45.91720937602974" lon="11.94199981970351"><ele>219.0</ele><time>2026-04-26T10:54:52Z</time></trkpt><trkpt lat="45.917340061899814" lon="11.942018445882061"><ele>219.0</ele><time>2026-04-26T10:54:53Z</time></trkpt><trkpt lat="45.91746900979741" lon="11.942042182764371"><ele>219.0</ele><time>2026-04-26T10:54:54Z</time></trkpt><trkpt lat="45.91759854703484" lon="11.94206479890476"><ele>219.0</ele><time>2026-04-26T10:54:55Z</time></trkpt><trkpt lat="45.91772896866737" lon="11.94210604785868"><ele>219.0</ele><time>2026-04-26T10:54:56Z</time></trkpt><trkpt lat="45.9178521862652" lon="11.942160140370127"><ele>219.75</ele><time>2026-04-26T10:54:57Z</time></trkpt><trkpt lat="45.91797215420375" lon="11.942224945878031"><ele>220.5</ele><time>2026-04-26T10:54:58Z</time></trkpt><trkpt lat="45.918089838416925" lon="11.942303831639611"><ele>221.25</ele><time>2026-04-26T10:54:59Z</time></trkpt><trkpt lat="45.918199946751635" lon="11.942387613940666"><ele>222.0</ele><time>2026-04-26T10:55:00Z</time></trkpt><trkpt lat="45.91831042607905" lon="11.94247352509233"><ele>221.5</ele><time>2026-04-26T10:55:01Z</time></trkpt><trkpt lat="45.91841748614854" lon="11.942565943631932"><ele>221.0</ele><time>2026-04-26T10:55:02Z</time></trkpt><trkpt lat="45.91852284102376" lon="11.942666701424653"><ele>220.5</ele><time>2026-04-26T10:55:03Z</time></trkpt><trkpt lat="45.918625647229916" lon="11.94276560975841"><ele>220.0</ele><time>2026-04-26T10:55:04Z</time></trkpt><trkpt lat="45.918717197159125" lon="11.942859601786088"><ele>220.0</ele><time>2026-04-26T10:55:05Z</time></trkpt><trkpt lat="45.91880522591546" lon="11.942945588957963"><ele>220.0</ele><time>2026-04-26T10:55:06Z</time></trkpt><trkpt lat="45.91890035630225" lon="11.943045803672767"><ele>220.0</ele><time>2026-04-26T10:55:07Z</time></trkpt><trkpt lat="45.91900212244736" lon="11.943148074507997"><ele>220.0</ele><time>2026-04-26T10:55:08Z</time></trkpt><trkpt lat="45.91910922469206" lon="11.943256036128744"><ele>220.0</ele><time>2026-04-26T10:55:09Z</time></trkpt><trkpt lat="45.919201811501516" lon="11.943351493386379"><ele>220.0</ele><time>2026-04-26T10:55:10Z</time></trkpt><trkpt lat="45.91930028808739" lon="11.943458175382194"><ele>220.0</ele><time>2026-04-26T10:55:11Z</time></trkpt><trkpt lat="45.919402713297494" lon="11.943565988200781"><ele>220.0</ele><time>2026-04-26T10:55:12Z</time></trkpt><trkpt lat="45.91950644996186" lon="11.94366321043885"><ele>221.25</ele><time>2026-04-26T10:55:13Z</time></trkpt><trkpt lat="45.91962380764365" lon="11.943776089731628"><ele>222.5</ele><time>2026-04-26T10:55:14Z</time></trkpt><trkpt lat="45.91971680498011" lon="11.943865961969943"><ele>223.75</ele><time>2026-04-26T10:55:15Z</time></trkpt><trkpt lat="45.91983578898604" lon="11.943976133063519"><ele>225.0</ele><time>2026-04-26T10:55:16Z</time></trkpt><trkpt lat="45.919954289725865" lon="11.944080469399767"><ele>225.25</ele><time>2026-04-26T10:55:17Z</time></trkpt><trkpt lat="45.920073519472396" lon="11.944202808974849"><ele>225.5</ele><time>2026-04-26T10:55:18Z</time></trkpt><trkpt lat="45.92019474258803" lon="11.944322453369468"><ele>225.75</ele><time>2026-04-26T10:55:19Z</time></trkpt><trkpt lat="45.92031073287363" lon="11.944433308235881"><ele>226.0</ele><time>2026-04-26T10:55:20Z</time></trkpt><trkpt lat="45.9204274029513" lon="11.944557311609833"><ele>226.0</ele><time>2026-04-26T10:55:21Z</time></trkpt><trkpt lat="45.920541859264944" lon="11.94467580482214"><ele>226.0</ele><time>2026-04-26T10:55:22Z</time></trkpt><trkpt lat="45.92065448771521" lon="11.944793497509256"><ele>226.0</ele><time>2026-04-26T10:55:23Z</time></trkpt><trkpt lat="45.92076835093931" lon="11.944911750608838"><ele>226.0</ele><time>2026-04-26T10:55:24Z</time></trkpt><trkpt lat="45.92087223075781" lon="11.945018066266877"><ele>226.0</ele><time>2026-04-26T10:55:25Z</time></trkpt><trkpt lat="45.92098621329618" lon="11.945124049703715"><ele>226.0</ele><time>2026-04-26T10:55:26Z</time></trkpt><trkpt lat="45.92109451042592" lon="11.945211594173186"><ele>226.0</ele><time>2026-04-26T10:55:27Z</time></trkpt><trkpt lat="45.92120462105468" lon="11.945288523304209"><ele>226.0</ele><time>2026-04-26T10:55:28Z</time></trkpt><trkpt lat="45.92131282075229" lon="11.945356691334883"><ele>226.0</ele><time>2026-04-26T10:55:29Z</time></trkpt><trkpt lat="45.92142091220803" lon="11.945409069781185"><ele>226.0</ele><time>2026-04-26T10:55:30Z</time></trkpt><trkpt lat="45.921534385911755" lon="11.945450823871948"><ele>226.0</ele><time>2026-04-26T10:55:31Z</time></trkpt><trkpt lat="45.92168170760112" lon="11.945499785987481"><ele>226.0</ele><time>2026-04-26T10:55:32Z</time></trkpt><trkpt lat="45.92183599285037" lon="11.945523248172213"><ele>226.25</ele><time>2026-04-26T10:55:33Z</time></trkpt><trkpt lat="45.921975479265704" lon="11.94553265883726"><ele>226.5</ele><time>2026-04-26T10:55:34Z</time></trkpt><trkpt lat="45.9221120062702" lon="11.945523805169035"><ele>226.75</ele><time>2026-04-26T10:55:35Z</time></trkpt><trkpt lat="45.92224310289096" lon="11.945530722934379"><ele>227.0</ele><time>2026-04-26T10:55:36Z</time></trkpt><trkpt lat="45.92238316230371" lon="11.945542142867417"><ele>227.0</ele><time>2026-04-26T10:55:37Z</time></trkpt><trkpt lat="45.92251225587117" lon="11.945496305317786"><ele>227.0</ele><time>2026-04-26T10:55:38Z</time></trkpt><trkpt lat="45.92263749060164" lon="11.945436872706427"><ele>227.0</ele><time>2026-04-26T10:55:39Z</time></trkpt><trkpt lat="45.92276309967237" lon="11.945380304637332"><ele>227.0</ele><time>2026-04-26T10:55:40Z</time></trkpt><trkpt lat="45.92286165420358" lon="11.94534428134274"><ele>227.25</ele><time>2026-04-26T10:55:41Z</time></trkpt><trkpt lat="45.92301993592946" lon="11.945255350039613"><ele>227.5</ele><time>2026-04-26T10:55:42Z</time></trkpt><trkpt lat="45.92312248869645" lon="11.945169985955706"><ele>227.75</ele><time>2026-04-26T10:55:43Z</time></trkpt><trkpt lat="45.92323247765812" lon="11.945074725820849"><ele>228.0</ele><time>2026-04-26T10:55:44Z</time></trkpt><trkpt lat="45.92334836399257" lon="11.944963172340868"><ele>227.25</ele><time>2026-04-26T10:55:45Z</time></trkpt><trkpt lat="45.9234738104705" lon="11.9448695185978"><ele>226.5</ele><time>2026-04-26T10:55:46Z</time></trkpt><trkpt lat="45.92357763982188" lon="11.944753107312366"><ele>225.75</ele><time>2026-04-26T10:55:47Z</time></trkpt><trkpt lat="45.923692694244295" lon="11.944626192600019"><ele>225.0</ele><time>2026-04-26T10:55:48Z</time></trkpt><trkpt lat="45.92379703052822" lon="11.944504821217166"><ele>225.0</ele><time>2026-04-26T10:55:49Z</time></trkpt><trkpt lat="45.92390518704" lon="11.944384933446477"><ele>225.0</ele><time>2026-04-26T10:55:50Z</time></trkpt><trkpt lat="45.9240276713425" lon="11.944262240989326"><ele>225.0</ele><time>2026-04-26T10:55:51Z</time></trkpt><trkpt lat="45.92414734178973" lon="11.944136593676797"><ele>225.0</ele><time>2026-04-26T10:55:52Z</time></trkpt><trkpt lat="45.924228645675" lon="11.944037635654416"><ele>225.25</ele><time>2026-04-26T10:55:53Z</time></trkpt><trkpt lat="45.924333220494354" lon="11.943918600148882"><ele>225.5</ele><time>2026-04-26T10:55:54Z</time></trkpt><trkpt lat="45.924439964686336" lon="11.943800607419764"><ele>225.75</ele><time>2026-04-26T10:55:55Z</time></trkpt><trkpt lat="45.92454697951484" lon="11.943684030236984"><ele>226.0</ele><time>2026-04-26T10:55:56Z</time></trkpt><trkpt lat="45.92465406293806" lon="11.943569541807602"><ele>226.0</ele><time>2026-04-26T10:55:57Z</time></trkpt><trkpt lat="45.92476086005276" lon="11.943448500972162"><ele>226.0</ele><time>2026-04-26T10:55:58Z</time></trkpt><trkpt lat="45.924864785812055" lon="11.943342520290761"><ele>226.0</ele><time>2026-04-26T10:55:59Z</time></trkpt><trkpt lat="45.924974273323414" lon="11.943216275346579"><ele>226.0</ele><time>2026-04-26T10:56:00Z</time></trkpt><trkpt lat="45.92507793261982" lon="11.943093748142923"><ele>225.25</ele><time>2026-04-26T10:56:01Z</time></trkpt><trkpt lat="45.92517907805292" lon="11.942970641285475"><ele>224.5</ele><time>2026-04-26T10:56:02Z</time></trkpt><trkpt lat="45.92528320204641" lon="11.94284927713565"><ele>223.75</ele><time>2026-04-26T10:56:03Z</time></trkpt><trkpt lat="45.92539067782583" lon="11.942722038633342"><ele>223.0</ele><time>2026-04-26T10:56:04Z</time></trkpt><trkpt lat="45.92553905228647" lon="11.942582341180554"><ele>223.5</ele><time>2026-04-26T10:56:05Z</time></trkpt><trkpt lat="45.925642174685855" lon="11.942463226455136"><ele>224.0</ele><time>2026-04-26T10:56:06Z</time></trkpt><trkpt lat="45.925716508006374" lon="11.942350089432203"><ele>224.5</ele><time>2026-04-26T10:56:07Z</time></trkpt><trkpt lat="45.925836328700264" lon="11.94224199214044"><ele>225.0</ele><time>2026-04-26T10:56:08Z</time></trkpt><trkpt lat="45.925915306398636" lon="11.942116782956212"><ele>223.25</ele><time>2026-04-26T10:56:09Z</time></trkpt><trkpt lat="45.92600822916432" lon="11.941977593928392"><ele>221.5</ele><time>2026-04-26T10:56:10Z</time></trkpt><trkpt lat="45.926091581769114" lon="11.941833040282045"><ele>219.75</ele><time>2026-04-26T10:56:11Z</time></trkpt><trkpt lat="45.92617101600443" lon="11.94168163290946"><ele>218.0</ele><time>2026-04-26T10:56:12Z</time></trkpt><trkpt lat="45.92624088987694" lon="11.941540251239946"><ele>218.0</ele><time>2026-04-26T10:56:13Z</time></trkpt><trkpt lat="45.926311349089815" lon="11.941384394093214"><ele>218.0</ele><time>2026-04-26T10:56:14Z</time></trkpt><trkpt lat="45.92647089414028" lon="11.941194115432356"><ele>218.0</ele><time>2026-04-26T10:56:15Z</time></trkpt><trkpt lat="45.92656340053299" lon="11.941015579690657"><ele>219.33333333333334</ele><time>2026-04-26T10:56:16Z</time></trkpt><trkpt lat="45.9266468280439" lon="11.940831732677424"><ele>220.66666666666669</ele><time>2026-04-26T10:56:17Z</time></trkpt><trkpt lat="45.92672096547852" lon="11.940638491012056"><ele>222.0</ele><time>2026-04-26T10:56:18Z</time></trkpt><trkpt lat="45.92678827311838" lon="11.940452103780546"><ele>219.0</ele><time>2026-04-26T10:56:19Z</time></trkpt><trkpt lat="45.92686043284738" lon="11.940263683914335"><ele>216.0</ele><time>2026-04-26T10:56:20Z</time></trkpt><trkpt lat="45.92694713925039" lon="11.940079774512666"><ele>213.0</ele><time>2026-04-26T10:56:21Z</time></trkpt><trkpt lat="45.92702798267055" lon="11.939897669670472"><ele>213.0</ele><time>2026-04-26T10:56:22Z</time></trkpt><trkpt lat="45.927102568542615" lon="11.939716671385577"><ele>213.0</ele><time>2026-04-26T10:56:23Z</time></trkpt><trkpt lat="45.92715658149514" lon="11.939559082246607"><ele>213.0</ele><time>2026-04-26T10:56:24Z</time></trkpt><trkpt lat="45.92722305250748" lon="11.939394984557337"><ele>213.0</ele><time>2026-04-26T10:56:25Z</time></trkpt><trkpt lat="45.927247315880095" lon="11.939232106431183"><ele>213.75</ele><time>2026-04-26T10:56:26Z</time></trkpt><trkpt lat="45.92731076849877" lon="11.939061704455364"><ele>214.5</ele><time>2026-04-26T10:56:27Z</time></trkpt><trkpt lat="45.92738795969296" lon="11.938886033570517"><ele>215.25</ele><time>2026-04-26T10:56:28Z</time></trkpt><trkpt lat="45.92745973442852" lon="11.938719700962963"><ele>216.0</ele><time>2026-04-26T10:56:29Z</time></trkpt><trkpt lat="45.92752821204743" lon="11.938560765815394"><ele>214.60000000000002</ele><time>2026-04-26T10:56:29.999Z</time></trkpt><trkpt lat="45.92757668036237" lon="11.938403134115703"><ele>213.20000000000002</ele><time>2026-04-26T10:56:30.999Z</time></trkpt><trkpt lat="45.92759577897377" lon="11.938262850411867"><ele>211.8</ele><time>2026-04-26T10:56:31.999Z</time></trkpt><trkpt lat="45.927643027361135" lon="11.93812632889738"><ele>210.39999999999998</ele><time>2026-04-26T10:56:32.999Z</time></trkpt><trkpt lat="45.927709126683965" lon="11.938004594026594"><ele>209.0</ele><time>2026-04-26T10:56:33.999Z</time></trkpt><trkpt lat="45.92778942333459" lon="11.93785067007349"><ele>209.0</ele><time>2026-04-26T10:56:34.999Z</time></trkpt><trkpt lat="45.92785763609405" lon="11.937713012632729"><ele>209.0</ele><time>2026-04-26T10:56:35.999Z</time></trkpt><trkpt lat="45.92791932657647" lon="11.937578985770129"><ele>209.0</ele><time>2026-04-26T10:56:36.999Z</time></trkpt><trkpt lat="45.92799828525363" lon="11.93746934051478"><ele>209.0</ele><time>2026-04-26T10:56:37.999Z</time></trkpt><trkpt lat="45.92807871172184" lon="11.937349500264038"><ele>210.0</ele><time>2026-04-26T10:56:38.999Z</time></trkpt><trkpt lat="45.9281958504919" lon="11.937200485276252"><ele>211.0</ele><time>2026-04-26T10:56:39.999Z</time></trkpt><trkpt lat="45.928303095170556" lon="11.937080273497502"><ele>212.0</ele><time>2026-04-26T10:56:40.999Z</time></trkpt><trkpt lat="45.92840284593273" lon="11.936965116859039"><ele>213.0</ele><time>2026-04-26T10:56:41.999Z</time></trkpt><trkpt lat="45.92850380194499" lon="11.936867046229104"><ele>213.0</ele><time>2026-04-26T10:56:42.999Z</time></trkpt><trkpt lat="45.928605498819145" lon="11.93677318159241"><ele>213.0</ele><time>2026-04-26T10:56:43.999Z</time></trkpt><trkpt lat="45.92870880216794" lon="11.936684325373482"><ele>213.0</ele><time>2026-04-26T10:56:44.999Z</time></trkpt><trkpt lat="45.9288069046632" lon="11.936604929356976"><ele>213.0</ele><time>2026-04-26T10:56:45.999Z</time></trkpt><trkpt lat="45.928898040675044" lon="11.936528197434876"><ele>213.75</ele><time>2026-04-26T10:56:46.999Z</time></trkpt><trkpt lat="45.92899911582397" lon="11.936449485900281"><ele>214.5</ele><time>2026-04-26T10:56:47.999Z</time></trkpt><trkpt lat="45.92909970663298" lon="11.9363750380813"><ele>215.25</ele><time>2026-04-26T10:56:48.999Z</time></trkpt><trkpt lat="45.92920130136197" lon="11.936302375036433"><ele>216.0</ele><time>2026-04-26T10:56:49.999Z</time></trkpt><trkpt lat="45.92931553266874" lon="11.936224128734239"><ele>214.60000000000002</ele><time>2026-04-26T10:56:50.999Z</time></trkpt><trkpt lat="45.92941741168452" lon="11.93615014456067"><ele>213.20000000000002</ele><time>2026-04-26T10:56:51.999Z</time></trkpt><trkpt lat="45.929515128186594" lon="11.93607494914948"><ele>211.8</ele><time>2026-04-26T10:56:52.999Z</time></trkpt><trkpt lat="45.92959794721314" lon="11.936017045951665"><ele>210.39999999999998</ele><time>2026-04-26T10:56:53.999Z</time></trkpt><trkpt lat="45.92968317628119" lon="11.935958528675808"><ele>209.0</ele><time>2026-04-26T10:56:55Z</time></trkpt><trkpt lat="45.92975504976955" lon="11.935911509640372"><ele>210.00000000000003</ele><time>2026-04-26T10:56:56Z</time></trkpt><trkpt lat="45.929809944600215" lon="11.935866982470381"><ele>211.0</ele><time>2026-04-26T10:56:57Z</time></trkpt><trkpt lat="45.92987134065874" lon="11.935830325101433"><ele>212.0</ele><time>2026-04-26T10:56:58Z</time></trkpt><trkpt lat="45.92995492011508" lon="11.935745714720134"><ele>213.0</ele><time>2026-04-26T10:57:00Z</time></trkpt><trkpt lat="45.93002829407378" lon="11.935676323716907"><ele>214.00000000000003</ele><time>2026-04-26T10:57:02Z</time></trkpt><trkpt lat="45.930085172459464" lon="11.935602216005101"><ele>215.0</ele><time>2026-04-26T10:57:04Z</time></trkpt><trkpt lat="45.93014063584568" lon="11.935547287643725"><ele>215.00000000000003</ele><time>2026-04-26T10:57:06Z</time></trkpt><trkpt lat="45.93022620421545" lon="11.935554246620566"><ele>215.0</ele><time>2026-04-26T10:57:09Z</time></trkpt><trkpt lat="45.930261289205625" lon="11.935474828737524"><ele>215.0</ele><time>2026-04-26T10:57:11Z</time></trkpt><trkpt lat="45.93035903846611" lon="11.935504158370426"><ele>215.0</ele><time>2026-04-26T10:57:13Z</time></trkpt><trkpt lat="45.930391154190666" lon="11.935400385623007"><ele>215.00000000000003</ele><time>2026-04-26T10:57:16Z</time></trkpt><trkpt lat="45.93044585840837" lon="11.935316706928685"><ele>215.0</ele><time>2026-04-26T10:57:21Z</time></trkpt><trkpt lat="45.93050402916514" lon="11.93535811761663"><ele>215.0</ele><time>2026-04-26T10:59:20Z</time></trkpt><trkpt lat="45.930568133094965" lon="11.935405051969735"><ele>215.0</ele><time>2026-04-26T11:02:52.999Z</time></trkpt><trkpt lat="45.93062011627352" lon="11.935467293490598"><ele>215.0</ele><time>2026-04-26T11:03:00.999Z</time></trkpt><trkpt lat="45.9306296453409" lon="11.93556605067424"><ele>215.0</ele><time>2026-04-26T11:03:14Z</time></trkpt><trkpt lat="45.93077983356768" lon="11.93552092375781"><ele>215.0</ele><time>2026-04-26T11:03:33Z</time></trkpt></trkseg><trkseg><trkpt lat="45.93049634783983" lon="11.935285507517591"><ele>215.00000000000003</ele><time>2026-04-26T13:03:21.993Z</time></trkpt><trkpt lat="45.93053318033611" lon="11.935363819181811"><ele>215.0</ele><time>2026-04-26T13:03:33.997Z</time></trkpt><trkpt lat="45.93059434879356" lon="11.935341275167879"><ele>215.0</ele><time>2026-04-26T13:03:59.999Z</time></trkpt><trkpt lat="45.93056767860757" lon="11.935248437133756"><ele>215.0</ele><time>2026-04-26T13:04:07Z</time></trkpt><trkpt lat="45.93049576181693" lon="11.935209198036002"><ele>215.00000000000003</ele><time>2026-04-26T13:04:31Z</time></trkpt><trkpt lat="45.93054407535617" lon="11.935129367106688"><ele>215.0</ele><time>2026-04-26T13:04:37Z</time></trkpt><trkpt lat="45.930674183480754" lon="11.935028652658985"><ele>215.33333333333334</ele><time>2026-04-26T13:04:40Z</time></trkpt><trkpt lat="45.930727925439044" lon="11.934905831786354"><ele>215.66666666666669</ele><time>2026-04-26T13:04:42Z</time></trkpt><trkpt lat="45.930694771424875" lon="11.934821007005125"><ele>216.0</ele><time>2026-04-26T13:04:47Z</time></trkpt><trkpt lat="45.930657220146315" lon="11.934741918763006"><ele>216.33333333333331</ele><time>2026-04-26T13:04:56.999Z</time></trkpt><trkpt lat="45.93055553122408" lon="11.934769079454647"><ele>216.66666666666666</ele><time>2026-04-26T13:04:59.999Z</time></trkpt><trkpt lat="45.93050929658133" lon="11.93483782054007"><ele>217.0</ele><time>2026-04-26T13:05:00.999Z</time></trkpt><trkpt lat="45.93046550683042" lon="11.934915148935083"><ele>217.0</ele><time>2026-04-26T13:05:01.999Z</time></trkpt><trkpt lat="45.93040333174386" lon="11.93500766084401"><ele>217.0</ele><time>2026-04-26T13:05:02.999Z</time></trkpt><trkpt lat="45.9303375109461" lon="11.935105690329582"><ele>217.0</ele><time>2026-04-26T13:05:03.999Z</time></trkpt><trkpt lat="45.930252550464" lon="11.935216262571402"><ele>217.0</ele><time>2026-04-26T13:05:04.999Z</time></trkpt><trkpt lat="45.930175354632986" lon="11.935319225376817"><ele>217.0</ele><time>2026-04-26T13:05:05.999Z</time></trkpt><trkpt lat="45.93008813805481" lon="11.935422123708612"><ele>217.0</ele><time>2026-04-26T13:05:06.999Z</time></trkpt><trkpt lat="45.929987910415655" lon="11.935534519674865"><ele>217.0</ele><time>2026-04-26T13:05:07.999Z</time></trkpt><trkpt lat="45.92989622264379" lon="11.935634935510416"><ele>217.0</ele><time>2026-04-26T13:05:08.999Z</time></trkpt><trkpt lat="45.92979604525697" lon="11.93573074512549"><ele>217.0</ele><time>2026-04-26T13:05:09.999Z</time></trkpt><trkpt lat="45.92968974767835" lon="11.935825339302776"><ele>215.0</ele><time>2026-04-26T13:05:10.999Z</time></trkpt><trkpt lat="45.929579955394026" lon="11.935907207467384"><ele>213.0</ele><time>2026-04-26T13:05:11.999Z</time></trkpt><trkpt lat="45.92946082485621" lon="11.935983674059303"><ele>211.0</ele><time>2026-04-26T13:05:12.999Z</time></trkpt><trkpt lat="45.92934698677264" lon="11.936068826070489"><ele>209.0</ele><time>2026-04-26T13:05:13.999Z</time></trkpt><trkpt lat="45.929227125531426" lon="11.936161994549883"><ele>210.75</ele><time>2026-04-26T13:05:14.999Z</time></trkpt><trkpt lat="45.929105137208055" lon="11.936250500741908"><ele>212.5</ele><time>2026-04-26T13:05:15.999Z</time></trkpt><trkpt lat="45.92899055633656" lon="11.936350568070331"><ele>214.25</ele><time>2026-04-26T13:05:16.999Z</time></trkpt><trkpt lat="45.928873422134046" lon="11.936449453449233"><ele>216.0</ele><time>2026-04-26T13:05:17.999Z</time></trkpt><trkpt lat="45.92875008773505" lon="11.936540860278503"><ele>216.0</ele><time>2026-04-26T13:05:18.999Z</time></trkpt><trkpt lat="45.92863163477789" lon="11.93664579267289"><ele>216.0</ele><time>2026-04-26T13:05:19.999Z</time></trkpt><trkpt lat="45.92851067932573" lon="11.93674550930588"><ele>216.0</ele><time>2026-04-26T13:05:20.999Z</time></trkpt><trkpt lat="45.92838407341085" lon="11.936853489238494"><ele>216.0</ele><time>2026-04-26T13:05:21.999Z</time></trkpt><trkpt lat="45.92827531022406" lon="11.936984891474063"><ele>215.75</ele><time>2026-04-26T13:05:22.999Z</time></trkpt><trkpt lat="45.928156868147674" lon="11.93711859664978"><ele>215.5</ele><time>2026-04-26T13:05:23.999Z</time></trkpt><trkpt lat="45.92804481554103" lon="11.93724285345465"><ele>215.25</ele><time>2026-04-26T13:05:24.999Z</time></trkpt><trkpt lat="45.92794792120494" lon="11.937403429658733"><ele>215.0</ele><time>2026-04-26T13:05:25.999Z</time></trkpt><trkpt lat="45.92784889819626" lon="11.937561272342121"><ele>213.0</ele><time>2026-04-26T13:05:26.999Z</time></trkpt><trkpt lat="45.92775439033599" lon="11.937737957385181"><ele>211.0</ele><time>2026-04-26T13:05:28Z</time></trkpt><trkpt lat="45.92766303050204" lon="11.937920339098188"><ele>209.0</ele><time>2026-04-26T13:05:29Z</time></trkpt><trkpt lat="45.92758253926315" lon="11.938104279975853"><ele>211.33333333333334</ele><time>2026-04-26T13:05:30Z</time></trkpt><trkpt lat="45.92750499508178" lon="11.93830279949056"><ele>213.66666666666669</ele><time>2026-04-26T13:05:31Z</time></trkpt><trkpt lat="45.927430462834664" lon="11.93850262990496"><ele>216.0</ele><time>2026-04-26T13:05:32Z</time></trkpt><trkpt lat="45.92735561385089" lon="11.938706140279828"><ele>216.0</ele><time>2026-04-26T13:05:33Z</time></trkpt><trkpt lat="45.92728681278387" lon="11.938906650450607"><ele>216.0</ele><time>2026-04-26T13:05:34Z</time></trkpt><trkpt lat="45.92721416275798" lon="11.939103661182482"><ele>216.0</ele><time>2026-04-26T13:05:35Z</time></trkpt><trkpt lat="45.92714205903232" lon="11.939296768700963"><ele>215.0</ele><time>2026-04-26T13:05:36Z</time></trkpt><trkpt lat="45.92706595728114" lon="11.939497134635465"><ele>214.0</ele><time>2026-04-26T13:05:37Z</time></trkpt><trkpt lat="45.92699841396032" lon="11.939697280860683"><ele>213.0</ele><time>2026-04-26T13:05:38Z</time></trkpt><trkpt lat="45.926922644903506" lon="11.939892899445908"><ele>211.33333333333331</ele><time>2026-04-26T13:05:39Z</time></trkpt><trkpt lat="45.92685163557996" lon="11.94008793340049"><ele>209.66666666666666</ele><time>2026-04-26T13:05:40Z</time></trkpt><trkpt lat="45.926781920326675" lon="11.94028346252661"><ele>208.0</ele><time>2026-04-26T13:05:41Z</time></trkpt><trkpt lat="45.92670745580456" lon="11.940479016408181"><ele>211.33333333333331</ele><time>2026-04-26T13:05:42Z</time></trkpt><trkpt lat="45.92662051823115" lon="11.9406900076764"><ele>214.66666666666669</ele><time>2026-04-26T13:05:43Z</time></trkpt><trkpt lat="45.926538954892735" lon="11.940886966809078"><ele>218.0</ele><time>2026-04-26T13:05:44Z</time></trkpt><trkpt lat="45.92645172145295" lon="11.941072721564373"><ele>218.0</ele><time>2026-04-26T13:05:45Z</time></trkpt><trkpt lat="45.926352655817524" lon="11.941263547498195"><ele>218.0</ele><time>2026-04-26T13:05:46Z</time></trkpt><trkpt lat="45.926264542816625" lon="11.941436331998657"><ele>218.0</ele><time>2026-04-26T13:05:47Z</time></trkpt><trkpt lat="45.92615939093497" lon="11.941616156807964"><ele>218.0</ele><time>2026-04-26T13:05:48Z</time></trkpt><trkpt lat="45.926057616777875" lon="11.94178986890616"><ele>218.0</ele><time>2026-04-26T13:05:49Z</time></trkpt><trkpt lat="45.92595284506109" lon="11.941956746279022"><ele>218.0</ele><time>2026-04-26T13:05:50Z</time></trkpt><trkpt lat="45.92583974502734" lon="11.942130341392064"><ele>219.66666666666669</ele><time>2026-04-26T13:05:51Z</time></trkpt><trkpt lat="45.92571778623363" lon="11.94227773587798"><ele>221.33333333333331</ele><time>2026-04-26T13:05:52Z</time></trkpt><trkpt lat="45.9255959193747" lon="11.942416951033803"><ele>223.0</ele><time>2026-04-26T13:05:53Z</time></trkpt><trkpt lat="45.92547008880664" lon="11.942575403859532"><ele>223.0</ele><time>2026-04-26T13:05:54Z</time></trkpt><trkpt lat="45.92534003644196" lon="11.942702554108255"><ele>223.0</ele><time>2026-04-26T13:05:55Z</time></trkpt><trkpt lat="45.92519798043374" lon="11.942853516792052"><ele>223.0</ele><time>2026-04-26T13:05:56Z</time></trkpt><trkpt lat="45.92506986528511" lon="11.943012024932546"><ele>224.0</ele><time>2026-04-26T13:05:57Z</time></trkpt><trkpt lat="45.924942443941475" lon="11.943141660569152"><ele>225.0</ele><time>2026-04-26T13:05:58Z</time></trkpt><trkpt lat="45.924810775116896" lon="11.943286239452663"><ele>226.0</ele><time>2026-04-26T13:05:59Z</time></trkpt><trkpt lat="45.92467699395618" lon="11.9434192330789"><ele>226.0</ele><time>2026-04-26T13:06:00Z</time></trkpt><trkpt lat="45.92454068640875" lon="11.943557603991165"><ele>226.0</ele><time>2026-04-26T13:06:01Z</time></trkpt><trkpt lat="45.92440394288322" lon="11.943689770663148"><ele>226.0</ele><time>2026-04-26T13:06:02Z</time></trkpt><trkpt lat="45.92427161826798" lon="11.94382516959596"><ele>226.0</ele><time>2026-04-26T13:06:03Z</time></trkpt><trkpt lat="45.92413991915212" lon="11.94397341208862"><ele>226.0</ele><time>2026-04-26T13:06:04Z</time></trkpt><trkpt lat="45.923998815777715" lon="11.944124946851622"><ele>226.0</ele><time>2026-04-26T13:06:05Z</time></trkpt><trkpt lat="45.92386841599485" lon="11.94427306533829"><ele>225.66666666666666</ele><time>2026-04-26T13:06:06Z</time></trkpt><trkpt lat="45.92373773027795" lon="11.944425734686993"><ele>225.33333333333331</ele><time>2026-04-26T13:06:07Z</time></trkpt><trkpt lat="45.923606619767675" lon="11.944584028908395"><ele>225.0</ele><time>2026-04-26T13:06:08Z</time></trkpt><trkpt lat="45.923474901880695" lon="11.944745331772035"><ele>226.0</ele><time>2026-04-26T13:06:09Z</time></trkpt><trkpt lat="45.92335014345205" lon="11.944897412750684"><ele>227.0</ele><time>2026-04-26T13:06:10Z</time></trkpt><trkpt lat="45.92320804450861" lon="11.94504842639829"><ele>228.0</ele><time>2026-04-26T13:06:11Z</time></trkpt><trkpt lat="45.92305472680537" lon="11.945169137495025"><ele>227.66666666666669</ele><time>2026-04-26T13:06:12Z</time></trkpt><trkpt lat="45.92289124301599" lon="11.945300922415774"><ele>227.33333333333334</ele><time>2026-04-26T13:06:13Z</time></trkpt><trkpt lat="45.92272740111148" lon="11.945354701835862"><ele>227.0</ele><time>2026-04-26T13:06:14Z</time></trkpt><trkpt lat="45.92256105678964" lon="11.945407226222317"><ele>227.0</ele><time>2026-04-26T13:06:15Z</time></trkpt><trkpt lat="45.92238938927436" lon="11.945448432167339"><ele>227.0</ele><time>2026-04-26T13:06:16Z</time></trkpt><trkpt lat="45.922220200413896" lon="11.945484607000774"><ele>227.0</ele><time>2026-04-26T13:06:17Z</time></trkpt><trkpt lat="45.92205318784052" lon="11.945493859334784"><ele>227.0</ele><time>2026-04-26T13:06:18Z</time></trkpt><trkpt lat="45.921886006892734" lon="11.945465784139635"><ele>227.0</ele><time>2026-04-26T13:06:19Z</time></trkpt><trkpt lat="45.921711471716634" lon="11.945436821581135"><ele>227.0</ele><time>2026-04-26T13:06:20Z</time></trkpt><trkpt lat="45.921544241683094" lon="11.945379003999296"><ele>226.66666666666669</ele><time>2026-04-26T13:06:21Z</time></trkpt><trkpt lat="45.921377896594244" lon="11.945308422756229"><ele>226.33333333333331</ele><time>2026-04-26T13:06:22Z</time></trkpt><trkpt lat="45.92122450516109" lon="11.945209522999553"><ele>226.0</ele><time>2026-04-26T13:06:23Z</time></trkpt><trkpt lat="45.921070095372485" lon="11.945109970166508"><ele>226.0</ele><time>2026-04-26T13:06:24Z</time></trkpt><trkpt lat="45.920930230566846" lon="11.944986987192555"><ele>226.0</ele><time>2026-04-26T13:06:25Z</time></trkpt><trkpt lat="45.92077946221756" lon="11.944799258312644"><ele>226.0</ele><time>2026-04-26T13:06:26Z</time></trkpt><trkpt lat="45.920645796227575" lon="11.944653613802766"><ele>226.0</ele><time>2026-04-26T13:06:27Z</time></trkpt><trkpt lat="45.92050750830119" lon="11.944501640144285"><ele>226.0</ele><time>2026-04-26T13:06:28Z</time></trkpt><trkpt lat="45.92036131805465" lon="11.944359243115388"><ele>226.0</ele><time>2026-04-26T13:06:29Z</time></trkpt><trkpt lat="45.920218822741525" lon="11.94421646391573"><ele>225.66666666666666</ele><time>2026-04-26T13:06:30Z</time></trkpt><trkpt lat="45.92008060667104" lon="11.944071846967061"><ele>225.33333333333331</ele><time>2026-04-26T13:06:31Z</time></trkpt><trkpt lat="45.91993415511782" lon="11.94392415756485"><ele>225.0</ele><time>2026-04-26T13:06:32Z</time></trkpt><trkpt lat="45.91979064373852" lon="11.943779459489065"><ele>225.0</ele><time>2026-04-26T13:06:33Z</time></trkpt><trkpt lat="45.919646635220765" lon="11.943632337277963"><ele>225.0</ele><time>2026-04-26T13:06:34Z</time></trkpt><trkpt lat="45.91950748578294" lon="11.943489300674742"><ele>225.0</ele><time>2026-04-26T13:06:35Z</time></trkpt><trkpt lat="45.919361410799496" lon="11.943335960939919"><ele>223.33333333333331</ele><time>2026-04-26T13:06:36Z</time></trkpt><trkpt lat="45.91921504097483" lon="11.943186442770024"><ele>221.66666666666666</ele><time>2026-04-26T13:06:37Z</time></trkpt><trkpt lat="45.91906677738397" lon="11.943036542503359"><ele>220.0</ele><time>2026-04-26T13:06:38Z</time></trkpt><trkpt lat="45.91891827798176" lon="11.942887528095234"><ele>220.0</ele><time>2026-04-26T13:06:39Z</time></trkpt><trkpt lat="45.91877457341294" lon="11.942740167099664"><ele>220.0</ele><time>2026-04-26T13:06:40Z</time></trkpt><trkpt lat="45.91864222461567" lon="11.942602304766355"><ele>220.0</ele><time>2026-04-26T13:06:41Z</time></trkpt><trkpt lat="45.91851661742939" lon="11.942477748478408"><ele>220.5</ele><time>2026-04-26T13:06:42Z</time></trkpt><trkpt lat="45.91838848035206" lon="11.942354989201197"><ele>221.0</ele><time>2026-04-26T13:06:43Z</time></trkpt><trkpt lat="45.91827025471406" lon="11.942271837424533"><ele>221.5</ele><time>2026-04-26T13:06:43.999Z</time></trkpt><trkpt lat="45.91815733841758" lon="11.942196839488867"><ele>222.0</ele><time>2026-04-26T13:06:44.999Z</time></trkpt><trkpt lat="45.91806409887979" lon="11.942149059751948"><ele>222.0</ele><time>2026-04-26T13:06:45.999Z</time></trkpt><trkpt lat="45.917994574805" lon="11.942113049288876"><ele>222.0</ele><time>2026-04-26T13:06:46.999Z</time></trkpt><trkpt lat="45.917947219533055" lon="11.9420268936739"><ele>222.0</ele><time>2026-04-26T13:06:48.999Z</time></trkpt><trkpt lat="45.91775417401804" lon="11.942057030456882"><ele>222.0</ele><time>2026-04-26T13:07:26.999Z</time></trkpt><trkpt lat="45.917686842276375" lon="11.942007499734418"><ele>222.0</ele><time>2026-04-26T13:07:27.999Z</time></trkpt><trkpt lat="45.91760184353618" lon="11.941973783873905"><ele>221.39999999999998</ele><time>2026-04-26T13:07:28.999Z</time></trkpt><trkpt lat="45.917507334427164" lon="11.941956078764205"><ele>220.79999999999998</ele><time>2026-04-26T13:07:29.999Z</time></trkpt><trkpt lat="45.91740611246622" lon="11.941937267836463"><ele>220.2</ele><time>2026-04-26T13:07:30.999Z</time></trkpt><trkpt lat="45.91729947000688" lon="11.941916345542657"><ele>219.6</ele><time>2026-04-26T13:07:31.999Z</time></trkpt><trkpt lat="45.91718282633051" lon="11.941895048294288"><ele>219.0</ele><time>2026-04-26T13:07:32.999Z</time></trkpt><trkpt lat="45.91706009498639" lon="11.941871649633194"><ele>219.0</ele><time>2026-04-26T13:07:34Z</time></trkpt><trkpt lat="45.91693073954625" lon="11.941855361744345"><ele>219.0</ele><time>2026-04-26T13:07:35Z</time></trkpt><trkpt lat="45.91680776267184" lon="11.941836245055919"><ele>219.0</ele><time>2026-04-26T13:07:36Z</time></trkpt><trkpt lat="45.91668880942091" lon="11.941822191876437"><ele>219.0</ele><time>2026-04-26T13:07:37Z</time></trkpt><trkpt lat="45.91658390707255" lon="11.941810384570832"><ele>217.2</ele><time>2026-04-26T13:07:38Z</time></trkpt><trkpt lat="45.91647740990151" lon="11.941784346539194"><ele>215.39999999999998</ele><time>2026-04-26T13:07:39Z</time></trkpt><trkpt lat="45.91637766570769" lon="11.941774293098408"><ele>213.6</ele><time>2026-04-26T13:07:40Z</time></trkpt><trkpt lat="45.916254511996804" lon="11.941747437896234"><ele>211.8</ele><time>2026-04-26T13:07:42Z</time></trkpt><trkpt lat="45.91618178333145" lon="11.941757137535951"><ele>210.0</ele><time>2026-04-26T13:07:44Z</time></trkpt><trkpt lat="45.91610216432522" lon="11.941738951361403"><ele>210.0</ele><time>2026-04-26T13:07:51Z</time></trkpt><trkpt lat="45.91607684722763" lon="11.942011048541993"><ele>210.0</ele><time>2026-04-26T13:07:52Z</time></trkpt><trkpt lat="45.91601785351898" lon="11.94206218586248"><ele>210.0</ele><time>2026-04-26T13:07:58Z</time></trkpt><trkpt lat="45.916104529267415" lon="11.942078338423853"><ele>210.0</ele><time>2026-04-26T13:09:04.999Z</time></trkpt><trkpt lat="45.91600224533035" lon="11.942056595200269"><ele>210.0</ele><time>2026-04-26T13:12:24Z</time></trkpt><trkpt lat="45.916077973714316" lon="11.942025426630645"><ele>210.0</ele><time>2026-04-26T13:12:28Z</time></trkpt><trkpt lat="45.916163142707525" lon="11.941985977579117"><ele>210.0</ele><time>2026-04-26T13:12:29Z</time></trkpt><trkpt lat="45.91623325122794" lon="11.941897360070199"><ele>210.0</ele><time>2026-04-26T13:12:31Z</time></trkpt><trkpt lat="45.916194609793486" lon="11.94176668188234"><ele>210.0</ele><time>2026-04-26T13:12:35Z</time></trkpt><trkpt lat="45.916112256984675" lon="11.941741157810526"><ele>210.0</ele><time>2026-04-26T13:12:36Z</time></trkpt><trkpt lat="45.916015745841776" lon="11.941734647583209"><ele>211.0</ele><time>2026-04-26T13:12:37Z</time></trkpt><trkpt lat="45.91590657394655" lon="11.941707611224622"><ele>212.0</ele><time>2026-04-26T13:12:38Z</time></trkpt><trkpt lat="45.91578391756213" lon="11.941711398933064"><ele>213.0</ele><time>2026-04-26T13:12:39Z</time></trkpt><trkpt lat="45.91566592371565" lon="11.941687793492385"><ele>214.0</ele><time>2026-04-26T13:12:40Z</time></trkpt><trkpt lat="45.9155450542681" lon="11.941671734500853"><ele>214.0</ele><time>2026-04-26T13:12:41Z</time></trkpt><trkpt lat="45.9154171245315" lon="11.941646886084238"><ele>214.0</ele><time>2026-04-26T13:12:42Z</time></trkpt><trkpt lat="45.91526839969808" lon="11.94159732775243"><ele>214.0</ele><time>2026-04-26T13:12:43Z</time></trkpt><trkpt lat="45.915130499224205" lon="11.941576441990726"><ele>214.0</ele><time>2026-04-26T13:12:44Z</time></trkpt><trkpt lat="45.914992063759954" lon="11.94155676700718"><ele>212.5</ele><time>2026-04-26T13:12:45Z</time></trkpt><trkpt lat="45.9148545953389" lon="11.941533786493975"><ele>211.0</ele><time>2026-04-26T13:12:46Z</time></trkpt><trkpt lat="45.91471164866611" lon="11.941507004472397"><ele>209.5</ele><time>2026-04-26T13:12:47Z</time></trkpt><trkpt lat="45.91457267418663" lon="11.941491624589313"><ele>208.0</ele><time>2026-04-26T13:12:48Z</time></trkpt><trkpt lat="45.914429814256025" lon="11.941471773891566"><ele>208.0</ele><time>2026-04-26T13:12:48.999Z</time></trkpt><trkpt lat="45.914282092058116" lon="11.941437555351895"><ele>208.0</ele><time>2026-04-26T13:12:49.999Z</time></trkpt><trkpt lat="45.91413376508893" lon="11.94140844959955"><ele>208.0</ele><time>2026-04-26T13:12:50.999Z</time></trkpt><trkpt lat="45.91398201929498" lon="11.941386034721386"><ele>204.66666666666666</ele><time>2026-04-26T13:12:51.999Z</time></trkpt><trkpt lat="45.91383161668088" lon="11.941356951051791"><ele>201.33333333333331</ele><time>2026-04-26T13:12:52.999Z</time></trkpt><trkpt lat="45.91366875430315" lon="11.941329868904964"><ele>198.0</ele><time>2026-04-26T13:12:53.999Z</time></trkpt><trkpt lat="45.91350169742052" lon="11.941306941920436"><ele>197.0</ele><time>2026-04-26T13:12:54.999Z</time></trkpt><trkpt lat="45.91332975993794" lon="11.941290415845126"><ele>196.0</ele><time>2026-04-26T13:12:55.999Z</time></trkpt><trkpt lat="45.91315514053283" lon="11.941264090310018"><ele>195.0</ele><time>2026-04-26T13:12:56.999Z</time></trkpt><trkpt lat="45.912992091540126" lon="11.94124222910213"><ele>195.0</ele><time>2026-04-26T13:12:57.999Z</time></trkpt><trkpt lat="45.91283761552021" lon="11.94123404696832"><ele>195.0</ele><time>2026-04-26T13:12:58.999Z</time></trkpt><trkpt lat="45.9126790568462" lon="11.941244716141966"><ele>195.0</ele><time>2026-04-26T13:12:59.999Z</time></trkpt><trkpt lat="45.9125111427734" lon="11.941255275474054"><ele>193.33333333333334</ele><time>2026-04-26T13:13:00.999Z</time></trkpt><trkpt lat="45.91233651851182" lon="11.941286127647517"><ele>191.66666666666669</ele><time>2026-04-26T13:13:01.999Z</time></trkpt><trkpt lat="45.91216854561004" lon="11.941303185464852"><ele>190.0</ele><time>2026-04-26T13:13:02.999Z</time></trkpt><trkpt lat="45.91200788851463" lon="11.941338288831883"><ele>190.0</ele><time>2026-04-26T13:13:03.999Z</time></trkpt><trkpt lat="45.91184428102057" lon="11.941378912092045"><ele>190.0</ele><time>2026-04-26T13:13:04.999Z</time></trkpt><trkpt lat="45.91168193289113" lon="11.941414122585265"><ele>190.0</ele><time>2026-04-26T13:13:05.999Z</time></trkpt><trkpt lat="45.911521195285566" lon="11.941447822877878"><ele>190.66666666666669</ele><time>2026-04-26T13:13:06.999Z</time></trkpt><trkpt lat="45.911352791011396" lon="11.941478556386787"><ele>191.33333333333334</ele><time>2026-04-26T13:13:07.999Z</time></trkpt><trkpt lat="45.91118599611573" lon="11.941515409887296"><ele>192.0</ele><time>2026-04-26T13:13:08.999Z</time></trkpt><trkpt lat="45.911020158835285" lon="11.941548756318335"><ele>193.0</ele><time>2026-04-26T13:13:09.999Z</time></trkpt><trkpt lat="45.91085081718727" lon="11.941587790017579"><ele>194.0</ele><time>2026-04-26T13:13:10.999Z</time></trkpt><trkpt lat="45.91069129048983" lon="11.941632722522716"><ele>195.0</ele><time>2026-04-26T13:13:11.999Z</time></trkpt><trkpt lat="45.91052691244437" lon="11.941681399827154"><ele>190.33333333333334</ele><time>2026-04-26T13:13:12.999Z</time></trkpt><trkpt lat="45.91036027007147" lon="11.94172718372811"><ele>185.66666666666669</ele><time>2026-04-26T13:13:13.999Z</time></trkpt><trkpt lat="45.91019258558825" lon="11.94177305405928"><ele>181.0</ele><time>2026-04-26T13:13:14.999Z</time></trkpt><trkpt lat="45.910018802357925" lon="11.941823740980757"><ele>181.0</ele><time>2026-04-26T13:13:15.999Z</time></trkpt><trkpt lat="45.90984744163554" lon="11.941885501809145"><ele>181.0</ele><time>2026-04-26T13:13:16.999Z</time></trkpt><trkpt lat="45.90967557068739" lon="11.94194778781967"><ele>181.0</ele><time>2026-04-26T13:13:17.999Z</time></trkpt><trkpt lat="45.909493771845675" lon="11.942010971260592"><ele>181.0</ele><time>2026-04-26T13:13:18.999Z</time></trkpt><trkpt lat="45.909314896438666" lon="11.942070167922402"><ele>181.0</ele><time>2026-04-26T13:13:19.999Z</time></trkpt><trkpt lat="45.90912747312003" lon="11.94213669418855"><ele>181.0</ele><time>2026-04-26T13:13:20.999Z</time></trkpt><trkpt lat="45.908948362831275" lon="11.942184125879656"><ele>182.33333333333334</ele><time>2026-04-26T13:13:21.999Z</time></trkpt><trkpt lat="45.90877209301746" lon="11.942251269873912"><ele>183.66666666666666</ele><time>2026-04-26T13:13:22.999Z</time></trkpt><trkpt lat="45.90858611089164" lon="11.942319982123543"><ele>185.0</ele><time>2026-04-26T13:13:23.999Z</time></trkpt><trkpt lat="45.90841121104952" lon="11.942378420367838"><ele>183.66666666666666</ele><time>2026-04-26T13:13:24.999Z</time></trkpt><trkpt lat="45.908225187798536" lon="11.942391320996329"><ele>182.33333333333334</ele><time>2026-04-26T13:13:25.999Z</time></trkpt><trkpt lat="45.90803803148044" lon="11.942383570258206"><ele>181.0</ele><time>2026-04-26T13:13:26.999Z</time></trkpt><trkpt lat="45.907850598564856" lon="11.942346864826229"><ele>181.0</ele><time>2026-04-26T13:13:27.999Z</time></trkpt><trkpt lat="45.90766177266843" lon="11.94227350637137"><ele>181.0</ele><time>2026-04-26T13:13:28.999Z</time></trkpt><trkpt lat="45.90747305275639" lon="11.942183612253748"><ele>181.0</ele><time>2026-04-26T13:13:29.999Z</time></trkpt><trkpt lat="45.90728811763484" lon="11.942090410558444"><ele>180.0</ele><time>2026-04-26T13:13:30.999Z</time></trkpt><trkpt lat="45.907102415973526" lon="11.942003968318247"><ele>179.0</ele><time>2026-04-26T13:13:31.999Z</time></trkpt><trkpt lat="45.90691544534134" lon="11.941921532343782"><ele>178.0</ele><time>2026-04-26T13:13:32.999Z</time></trkpt><trkpt lat="45.906739717943005" lon="11.941847310919451"><ele>178.0</ele><time>2026-04-26T13:13:33.999Z</time></trkpt><trkpt lat="45.90656663978247" lon="11.941774474636535"><ele>178.0</ele><time>2026-04-26T13:13:34.999Z</time></trkpt><trkpt lat="45.90639826663174" lon="11.941699275161987"><ele>178.0</ele><time>2026-04-26T13:13:35.999Z</time></trkpt><trkpt lat="45.90624512641469" lon="11.941622368094055"><ele>178.25</ele><time>2026-04-26T13:13:36.999Z</time></trkpt><trkpt lat="45.90610831324612" lon="11.941561224399171"><ele>178.5</ele><time>2026-04-26T13:13:37.999Z</time></trkpt><trkpt lat="45.905974814409305" lon="11.941507054412586"><ele>178.75</ele><time>2026-04-26T13:13:38.999Z</time></trkpt><trkpt lat="45.90585474354056" lon="11.941458181109287"><ele>179.0</ele><time>2026-04-26T13:13:39.999Z</time></trkpt><trkpt lat="45.90574640250593" lon="11.941416825836896"><ele>179.66666666666666</ele><time>2026-04-26T13:13:40.999Z</time></trkpt><trkpt lat="45.90564724876714" lon="11.94138398395081"><ele>180.33333333333331</ele><time>2026-04-26T13:13:41.999Z</time></trkpt><trkpt lat="45.905568795690456" lon="11.941341245757535"><ele>181.0</ele><time>2026-04-26T13:13:42.999Z</time></trkpt><trkpt lat="45.90548740617318" lon="11.941255088548065"><ele>181.66666666666666</ele><time>2026-04-26T13:13:44.999Z</time></trkpt><trkpt lat="45.905454962412996" lon="11.941176078059838"><ele>182.33333333333334</ele><time>2026-04-26T13:13:47.999Z</time></trkpt><trkpt lat="45.905420719590914" lon="11.941099933986914"><ele>183.0</ele><time>2026-04-26T13:13:49.999Z</time></trkpt><trkpt lat="45.905393434253654" lon="11.941007762432497"><ele>183.25</ele><time>2026-04-26T13:13:50.999Z</time></trkpt><trkpt lat="45.905334826227225" lon="11.94082655419207"><ele>183.5</ele><time>2026-04-26T13:13:53Z</time></trkpt><trkpt lat="45.90539312460206" lon="11.940646358599528"><ele>183.75</ele><time>2026-04-26T13:13:54Z</time></trkpt><trkpt lat="45.905433506980714" lon="11.940494507680889"><ele>184.0</ele><time>2026-04-26T13:13:55Z</time></trkpt><trkpt lat="45.90548123475373" lon="11.940330503545502"><ele>184.0</ele><time>2026-04-26T13:13:56Z</time></trkpt><trkpt lat="45.90552808588424" lon="11.940142179343518"><ele>184.0</ele><time>2026-04-26T13:13:57Z</time></trkpt><trkpt lat="45.90555122153366" lon="11.939944825026362"><ele>184.0</ele><time>2026-04-26T13:13:58Z</time></trkpt><trkpt lat="45.90556431643416" lon="11.93973258182852"><ele>184.0</ele><time>2026-04-26T13:13:59Z</time></trkpt><trkpt lat="45.905569650461544" lon="11.939506439866733"><ele>183.66666666666669</ele><time>2026-04-26T13:14:00Z</time></trkpt><trkpt lat="45.90558252791061" lon="11.939286997658055"><ele>183.33333333333334</ele><time>2026-04-26T13:14:01Z</time></trkpt><trkpt lat="45.90559225646855" lon="11.939056791872483"><ele>183.0</ele><time>2026-04-26T13:14:02Z</time></trkpt><trkpt lat="45.90564659870376" lon="11.93883477916634"><ele>184.33333333333334</ele><time>2026-04-26T13:14:03Z</time></trkpt><trkpt lat="45.90571972298605" lon="11.938616153623428"><ele>185.66666666666669</ele><time>2026-04-26T13:14:04Z</time></trkpt><trkpt lat="45.905793555597825" lon="11.938379099846598"><ele>187.0</ele><time>2026-04-26T13:14:05Z</time></trkpt><trkpt lat="45.90590230152632" lon="11.938142067528812"><ele>187.0</ele><time>2026-04-26T13:14:06Z</time></trkpt><trkpt lat="45.90600571958392" lon="11.937880730724729"><ele>187.0</ele><time>2026-04-26T13:14:07Z</time></trkpt><trkpt lat="45.90610121920549" lon="11.9376394706188"><ele>187.0</ele><time>2026-04-26T13:14:08Z</time></trkpt><trkpt lat="45.90619651044733" lon="11.937397851003048"><ele>187.0</ele><time>2026-04-26T13:14:09Z</time></trkpt><trkpt lat="45.9062963232605" lon="11.937160505333301"><ele>187.0</ele><time>2026-04-26T13:14:10Z</time></trkpt><trkpt lat="45.90643927741099" lon="11.936944915019312"><ele>187.0</ele><time>2026-04-26T13:14:11Z</time></trkpt><trkpt lat="45.90657951257879" lon="11.936747603000484"><ele>186.33333333333334</ele><time>2026-04-26T13:14:12Z</time></trkpt><trkpt lat="45.90669411193636" lon="11.936565887842931"><ele>185.66666666666666</ele><time>2026-04-26T13:14:13Z</time></trkpt><trkpt lat="45.9068330380228" lon="11.93636405694069"><ele>185.0</ele><time>2026-04-26T13:14:14Z</time></trkpt><trkpt lat="45.90694385676566" lon="11.936152739283932"><ele>185.0</ele><time>2026-04-26T13:14:15Z</time></trkpt><trkpt lat="45.907050821199334" lon="11.935934984559852"><ele>185.0</ele><time>2026-04-26T13:14:16Z</time></trkpt><trkpt lat="45.90715188451475" lon="11.935716605896555"><ele>185.0</ele><time>2026-04-26T13:14:17Z</time></trkpt><trkpt lat="45.90725572956552" lon="11.935487385893477"><ele>186.66666666666666</ele><time>2026-04-26T13:14:18Z</time></trkpt><trkpt lat="45.907356655466074" lon="11.935274849096235"><ele>188.33333333333334</ele><time>2026-04-26T13:14:19Z</time></trkpt><trkpt lat="45.90746320196196" lon="11.935061212464964"><ele>190.0</ele><time>2026-04-26T13:14:20Z</time></trkpt><trkpt lat="45.907566148121845" lon="11.934856076793094"><ele>189.75</ele><time>2026-04-26T13:14:21Z</time></trkpt><trkpt lat="45.907664434702156" lon="11.934664398366227"><ele>189.5</ele><time>2026-04-26T13:14:22Z</time></trkpt><trkpt lat="45.907729137321674" lon="11.934490809496445"><ele>189.25</ele><time>2026-04-26T13:14:23Z</time></trkpt><trkpt lat="45.9077996313181" lon="11.93435013753387"><ele>189.0</ele><time>2026-04-26T13:14:24Z</time></trkpt><trkpt lat="45.907860999639404" lon="11.93425681712301"><ele>189.83333333333334</ele><time>2026-04-26T13:14:25Z</time></trkpt><trkpt lat="45.90792755736028" lon="11.93420844740066"><ele>190.66666666666669</ele><time>2026-04-26T13:14:26Z</time></trkpt><trkpt lat="45.90799561071547" lon="11.934185715527894"><ele>191.5</ele><time>2026-04-26T13:14:27Z</time></trkpt><trkpt lat="45.90806542806339" lon="11.934144695177961"><ele>192.33333333333334</ele><time>2026-04-26T13:14:28Z</time></trkpt><trkpt lat="45.908123738914284" lon="11.934047141763388"><ele>193.16666666666669</ele><time>2026-04-26T13:14:29Z</time></trkpt><trkpt lat="45.908199378145824" lon="11.933929633709843"><ele>194.0</ele><time>2026-04-26T13:14:30Z</time></trkpt><trkpt lat="45.908267444773394" lon="11.933775622914714"><ele>194.0</ele><time>2026-04-26T13:14:31Z</time></trkpt><trkpt lat="45.90838135972676" lon="11.933604479255063"><ele>194.0</ele><time>2026-04-26T13:14:32Z</time></trkpt><trkpt lat="45.908492868679" lon="11.933439482663072"><ele>194.0</ele><time>2026-04-26T13:14:33Z</time></trkpt><trkpt lat="45.908603060770275" lon="11.933245418818709"><ele>193.66666666666669</ele><time>2026-04-26T13:14:34Z</time></trkpt><trkpt lat="45.90869920978778" lon="11.933037927460466"><ele>193.33333333333331</ele><time>2026-04-26T13:14:35Z</time></trkpt><trkpt lat="45.90880040174576" lon="11.932808624500124"><ele>193.0</ele><time>2026-04-26T13:14:36Z</time></trkpt><trkpt lat="45.908896280143786" lon="11.932579158018875"><ele>192.5</ele><time>2026-04-26T13:14:37Z</time></trkpt><trkpt lat="45.90899507141269" lon="11.932418633617397"><ele>192.0</ele><time>2026-04-26T13:14:38Z</time></trkpt><trkpt lat="45.90908805689584" lon="11.93227424250827"><ele>191.5</ele><time>2026-04-26T13:14:39Z</time></trkpt><trkpt lat="45.90912977373726" lon="11.932113943684975"><ele>191.0</ele><time>2026-04-26T13:14:40Z</time></trkpt><trkpt lat="45.90913282360821" lon="11.93194348588915"><ele>191.0</ele><time>2026-04-26T13:14:41Z</time></trkpt><trkpt lat="45.90910661436113" lon="11.931748510128333"><ele>191.0</ele><time>2026-04-26T13:14:42Z</time></trkpt><trkpt lat="45.90904874658526" lon="11.931558762674898"><ele>191.0</ele><time>2026-04-26T13:14:43Z</time></trkpt><trkpt lat="45.908999322301646" lon="11.931350943445993"><ele>191.0</ele><time>2026-04-26T13:14:44Z</time></trkpt><trkpt lat="45.908946947385814" lon="11.931136187926342"><ele>192.0</ele><time>2026-04-26T13:14:45Z</time></trkpt><trkpt lat="45.90888489055983" lon="11.930921732667988"><ele>193.0</ele><time>2026-04-26T13:14:46Z</time></trkpt><trkpt lat="45.908827858265475" lon="11.930713938627562"><ele>194.0</ele><time>2026-04-26T13:14:47Z</time></trkpt><trkpt lat="45.90877461468373" lon="11.93049799574371"><ele>195.0</ele><time>2026-04-26T13:14:48Z</time></trkpt><trkpt lat="45.908724758727246" lon="11.930291319800972"><ele>196.0</ele><time>2026-04-26T13:14:49Z</time></trkpt><trkpt lat="45.90867258181042" lon="11.930061882331932"><ele>197.0</ele><time>2026-04-26T13:14:50Z</time></trkpt><trkpt lat="45.90861191052425" lon="11.929825367745844"><ele>199.0</ele><time>2026-04-26T13:14:51Z</time></trkpt><trkpt lat="45.90854873460194" lon="11.929601201479691"><ele>201.0</ele><time>2026-04-26T13:14:52Z</time></trkpt><trkpt lat="45.90849068220252" lon="11.929329735820946"><ele>203.0</ele><time>2026-04-26T13:14:53Z</time></trkpt><trkpt lat="45.908452728486196" lon="11.929055549856315"><ele>203.66666666666669</ele><time>2026-04-26T13:14:53.999Z</time></trkpt><trkpt lat="45.90843623950739" lon="11.928794871871874"><ele>204.33333333333331</ele><time>2026-04-26T13:14:54.999Z</time></trkpt><trkpt lat="45.90843577357056" lon="11.928512949299485"><ele>205.0</ele><time>2026-04-26T13:14:55.999Z</time></trkpt><trkpt lat="45.908447745720736" lon="11.928229913783092"><ele>206.5</ele><time>2026-04-26T13:14:56.999Z</time></trkpt><trkpt lat="45.90847990951701" lon="11.927895085707977"><ele>208.0</ele><time>2026-04-26T13:14:57.999Z</time></trkpt><trkpt lat="45.90851363200651" lon="11.927529411970982"><ele>214.0</ele><time>2026-04-26T13:14:58.999Z</time></trkpt><trkpt lat="45.90853241903365" lon="11.927177959543856"><ele>220.0</ele><time>2026-04-26T13:14:59.999Z</time></trkpt><trkpt lat="45.90853138519853" lon="11.926824546619393"><ele>223.5</ele><time>2026-04-26T13:15:00.999Z</time></trkpt><trkpt lat="45.90853071585024" lon="11.926473167108144"><ele>227.0</ele><time>2026-04-26T13:15:01.999Z</time></trkpt><trkpt lat="45.90852531781612" lon="11.926130778948654"><ele>228.0</ele><time>2026-04-26T13:15:02.999Z</time></trkpt><trkpt lat="45.908516179623504" lon="11.925780838313619"><ele>229.0</ele><time>2026-04-26T13:15:03.999Z</time></trkpt><trkpt lat="45.908511601078665" lon="11.925428349559553"><ele>229.0</ele><time>2026-04-26T13:15:04.999Z</time></trkpt><trkpt lat="45.908512024844434" lon="11.925077872875958"><ele>229.0</ele><time>2026-04-26T13:15:05.999Z</time></trkpt><trkpt lat="45.90851055670076" lon="11.924727681988026"><ele>228.5</ele><time>2026-04-26T13:15:06.999Z</time></trkpt><trkpt lat="45.90850756284644" lon="11.92437432346541"><ele>228.0</ele><time>2026-04-26T13:15:07.999Z</time></trkpt><trkpt lat="45.90851388107602" lon="11.92402610468136"><ele>229.0</ele><time>2026-04-26T13:15:08.999Z</time></trkpt><trkpt lat="45.90855442308906" lon="11.923692225515396"><ele>230.0</ele><time>2026-04-26T13:15:09.999Z</time></trkpt><trkpt lat="45.908631927607274" lon="11.923359330753593"><ele>233.0</ele><time>2026-04-26T13:15:10.999Z</time></trkpt><trkpt lat="45.908716558291594" lon="11.923024157669575"><ele>236.0</ele><time>2026-04-26T13:15:11.999Z</time></trkpt><trkpt lat="45.908803218319136" lon="11.922685620554123"><ele>235.5</ele><time>2026-04-26T13:15:12.999Z</time></trkpt><trkpt lat="45.9088911694083" lon="11.9223495491981"><ele>235.0</ele><time>2026-04-26T13:15:13.999Z</time></trkpt><trkpt lat="45.90898206987099" lon="11.922022934723572"><ele>234.0</ele><time>2026-04-26T13:15:14.999Z</time></trkpt><trkpt lat="45.90909181746378" lon="11.921715865623058"><ele>233.0</ele><time>2026-04-26T13:15:15.999Z</time></trkpt><trkpt lat="45.90919936624878" lon="11.921413238181852"><ele>237.0</ele><time>2026-04-26T13:15:16.999Z</time></trkpt><trkpt lat="45.90932658267528" lon="11.92110480294125"><ele>241.0</ele><time>2026-04-26T13:15:17.999Z</time></trkpt><trkpt lat="45.909465391041536" lon="11.920792565763199"><ele>241.0</ele><time>2026-04-26T13:15:18.999Z</time></trkpt><trkpt lat="45.90959936161637" lon="11.920480131341955"><ele>241.0</ele><time>2026-04-26T13:15:19.999Z</time></trkpt><trkpt lat="45.90972754619498" lon="11.920166521419041"><ele>240.5</ele><time>2026-04-26T13:15:20.999Z</time></trkpt><trkpt lat="45.90986155414436" lon="11.919858473206181"><ele>240.0</ele><time>2026-04-26T13:15:21.999Z</time></trkpt><trkpt lat="45.90999999661067" lon="11.919566275716663"><ele>246.5</ele><time>2026-04-26T13:15:22.999Z</time></trkpt><trkpt lat="45.910134946860055" lon="11.919230067948142"><ele>253.0</ele><time>2026-04-26T13:15:23.999Z</time></trkpt><trkpt lat="45.91025240021645" lon="11.91888900667063"><ele>253.0</ele><time>2026-04-26T13:15:24.999Z</time></trkpt><trkpt lat="45.91035353268252" lon="11.918565677701336"><ele>253.0</ele><time>2026-04-26T13:15:25.999Z</time></trkpt><trkpt lat="45.91043256217036" lon="11.918240808756936"><ele>253.5</ele><time>2026-04-26T13:15:26.999Z</time></trkpt><trkpt lat="45.91050860947163" lon="11.917924496733374"><ele>254.0</ele><time>2026-04-26T13:15:27.999Z</time></trkpt><trkpt lat="45.910589964486896" lon="11.917605275415845"><ele>253.5</ele><time>2026-04-26T13:15:28.999Z</time></trkpt><trkpt lat="45.910677379779116" lon="11.917284219496057"><ele>253.0</ele><time>2026-04-26T13:15:29.999Z</time></trkpt><trkpt lat="45.91080070492816" lon="11.91698903494236"><ele>258.5</ele><time>2026-04-26T13:15:30.999Z</time></trkpt><trkpt lat="45.91094077715305" lon="11.916713747049863"><ele>264.0</ele><time>2026-04-26T13:15:31.999Z</time></trkpt><trkpt lat="45.91108320285048" lon="11.916432814903906"><ele>264.0</ele><time>2026-04-26T13:15:32.999Z</time></trkpt><trkpt lat="45.911209086336925" lon="11.916205989428613"><ele>264.0</ele><time>2026-04-26T13:15:33.999Z</time></trkpt><trkpt lat="45.91131462143305" lon="11.915967333608206"><ele>264.0</ele><time>2026-04-26T13:15:34.999Z</time></trkpt><trkpt lat="45.91136708517446" lon="11.915739402744713"><ele>264.0</ele><time>2026-04-26T13:15:35.999Z</time></trkpt><trkpt lat="45.91140546684672" lon="11.915562060607048"><ele>264.0</ele><time>2026-04-26T13:15:36.999Z</time></trkpt><trkpt lat="45.91141922205046" lon="11.915392941713666"><ele>264.0</ele><time>2026-04-26T13:15:37.999Z</time></trkpt><trkpt lat="45.91142525693797" lon="11.915239138936895"><ele>264.0</ele><time>2026-04-26T13:15:38.999Z</time></trkpt><trkpt lat="45.911401445828524" lon="11.915092539744668"><ele>263.5</ele><time>2026-04-26T13:15:39.999Z</time></trkpt><trkpt lat="45.911357994843655" lon="11.914966584610724"><ele>263.0</ele><time>2026-04-26T13:15:40.999Z</time></trkpt><trkpt lat="45.911288355380805" lon="11.914863080317774"><ele>262.5</ele><time>2026-04-26T13:15:41.999Z</time></trkpt><trkpt lat="45.91122587003393" lon="11.914799706362427"><ele>262.0</ele><time>2026-04-26T13:15:42.999Z</time></trkpt><trkpt lat="45.91115648720277" lon="11.914736400656603"><ele>261.5</ele><time>2026-04-26T13:15:43.999Z</time></trkpt><trkpt lat="45.91108735955646" lon="11.91468275078447"><ele>261.0</ele><time>2026-04-26T13:15:44.999Z</time></trkpt><trkpt lat="45.91102618114921" lon="11.914626427905649"><ele>261.0</ele><time>2026-04-26T13:15:45.999Z</time></trkpt><trkpt lat="45.910954540558386" lon="11.91457062714483"><ele>261.0</ele><time>2026-04-26T13:15:46.999Z</time></trkpt><trkpt lat="45.91087837294008" lon="11.914528690266463"><ele>261.0</ele><time>2026-04-26T13:15:47.999Z</time></trkpt><trkpt lat="45.91079492912864" lon="11.914497373920183"><ele>261.0</ele><time>2026-04-26T13:15:48.999Z</time></trkpt><trkpt lat="45.910706293436355" lon="11.91447064255517"><ele>261.0</ele><time>2026-04-26T13:15:49.999Z</time></trkpt><trkpt lat="45.91059899449404" lon="11.91446198405205"><ele>261.0</ele><time>2026-04-26T13:15:50.999Z</time></trkpt><trkpt lat="45.910495397568425" lon="11.914466221334234"><ele>260.2</ele><time>2026-04-26T13:15:51.999Z</time></trkpt><trkpt lat="45.91039191396863" lon="11.914465124108075"><ele>259.40000000000003</ele><time>2026-04-26T13:15:52.999Z</time></trkpt><trkpt lat="45.91028586912469" lon="11.914462525332466"><ele>258.6</ele><time>2026-04-26T13:15:53.999Z</time></trkpt><trkpt lat="45.9101776171216" lon="11.914461690459719"><ele>257.8</ele><time>2026-04-26T13:15:54.999Z</time></trkpt><trkpt lat="45.91007743274674" lon="11.914458457545823"><ele>257.0</ele><time>2026-04-26T13:15:55.999Z</time></trkpt><trkpt lat="45.90998661726846" lon="11.914462104677872"><ele>258.33333333333337</ele><time>2026-04-26T13:15:56.999Z</time></trkpt><trkpt lat="45.90990716946681" lon="11.914455218501796"><ele>259.6666666666667</ele><time>2026-04-26T13:15:58Z</time></trkpt><trkpt lat="45.90982698718414" lon="11.914444815492486"><ele>261.0</ele><time>2026-04-26T13:15:59Z</time></trkpt><trkpt lat="45.90974726182869" lon="11.914423661931297"><ele>262.3333333333333</ele><time>2026-04-26T13:16:00Z</time></trkpt><trkpt lat="45.90967511357121" lon="11.914394290160262"><ele>263.66666666666663</ele><time>2026-04-26T13:16:01Z</time></trkpt><trkpt lat="45.909595947988194" lon="11.914366347727176"><ele>265.0</ele><time>2026-04-26T13:16:02Z</time></trkpt><trkpt lat="45.90951824760996" lon="11.91432534530045"><ele>265.0</ele><time>2026-04-26T13:16:03Z</time></trkpt><trkpt lat="45.90943586850272" lon="11.914285271308042"><ele>265.0</ele><time>2026-04-26T13:16:04Z</time></trkpt><trkpt lat="45.90935290906441" lon="11.914243627809777"><ele>265.0</ele><time>2026-04-26T13:16:05Z</time></trkpt><trkpt lat="45.90927451706107" lon="11.914194343385756"><ele>265.0</ele><time>2026-04-26T13:16:06Z</time></trkpt><trkpt lat="45.90920572497769" lon="11.914141021772414"><ele>265.0</ele><time>2026-04-26T13:16:07Z</time></trkpt><trkpt lat="45.90913567685484" lon="11.914079711131604"><ele>265.0</ele><time>2026-04-26T13:16:08Z</time></trkpt><trkpt lat="45.90907454568898" lon="11.913990761230396"><ele>266.16666666666663</ele><time>2026-04-26T13:16:09Z</time></trkpt><trkpt lat="45.909053507129116" lon="11.913863710087572"><ele>267.3333333333333</ele><time>2026-04-26T13:16:10Z</time></trkpt><trkpt lat="45.90902090806056" lon="11.913739175845299"><ele>268.5</ele><time>2026-04-26T13:16:11Z</time></trkpt><trkpt lat="45.90900176811851" lon="11.913614762775781"><ele>269.6666666666667</ele><time>2026-04-26T13:16:12Z</time></trkpt><trkpt lat="45.90897472342739" lon="11.913498175372679"><ele>270.83333333333337</ele><time>2026-04-26T13:16:13Z</time></trkpt><trkpt lat="45.90895429736028" lon="11.913382074057932"><ele>272.0</ele><time>2026-04-26T13:16:14Z</time></trkpt><trkpt lat="45.90893258523025" lon="11.91326953910563"><ele>272.6</ele><time>2026-04-26T13:16:15Z</time></trkpt><trkpt lat="45.90889745807607" lon="11.913151651914003"><ele>273.2</ele><time>2026-04-26T13:16:16Z</time></trkpt><trkpt lat="45.908864976089106" lon="11.913033124197117"><ele>273.8</ele><time>2026-04-26T13:16:17Z</time></trkpt><trkpt lat="45.90883756474922" lon="11.912906890909099"><ele>274.4</ele><time>2026-04-26T13:16:18Z</time></trkpt><trkpt lat="45.90880462509314" lon="11.912766908411397"><ele>275.0</ele><time>2026-04-26T13:16:19Z</time></trkpt><trkpt lat="45.90877684237498" lon="11.912614731318085"><ele>275.5</ele><time>2026-04-26T13:16:20Z</time></trkpt><trkpt lat="45.90877162675803" lon="11.91246253681553"><ele>276.0</ele><time>2026-04-26T13:16:21Z</time></trkpt><trkpt lat="45.90871936955086" lon="11.912316220899406"><ele>276.5</ele><time>2026-04-26T13:16:22Z</time></trkpt><trkpt lat="45.90869530052028" lon="11.912166248213229"><ele>277.0</ele><time>2026-04-26T13:16:23Z</time></trkpt><trkpt lat="45.90867544637519" lon="11.91198388402412"><ele>277.0</ele><time>2026-04-26T13:16:24Z</time></trkpt><trkpt lat="45.908643811087885" lon="11.911816272299058"><ele>277.0</ele><time>2026-04-26T13:16:25Z</time></trkpt><trkpt lat="45.908610793209604" lon="11.911650000999206"><ele>277.0</ele><time>2026-04-26T13:16:26Z</time></trkpt><trkpt lat="45.90861351230961" lon="11.911478446012167"><ele>277.0</ele><time>2026-04-26T13:16:27Z</time></trkpt><trkpt lat="45.9085835833433" lon="11.911344220598135"><ele>277.6</ele><time>2026-04-26T13:16:28Z</time></trkpt><trkpt lat="45.90855247586528" lon="11.9112103068667"><ele>278.2</ele><time>2026-04-26T13:16:29Z</time></trkpt><trkpt lat="45.90852107997594" lon="11.911082798847428"><ele>278.8</ele><time>2026-04-26T13:16:30Z</time></trkpt><trkpt lat="45.90848736266379" lon="11.910951260038981"><ele>279.4</ele><time>2026-04-26T13:16:31Z</time></trkpt><trkpt lat="45.90845405232254" lon="11.910820622236868"><ele>280.0</ele><time>2026-04-26T13:16:32Z</time></trkpt><trkpt lat="45.90842145301445" lon="11.910692773004383"><ele>281.8</ele><time>2026-04-26T13:16:33Z</time></trkpt><trkpt lat="45.908389988071455" lon="11.910569372571631"><ele>283.6</ele><time>2026-04-26T13:16:34Z</time></trkpt><trkpt lat="45.90835660062198" lon="11.910438432393928"><ele>285.4</ele><time>2026-04-26T13:16:35Z</time></trkpt><trkpt lat="45.90832295273861" lon="11.91030647077379"><ele>287.2</ele><time>2026-04-26T13:16:36Z</time></trkpt><trkpt lat="45.908271279357685" lon="11.910172176441337"><ele>289.0</ele><time>2026-04-26T13:16:37Z</time></trkpt><trkpt lat="45.90824641839477" lon="11.910027800548653"><ele>289.5</ele><time>2026-04-26T13:16:38Z</time></trkpt><trkpt lat="45.908213089550536" lon="11.909893782060136"><ele>290.0</ele><time>2026-04-26T13:16:39Z</time></trkpt><trkpt lat="45.90818280267038" lon="11.909771636485827"><ele>290.5</ele><time>2026-04-26T13:16:40Z</time></trkpt><trkpt lat="45.90815946201145" lon="11.909674350748"><ele>291.0</ele><time>2026-04-26T13:16:41Z</time></trkpt><trkpt lat="45.908128298547744" lon="11.909543596099848"><ele>291.5</ele><time>2026-04-26T13:16:43Z</time></trkpt><trkpt lat="45.90810169971066" lon="11.909417705170322"><ele>292.0</ele><time>2026-04-26T13:16:45Z</time></trkpt><trkpt lat="45.908102870457384" lon="11.909316282334064"><ele>292.66666666666663</ele><time>2026-04-26T13:16:47Z</time></trkpt><trkpt lat="45.90808917406179" lon="11.909181030205513"><ele>293.3333333333333</ele><time>2026-04-26T13:16:51Z</time></trkpt><trkpt lat="45.90805190073365" lon="11.909072791166558"><ele>294.0</ele><time>2026-04-26T13:16:53Z</time></trkpt><trkpt lat="45.90816149256711" lon="11.909000098640814"><ele>294.6666666666667</ele><time>2026-04-26T13:16:54Z</time></trkpt><trkpt lat="45.908226339826385" lon="11.908991970780232"><ele>295.33333333333337</ele><time>2026-04-26T13:16:55Z</time></trkpt><trkpt lat="45.908297286817835" lon="11.908965106169362"><ele>296.0</ele><time>2026-04-26T13:16:55.999Z</time></trkpt><trkpt lat="45.90837336532065" lon="11.908935647898788"><ele>295.0</ele><time>2026-04-26T13:16:56.999Z</time></trkpt><trkpt lat="45.90845210845486" lon="11.9089010087295"><ele>294.0</ele><time>2026-04-26T13:16:57.999Z</time></trkpt><trkpt lat="45.9085305092807" lon="11.908862583509137"><ele>293.0</ele><time>2026-04-26T13:16:58.999Z</time></trkpt><trkpt lat="45.90861808513509" lon="11.908847251713572"><ele>292.0</ele><time>2026-04-26T13:16:59.999Z</time></trkpt><trkpt lat="45.908722786085605" lon="11.908794052549185"><ele>291.0</ele><time>2026-04-26T13:17:00.999Z</time></trkpt><trkpt lat="45.90881305829842" lon="11.908746565564794"><ele>291.0</ele><time>2026-04-26T13:17:01.999Z</time></trkpt><trkpt lat="45.908896980346064" lon="11.90870710362585"><ele>291.0</ele><time>2026-04-26T13:17:02.999Z</time></trkpt><trkpt lat="45.90897509441553" lon="11.908676157521267"><ele>291.0</ele><time>2026-04-26T13:17:03.999Z</time></trkpt><trkpt lat="45.909050722358586" lon="11.90863592412039"><ele>291.0</ele><time>2026-04-26T13:17:04.999Z</time></trkpt><trkpt lat="45.909106651416444" lon="11.90859288327382"><ele>291.0</ele><time>2026-04-26T13:17:05.999Z</time></trkpt><trkpt lat="45.90910789892469" lon="11.908351316482387"><ele>291.5</ele><time>2026-04-26T13:17:07.999Z</time></trkpt><trkpt lat="45.90907414178525" lon="11.908249924671209"><ele>292.0</ele><time>2026-04-26T13:17:08.999Z</time></trkpt><trkpt lat="45.90906457460194" lon="11.908145167680175"><ele>292.5</ele><time>2026-04-26T13:17:09.999Z</time></trkpt><trkpt lat="45.90902995349994" lon="11.90800904608687"><ele>293.0</ele><time>2026-04-26T13:17:34.999Z</time></trkpt><trkpt lat="45.90911009496911" lon="11.907969923947375"><ele>293.5</ele><time>2026-04-26T13:17:40.999Z</time></trkpt><trkpt lat="45.9091879024977" lon="11.907928327515414"><ele>294.0</ele><time>2026-04-26T13:17:42.999Z</time></trkpt><trkpt lat="45.90928842911881" lon="11.9079064185088"><ele>292.7142857142857</ele><time>2026-04-26T13:17:44.999Z</time></trkpt><trkpt lat="45.90936206474985" lon="11.90786619875646"><ele>291.42857142857144</ele><time>2026-04-26T13:17:46.999Z</time></trkpt><trkpt lat="45.90942465560151" lon="11.907823155126698"><ele>290.1428571428571</ele><time>2026-04-26T13:17:48.999Z</time></trkpt><trkpt lat="45.90948286565441" lon="11.907776353813338"><ele>288.8571428571429</ele><time>2026-04-26T13:17:50.999Z</time></trkpt><trkpt lat="45.9095405947613" lon="11.90771616115129"><ele>287.57142857142856</ele><time>2026-04-26T13:17:52.999Z</time></trkpt><trkpt lat="45.90951160673447" lon="11.907621832795442"><ele>286.2857142857143</ele><time>2026-04-26T13:17:54.999Z</time></trkpt><trkpt lat="45.90944790600068" lon="11.907612351043014"><ele>285.0</ele><time>2026-04-26T13:18:01.999Z</time></trkpt><trkpt lat="45.90955814490192" lon="11.90760106877336"><ele>285.0</ele><time>2026-04-26T13:19:22.999Z</time></trkpt><trkpt lat="45.90937844644225" lon="11.907507585704701"><ele>285.0</ele><time>2026-04-26T13:21:09.016Z</time></trkpt><trkpt lat="45.90943993574139" lon="11.907528899035864"><ele>285.0</ele><time>2026-04-26T13:21:19.999Z</time></trkpt><trkpt lat="45.9095030917721" lon="11.907570622956188"><ele>285.0</ele><time>2026-04-26T13:21:23.999Z</time></trkpt><trkpt lat="45.909392415791956" lon="11.907339294295232"><ele>285.0</ele><time>2026-04-26T13:23:26.399Z</time></trkpt><trkpt lat="45.909329014620155" lon="11.90734233458748"><ele>285.0</ele><time>2026-04-26T13:23:49Z</time></trkpt><trkpt lat="45.909301357552366" lon="11.907450008346418"><ele>285.0</ele><time>2026-04-26T13:27:51Z</time></trkpt><trkpt lat="45.909258102262825" lon="11.90751813752172"><ele>285.0</ele><time>2026-04-26T13:32:07Z</time></trkpt><trkpt lat="45.909180759019705" lon="11.90743489623567"><ele>285.0</ele><time>2026-04-26T13:45:17Z</time></trkpt><trkpt lat="45.909093813003395" lon="11.90731519216655"><ele>285.0</ele><time>2026-04-26T13:45:20Z</time></trkpt><trkpt lat="45.90929791460693" lon="11.907656767102129"><ele>285.0</ele><time>2026-04-26T13:45:31.999Z</time></trkpt><trkpt lat="45.90946591303805" lon="11.907642327347455"><ele>285.0</ele><time>2026-04-26T13:45:34.999Z</time></trkpt><trkpt lat="45.90931884268012" lon="11.907785854440304"><ele>285.0</ele><time>2026-04-26T13:46:09.999Z</time></trkpt><trkpt lat="45.90920338132687" lon="11.908267032003637"><ele>298.0</ele><time>2026-04-26T13:46:49.382Z</time></trkpt><trkpt lat="45.90900476192241" lon="11.906931654719656"><ele>298.0</ele><time>2026-04-26T13:47:31.573Z</time></trkpt></trkseg></trk></gpx>